<?xml version="1.0" encoding="UTF-8" standalone="no" ?>
<gpx xmlns="http://www.topografix.com/GPX/1/1" xmlns:xsi="http://www.w3.org/2001/XMLSchema-instance" xsi:schemaLocation="http://www.topografix.com/GPX/1/1 http://www.topografix.com/GPX/1/1/gpx.xsd" version="1.1" creator="VisuGPX - https://www.visugpx.com">
  <metadata>
    <name>2021-05-04 08:55:04 [Suunto App]</name>
  </metadata>
  <trk>
    <name><![CDATA[2021-05-04 08:55:04 [Suunto App]_1]]></name>
    <trkseg>
      <trkpt lat="45.49544" lon="6.92758">
        <ele>1798.1</ele>
        <time>2021-05-04T06:55:04Z</time>
      </trkpt>
      <trkpt lat="45.49544" lon="6.92756">
        <ele>1798.1</ele>
        <time>2021-05-04T06:55:06Z</time>
      </trkpt>
      <trkpt lat="45.49544" lon="6.92752">
        <ele>1798.2</ele>
        <time>2021-05-04T06:55:08Z</time>
      </trkpt>
      <trkpt lat="45.49544" lon="6.92748">
        <ele>1798.2</ele>
        <time>2021-05-04T06:55:10Z</time>
      </trkpt>
      <trkpt lat="45.49544" lon="6.92745">
        <ele>1798.1</ele>
        <time>2021-05-04T06:55:11Z</time>
      </trkpt>
      <trkpt lat="45.49545" lon="6.92742">
        <ele>1798.2</ele>
        <time>2021-05-04T06:55:12Z</time>
      </trkpt>
      <trkpt lat="45.49544" lon="6.92739">
        <ele>1798.1</ele>
        <time>2021-05-04T06:55:13Z</time>
      </trkpt>
      <trkpt lat="45.49544" lon="6.92736">
        <ele>1798.1</ele>
        <time>2021-05-04T06:55:14Z</time>
      </trkpt>
      <trkpt lat="45.49544" lon="6.92732">
        <ele>1798.1</ele>
        <time>2021-05-04T06:55:15Z</time>
      </trkpt>
      <trkpt lat="45.49543" lon="6.92729">
        <ele>1798</ele>
        <time>2021-05-04T06:55:16Z</time>
      </trkpt>
      <trkpt lat="45.49545" lon="6.92725">
        <ele>1798</ele>
        <time>2021-05-04T06:55:18Z</time>
      </trkpt>
      <trkpt lat="45.49547" lon="6.92723">
        <ele>1846</ele>
        <time>2021-05-04T06:55:20Z</time>
      </trkpt>
      <trkpt lat="45.49548" lon="6.92719">
        <ele>1846</ele>
        <time>2021-05-04T06:55:22Z</time>
      </trkpt>
      <trkpt lat="45.49549" lon="6.92716">
        <ele>1846</ele>
        <time>2021-05-04T06:55:24Z</time>
      </trkpt>
      <trkpt lat="45.49551" lon="6.92713">
        <ele>1846</ele>
        <time>2021-05-04T06:55:25Z</time>
      </trkpt>
      <trkpt lat="45.49552" lon="6.92711">
        <ele>1846</ele>
        <time>2021-05-04T06:55:27Z</time>
      </trkpt>
      <trkpt lat="45.49553" lon="6.92708">
        <ele>1846</ele>
        <time>2021-05-04T06:55:29Z</time>
      </trkpt>
      <trkpt lat="45.49556" lon="6.92705">
        <ele>1846</ele>
        <time>2021-05-04T06:55:31Z</time>
      </trkpt>
      <trkpt lat="45.49557" lon="6.92703">
        <ele>1846</ele>
        <time>2021-05-04T06:55:33Z</time>
      </trkpt>
      <trkpt lat="45.49559" lon="6.92701">
        <ele>1846</ele>
        <time>2021-05-04T06:55:36Z</time>
      </trkpt>
      <trkpt lat="45.4956" lon="6.92699">
        <ele>1846</ele>
        <time>2021-05-04T06:55:39Z</time>
      </trkpt>
      <trkpt lat="45.49562" lon="6.92695">
        <ele>1846</ele>
        <time>2021-05-04T06:55:42Z</time>
      </trkpt>
      <trkpt lat="45.49563" lon="6.92692">
        <ele>1846</ele>
        <time>2021-05-04T06:55:44Z</time>
      </trkpt>
      <trkpt lat="45.49563" lon="6.9269">
        <ele>1846</ele>
        <time>2021-05-04T06:55:46Z</time>
      </trkpt>
      <trkpt lat="45.49562" lon="6.92686">
        <ele>1846</ele>
        <time>2021-05-04T06:55:48Z</time>
      </trkpt>
      <trkpt lat="45.49561" lon="6.92684">
        <ele>1847.4</ele>
        <time>2021-05-04T06:55:50Z</time>
      </trkpt>
      <trkpt lat="45.4956" lon="6.92681">
        <ele>1847.4</ele>
        <time>2021-05-04T06:55:52Z</time>
      </trkpt>
      <trkpt lat="45.49559" lon="6.92678">
        <ele>1847.4</ele>
        <time>2021-05-04T06:55:54Z</time>
      </trkpt>
      <trkpt lat="45.49558" lon="6.92675">
        <ele>1847.4</ele>
        <time>2021-05-04T06:55:56Z</time>
      </trkpt>
      <trkpt lat="45.49557" lon="6.92672">
        <ele>1847.4</ele>
        <time>2021-05-04T06:55:58Z</time>
      </trkpt>
      <trkpt lat="45.49557" lon="6.92668">
        <ele>1849.2</ele>
        <time>2021-05-04T06:56:00Z</time>
      </trkpt>
      <trkpt lat="45.49556" lon="6.92665">
        <ele>1849.2</ele>
        <time>2021-05-04T06:56:02Z</time>
      </trkpt>
      <trkpt lat="45.49556" lon="6.92661">
        <ele>1849.2</ele>
        <time>2021-05-04T06:56:04Z</time>
      </trkpt>
      <trkpt lat="45.49557" lon="6.92657">
        <ele>1849.2</ele>
        <time>2021-05-04T06:56:07Z</time>
      </trkpt>
      <trkpt lat="45.49558" lon="6.92653">
        <ele>1849.2</ele>
        <time>2021-05-04T06:56:09Z</time>
      </trkpt>
      <trkpt lat="45.49559" lon="6.9265">
        <ele>1849.2</ele>
        <time>2021-05-04T06:56:11Z</time>
      </trkpt>
      <trkpt lat="45.4956" lon="6.92645">
        <ele>1849.2</ele>
        <time>2021-05-04T06:56:13Z</time>
      </trkpt>
      <trkpt lat="45.4956" lon="6.92641">
        <ele>1849.2</ele>
        <time>2021-05-04T06:56:15Z</time>
      </trkpt>
      <trkpt lat="45.49561" lon="6.92636">
        <ele>1849.2</ele>
        <time>2021-05-04T06:56:17Z</time>
      </trkpt>
      <trkpt lat="45.49561" lon="6.92632">
        <ele>1849.2</ele>
        <time>2021-05-04T06:56:19Z</time>
      </trkpt>
      <trkpt lat="45.49561" lon="6.92629">
        <ele>1850.4</ele>
        <time>2021-05-04T06:56:20Z</time>
      </trkpt>
      <trkpt lat="45.49561" lon="6.92625">
        <ele>1850.4</ele>
        <time>2021-05-04T06:56:22Z</time>
      </trkpt>
      <trkpt lat="45.49561" lon="6.92622">
        <ele>1850.4</ele>
        <time>2021-05-04T06:56:24Z</time>
      </trkpt>
      <trkpt lat="45.4956" lon="6.92618">
        <ele>1850.4</ele>
        <time>2021-05-04T06:56:26Z</time>
      </trkpt>
      <trkpt lat="45.49559" lon="6.92615">
        <ele>1850.4</ele>
        <time>2021-05-04T06:56:28Z</time>
      </trkpt>
      <trkpt lat="45.4956" lon="6.9261">
        <ele>1850.8</ele>
        <time>2021-05-04T06:56:30Z</time>
      </trkpt>
      <trkpt lat="45.4956" lon="6.92605">
        <ele>1850.8</ele>
        <time>2021-05-04T06:56:32Z</time>
      </trkpt>
      <trkpt lat="45.49561" lon="6.92601">
        <ele>1850.8</ele>
        <time>2021-05-04T06:56:34Z</time>
      </trkpt>
      <trkpt lat="45.49562" lon="6.92597">
        <ele>1850.8</ele>
        <time>2021-05-04T06:56:36Z</time>
      </trkpt>
      <trkpt lat="45.49562" lon="6.92592">
        <ele>1850.8</ele>
        <time>2021-05-04T06:56:38Z</time>
      </trkpt>
      <trkpt lat="45.49563" lon="6.92589">
        <ele>1851.6</ele>
        <time>2021-05-04T06:56:40Z</time>
      </trkpt>
      <trkpt lat="45.49563" lon="6.92586">
        <ele>1851.6</ele>
        <time>2021-05-04T06:56:42Z</time>
      </trkpt>
      <trkpt lat="45.49563" lon="6.92581">
        <ele>1851.6</ele>
        <time>2021-05-04T06:56:44Z</time>
      </trkpt>
      <trkpt lat="45.49563" lon="6.92577">
        <ele>1851.6</ele>
        <time>2021-05-04T06:56:46Z</time>
      </trkpt>
      <trkpt lat="45.49563" lon="6.92574">
        <ele>1851.6</ele>
        <time>2021-05-04T06:56:48Z</time>
      </trkpt>
      <trkpt lat="45.49563" lon="6.9257">
        <ele>1851.8</ele>
        <time>2021-05-04T06:56:50Z</time>
      </trkpt>
      <trkpt lat="45.49563" lon="6.92568">
        <ele>1851.8</ele>
        <time>2021-05-04T06:56:51Z</time>
      </trkpt>
      <trkpt lat="45.49564" lon="6.92564">
        <ele>1851.8</ele>
        <time>2021-05-04T06:56:53Z</time>
      </trkpt>
      <trkpt lat="45.49565" lon="6.92559">
        <ele>1851.8</ele>
        <time>2021-05-04T06:56:55Z</time>
      </trkpt>
      <trkpt lat="45.49567" lon="6.92555">
        <ele>1851.8</ele>
        <time>2021-05-04T06:56:57Z</time>
      </trkpt>
      <trkpt lat="45.49568" lon="6.92551">
        <ele>1851.8</ele>
        <time>2021-05-04T06:56:59Z</time>
      </trkpt>
      <trkpt lat="45.49569" lon="6.92548">
        <ele>1852</ele>
        <time>2021-05-04T06:57:00Z</time>
      </trkpt>
      <trkpt lat="45.4957" lon="6.92544">
        <ele>1852</ele>
        <time>2021-05-04T06:57:02Z</time>
      </trkpt>
      <trkpt lat="45.49571" lon="6.9254">
        <ele>1852</ele>
        <time>2021-05-04T06:57:04Z</time>
      </trkpt>
      <trkpt lat="45.49572" lon="6.92536">
        <ele>1852</ele>
        <time>2021-05-04T06:57:06Z</time>
      </trkpt>
      <trkpt lat="45.49572" lon="6.92532">
        <ele>1852</ele>
        <time>2021-05-04T06:57:08Z</time>
      </trkpt>
      <trkpt lat="45.49571" lon="6.92527">
        <ele>1851.2</ele>
        <time>2021-05-04T06:57:10Z</time>
      </trkpt>
      <trkpt lat="45.4957" lon="6.92523">
        <ele>1851.2</ele>
        <time>2021-05-04T06:57:12Z</time>
      </trkpt>
      <trkpt lat="45.4957" lon="6.92521">
        <ele>1851.2</ele>
        <time>2021-05-04T06:57:13Z</time>
      </trkpt>
      <trkpt lat="45.49569" lon="6.92517">
        <ele>1851.2</ele>
        <time>2021-05-04T06:57:15Z</time>
      </trkpt>
      <trkpt lat="45.49569" lon="6.92513">
        <ele>1851.2</ele>
        <time>2021-05-04T06:57:17Z</time>
      </trkpt>
      <trkpt lat="45.49568" lon="6.9251">
        <ele>1851.2</ele>
        <time>2021-05-04T06:57:18Z</time>
      </trkpt>
      <trkpt lat="45.49567" lon="6.92506">
        <ele>1850.4</ele>
        <time>2021-05-04T06:57:20Z</time>
      </trkpt>
      <trkpt lat="45.49566" lon="6.92502">
        <ele>1850.4</ele>
        <time>2021-05-04T06:57:22Z</time>
      </trkpt>
      <trkpt lat="45.49566" lon="6.92499">
        <ele>1850.4</ele>
        <time>2021-05-04T06:57:23Z</time>
      </trkpt>
      <trkpt lat="45.49566" lon="6.92496">
        <ele>1850.4</ele>
        <time>2021-05-04T06:57:24Z</time>
      </trkpt>
      <trkpt lat="45.49565" lon="6.92493">
        <ele>1850.4</ele>
        <time>2021-05-04T06:57:26Z</time>
      </trkpt>
      <trkpt lat="45.49564" lon="6.92489">
        <ele>1850.4</ele>
        <time>2021-05-04T06:57:28Z</time>
      </trkpt>
      <trkpt lat="45.49563" lon="6.92485">
        <ele>1850.2</ele>
        <time>2021-05-04T06:57:30Z</time>
      </trkpt>
      <trkpt lat="45.49562" lon="6.92481">
        <ele>1850.2</ele>
        <time>2021-05-04T06:57:32Z</time>
      </trkpt>
      <trkpt lat="45.49561" lon="6.92478">
        <ele>1850.2</ele>
        <time>2021-05-04T06:57:34Z</time>
      </trkpt>
      <trkpt lat="45.49559" lon="6.92476">
        <ele>1850.2</ele>
        <time>2021-05-04T06:57:35Z</time>
      </trkpt>
      <trkpt lat="45.49557" lon="6.92474">
        <ele>1850.2</ele>
        <time>2021-05-04T06:57:36Z</time>
      </trkpt>
      <trkpt lat="45.49557" lon="6.92471">
        <ele>1850.2</ele>
        <time>2021-05-04T06:57:37Z</time>
      </trkpt>
      <trkpt lat="45.49555" lon="6.9247">
        <ele>1850.2</ele>
        <time>2021-05-04T06:57:39Z</time>
      </trkpt>
      <trkpt lat="45.49554" lon="6.92467">
        <ele>1850.2</ele>
        <time>2021-05-04T06:57:41Z</time>
      </trkpt>
      <trkpt lat="45.49555" lon="6.92463">
        <ele>1850.2</ele>
        <time>2021-05-04T06:57:43Z</time>
      </trkpt>
      <trkpt lat="45.49555" lon="6.9246">
        <ele>1850.2</ele>
        <time>2021-05-04T06:57:45Z</time>
      </trkpt>
      <trkpt lat="45.49555" lon="6.92456">
        <ele>1850.2</ele>
        <time>2021-05-04T06:57:47Z</time>
      </trkpt>
      <trkpt lat="45.49556" lon="6.92453">
        <ele>1850.2</ele>
        <time>2021-05-04T06:57:49Z</time>
      </trkpt>
      <trkpt lat="45.49556" lon="6.9245">
        <ele>1852.6</ele>
        <time>2021-05-04T06:57:50Z</time>
      </trkpt>
      <trkpt lat="45.49557" lon="6.92447">
        <ele>1852.6</ele>
        <time>2021-05-04T06:57:52Z</time>
      </trkpt>
      <trkpt lat="45.49557" lon="6.92444">
        <ele>1852.6</ele>
        <time>2021-05-04T06:57:54Z</time>
      </trkpt>
      <trkpt lat="45.49557" lon="6.9244">
        <ele>1852.6</ele>
        <time>2021-05-04T06:57:56Z</time>
      </trkpt>
      <trkpt lat="45.49558" lon="6.92437">
        <ele>1852.6</ele>
        <time>2021-05-04T06:57:57Z</time>
      </trkpt>
      <trkpt lat="45.49559" lon="6.92434">
        <ele>1852.6</ele>
        <time>2021-05-04T06:57:59Z</time>
      </trkpt>
      <trkpt lat="45.49561" lon="6.9243">
        <ele>1852.6</ele>
        <time>2021-05-04T06:58:01Z</time>
      </trkpt>
      <trkpt lat="45.49563" lon="6.92426">
        <ele>1852.6</ele>
        <time>2021-05-04T06:58:03Z</time>
      </trkpt>
      <trkpt lat="45.49564" lon="6.92424">
        <ele>1852.6</ele>
        <time>2021-05-04T06:58:05Z</time>
      </trkpt>
      <trkpt lat="45.49565" lon="6.92422">
        <ele>1852.6</ele>
        <time>2021-05-04T06:58:08Z</time>
      </trkpt>
      <trkpt lat="45.49566" lon="6.9242">
        <ele>1852.6</ele>
        <time>2021-05-04T06:58:11Z</time>
      </trkpt>
      <trkpt lat="45.49567" lon="6.92416">
        <ele>1852.6</ele>
        <time>2021-05-04T06:58:13Z</time>
      </trkpt>
      <trkpt lat="45.49568" lon="6.92412">
        <ele>1852.6</ele>
        <time>2021-05-04T06:58:15Z</time>
      </trkpt>
      <trkpt lat="45.49568" lon="6.9241">
        <ele>1852.6</ele>
        <time>2021-05-04T06:58:17Z</time>
      </trkpt>
      <trkpt lat="45.49569" lon="6.92407">
        <ele>1852.6</ele>
        <time>2021-05-04T06:58:19Z</time>
      </trkpt>
      <trkpt lat="45.4957" lon="6.92403">
        <ele>1852.6</ele>
        <time>2021-05-04T06:58:21Z</time>
      </trkpt>
      <trkpt lat="45.4957" lon="6.924">
        <ele>1852.6</ele>
        <time>2021-05-04T06:58:23Z</time>
      </trkpt>
      <trkpt lat="45.49571" lon="6.92396">
        <ele>1852.6</ele>
        <time>2021-05-04T06:58:25Z</time>
      </trkpt>
      <trkpt lat="45.49573" lon="6.92392">
        <ele>1852.6</ele>
        <time>2021-05-04T06:58:27Z</time>
      </trkpt>
      <trkpt lat="45.49574" lon="6.92389">
        <ele>1852.6</ele>
        <time>2021-05-04T06:58:29Z</time>
      </trkpt>
      <trkpt lat="45.49576" lon="6.92386">
        <ele>1852.6</ele>
        <time>2021-05-04T06:58:32Z</time>
      </trkpt>
      <trkpt lat="45.49578" lon="6.92384">
        <ele>1852.6</ele>
        <time>2021-05-04T06:58:35Z</time>
      </trkpt>
      <trkpt lat="45.49579" lon="6.92381">
        <ele>1852.6</ele>
        <time>2021-05-04T06:58:37Z</time>
      </trkpt>
      <trkpt lat="45.49581" lon="6.9238">
        <ele>1852.6</ele>
        <time>2021-05-04T06:58:38Z</time>
      </trkpt>
      <trkpt lat="45.49582" lon="6.92379">
        <ele>1863.6</ele>
        <time>2021-05-04T06:58:40Z</time>
      </trkpt>
      <trkpt lat="45.49584" lon="6.92377">
        <ele>1863.6</ele>
        <time>2021-05-04T06:58:42Z</time>
      </trkpt>
      <trkpt lat="45.49586" lon="6.92375">
        <ele>1863.6</ele>
        <time>2021-05-04T06:58:44Z</time>
      </trkpt>
      <trkpt lat="45.49588" lon="6.92374">
        <ele>1863.6</ele>
        <time>2021-05-04T06:58:46Z</time>
      </trkpt>
      <trkpt lat="45.49589" lon="6.92372">
        <ele>1863.6</ele>
        <time>2021-05-04T06:58:48Z</time>
      </trkpt>
      <trkpt lat="45.49591" lon="6.9237">
        <ele>1865.8</ele>
        <time>2021-05-04T06:58:50Z</time>
      </trkpt>
      <trkpt lat="45.49593" lon="6.92369">
        <ele>1865.8</ele>
        <time>2021-05-04T06:58:53Z</time>
      </trkpt>
      <trkpt lat="45.49595" lon="6.92366">
        <ele>1865.8</ele>
        <time>2021-05-04T06:58:56Z</time>
      </trkpt>
      <trkpt lat="45.49597" lon="6.92362">
        <ele>1865.8</ele>
        <time>2021-05-04T06:58:59Z</time>
      </trkpt>
      <trkpt lat="45.49598" lon="6.92359">
        <ele>1865.8</ele>
        <time>2021-05-04T06:59:01Z</time>
      </trkpt>
      <trkpt lat="45.496" lon="6.92356">
        <ele>1865.8</ele>
        <time>2021-05-04T06:59:03Z</time>
      </trkpt>
      <trkpt lat="45.49601" lon="6.92354">
        <ele>1865.8</ele>
        <time>2021-05-04T06:59:05Z</time>
      </trkpt>
      <trkpt lat="45.49603" lon="6.92351">
        <ele>1865.8</ele>
        <time>2021-05-04T06:59:07Z</time>
      </trkpt>
      <trkpt lat="45.49604" lon="6.92348">
        <ele>1865.8</ele>
        <time>2021-05-04T06:59:09Z</time>
      </trkpt>
      <trkpt lat="45.49605" lon="6.92346">
        <ele>1865.8</ele>
        <time>2021-05-04T06:59:11Z</time>
      </trkpt>
      <trkpt lat="45.49606" lon="6.92344">
        <ele>1865.8</ele>
        <time>2021-05-04T06:59:12Z</time>
      </trkpt>
      <trkpt lat="45.49607" lon="6.92342">
        <ele>1865.8</ele>
        <time>2021-05-04T06:59:14Z</time>
      </trkpt>
      <trkpt lat="45.4961" lon="6.92339">
        <ele>1865.8</ele>
        <time>2021-05-04T06:59:16Z</time>
      </trkpt>
      <trkpt lat="45.49612" lon="6.92336">
        <ele>1865.8</ele>
        <time>2021-05-04T06:59:18Z</time>
      </trkpt>
      <trkpt lat="45.49613" lon="6.92333">
        <ele>1873</ele>
        <time>2021-05-04T06:59:20Z</time>
      </trkpt>
      <trkpt lat="45.49614" lon="6.92331">
        <ele>1873</ele>
        <time>2021-05-04T06:59:21Z</time>
      </trkpt>
      <trkpt lat="45.49616" lon="6.92328">
        <ele>1873</ele>
        <time>2021-05-04T06:59:23Z</time>
      </trkpt>
      <trkpt lat="45.49618" lon="6.92325">
        <ele>1873</ele>
        <time>2021-05-04T06:59:25Z</time>
      </trkpt>
      <trkpt lat="45.49619" lon="6.92324">
        <ele>1873</ele>
        <time>2021-05-04T06:59:27Z</time>
      </trkpt>
      <trkpt lat="45.49621" lon="6.92322">
        <ele>1873</ele>
        <time>2021-05-04T06:59:29Z</time>
      </trkpt>
      <trkpt lat="45.49622" lon="6.9232">
        <ele>1874.8</ele>
        <time>2021-05-04T06:59:30Z</time>
      </trkpt>
      <trkpt lat="45.49623" lon="6.92318">
        <ele>1874.8</ele>
        <time>2021-05-04T06:59:32Z</time>
      </trkpt>
      <trkpt lat="45.49625" lon="6.92315">
        <ele>1874.8</ele>
        <time>2021-05-04T06:59:34Z</time>
      </trkpt>
      <trkpt lat="45.49623" lon="6.92314">
        <ele>1874.8</ele>
        <time>2021-05-04T06:59:36Z</time>
      </trkpt>
      <trkpt lat="45.49621" lon="6.92313">
        <ele>1874.8</ele>
        <time>2021-05-04T06:59:38Z</time>
      </trkpt>
      <trkpt lat="45.49618" lon="6.92313">
        <ele>1877.6</ele>
        <time>2021-05-04T06:59:40Z</time>
      </trkpt>
      <trkpt lat="45.49615" lon="6.92314">
        <ele>1877.6</ele>
        <time>2021-05-04T06:59:42Z</time>
      </trkpt>
      <trkpt lat="45.49613" lon="6.92316">
        <ele>1877.6</ele>
        <time>2021-05-04T06:59:43Z</time>
      </trkpt>
      <trkpt lat="45.49612" lon="6.92316">
        <ele>1877.6</ele>
        <time>2021-05-04T06:59:45Z</time>
      </trkpt>
      <trkpt lat="45.49609" lon="6.92316">
        <ele>1877.6</ele>
        <time>2021-05-04T06:59:47Z</time>
      </trkpt>
      <trkpt lat="45.49606" lon="6.92316">
        <ele>1877.6</ele>
        <time>2021-05-04T06:59:49Z</time>
      </trkpt>
      <trkpt lat="45.49604" lon="6.92315">
        <ele>1877.6</ele>
        <time>2021-05-04T06:59:52Z</time>
      </trkpt>
      <trkpt lat="45.49601" lon="6.92314">
        <ele>1877.6</ele>
        <time>2021-05-04T06:59:54Z</time>
      </trkpt>
      <trkpt lat="45.49599" lon="6.92315">
        <ele>1877.6</ele>
        <time>2021-05-04T06:59:56Z</time>
      </trkpt>
      <trkpt lat="45.49597" lon="6.92314">
        <ele>1877.6</ele>
        <time>2021-05-04T06:59:58Z</time>
      </trkpt>
      <trkpt lat="45.49595" lon="6.92312">
        <ele>1877.6</ele>
        <time>2021-05-04T07:00:00Z</time>
      </trkpt>
      <trkpt lat="45.49593" lon="6.92311">
        <ele>1877.6</ele>
        <time>2021-05-04T07:00:03Z</time>
      </trkpt>
      <trkpt lat="45.49591" lon="6.9231">
        <ele>1877.6</ele>
        <time>2021-05-04T07:00:05Z</time>
      </trkpt>
      <trkpt lat="45.49588" lon="6.92309">
        <ele>1877.6</ele>
        <time>2021-05-04T07:00:07Z</time>
      </trkpt>
      <trkpt lat="45.49587" lon="6.92308">
        <ele>1877.6</ele>
        <time>2021-05-04T07:00:09Z</time>
      </trkpt>
      <trkpt lat="45.49585" lon="6.92305">
        <ele>1877.6</ele>
        <time>2021-05-04T07:00:11Z</time>
      </trkpt>
      <trkpt lat="45.49582" lon="6.92304">
        <ele>1877.6</ele>
        <time>2021-05-04T07:00:13Z</time>
      </trkpt>
      <trkpt lat="45.4958" lon="6.92301">
        <ele>1877.6</ele>
        <time>2021-05-04T07:00:15Z</time>
      </trkpt>
      <trkpt lat="45.49577" lon="6.923">
        <ele>1877.6</ele>
        <time>2021-05-04T07:00:17Z</time>
      </trkpt>
      <trkpt lat="45.49575" lon="6.92298">
        <ele>1877.6</ele>
        <time>2021-05-04T07:00:19Z</time>
      </trkpt>
      <trkpt lat="45.49574" lon="6.92296">
        <ele>1877.6</ele>
        <time>2021-05-04T07:00:21Z</time>
      </trkpt>
      <trkpt lat="45.49571" lon="6.92297">
        <ele>1877.6</ele>
        <time>2021-05-04T07:00:23Z</time>
      </trkpt>
      <trkpt lat="45.49569" lon="6.92298">
        <ele>1877.6</ele>
        <time>2021-05-04T07:00:25Z</time>
      </trkpt>
      <trkpt lat="45.49567" lon="6.92297">
        <ele>1877.6</ele>
        <time>2021-05-04T07:00:27Z</time>
      </trkpt>
      <trkpt lat="45.49566" lon="6.92296">
        <ele>1877.6</ele>
        <time>2021-05-04T07:00:29Z</time>
      </trkpt>
      <trkpt lat="45.49565" lon="6.92292">
        <ele>1877.6</ele>
        <time>2021-05-04T07:00:31Z</time>
      </trkpt>
      <trkpt lat="45.49564" lon="6.92289">
        <ele>1877.6</ele>
        <time>2021-05-04T07:00:33Z</time>
      </trkpt>
      <trkpt lat="45.49563" lon="6.92284">
        <ele>1877.6</ele>
        <time>2021-05-04T07:00:35Z</time>
      </trkpt>
      <trkpt lat="45.49564" lon="6.92279">
        <ele>1877.6</ele>
        <time>2021-05-04T07:00:37Z</time>
      </trkpt>
      <trkpt lat="45.49565" lon="6.92276">
        <ele>1877.6</ele>
        <time>2021-05-04T07:00:38Z</time>
      </trkpt>
      <trkpt lat="45.49563" lon="6.92273">
        <ele>1887.6</ele>
        <time>2021-05-04T07:00:40Z</time>
      </trkpt>
      <trkpt lat="45.49561" lon="6.9227">
        <ele>1887.6</ele>
        <time>2021-05-04T07:00:42Z</time>
      </trkpt>
      <trkpt lat="45.4956" lon="6.92266">
        <ele>1887.6</ele>
        <time>2021-05-04T07:00:44Z</time>
      </trkpt>
      <trkpt lat="45.49559" lon="6.92262">
        <ele>1887.6</ele>
        <time>2021-05-04T07:00:46Z</time>
      </trkpt>
      <trkpt lat="45.49558" lon="6.92258">
        <ele>1887.6</ele>
        <time>2021-05-04T07:00:48Z</time>
      </trkpt>
      <trkpt lat="45.49557" lon="6.92255">
        <ele>1888.4</ele>
        <time>2021-05-04T07:00:50Z</time>
      </trkpt>
      <trkpt lat="45.49556" lon="6.9225">
        <ele>1888.4</ele>
        <time>2021-05-04T07:00:52Z</time>
      </trkpt>
      <trkpt lat="45.49555" lon="6.92246">
        <ele>1888.4</ele>
        <time>2021-05-04T07:00:54Z</time>
      </trkpt>
      <trkpt lat="45.49554" lon="6.92243">
        <ele>1888.4</ele>
        <time>2021-05-04T07:00:56Z</time>
      </trkpt>
      <trkpt lat="45.49553" lon="6.92239">
        <ele>1888.4</ele>
        <time>2021-05-04T07:00:58Z</time>
      </trkpt>
      <trkpt lat="45.49552" lon="6.92236">
        <ele>1890</ele>
        <time>2021-05-04T07:01:00Z</time>
      </trkpt>
      <trkpt lat="45.49551" lon="6.92232">
        <ele>1890</ele>
        <time>2021-05-04T07:01:02Z</time>
      </trkpt>
      <trkpt lat="45.4955" lon="6.92229">
        <ele>1890</ele>
        <time>2021-05-04T07:01:04Z</time>
      </trkpt>
      <trkpt lat="45.49549" lon="6.92226">
        <ele>1890</ele>
        <time>2021-05-04T07:01:06Z</time>
      </trkpt>
      <trkpt lat="45.49548" lon="6.92223">
        <ele>1890</ele>
        <time>2021-05-04T07:01:08Z</time>
      </trkpt>
      <trkpt lat="45.49547" lon="6.9222">
        <ele>1890.4</ele>
        <time>2021-05-04T07:01:10Z</time>
      </trkpt>
      <trkpt lat="45.49547" lon="6.92217">
        <ele>1890.4</ele>
        <time>2021-05-04T07:01:12Z</time>
      </trkpt>
      <trkpt lat="45.49546" lon="6.92214">
        <ele>1890.4</ele>
        <time>2021-05-04T07:01:14Z</time>
      </trkpt>
      <trkpt lat="45.49545" lon="6.9221">
        <ele>1890.4</ele>
        <time>2021-05-04T07:01:16Z</time>
      </trkpt>
      <trkpt lat="45.49545" lon="6.92207">
        <ele>1890.4</ele>
        <time>2021-05-04T07:01:18Z</time>
      </trkpt>
      <trkpt lat="45.49545" lon="6.92204">
        <ele>1891</ele>
        <time>2021-05-04T07:01:20Z</time>
      </trkpt>
      <trkpt lat="45.49546" lon="6.92201">
        <ele>1891</ele>
        <time>2021-05-04T07:01:22Z</time>
      </trkpt>
      <trkpt lat="45.49546" lon="6.92199">
        <ele>1891</ele>
        <time>2021-05-04T07:01:24Z</time>
      </trkpt>
      <trkpt lat="45.49546" lon="6.92196">
        <ele>1891</ele>
        <time>2021-05-04T07:01:26Z</time>
      </trkpt>
      <trkpt lat="45.49544" lon="6.92194">
        <ele>1891</ele>
        <time>2021-05-04T07:01:29Z</time>
      </trkpt>
      <trkpt lat="45.49543" lon="6.92191">
        <ele>1891</ele>
        <time>2021-05-04T07:01:31Z</time>
      </trkpt>
      <trkpt lat="45.49541" lon="6.9219">
        <ele>1891</ele>
        <time>2021-05-04T07:01:35Z</time>
      </trkpt>
      <trkpt lat="45.4954" lon="6.9219">
        <ele>1891</ele>
        <time>2021-05-04T07:01:38Z</time>
      </trkpt>
      <trkpt lat="45.49537" lon="6.92192">
        <ele>1894.4</ele>
        <time>2021-05-04T07:01:40Z</time>
      </trkpt>
      <trkpt lat="45.49535" lon="6.92192">
        <ele>1894.4</ele>
        <time>2021-05-04T07:01:43Z</time>
      </trkpt>
      <trkpt lat="45.49534" lon="6.92194">
        <ele>1894.4</ele>
        <time>2021-05-04T07:01:46Z</time>
      </trkpt>
      <trkpt lat="45.49531" lon="6.92194">
        <ele>1894.4</ele>
        <time>2021-05-04T07:01:59Z</time>
      </trkpt>
      <trkpt lat="45.49529" lon="6.92195">
        <ele>1894.4</ele>
        <time>2021-05-04T07:02:01Z</time>
      </trkpt>
      <trkpt lat="45.49527" lon="6.92195">
        <ele>1894.4</ele>
        <time>2021-05-04T07:02:03Z</time>
      </trkpt>
      <trkpt lat="45.49525" lon="6.92196">
        <ele>1894.4</ele>
        <time>2021-05-04T07:02:05Z</time>
      </trkpt>
      <trkpt lat="45.49522" lon="6.92196">
        <ele>1894.4</ele>
        <time>2021-05-04T07:02:07Z</time>
      </trkpt>
      <trkpt lat="45.4952" lon="6.92196">
        <ele>1894.4</ele>
        <time>2021-05-04T07:02:09Z</time>
      </trkpt>
      <trkpt lat="45.49518" lon="6.92196">
        <ele>1894.4</ele>
        <time>2021-05-04T07:02:11Z</time>
      </trkpt>
      <trkpt lat="45.49516" lon="6.92196">
        <ele>1894.4</ele>
        <time>2021-05-04T07:02:14Z</time>
      </trkpt>
      <trkpt lat="45.49513" lon="6.92198">
        <ele>1894.4</ele>
        <time>2021-05-04T07:02:16Z</time>
      </trkpt>
      <trkpt lat="45.4951" lon="6.922">
        <ele>1894.4</ele>
        <time>2021-05-04T07:02:18Z</time>
      </trkpt>
      <trkpt lat="45.49508" lon="6.922">
        <ele>1890.4</ele>
        <time>2021-05-04T07:02:20Z</time>
      </trkpt>
      <trkpt lat="45.49505" lon="6.92201">
        <ele>1890.4</ele>
        <time>2021-05-04T07:02:23Z</time>
      </trkpt>
      <trkpt lat="45.49503" lon="6.92202">
        <ele>1890.4</ele>
        <time>2021-05-04T07:02:25Z</time>
      </trkpt>
      <trkpt lat="45.49501" lon="6.92203">
        <ele>1890.4</ele>
        <time>2021-05-04T07:02:27Z</time>
      </trkpt>
      <trkpt lat="45.49499" lon="6.92204">
        <ele>1890.4</ele>
        <time>2021-05-04T07:02:29Z</time>
      </trkpt>
      <trkpt lat="45.49496" lon="6.92204">
        <ele>1890.4</ele>
        <time>2021-05-04T07:02:31Z</time>
      </trkpt>
      <trkpt lat="45.49494" lon="6.92203">
        <ele>1890.4</ele>
        <time>2021-05-04T07:02:33Z</time>
      </trkpt>
      <trkpt lat="45.49492" lon="6.92203">
        <ele>1890.4</ele>
        <time>2021-05-04T07:02:35Z</time>
      </trkpt>
      <trkpt lat="45.4949" lon="6.92203">
        <ele>1890.4</ele>
        <time>2021-05-04T07:02:37Z</time>
      </trkpt>
      <trkpt lat="45.49487" lon="6.92204">
        <ele>1890.4</ele>
        <time>2021-05-04T07:02:39Z</time>
      </trkpt>
      <trkpt lat="45.49485" lon="6.92203">
        <ele>1890.4</ele>
        <time>2021-05-04T07:02:41Z</time>
      </trkpt>
      <trkpt lat="45.49483" lon="6.92203">
        <ele>1890.4</ele>
        <time>2021-05-04T07:02:43Z</time>
      </trkpt>
      <trkpt lat="45.4948" lon="6.92203">
        <ele>1890.4</ele>
        <time>2021-05-04T07:02:45Z</time>
      </trkpt>
      <trkpt lat="45.49478" lon="6.92204">
        <ele>1890.4</ele>
        <time>2021-05-04T07:02:47Z</time>
      </trkpt>
      <trkpt lat="45.49476" lon="6.92203">
        <ele>1890.4</ele>
        <time>2021-05-04T07:02:49Z</time>
      </trkpt>
      <trkpt lat="45.49474" lon="6.92202">
        <ele>1890.4</ele>
        <time>2021-05-04T07:02:51Z</time>
      </trkpt>
      <trkpt lat="45.49472" lon="6.92202">
        <ele>1890.4</ele>
        <time>2021-05-04T07:02:53Z</time>
      </trkpt>
      <trkpt lat="45.49469" lon="6.92201">
        <ele>1890.4</ele>
        <time>2021-05-04T07:02:55Z</time>
      </trkpt>
      <trkpt lat="45.49467" lon="6.92201">
        <ele>1890.4</ele>
        <time>2021-05-04T07:02:57Z</time>
      </trkpt>
      <trkpt lat="45.49464" lon="6.92201">
        <ele>1890.4</ele>
        <time>2021-05-04T07:02:59Z</time>
      </trkpt>
      <trkpt lat="45.49462" lon="6.922">
        <ele>1890.4</ele>
        <time>2021-05-04T07:03:01Z</time>
      </trkpt>
      <trkpt lat="45.49459" lon="6.922">
        <ele>1890.4</ele>
        <time>2021-05-04T07:03:03Z</time>
      </trkpt>
      <trkpt lat="45.49456" lon="6.922">
        <ele>1890.4</ele>
        <time>2021-05-04T07:03:06Z</time>
      </trkpt>
      <trkpt lat="45.49453" lon="6.922">
        <ele>1890.4</ele>
        <time>2021-05-04T07:03:08Z</time>
      </trkpt>
      <trkpt lat="45.49451" lon="6.922">
        <ele>1876</ele>
        <time>2021-05-04T07:03:10Z</time>
      </trkpt>
      <trkpt lat="45.49448" lon="6.922">
        <ele>1876</ele>
        <time>2021-05-04T07:03:13Z</time>
      </trkpt>
      <trkpt lat="45.49446" lon="6.922">
        <ele>1876</ele>
        <time>2021-05-04T07:03:15Z</time>
      </trkpt>
      <trkpt lat="45.49444" lon="6.92199">
        <ele>1876</ele>
        <time>2021-05-04T07:03:17Z</time>
      </trkpt>
      <trkpt lat="45.49442" lon="6.92197">
        <ele>1876</ele>
        <time>2021-05-04T07:03:19Z</time>
      </trkpt>
      <trkpt lat="45.4944" lon="6.92196">
        <ele>1876</ele>
        <time>2021-05-04T07:03:21Z</time>
      </trkpt>
      <trkpt lat="45.49438" lon="6.92194">
        <ele>1876</ele>
        <time>2021-05-04T07:03:24Z</time>
      </trkpt>
      <trkpt lat="45.49436" lon="6.92192">
        <ele>1876</ele>
        <time>2021-05-04T07:03:27Z</time>
      </trkpt>
      <trkpt lat="45.49434" lon="6.92191">
        <ele>1876</ele>
        <time>2021-05-04T07:03:29Z</time>
      </trkpt>
      <trkpt lat="45.49432" lon="6.92191">
        <ele>1876</ele>
        <time>2021-05-04T07:03:31Z</time>
      </trkpt>
      <trkpt lat="45.49431" lon="6.92188">
        <ele>1876</ele>
        <time>2021-05-04T07:03:34Z</time>
      </trkpt>
      <trkpt lat="45.49432" lon="6.92185">
        <ele>1876</ele>
        <time>2021-05-04T07:03:37Z</time>
      </trkpt>
      <trkpt lat="45.49431" lon="6.92182">
        <ele>1876</ele>
        <time>2021-05-04T07:03:39Z</time>
      </trkpt>
      <trkpt lat="45.4943" lon="6.92178">
        <ele>1876</ele>
        <time>2021-05-04T07:03:43Z</time>
      </trkpt>
      <trkpt lat="45.4943" lon="6.92176">
        <ele>1876</ele>
        <time>2021-05-04T07:03:46Z</time>
      </trkpt>
      <trkpt lat="45.49431" lon="6.92172">
        <ele>1876</ele>
        <time>2021-05-04T07:03:49Z</time>
      </trkpt>
      <trkpt lat="45.49431" lon="6.92169">
        <ele>1876</ele>
        <time>2021-05-04T07:03:52Z</time>
      </trkpt>
      <trkpt lat="45.49431" lon="6.92166">
        <ele>1876</ele>
        <time>2021-05-04T07:03:54Z</time>
      </trkpt>
      <trkpt lat="45.49432" lon="6.92163">
        <ele>1876</ele>
        <time>2021-05-04T07:03:57Z</time>
      </trkpt>
      <trkpt lat="45.49432" lon="6.92161">
        <ele>1876</ele>
        <time>2021-05-04T07:04:01Z</time>
      </trkpt>
      <trkpt lat="45.49434" lon="6.92158">
        <ele>1876</ele>
        <time>2021-05-04T07:04:04Z</time>
      </trkpt>
      <trkpt lat="45.49434" lon="6.92154">
        <ele>1876</ele>
        <time>2021-05-04T07:04:09Z</time>
      </trkpt>
      <trkpt lat="45.49434" lon="6.92152">
        <ele>1876</ele>
        <time>2021-05-04T07:04:13Z</time>
      </trkpt>
      <trkpt lat="45.49434" lon="6.92149">
        <ele>1876</ele>
        <time>2021-05-04T07:04:18Z</time>
      </trkpt>
      <trkpt lat="45.49435" lon="6.92146">
        <ele>1876</ele>
        <time>2021-05-04T07:04:22Z</time>
      </trkpt>
      <trkpt lat="45.49434" lon="6.92143">
        <ele>1876</ele>
        <time>2021-05-04T07:04:28Z</time>
      </trkpt>
      <trkpt lat="45.49434" lon="6.9214">
        <ele>1876</ele>
        <time>2021-05-04T07:04:32Z</time>
      </trkpt>
      <trkpt lat="45.49435" lon="6.92137">
        <ele>1876</ele>
        <time>2021-05-04T07:04:38Z</time>
      </trkpt>
      <trkpt lat="45.49436" lon="6.92135">
        <ele>1876.4</ele>
        <time>2021-05-04T07:04:40Z</time>
      </trkpt>
      <trkpt lat="45.49438" lon="6.92133">
        <ele>1876.4</ele>
        <time>2021-05-04T07:04:42Z</time>
      </trkpt>
      <trkpt lat="45.4944" lon="6.92132">
        <ele>1876.4</ele>
        <time>2021-05-04T07:04:44Z</time>
      </trkpt>
      <trkpt lat="45.49442" lon="6.9213">
        <ele>1876.4</ele>
        <time>2021-05-04T07:04:47Z</time>
      </trkpt>
      <trkpt lat="45.49444" lon="6.92127">
        <ele>1877.4</ele>
        <time>2021-05-04T07:04:50Z</time>
      </trkpt>
      <trkpt lat="45.49444" lon="6.92124">
        <ele>1877.4</ele>
        <time>2021-05-04T07:04:52Z</time>
      </trkpt>
      <trkpt lat="45.49444" lon="6.92121">
        <ele>1877.4</ele>
        <time>2021-05-04T07:04:54Z</time>
      </trkpt>
      <trkpt lat="45.49444" lon="6.92118">
        <ele>1877.4</ele>
        <time>2021-05-04T07:04:58Z</time>
      </trkpt>
      <trkpt lat="45.49442" lon="6.92116">
        <ele>1877.4</ele>
        <time>2021-05-04T07:05:01Z</time>
      </trkpt>
      <trkpt lat="45.4944" lon="6.92114">
        <ele>1877.4</ele>
        <time>2021-05-04T07:05:04Z</time>
      </trkpt>
      <trkpt lat="45.49438" lon="6.92114">
        <ele>1877.4</ele>
        <time>2021-05-04T07:05:06Z</time>
      </trkpt>
      <trkpt lat="45.49435" lon="6.92114">
        <ele>1877.4</ele>
        <time>2021-05-04T07:05:09Z</time>
      </trkpt>
      <trkpt lat="45.49432" lon="6.92114">
        <ele>1877.4</ele>
        <time>2021-05-04T07:05:12Z</time>
      </trkpt>
      <trkpt lat="45.49429" lon="6.92116">
        <ele>1877.4</ele>
        <time>2021-05-04T07:05:15Z</time>
      </trkpt>
      <trkpt lat="45.49427" lon="6.92117">
        <ele>1877.4</ele>
        <time>2021-05-04T07:05:18Z</time>
      </trkpt>
      <trkpt lat="45.49425" lon="6.92118">
        <ele>1877.4</ele>
        <time>2021-05-04T07:05:21Z</time>
      </trkpt>
      <trkpt lat="45.49422" lon="6.92118">
        <ele>1877.4</ele>
        <time>2021-05-04T07:05:24Z</time>
      </trkpt>
      <trkpt lat="45.4942" lon="6.92118">
        <ele>1877.4</ele>
        <time>2021-05-04T07:05:26Z</time>
      </trkpt>
      <trkpt lat="45.49418" lon="6.92119">
        <ele>1877.4</ele>
        <time>2021-05-04T07:05:28Z</time>
      </trkpt>
      <trkpt lat="45.49415" lon="6.92119">
        <ele>1877.4</ele>
        <time>2021-05-04T07:05:31Z</time>
      </trkpt>
      <trkpt lat="45.49413" lon="6.9212">
        <ele>1877.4</ele>
        <time>2021-05-04T07:05:33Z</time>
      </trkpt>
      <trkpt lat="45.49411" lon="6.92122">
        <ele>1877.4</ele>
        <time>2021-05-04T07:05:35Z</time>
      </trkpt>
      <trkpt lat="45.49408" lon="6.92121">
        <ele>1877.4</ele>
        <time>2021-05-04T07:05:37Z</time>
      </trkpt>
      <trkpt lat="45.49406" lon="6.9212">
        <ele>1885.4</ele>
        <time>2021-05-04T07:05:40Z</time>
      </trkpt>
      <trkpt lat="45.49404" lon="6.9212">
        <ele>1885.4</ele>
        <time>2021-05-04T07:05:42Z</time>
      </trkpt>
      <trkpt lat="45.49401" lon="6.92121">
        <ele>1885.4</ele>
        <time>2021-05-04T07:05:44Z</time>
      </trkpt>
      <trkpt lat="45.49399" lon="6.92121">
        <ele>1885.4</ele>
        <time>2021-05-04T07:05:46Z</time>
      </trkpt>
      <trkpt lat="45.49397" lon="6.9212">
        <ele>1885.4</ele>
        <time>2021-05-04T07:05:48Z</time>
      </trkpt>
      <trkpt lat="45.49395" lon="6.9212">
        <ele>1886.2</ele>
        <time>2021-05-04T07:05:50Z</time>
      </trkpt>
      <trkpt lat="45.49393" lon="6.92121">
        <ele>1886.2</ele>
        <time>2021-05-04T07:05:52Z</time>
      </trkpt>
      <trkpt lat="45.49391" lon="6.92121">
        <ele>1886.2</ele>
        <time>2021-05-04T07:05:55Z</time>
      </trkpt>
      <trkpt lat="45.49388" lon="6.9212">
        <ele>1886.2</ele>
        <time>2021-05-04T07:05:58Z</time>
      </trkpt>
      <trkpt lat="45.49386" lon="6.92122">
        <ele>1887.6</ele>
        <time>2021-05-04T07:06:00Z</time>
      </trkpt>
      <trkpt lat="45.49382" lon="6.92125">
        <ele>1887.6</ele>
        <time>2021-05-04T07:06:02Z</time>
      </trkpt>
      <trkpt lat="45.4938" lon="6.92127">
        <ele>1887.6</ele>
        <time>2021-05-04T07:06:03Z</time>
      </trkpt>
      <trkpt lat="45.49379" lon="6.92128">
        <ele>1887.6</ele>
        <time>2021-05-04T07:06:04Z</time>
      </trkpt>
      <trkpt lat="45.49376" lon="6.92129">
        <ele>1887.6</ele>
        <time>2021-05-04T07:06:06Z</time>
      </trkpt>
      <trkpt lat="45.49373" lon="6.9213">
        <ele>1887.6</ele>
        <time>2021-05-04T07:06:08Z</time>
      </trkpt>
      <trkpt lat="45.49371" lon="6.92131">
        <ele>1888.8</ele>
        <time>2021-05-04T07:06:10Z</time>
      </trkpt>
      <trkpt lat="45.49369" lon="6.92131">
        <ele>1888.8</ele>
        <time>2021-05-04T07:06:12Z</time>
      </trkpt>
      <trkpt lat="45.49366" lon="6.92132">
        <ele>1888.8</ele>
        <time>2021-05-04T07:06:14Z</time>
      </trkpt>
      <trkpt lat="45.49364" lon="6.92132">
        <ele>1888.8</ele>
        <time>2021-05-04T07:06:16Z</time>
      </trkpt>
      <trkpt lat="45.49362" lon="6.92132">
        <ele>1888.8</ele>
        <time>2021-05-04T07:06:18Z</time>
      </trkpt>
      <trkpt lat="45.4936" lon="6.92133">
        <ele>1889.8</ele>
        <time>2021-05-04T07:06:20Z</time>
      </trkpt>
      <trkpt lat="45.49358" lon="6.92134">
        <ele>1889.8</ele>
        <time>2021-05-04T07:06:22Z</time>
      </trkpt>
      <trkpt lat="45.49355" lon="6.92135">
        <ele>1889.8</ele>
        <time>2021-05-04T07:06:24Z</time>
      </trkpt>
      <trkpt lat="45.49353" lon="6.92137">
        <ele>1889.8</ele>
        <time>2021-05-04T07:06:27Z</time>
      </trkpt>
      <trkpt lat="45.4935" lon="6.92137">
        <ele>1889.8</ele>
        <time>2021-05-04T07:06:29Z</time>
      </trkpt>
      <trkpt lat="45.49348" lon="6.92137">
        <ele>1889.8</ele>
        <time>2021-05-04T07:06:31Z</time>
      </trkpt>
      <trkpt lat="45.49346" lon="6.92139">
        <ele>1889.8</ele>
        <time>2021-05-04T07:06:34Z</time>
      </trkpt>
      <trkpt lat="45.49343" lon="6.9214">
        <ele>1889.8</ele>
        <time>2021-05-04T07:06:37Z</time>
      </trkpt>
      <trkpt lat="45.49341" lon="6.9214">
        <ele>1893.2</ele>
        <time>2021-05-04T07:06:40Z</time>
      </trkpt>
      <trkpt lat="45.49338" lon="6.92142">
        <ele>1893.2</ele>
        <time>2021-05-04T07:06:43Z</time>
      </trkpt>
      <trkpt lat="45.49337" lon="6.92144">
        <ele>1893.2</ele>
        <time>2021-05-04T07:06:45Z</time>
      </trkpt>
      <trkpt lat="45.49335" lon="6.92144">
        <ele>1893.2</ele>
        <time>2021-05-04T07:06:47Z</time>
      </trkpt>
      <trkpt lat="45.49333" lon="6.92144">
        <ele>1895.4</ele>
        <time>2021-05-04T07:06:50Z</time>
      </trkpt>
      <trkpt lat="45.49331" lon="6.92144">
        <ele>1895.4</ele>
        <time>2021-05-04T07:06:53Z</time>
      </trkpt>
      <trkpt lat="45.49329" lon="6.92145">
        <ele>1895.4</ele>
        <time>2021-05-04T07:06:56Z</time>
      </trkpt>
      <trkpt lat="45.49326" lon="6.92146">
        <ele>1895.4</ele>
        <time>2021-05-04T07:06:59Z</time>
      </trkpt>
      <trkpt lat="45.49324" lon="6.92147">
        <ele>1895.4</ele>
        <time>2021-05-04T07:07:02Z</time>
      </trkpt>
      <trkpt lat="45.49321" lon="6.92147">
        <ele>1895.4</ele>
        <time>2021-05-04T07:07:05Z</time>
      </trkpt>
      <trkpt lat="45.49319" lon="6.92147">
        <ele>1895.4</ele>
        <time>2021-05-04T07:07:08Z</time>
      </trkpt>
      <trkpt lat="45.49317" lon="6.92148">
        <ele>1895.4</ele>
        <time>2021-05-04T07:07:11Z</time>
      </trkpt>
      <trkpt lat="45.49315" lon="6.92148">
        <ele>1895.4</ele>
        <time>2021-05-04T07:07:13Z</time>
      </trkpt>
      <trkpt lat="45.49312" lon="6.92149">
        <ele>1895.4</ele>
        <time>2021-05-04T07:07:16Z</time>
      </trkpt>
      <trkpt lat="45.4931" lon="6.9215">
        <ele>1895.4</ele>
        <time>2021-05-04T07:07:19Z</time>
      </trkpt>
      <trkpt lat="45.49308" lon="6.92149">
        <ele>1895.4</ele>
        <time>2021-05-04T07:07:22Z</time>
      </trkpt>
      <trkpt lat="45.49305" lon="6.9215">
        <ele>1895.4</ele>
        <time>2021-05-04T07:07:25Z</time>
      </trkpt>
      <trkpt lat="45.49303" lon="6.9215">
        <ele>1895.4</ele>
        <time>2021-05-04T07:07:27Z</time>
      </trkpt>
      <trkpt lat="45.493" lon="6.9215">
        <ele>1895.4</ele>
        <time>2021-05-04T07:07:29Z</time>
      </trkpt>
      <trkpt lat="45.49298" lon="6.92151">
        <ele>1895.4</ele>
        <time>2021-05-04T07:07:32Z</time>
      </trkpt>
      <trkpt lat="45.49296" lon="6.92149">
        <ele>1895.4</ele>
        <time>2021-05-04T07:07:34Z</time>
      </trkpt>
      <trkpt lat="45.49293" lon="6.9215">
        <ele>1895.4</ele>
        <time>2021-05-04T07:07:36Z</time>
      </trkpt>
      <trkpt lat="45.49291" lon="6.92151">
        <ele>1895.4</ele>
        <time>2021-05-04T07:07:38Z</time>
      </trkpt>
      <trkpt lat="45.49288" lon="6.92152">
        <ele>1895.4</ele>
        <time>2021-05-04T07:07:41Z</time>
      </trkpt>
      <trkpt lat="45.49286" lon="6.92152">
        <ele>1895.4</ele>
        <time>2021-05-04T07:07:43Z</time>
      </trkpt>
      <trkpt lat="45.49284" lon="6.92152">
        <ele>1895.4</ele>
        <time>2021-05-04T07:07:45Z</time>
      </trkpt>
      <trkpt lat="45.49282" lon="6.92153">
        <ele>1895.4</ele>
        <time>2021-05-04T07:07:47Z</time>
      </trkpt>
      <trkpt lat="45.4928" lon="6.92154">
        <ele>1895.4</ele>
        <time>2021-05-04T07:07:49Z</time>
      </trkpt>
      <trkpt lat="45.49278" lon="6.92154">
        <ele>1895.4</ele>
        <time>2021-05-04T07:07:51Z</time>
      </trkpt>
      <trkpt lat="45.49276" lon="6.92154">
        <ele>1895.4</ele>
        <time>2021-05-04T07:07:53Z</time>
      </trkpt>
      <trkpt lat="45.49274" lon="6.92154">
        <ele>1895.4</ele>
        <time>2021-05-04T07:07:55Z</time>
      </trkpt>
      <trkpt lat="45.49272" lon="6.92156">
        <ele>1895.4</ele>
        <time>2021-05-04T07:07:57Z</time>
      </trkpt>
      <trkpt lat="45.49269" lon="6.92156">
        <ele>1904.8</ele>
        <time>2021-05-04T07:08:00Z</time>
      </trkpt>
      <trkpt lat="45.49267" lon="6.92157">
        <ele>1904.8</ele>
        <time>2021-05-04T07:08:02Z</time>
      </trkpt>
      <trkpt lat="45.49265" lon="6.92156">
        <ele>1904.8</ele>
        <time>2021-05-04T07:08:05Z</time>
      </trkpt>
      <trkpt lat="45.49262" lon="6.92156">
        <ele>1904.8</ele>
        <time>2021-05-04T07:08:08Z</time>
      </trkpt>
      <trkpt lat="45.4926" lon="6.92157">
        <ele>1904.8</ele>
        <time>2021-05-04T07:08:11Z</time>
      </trkpt>
      <trkpt lat="45.49257" lon="6.92156">
        <ele>1904.8</ele>
        <time>2021-05-04T07:08:14Z</time>
      </trkpt>
      <trkpt lat="45.49255" lon="6.92158">
        <ele>1904.8</ele>
        <time>2021-05-04T07:08:17Z</time>
      </trkpt>
      <trkpt lat="45.49252" lon="6.92159">
        <ele>1907.4</ele>
        <time>2021-05-04T07:08:20Z</time>
      </trkpt>
      <trkpt lat="45.4925" lon="6.92158">
        <ele>1907.4</ele>
        <time>2021-05-04T07:08:23Z</time>
      </trkpt>
      <trkpt lat="45.49248" lon="6.92159">
        <ele>1907.4</ele>
        <time>2021-05-04T07:08:25Z</time>
      </trkpt>
      <trkpt lat="45.49246" lon="6.9216">
        <ele>1907.4</ele>
        <time>2021-05-04T07:08:27Z</time>
      </trkpt>
      <trkpt lat="45.49244" lon="6.9216">
        <ele>1909.2</ele>
        <time>2021-05-04T07:08:30Z</time>
      </trkpt>
      <trkpt lat="45.49241" lon="6.9216">
        <ele>1909.2</ele>
        <time>2021-05-04T07:08:33Z</time>
      </trkpt>
      <trkpt lat="45.49239" lon="6.92158">
        <ele>1909.2</ele>
        <time>2021-05-04T07:08:36Z</time>
      </trkpt>
      <trkpt lat="45.49238" lon="6.92156">
        <ele>1911.2</ele>
        <time>2021-05-04T07:08:40Z</time>
      </trkpt>
      <trkpt lat="45.49236" lon="6.92157">
        <ele>1911.2</ele>
        <time>2021-05-04T07:08:43Z</time>
      </trkpt>
      <trkpt lat="45.49234" lon="6.92156">
        <ele>1911.2</ele>
        <time>2021-05-04T07:08:46Z</time>
      </trkpt>
      <trkpt lat="45.49232" lon="6.92155">
        <ele>1911.2</ele>
        <time>2021-05-04T07:08:49Z</time>
      </trkpt>
      <trkpt lat="45.4923" lon="6.92156">
        <ele>1911.2</ele>
        <time>2021-05-04T07:08:52Z</time>
      </trkpt>
      <trkpt lat="45.49228" lon="6.92156">
        <ele>1911.2</ele>
        <time>2021-05-04T07:08:55Z</time>
      </trkpt>
      <trkpt lat="45.49225" lon="6.92157">
        <ele>1911.2</ele>
        <time>2021-05-04T07:08:59Z</time>
      </trkpt>
      <trkpt lat="45.49223" lon="6.92156">
        <ele>1911.2</ele>
        <time>2021-05-04T07:09:02Z</time>
      </trkpt>
      <trkpt lat="45.49221" lon="6.92156">
        <ele>1911.2</ele>
        <time>2021-05-04T07:09:05Z</time>
      </trkpt>
      <trkpt lat="45.49219" lon="6.92155">
        <ele>1911.2</ele>
        <time>2021-05-04T07:09:08Z</time>
      </trkpt>
      <trkpt lat="45.49217" lon="6.92154">
        <ele>1911.2</ele>
        <time>2021-05-04T07:09:11Z</time>
      </trkpt>
      <trkpt lat="45.49214" lon="6.92153">
        <ele>1911.2</ele>
        <time>2021-05-04T07:09:14Z</time>
      </trkpt>
      <trkpt lat="45.49212" lon="6.92154">
        <ele>1911.2</ele>
        <time>2021-05-04T07:09:18Z</time>
      </trkpt>
      <trkpt lat="45.49209" lon="6.92155">
        <ele>1911.2</ele>
        <time>2021-05-04T07:09:21Z</time>
      </trkpt>
      <trkpt lat="45.49207" lon="6.92155">
        <ele>1911.2</ele>
        <time>2021-05-04T07:09:24Z</time>
      </trkpt>
      <trkpt lat="45.49204" lon="6.92156">
        <ele>1911.2</ele>
        <time>2021-05-04T07:09:27Z</time>
      </trkpt>
      <trkpt lat="45.49202" lon="6.92157">
        <ele>1923.8</ele>
        <time>2021-05-04T07:09:30Z</time>
      </trkpt>
      <trkpt lat="45.492" lon="6.92157">
        <ele>1923.8</ele>
        <time>2021-05-04T07:09:33Z</time>
      </trkpt>
      <trkpt lat="45.49198" lon="6.92157">
        <ele>1923.8</ele>
        <time>2021-05-04T07:09:36Z</time>
      </trkpt>
      <trkpt lat="45.49196" lon="6.92156">
        <ele>1923.8</ele>
        <time>2021-05-04T07:09:39Z</time>
      </trkpt>
      <trkpt lat="45.49194" lon="6.92156">
        <ele>1923.8</ele>
        <time>2021-05-04T07:09:41Z</time>
      </trkpt>
      <trkpt lat="45.49192" lon="6.92155">
        <ele>1923.8</ele>
        <time>2021-05-04T07:09:44Z</time>
      </trkpt>
      <trkpt lat="45.4919" lon="6.92156">
        <ele>1923.8</ele>
        <time>2021-05-04T07:09:47Z</time>
      </trkpt>
      <trkpt lat="45.49188" lon="6.92156">
        <ele>1927.8</ele>
        <time>2021-05-04T07:09:50Z</time>
      </trkpt>
      <trkpt lat="45.49185" lon="6.92159">
        <ele>1927.8</ele>
        <time>2021-05-04T07:09:53Z</time>
      </trkpt>
      <trkpt lat="45.49183" lon="6.92158">
        <ele>1927.8</ele>
        <time>2021-05-04T07:09:56Z</time>
      </trkpt>
      <trkpt lat="45.49181" lon="6.92158">
        <ele>1927.8</ele>
        <time>2021-05-04T07:09:58Z</time>
      </trkpt>
      <trkpt lat="45.49179" lon="6.92158">
        <ele>1927.8</ele>
        <time>2021-05-04T07:10:01Z</time>
      </trkpt>
      <trkpt lat="45.49177" lon="6.92159">
        <ele>1927.8</ele>
        <time>2021-05-04T07:10:04Z</time>
      </trkpt>
      <trkpt lat="45.49176" lon="6.92158">
        <ele>1927.8</ele>
        <time>2021-05-04T07:10:07Z</time>
      </trkpt>
      <trkpt lat="45.49174" lon="6.92158">
        <ele>1927.8</ele>
        <time>2021-05-04T07:10:09Z</time>
      </trkpt>
      <trkpt lat="45.49172" lon="6.92158">
        <ele>1927.8</ele>
        <time>2021-05-04T07:10:12Z</time>
      </trkpt>
      <trkpt lat="45.4917" lon="6.92159">
        <ele>1927.8</ele>
        <time>2021-05-04T07:10:15Z</time>
      </trkpt>
      <trkpt lat="45.49167" lon="6.92158">
        <ele>1935</ele>
        <time>2021-05-04T07:10:20Z</time>
      </trkpt>
      <trkpt lat="45.49164" lon="6.92158">
        <ele>1935</ele>
        <time>2021-05-04T07:10:24Z</time>
      </trkpt>
      <trkpt lat="45.49161" lon="6.92158">
        <ele>1935</ele>
        <time>2021-05-04T07:10:27Z</time>
      </trkpt>
      <trkpt lat="45.49159" lon="6.92159">
        <ele>1937.4</ele>
        <time>2021-05-04T07:10:30Z</time>
      </trkpt>
      <trkpt lat="45.49157" lon="6.9216">
        <ele>1937.4</ele>
        <time>2021-05-04T07:10:34Z</time>
      </trkpt>
      <trkpt lat="45.49154" lon="6.9216">
        <ele>1937.4</ele>
        <time>2021-05-04T07:10:38Z</time>
      </trkpt>
      <trkpt lat="45.49152" lon="6.92162">
        <ele>1939.8</ele>
        <time>2021-05-04T07:10:40Z</time>
      </trkpt>
      <trkpt lat="45.4915" lon="6.92164">
        <ele>1939.8</ele>
        <time>2021-05-04T07:10:42Z</time>
      </trkpt>
      <trkpt lat="45.49148" lon="6.92165">
        <ele>1939.8</ele>
        <time>2021-05-04T07:10:44Z</time>
      </trkpt>
      <trkpt lat="45.49146" lon="6.92166">
        <ele>1939.8</ele>
        <time>2021-05-04T07:10:46Z</time>
      </trkpt>
      <trkpt lat="45.49144" lon="6.92168">
        <ele>1939.8</ele>
        <time>2021-05-04T07:10:48Z</time>
      </trkpt>
      <trkpt lat="45.49142" lon="6.9217">
        <ele>1942.6</ele>
        <time>2021-05-04T07:10:50Z</time>
      </trkpt>
      <trkpt lat="45.4914" lon="6.92171">
        <ele>1942.6</ele>
        <time>2021-05-04T07:10:52Z</time>
      </trkpt>
      <trkpt lat="45.49138" lon="6.92173">
        <ele>1942.6</ele>
        <time>2021-05-04T07:10:55Z</time>
      </trkpt>
      <trkpt lat="45.49135" lon="6.92174">
        <ele>1944.8</ele>
        <time>2021-05-04T07:11:00Z</time>
      </trkpt>
      <trkpt lat="45.49132" lon="6.92175">
        <ele>1944.8</ele>
        <time>2021-05-04T07:11:04Z</time>
      </trkpt>
      <trkpt lat="45.49131" lon="6.92176">
        <ele>1944.8</ele>
        <time>2021-05-04T07:11:06Z</time>
      </trkpt>
      <trkpt lat="45.49129" lon="6.92178">
        <ele>1947.6</ele>
        <time>2021-05-04T07:11:10Z</time>
      </trkpt>
      <trkpt lat="45.49127" lon="6.92179">
        <ele>1947.6</ele>
        <time>2021-05-04T07:11:13Z</time>
      </trkpt>
      <trkpt lat="45.49126" lon="6.92181">
        <ele>1947.6</ele>
        <time>2021-05-04T07:11:16Z</time>
      </trkpt>
      <trkpt lat="45.49124" lon="6.92182">
        <ele>1947.6</ele>
        <time>2021-05-04T07:11:18Z</time>
      </trkpt>
      <trkpt lat="45.49122" lon="6.92184">
        <ele>1950.6</ele>
        <time>2021-05-04T07:11:20Z</time>
      </trkpt>
      <trkpt lat="45.4912" lon="6.92186">
        <ele>1950.6</ele>
        <time>2021-05-04T07:11:22Z</time>
      </trkpt>
      <trkpt lat="45.49118" lon="6.92188">
        <ele>1950.6</ele>
        <time>2021-05-04T07:11:25Z</time>
      </trkpt>
      <trkpt lat="45.49116" lon="6.92188">
        <ele>1950.6</ele>
        <time>2021-05-04T07:11:28Z</time>
      </trkpt>
      <trkpt lat="45.49114" lon="6.9219">
        <ele>1950.6</ele>
        <time>2021-05-04T07:11:32Z</time>
      </trkpt>
      <trkpt lat="45.49112" lon="6.92191">
        <ele>1950.6</ele>
        <time>2021-05-04T07:11:35Z</time>
      </trkpt>
      <trkpt lat="45.4911" lon="6.92193">
        <ele>1950.6</ele>
        <time>2021-05-04T07:11:38Z</time>
      </trkpt>
      <trkpt lat="45.49108" lon="6.92194">
        <ele>1950.6</ele>
        <time>2021-05-04T07:11:41Z</time>
      </trkpt>
      <trkpt lat="45.49106" lon="6.92195">
        <ele>1950.6</ele>
        <time>2021-05-04T07:11:43Z</time>
      </trkpt>
      <trkpt lat="45.49104" lon="6.92196">
        <ele>1950.6</ele>
        <time>2021-05-04T07:11:46Z</time>
      </trkpt>
      <trkpt lat="45.49103" lon="6.92198">
        <ele>1950.6</ele>
        <time>2021-05-04T07:11:48Z</time>
      </trkpt>
      <trkpt lat="45.49102" lon="6.92201">
        <ele>1950.6</ele>
        <time>2021-05-04T07:11:51Z</time>
      </trkpt>
      <trkpt lat="45.49101" lon="6.92203">
        <ele>1950.6</ele>
        <time>2021-05-04T07:11:53Z</time>
      </trkpt>
      <trkpt lat="45.49099" lon="6.92206">
        <ele>1950.6</ele>
        <time>2021-05-04T07:11:56Z</time>
      </trkpt>
      <trkpt lat="45.49098" lon="6.92208">
        <ele>1950.6</ele>
        <time>2021-05-04T07:11:57Z</time>
      </trkpt>
      <trkpt lat="45.49097" lon="6.9221">
        <ele>1950.6</ele>
        <time>2021-05-04T07:11:58Z</time>
      </trkpt>
      <trkpt lat="45.49095" lon="6.92212">
        <ele>1965.4</ele>
        <time>2021-05-04T07:12:00Z</time>
      </trkpt>
      <trkpt lat="45.49093" lon="6.92215">
        <ele>1965.4</ele>
        <time>2021-05-04T07:12:02Z</time>
      </trkpt>
      <trkpt lat="45.49091" lon="6.92218">
        <ele>1965.4</ele>
        <time>2021-05-04T07:12:04Z</time>
      </trkpt>
      <trkpt lat="45.4909" lon="6.9222">
        <ele>1965.4</ele>
        <time>2021-05-04T07:12:06Z</time>
      </trkpt>
      <trkpt lat="45.49088" lon="6.92222">
        <ele>1965.4</ele>
        <time>2021-05-04T07:12:08Z</time>
      </trkpt>
      <trkpt lat="45.49086" lon="6.92225">
        <ele>1965.4</ele>
        <time>2021-05-04T07:12:12Z</time>
      </trkpt>
      <trkpt lat="45.49085" lon="6.92226">
        <ele>1965.4</ele>
        <time>2021-05-04T07:12:14Z</time>
      </trkpt>
      <trkpt lat="45.49083" lon="6.92229">
        <ele>1965.4</ele>
        <time>2021-05-04T07:12:16Z</time>
      </trkpt>
      <trkpt lat="45.49082" lon="6.92232">
        <ele>1965.4</ele>
        <time>2021-05-04T07:12:18Z</time>
      </trkpt>
      <trkpt lat="45.4908" lon="6.92234">
        <ele>1965.4</ele>
        <time>2021-05-04T07:12:21Z</time>
      </trkpt>
      <trkpt lat="45.49079" lon="6.92236">
        <ele>1965.4</ele>
        <time>2021-05-04T07:12:23Z</time>
      </trkpt>
      <trkpt lat="45.49077" lon="6.92238">
        <ele>1965.4</ele>
        <time>2021-05-04T07:12:26Z</time>
      </trkpt>
      <trkpt lat="45.49076" lon="6.9224">
        <ele>1965.4</ele>
        <time>2021-05-04T07:12:28Z</time>
      </trkpt>
      <trkpt lat="45.49074" lon="6.92241">
        <ele>1973</ele>
        <time>2021-05-04T07:12:30Z</time>
      </trkpt>
      <trkpt lat="45.49073" lon="6.92244">
        <ele>1973</ele>
        <time>2021-05-04T07:12:33Z</time>
      </trkpt>
      <trkpt lat="45.49071" lon="6.92246">
        <ele>1973</ele>
        <time>2021-05-04T07:12:37Z</time>
      </trkpt>
      <trkpt lat="45.49069" lon="6.92247">
        <ele>1973</ele>
        <time>2021-05-04T07:12:39Z</time>
      </trkpt>
      <trkpt lat="45.49067" lon="6.92249">
        <ele>1973</ele>
        <time>2021-05-04T07:12:42Z</time>
      </trkpt>
      <trkpt lat="45.49065" lon="6.92252">
        <ele>1973</ele>
        <time>2021-05-04T07:12:45Z</time>
      </trkpt>
      <trkpt lat="45.49064" lon="6.92255">
        <ele>1973</ele>
        <time>2021-05-04T07:12:48Z</time>
      </trkpt>
      <trkpt lat="45.49062" lon="6.92257">
        <ele>1973</ele>
        <time>2021-05-04T07:12:51Z</time>
      </trkpt>
      <trkpt lat="45.4906" lon="6.92258">
        <ele>1973</ele>
        <time>2021-05-04T07:12:53Z</time>
      </trkpt>
      <trkpt lat="45.49058" lon="6.92261">
        <ele>1973</ele>
        <time>2021-05-04T07:12:55Z</time>
      </trkpt>
      <trkpt lat="45.49057" lon="6.92263">
        <ele>1973</ele>
        <time>2021-05-04T07:14:12Z</time>
      </trkpt>
      <trkpt lat="45.49055" lon="6.92262">
        <ele>1973</ele>
        <time>2021-05-04T07:14:13Z</time>
      </trkpt>
      <trkpt lat="45.49053" lon="6.92259">
        <ele>1973</ele>
        <time>2021-05-04T07:14:15Z</time>
      </trkpt>
      <trkpt lat="45.49052" lon="6.92258">
        <ele>1973</ele>
        <time>2021-05-04T07:14:16Z</time>
      </trkpt>
      <trkpt lat="45.4905" lon="6.92256">
        <ele>1973</ele>
        <time>2021-05-04T07:14:18Z</time>
      </trkpt>
      <trkpt lat="45.49047" lon="6.92254">
        <ele>1977.2</ele>
        <time>2021-05-04T07:14:20Z</time>
      </trkpt>
      <trkpt lat="45.49045" lon="6.92251">
        <ele>1977.2</ele>
        <time>2021-05-04T07:14:22Z</time>
      </trkpt>
      <trkpt lat="45.49044" lon="6.92248">
        <ele>1977.2</ele>
        <time>2021-05-04T07:14:25Z</time>
      </trkpt>
      <trkpt lat="45.49042" lon="6.92246">
        <ele>1977.2</ele>
        <time>2021-05-04T07:14:28Z</time>
      </trkpt>
      <trkpt lat="45.4904" lon="6.92243">
        <ele>1980</ele>
        <time>2021-05-04T07:14:30Z</time>
      </trkpt>
      <trkpt lat="45.4904" lon="6.92239">
        <ele>1980</ele>
        <time>2021-05-04T07:14:32Z</time>
      </trkpt>
      <trkpt lat="45.4904" lon="6.92234">
        <ele>1980</ele>
        <time>2021-05-04T07:14:34Z</time>
      </trkpt>
      <trkpt lat="45.49039" lon="6.92232">
        <ele>1980</ele>
        <time>2021-05-04T07:14:36Z</time>
      </trkpt>
      <trkpt lat="45.49038" lon="6.92228">
        <ele>1980</ele>
        <time>2021-05-04T07:14:38Z</time>
      </trkpt>
      <trkpt lat="45.49037" lon="6.92224">
        <ele>1983.6</ele>
        <time>2021-05-04T07:14:40Z</time>
      </trkpt>
      <trkpt lat="45.49037" lon="6.92221">
        <ele>1983.6</ele>
        <time>2021-05-04T07:14:42Z</time>
      </trkpt>
      <trkpt lat="45.49037" lon="6.92218">
        <ele>1983.6</ele>
        <time>2021-05-04T07:14:44Z</time>
      </trkpt>
      <trkpt lat="45.49037" lon="6.92214">
        <ele>1983.6</ele>
        <time>2021-05-04T07:14:46Z</time>
      </trkpt>
      <trkpt lat="45.49038" lon="6.92211">
        <ele>1983.6</ele>
        <time>2021-05-04T07:14:48Z</time>
      </trkpt>
      <trkpt lat="45.49038" lon="6.92207">
        <ele>1986.8</ele>
        <time>2021-05-04T07:14:50Z</time>
      </trkpt>
      <trkpt lat="45.49039" lon="6.92203">
        <ele>1986.8</ele>
        <time>2021-05-04T07:14:52Z</time>
      </trkpt>
      <trkpt lat="45.4904" lon="6.922">
        <ele>1986.8</ele>
        <time>2021-05-04T07:14:54Z</time>
      </trkpt>
      <trkpt lat="45.49041" lon="6.92196">
        <ele>1986.8</ele>
        <time>2021-05-04T07:14:57Z</time>
      </trkpt>
      <trkpt lat="45.49041" lon="6.92193">
        <ele>1986.8</ele>
        <time>2021-05-04T07:14:59Z</time>
      </trkpt>
      <trkpt lat="45.49043" lon="6.92189">
        <ele>1986.8</ele>
        <time>2021-05-04T07:15:01Z</time>
      </trkpt>
      <trkpt lat="45.49044" lon="6.92186">
        <ele>1986.8</ele>
        <time>2021-05-04T07:15:03Z</time>
      </trkpt>
      <trkpt lat="45.49046" lon="6.92182">
        <ele>1986.8</ele>
        <time>2021-05-04T07:15:05Z</time>
      </trkpt>
      <trkpt lat="45.49047" lon="6.92179">
        <ele>1986.8</ele>
        <time>2021-05-04T07:15:07Z</time>
      </trkpt>
      <trkpt lat="45.49049" lon="6.92176">
        <ele>1986.8</ele>
        <time>2021-05-04T07:15:09Z</time>
      </trkpt>
      <trkpt lat="45.49051" lon="6.92173">
        <ele>1986.8</ele>
        <time>2021-05-04T07:15:11Z</time>
      </trkpt>
      <trkpt lat="45.49052" lon="6.92171">
        <ele>1986.8</ele>
        <time>2021-05-04T07:15:13Z</time>
      </trkpt>
      <trkpt lat="45.49052" lon="6.92168">
        <ele>1986.8</ele>
        <time>2021-05-04T07:15:16Z</time>
      </trkpt>
      <trkpt lat="45.49054" lon="6.92164">
        <ele>1986.8</ele>
        <time>2021-05-04T07:15:19Z</time>
      </trkpt>
      <trkpt lat="45.49055" lon="6.92161">
        <ele>1986.8</ele>
        <time>2021-05-04T07:15:21Z</time>
      </trkpt>
      <trkpt lat="45.49056" lon="6.92159">
        <ele>1986.8</ele>
        <time>2021-05-04T07:15:22Z</time>
      </trkpt>
      <trkpt lat="45.49058" lon="6.92156">
        <ele>1986.8</ele>
        <time>2021-05-04T07:15:24Z</time>
      </trkpt>
      <trkpt lat="45.49059" lon="6.92154">
        <ele>1986.8</ele>
        <time>2021-05-04T07:15:26Z</time>
      </trkpt>
      <trkpt lat="45.4906" lon="6.92152">
        <ele>1986.8</ele>
        <time>2021-05-04T07:15:28Z</time>
      </trkpt>
      <trkpt lat="45.49061" lon="6.92149">
        <ele>2002.2</ele>
        <time>2021-05-04T07:15:30Z</time>
      </trkpt>
      <trkpt lat="45.49064" lon="6.92145">
        <ele>2002.2</ele>
        <time>2021-05-04T07:15:32Z</time>
      </trkpt>
      <trkpt lat="45.49066" lon="6.92143">
        <ele>2002.2</ele>
        <time>2021-05-04T07:15:34Z</time>
      </trkpt>
      <trkpt lat="45.49067" lon="6.9214">
        <ele>2002.2</ele>
        <time>2021-05-04T07:15:36Z</time>
      </trkpt>
      <trkpt lat="45.49068" lon="6.92137">
        <ele>2002.2</ele>
        <time>2021-05-04T07:15:38Z</time>
      </trkpt>
      <trkpt lat="45.49069" lon="6.92133">
        <ele>2002.2</ele>
        <time>2021-05-04T07:15:41Z</time>
      </trkpt>
      <trkpt lat="45.49069" lon="6.9213">
        <ele>2002.2</ele>
        <time>2021-05-04T07:15:43Z</time>
      </trkpt>
      <trkpt lat="45.4907" lon="6.92128">
        <ele>2002.2</ele>
        <time>2021-05-04T07:15:45Z</time>
      </trkpt>
      <trkpt lat="45.49071" lon="6.92124">
        <ele>2002.2</ele>
        <time>2021-05-04T07:15:47Z</time>
      </trkpt>
      <trkpt lat="45.49071" lon="6.92121">
        <ele>2002.2</ele>
        <time>2021-05-04T07:15:49Z</time>
      </trkpt>
      <trkpt lat="45.49071" lon="6.92118">
        <ele>2002.2</ele>
        <time>2021-05-04T07:15:51Z</time>
      </trkpt>
      <trkpt lat="45.49071" lon="6.92115">
        <ele>2002.2</ele>
        <time>2021-05-04T07:15:54Z</time>
      </trkpt>
      <trkpt lat="45.49071" lon="6.92112">
        <ele>2002.2</ele>
        <time>2021-05-04T07:15:57Z</time>
      </trkpt>
      <trkpt lat="45.49071" lon="6.92109">
        <ele>2002.2</ele>
        <time>2021-05-04T07:15:59Z</time>
      </trkpt>
      <trkpt lat="45.49072" lon="6.92106">
        <ele>2002.2</ele>
        <time>2021-05-04T07:16:01Z</time>
      </trkpt>
      <trkpt lat="45.49073" lon="6.92103">
        <ele>2002.2</ele>
        <time>2021-05-04T07:16:04Z</time>
      </trkpt>
      <trkpt lat="45.49073" lon="6.921">
        <ele>2002.2</ele>
        <time>2021-05-04T07:16:07Z</time>
      </trkpt>
      <trkpt lat="45.49075" lon="6.92096">
        <ele>2002.2</ele>
        <time>2021-05-04T07:16:09Z</time>
      </trkpt>
      <trkpt lat="45.49076" lon="6.92093">
        <ele>2002.2</ele>
        <time>2021-05-04T07:16:12Z</time>
      </trkpt>
      <trkpt lat="45.49077" lon="6.9209">
        <ele>2002.2</ele>
        <time>2021-05-04T07:16:14Z</time>
      </trkpt>
      <trkpt lat="45.49077" lon="6.92087">
        <ele>2002.2</ele>
        <time>2021-05-04T07:16:16Z</time>
      </trkpt>
      <trkpt lat="45.49078" lon="6.92084">
        <ele>2002.2</ele>
        <time>2021-05-04T07:16:18Z</time>
      </trkpt>
      <trkpt lat="45.49079" lon="6.92081">
        <ele>2020.6</ele>
        <time>2021-05-04T07:16:20Z</time>
      </trkpt>
      <trkpt lat="45.49081" lon="6.92078">
        <ele>2020.6</ele>
        <time>2021-05-04T07:16:22Z</time>
      </trkpt>
      <trkpt lat="45.49082" lon="6.92074">
        <ele>2020.6</ele>
        <time>2021-05-04T07:16:25Z</time>
      </trkpt>
      <trkpt lat="45.49082" lon="6.92072">
        <ele>2020.6</ele>
        <time>2021-05-04T07:16:28Z</time>
      </trkpt>
      <trkpt lat="45.49082" lon="6.92068">
        <ele>2020.6</ele>
        <time>2021-05-04T07:16:31Z</time>
      </trkpt>
      <trkpt lat="45.49081" lon="6.92066">
        <ele>2020.6</ele>
        <time>2021-05-04T07:16:35Z</time>
      </trkpt>
      <trkpt lat="45.49083" lon="6.92062">
        <ele>2020.6</ele>
        <time>2021-05-04T07:16:39Z</time>
      </trkpt>
      <trkpt lat="45.49084" lon="6.9206">
        <ele>2020.6</ele>
        <time>2021-05-04T07:16:42Z</time>
      </trkpt>
      <trkpt lat="45.49086" lon="6.92056">
        <ele>2020.6</ele>
        <time>2021-05-04T07:16:46Z</time>
      </trkpt>
      <trkpt lat="45.49089" lon="6.92053">
        <ele>2020.6</ele>
        <time>2021-05-04T07:16:48Z</time>
      </trkpt>
      <trkpt lat="45.49091" lon="6.92051">
        <ele>2020.6</ele>
        <time>2021-05-04T07:16:51Z</time>
      </trkpt>
      <trkpt lat="45.49092" lon="6.92049">
        <ele>2020.6</ele>
        <time>2021-05-04T07:16:52Z</time>
      </trkpt>
      <trkpt lat="45.49094" lon="6.92046">
        <ele>2020.6</ele>
        <time>2021-05-04T07:16:55Z</time>
      </trkpt>
      <trkpt lat="45.49096" lon="6.92044">
        <ele>2020.6</ele>
        <time>2021-05-04T07:16:57Z</time>
      </trkpt>
      <trkpt lat="45.49098" lon="6.92042">
        <ele>2020.6</ele>
        <time>2021-05-04T07:16:58Z</time>
      </trkpt>
      <trkpt lat="45.491" lon="6.9204">
        <ele>2029.4</ele>
        <time>2021-05-04T07:17:00Z</time>
      </trkpt>
      <trkpt lat="45.49102" lon="6.92038">
        <ele>2029.4</ele>
        <time>2021-05-04T07:17:03Z</time>
      </trkpt>
      <trkpt lat="45.49104" lon="6.92036">
        <ele>2029.4</ele>
        <time>2021-05-04T07:17:04Z</time>
      </trkpt>
      <trkpt lat="45.49107" lon="6.92034">
        <ele>2029.4</ele>
        <time>2021-05-04T07:17:06Z</time>
      </trkpt>
      <trkpt lat="45.49108" lon="6.92032">
        <ele>2029.4</ele>
        <time>2021-05-04T07:17:07Z</time>
      </trkpt>
      <trkpt lat="45.4911" lon="6.92031">
        <ele>2029.4</ele>
        <time>2021-05-04T07:17:09Z</time>
      </trkpt>
      <trkpt lat="45.49112" lon="6.9203">
        <ele>2029.4</ele>
        <time>2021-05-04T07:17:11Z</time>
      </trkpt>
      <trkpt lat="45.49115" lon="6.92028">
        <ele>2029.4</ele>
        <time>2021-05-04T07:17:13Z</time>
      </trkpt>
      <trkpt lat="45.49117" lon="6.92026">
        <ele>2029.4</ele>
        <time>2021-05-04T07:17:15Z</time>
      </trkpt>
      <trkpt lat="45.49119" lon="6.92024">
        <ele>2029.4</ele>
        <time>2021-05-04T07:17:17Z</time>
      </trkpt>
      <trkpt lat="45.49122" lon="6.92022">
        <ele>2029.4</ele>
        <time>2021-05-04T07:17:19Z</time>
      </trkpt>
      <trkpt lat="45.49124" lon="6.9202">
        <ele>2029.4</ele>
        <time>2021-05-04T07:17:21Z</time>
      </trkpt>
      <trkpt lat="45.49128" lon="6.92018">
        <ele>2029.4</ele>
        <time>2021-05-04T07:17:23Z</time>
      </trkpt>
      <trkpt lat="45.4913" lon="6.92016">
        <ele>2029.4</ele>
        <time>2021-05-04T07:17:25Z</time>
      </trkpt>
      <trkpt lat="45.49132" lon="6.92015">
        <ele>2029.4</ele>
        <time>2021-05-04T07:17:26Z</time>
      </trkpt>
      <trkpt lat="45.49135" lon="6.92012">
        <ele>2029.4</ele>
        <time>2021-05-04T07:17:28Z</time>
      </trkpt>
      <trkpt lat="45.49138" lon="6.92011">
        <ele>2029.4</ele>
        <time>2021-05-04T07:17:31Z</time>
      </trkpt>
      <trkpt lat="45.49141" lon="6.9201">
        <ele>2029.4</ele>
        <time>2021-05-04T07:17:33Z</time>
      </trkpt>
      <trkpt lat="45.49143" lon="6.92008">
        <ele>2029.4</ele>
        <time>2021-05-04T07:17:35Z</time>
      </trkpt>
      <trkpt lat="45.49145" lon="6.92006">
        <ele>2029.4</ele>
        <time>2021-05-04T07:17:37Z</time>
      </trkpt>
      <trkpt lat="45.49148" lon="6.92004">
        <ele>2035.8</ele>
        <time>2021-05-04T07:17:40Z</time>
      </trkpt>
      <trkpt lat="45.49151" lon="6.92003">
        <ele>2035.8</ele>
        <time>2021-05-04T07:17:42Z</time>
      </trkpt>
      <trkpt lat="45.49154" lon="6.92001">
        <ele>2035.8</ele>
        <time>2021-05-04T07:17:46Z</time>
      </trkpt>
      <trkpt lat="45.49156" lon="6.92">
        <ele>2035.8</ele>
        <time>2021-05-04T07:17:48Z</time>
      </trkpt>
      <trkpt lat="45.49157" lon="6.91999">
        <ele>2037.4</ele>
        <time>2021-05-04T07:17:50Z</time>
      </trkpt>
      <trkpt lat="45.49161" lon="6.91996">
        <ele>2037.4</ele>
        <time>2021-05-04T07:17:55Z</time>
      </trkpt>
      <trkpt lat="45.49164" lon="6.91995">
        <ele>2037.4</ele>
        <time>2021-05-04T07:17:58Z</time>
      </trkpt>
      <trkpt lat="45.49165" lon="6.91993">
        <ele>2039</ele>
        <time>2021-05-04T07:18:00Z</time>
      </trkpt>
      <trkpt lat="45.49168" lon="6.91992">
        <ele>2039</ele>
        <time>2021-05-04T07:18:03Z</time>
      </trkpt>
      <trkpt lat="45.4917" lon="6.9199">
        <ele>2039</ele>
        <time>2021-05-04T07:18:05Z</time>
      </trkpt>
      <trkpt lat="45.49171" lon="6.91988">
        <ele>2039</ele>
        <time>2021-05-04T07:18:07Z</time>
      </trkpt>
      <trkpt lat="45.49173" lon="6.91986">
        <ele>2039</ele>
        <time>2021-05-04T07:18:09Z</time>
      </trkpt>
      <trkpt lat="45.49175" lon="6.91985">
        <ele>2039</ele>
        <time>2021-05-04T07:18:11Z</time>
      </trkpt>
      <trkpt lat="45.49178" lon="6.91984">
        <ele>2039</ele>
        <time>2021-05-04T07:18:14Z</time>
      </trkpt>
      <trkpt lat="45.4918" lon="6.91983">
        <ele>2039</ele>
        <time>2021-05-04T07:18:16Z</time>
      </trkpt>
      <trkpt lat="45.49182" lon="6.91982">
        <ele>2039</ele>
        <time>2021-05-04T07:18:19Z</time>
      </trkpt>
      <trkpt lat="45.49185" lon="6.91981">
        <ele>2039</ele>
        <time>2021-05-04T07:18:21Z</time>
      </trkpt>
      <trkpt lat="45.49188" lon="6.9198">
        <ele>2039</ele>
        <time>2021-05-04T07:18:23Z</time>
      </trkpt>
      <trkpt lat="45.4919" lon="6.91979">
        <ele>2039</ele>
        <time>2021-05-04T07:18:25Z</time>
      </trkpt>
      <trkpt lat="45.49192" lon="6.91978">
        <ele>2039</ele>
        <time>2021-05-04T07:18:27Z</time>
      </trkpt>
      <trkpt lat="45.49194" lon="6.91976">
        <ele>2039</ele>
        <time>2021-05-04T07:18:29Z</time>
      </trkpt>
      <trkpt lat="45.49196" lon="6.91974">
        <ele>2039</ele>
        <time>2021-05-04T07:18:31Z</time>
      </trkpt>
      <trkpt lat="45.49197" lon="6.91973">
        <ele>2039</ele>
        <time>2021-05-04T07:18:33Z</time>
      </trkpt>
      <trkpt lat="45.49199" lon="6.91971">
        <ele>2039</ele>
        <time>2021-05-04T07:18:35Z</time>
      </trkpt>
      <trkpt lat="45.492" lon="6.91968">
        <ele>2039</ele>
        <time>2021-05-04T07:18:37Z</time>
      </trkpt>
      <trkpt lat="45.49202" lon="6.91966">
        <ele>2039</ele>
        <time>2021-05-04T07:18:39Z</time>
      </trkpt>
      <trkpt lat="45.49204" lon="6.91964">
        <ele>2039</ele>
        <time>2021-05-04T07:18:41Z</time>
      </trkpt>
      <trkpt lat="45.49205" lon="6.91962">
        <ele>2039</ele>
        <time>2021-05-04T07:18:43Z</time>
      </trkpt>
      <trkpt lat="45.49207" lon="6.9196">
        <ele>2039</ele>
        <time>2021-05-04T07:18:45Z</time>
      </trkpt>
      <trkpt lat="45.49209" lon="6.91959">
        <ele>2039</ele>
        <time>2021-05-04T07:18:47Z</time>
      </trkpt>
      <trkpt lat="45.49211" lon="6.91957">
        <ele>2039</ele>
        <time>2021-05-04T07:18:49Z</time>
      </trkpt>
      <trkpt lat="45.49213" lon="6.91955">
        <ele>2039</ele>
        <time>2021-05-04T07:18:51Z</time>
      </trkpt>
      <trkpt lat="45.49214" lon="6.91953">
        <ele>2039</ele>
        <time>2021-05-04T07:18:53Z</time>
      </trkpt>
      <trkpt lat="45.49216" lon="6.9195">
        <ele>2039</ele>
        <time>2021-05-04T07:18:55Z</time>
      </trkpt>
      <trkpt lat="45.49219" lon="6.91948">
        <ele>2039</ele>
        <time>2021-05-04T07:18:57Z</time>
      </trkpt>
      <trkpt lat="45.49221" lon="6.91946">
        <ele>2039</ele>
        <time>2021-05-04T07:18:59Z</time>
      </trkpt>
      <trkpt lat="45.49223" lon="6.91944">
        <ele>2039</ele>
        <time>2021-05-04T07:19:01Z</time>
      </trkpt>
      <trkpt lat="45.49224" lon="6.91941">
        <ele>2039</ele>
        <time>2021-05-04T07:19:03Z</time>
      </trkpt>
      <trkpt lat="45.49227" lon="6.91939">
        <ele>2039</ele>
        <time>2021-05-04T07:19:05Z</time>
      </trkpt>
      <trkpt lat="45.49229" lon="6.91936">
        <ele>2039</ele>
        <time>2021-05-04T07:19:07Z</time>
      </trkpt>
      <trkpt lat="45.49231" lon="6.91934">
        <ele>2039</ele>
        <time>2021-05-04T07:19:09Z</time>
      </trkpt>
      <trkpt lat="45.49233" lon="6.91932">
        <ele>2039</ele>
        <time>2021-05-04T07:19:11Z</time>
      </trkpt>
      <trkpt lat="45.49235" lon="6.91928">
        <ele>2039</ele>
        <time>2021-05-04T07:19:13Z</time>
      </trkpt>
      <trkpt lat="45.49237" lon="6.91926">
        <ele>2039</ele>
        <time>2021-05-04T07:19:15Z</time>
      </trkpt>
      <trkpt lat="45.49239" lon="6.91923">
        <ele>2039</ele>
        <time>2021-05-04T07:19:17Z</time>
      </trkpt>
      <trkpt lat="45.49241" lon="6.9192">
        <ele>2039</ele>
        <time>2021-05-04T07:19:19Z</time>
      </trkpt>
      <trkpt lat="45.49243" lon="6.91918">
        <ele>2039</ele>
        <time>2021-05-04T07:19:21Z</time>
      </trkpt>
      <trkpt lat="45.49244" lon="6.91915">
        <ele>2039</ele>
        <time>2021-05-04T07:19:23Z</time>
      </trkpt>
      <trkpt lat="45.49246" lon="6.91913">
        <ele>2039</ele>
        <time>2021-05-04T07:19:25Z</time>
      </trkpt>
      <trkpt lat="45.49247" lon="6.9191">
        <ele>2039</ele>
        <time>2021-05-04T07:19:27Z</time>
      </trkpt>
      <trkpt lat="45.49249" lon="6.91907">
        <ele>2039</ele>
        <time>2021-05-04T07:19:29Z</time>
      </trkpt>
      <trkpt lat="45.49251" lon="6.91906">
        <ele>2062</ele>
        <time>2021-05-04T07:19:30Z</time>
      </trkpt>
      <trkpt lat="45.49252" lon="6.91903">
        <ele>2062</ele>
        <time>2021-05-04T07:19:32Z</time>
      </trkpt>
      <trkpt lat="45.49253" lon="6.91902">
        <ele>2062</ele>
        <time>2021-05-04T07:19:33Z</time>
      </trkpt>
      <trkpt lat="45.49255" lon="6.91898">
        <ele>2062</ele>
        <time>2021-05-04T07:19:35Z</time>
      </trkpt>
      <trkpt lat="45.49257" lon="6.91895">
        <ele>2062</ele>
        <time>2021-05-04T07:19:37Z</time>
      </trkpt>
      <trkpt lat="45.49259" lon="6.91892">
        <ele>2062</ele>
        <time>2021-05-04T07:19:39Z</time>
      </trkpt>
      <trkpt lat="45.4926" lon="6.91889">
        <ele>2062</ele>
        <time>2021-05-04T07:19:41Z</time>
      </trkpt>
      <trkpt lat="45.49262" lon="6.91886">
        <ele>2062</ele>
        <time>2021-05-04T07:19:43Z</time>
      </trkpt>
      <trkpt lat="45.49264" lon="6.91882">
        <ele>2062</ele>
        <time>2021-05-04T07:19:45Z</time>
      </trkpt>
      <trkpt lat="45.49266" lon="6.91879">
        <ele>2062</ele>
        <time>2021-05-04T07:19:47Z</time>
      </trkpt>
      <trkpt lat="45.49268" lon="6.91876">
        <ele>2062</ele>
        <time>2021-05-04T07:19:49Z</time>
      </trkpt>
      <trkpt lat="45.49269" lon="6.91873">
        <ele>2062</ele>
        <time>2021-05-04T07:19:51Z</time>
      </trkpt>
      <trkpt lat="45.49271" lon="6.91871">
        <ele>2062</ele>
        <time>2021-05-04T07:19:53Z</time>
      </trkpt>
      <trkpt lat="45.49273" lon="6.91868">
        <ele>2062</ele>
        <time>2021-05-04T07:19:55Z</time>
      </trkpt>
      <trkpt lat="45.49275" lon="6.91865">
        <ele>2062</ele>
        <time>2021-05-04T07:19:57Z</time>
      </trkpt>
      <trkpt lat="45.49277" lon="6.91862">
        <ele>2062</ele>
        <time>2021-05-04T07:19:59Z</time>
      </trkpt>
      <trkpt lat="45.49279" lon="6.91859">
        <ele>2062</ele>
        <time>2021-05-04T07:20:01Z</time>
      </trkpt>
      <trkpt lat="45.49281" lon="6.91856">
        <ele>2062</ele>
        <time>2021-05-04T07:20:03Z</time>
      </trkpt>
      <trkpt lat="45.49283" lon="6.91852">
        <ele>2062</ele>
        <time>2021-05-04T07:20:05Z</time>
      </trkpt>
      <trkpt lat="45.49285" lon="6.9185">
        <ele>2062</ele>
        <time>2021-05-04T07:20:07Z</time>
      </trkpt>
      <trkpt lat="45.49287" lon="6.91847">
        <ele>2062</ele>
        <time>2021-05-04T07:20:09Z</time>
      </trkpt>
      <trkpt lat="45.49289" lon="6.91845">
        <ele>2062</ele>
        <time>2021-05-04T07:20:11Z</time>
      </trkpt>
      <trkpt lat="45.49291" lon="6.91842">
        <ele>2062</ele>
        <time>2021-05-04T07:20:13Z</time>
      </trkpt>
      <trkpt lat="45.49293" lon="6.91839">
        <ele>2062</ele>
        <time>2021-05-04T07:20:15Z</time>
      </trkpt>
      <trkpt lat="45.49295" lon="6.91836">
        <ele>2062</ele>
        <time>2021-05-04T07:20:17Z</time>
      </trkpt>
      <trkpt lat="45.49297" lon="6.91833">
        <ele>2062</ele>
        <time>2021-05-04T07:20:19Z</time>
      </trkpt>
      <trkpt lat="45.49299" lon="6.91831">
        <ele>2062</ele>
        <time>2021-05-04T07:20:21Z</time>
      </trkpt>
      <trkpt lat="45.493" lon="6.91829">
        <ele>2062</ele>
        <time>2021-05-04T07:20:23Z</time>
      </trkpt>
      <trkpt lat="45.49303" lon="6.91826">
        <ele>2062</ele>
        <time>2021-05-04T07:20:25Z</time>
      </trkpt>
      <trkpt lat="45.49305" lon="6.91823">
        <ele>2062</ele>
        <time>2021-05-04T07:20:27Z</time>
      </trkpt>
      <trkpt lat="45.49307" lon="6.9182">
        <ele>2062</ele>
        <time>2021-05-04T07:20:29Z</time>
      </trkpt>
      <trkpt lat="45.49308" lon="6.91816">
        <ele>2062</ele>
        <time>2021-05-04T07:20:31Z</time>
      </trkpt>
      <trkpt lat="45.4931" lon="6.91813">
        <ele>2062</ele>
        <time>2021-05-04T07:20:33Z</time>
      </trkpt>
      <trkpt lat="45.49311" lon="6.91809">
        <ele>2062</ele>
        <time>2021-05-04T07:20:35Z</time>
      </trkpt>
      <trkpt lat="45.49313" lon="6.91808">
        <ele>2062</ele>
        <time>2021-05-04T07:20:36Z</time>
      </trkpt>
      <trkpt lat="45.49314" lon="6.91804">
        <ele>2062</ele>
        <time>2021-05-04T07:20:38Z</time>
      </trkpt>
      <trkpt lat="45.49316" lon="6.91801">
        <ele>2080.6</ele>
        <time>2021-05-04T07:20:40Z</time>
      </trkpt>
      <trkpt lat="45.49318" lon="6.91799">
        <ele>2080.6</ele>
        <time>2021-05-04T07:20:42Z</time>
      </trkpt>
      <trkpt lat="45.4932" lon="6.91795">
        <ele>2080.6</ele>
        <time>2021-05-04T07:20:44Z</time>
      </trkpt>
      <trkpt lat="45.49322" lon="6.91792">
        <ele>2080.6</ele>
        <time>2021-05-04T07:20:46Z</time>
      </trkpt>
      <trkpt lat="45.49323" lon="6.91788">
        <ele>2080.6</ele>
        <time>2021-05-04T07:20:48Z</time>
      </trkpt>
      <trkpt lat="45.49324" lon="6.91784">
        <ele>2082.4</ele>
        <time>2021-05-04T07:20:50Z</time>
      </trkpt>
      <trkpt lat="45.49325" lon="6.9178">
        <ele>2082.4</ele>
        <time>2021-05-04T07:20:52Z</time>
      </trkpt>
      <trkpt lat="45.49326" lon="6.91776">
        <ele>2082.4</ele>
        <time>2021-05-04T07:20:54Z</time>
      </trkpt>
      <trkpt lat="45.49327" lon="6.91773">
        <ele>2082.4</ele>
        <time>2021-05-04T07:20:56Z</time>
      </trkpt>
      <trkpt lat="45.49328" lon="6.9177">
        <ele>2082.4</ele>
        <time>2021-05-04T07:20:58Z</time>
      </trkpt>
      <trkpt lat="45.49329" lon="6.91767">
        <ele>2085.6</ele>
        <time>2021-05-04T07:21:00Z</time>
      </trkpt>
      <trkpt lat="45.49329" lon="6.91764">
        <ele>2085.6</ele>
        <time>2021-05-04T07:21:02Z</time>
      </trkpt>
      <trkpt lat="45.49331" lon="6.91761">
        <ele>2085.6</ele>
        <time>2021-05-04T07:21:04Z</time>
      </trkpt>
      <trkpt lat="45.49332" lon="6.91758">
        <ele>2085.6</ele>
        <time>2021-05-04T07:21:06Z</time>
      </trkpt>
      <trkpt lat="45.49332" lon="6.91754">
        <ele>2085.6</ele>
        <time>2021-05-04T07:21:08Z</time>
      </trkpt>
      <trkpt lat="45.49332" lon="6.91751">
        <ele>2088.8</ele>
        <time>2021-05-04T07:21:10Z</time>
      </trkpt>
      <trkpt lat="45.49333" lon="6.91748">
        <ele>2088.8</ele>
        <time>2021-05-04T07:21:12Z</time>
      </trkpt>
      <trkpt lat="45.49334" lon="6.91744">
        <ele>2088.8</ele>
        <time>2021-05-04T07:21:15Z</time>
      </trkpt>
      <trkpt lat="45.49334" lon="6.91741">
        <ele>2088.8</ele>
        <time>2021-05-04T07:21:17Z</time>
      </trkpt>
      <trkpt lat="45.49334" lon="6.91737">
        <ele>2092.6</ele>
        <time>2021-05-04T07:21:20Z</time>
      </trkpt>
      <trkpt lat="45.49335" lon="6.91734">
        <ele>2092.6</ele>
        <time>2021-05-04T07:21:22Z</time>
      </trkpt>
      <trkpt lat="45.49335" lon="6.91732">
        <ele>2092.6</ele>
        <time>2021-05-04T07:21:24Z</time>
      </trkpt>
      <trkpt lat="45.49336" lon="6.91728">
        <ele>2092.6</ele>
        <time>2021-05-04T07:21:27Z</time>
      </trkpt>
      <trkpt lat="45.49336" lon="6.91724">
        <ele>2092.6</ele>
        <time>2021-05-04T07:21:29Z</time>
      </trkpt>
      <trkpt lat="45.49337" lon="6.91721">
        <ele>2092.6</ele>
        <time>2021-05-04T07:21:31Z</time>
      </trkpt>
      <trkpt lat="45.49337" lon="6.91718">
        <ele>2092.6</ele>
        <time>2021-05-04T07:21:34Z</time>
      </trkpt>
      <trkpt lat="45.49337" lon="6.91715">
        <ele>2092.6</ele>
        <time>2021-05-04T07:21:36Z</time>
      </trkpt>
      <trkpt lat="45.49338" lon="6.91712">
        <ele>2092.6</ele>
        <time>2021-05-04T07:21:38Z</time>
      </trkpt>
      <trkpt lat="45.49338" lon="6.91709">
        <ele>2099.8</ele>
        <time>2021-05-04T07:21:40Z</time>
      </trkpt>
      <trkpt lat="45.49338" lon="6.91706">
        <ele>2099.8</ele>
        <time>2021-05-04T07:21:42Z</time>
      </trkpt>
      <trkpt lat="45.49338" lon="6.91703">
        <ele>2099.8</ele>
        <time>2021-05-04T07:21:45Z</time>
      </trkpt>
      <trkpt lat="45.49339" lon="6.91699">
        <ele>2099.8</ele>
        <time>2021-05-04T07:21:48Z</time>
      </trkpt>
      <trkpt lat="45.49339" lon="6.91695">
        <ele>2103.8</ele>
        <time>2021-05-04T07:21:50Z</time>
      </trkpt>
      <trkpt lat="45.4934" lon="6.91693">
        <ele>2103.8</ele>
        <time>2021-05-04T07:21:52Z</time>
      </trkpt>
      <trkpt lat="45.49341" lon="6.91689">
        <ele>2103.8</ele>
        <time>2021-05-04T07:21:55Z</time>
      </trkpt>
      <trkpt lat="45.49342" lon="6.91686">
        <ele>2103.8</ele>
        <time>2021-05-04T07:21:58Z</time>
      </trkpt>
      <trkpt lat="45.49343" lon="6.91682">
        <ele>2103.8</ele>
        <time>2021-05-04T07:22:01Z</time>
      </trkpt>
      <trkpt lat="45.49344" lon="6.91679">
        <ele>2103.8</ele>
        <time>2021-05-04T07:22:03Z</time>
      </trkpt>
      <trkpt lat="45.49345" lon="6.91675">
        <ele>2103.8</ele>
        <time>2021-05-04T07:22:05Z</time>
      </trkpt>
      <trkpt lat="45.49346" lon="6.91672">
        <ele>2103.8</ele>
        <time>2021-05-04T07:22:07Z</time>
      </trkpt>
      <trkpt lat="45.49347" lon="6.91669">
        <ele>2110</ele>
        <time>2021-05-04T07:22:10Z</time>
      </trkpt>
      <trkpt lat="45.49348" lon="6.91666">
        <ele>2110</ele>
        <time>2021-05-04T07:22:13Z</time>
      </trkpt>
      <trkpt lat="45.49349" lon="6.91664">
        <ele>2110</ele>
        <time>2021-05-04T07:22:16Z</time>
      </trkpt>
      <trkpt lat="45.4935" lon="6.91662">
        <ele>2110</ele>
        <time>2021-05-04T07:22:18Z</time>
      </trkpt>
      <trkpt lat="45.49351" lon="6.91659">
        <ele>2112.8</ele>
        <time>2021-05-04T07:22:20Z</time>
      </trkpt>
      <trkpt lat="45.49352" lon="6.91657">
        <ele>2112.8</ele>
        <time>2021-05-04T07:22:22Z</time>
      </trkpt>
      <trkpt lat="45.49353" lon="6.91655">
        <ele>2112.8</ele>
        <time>2021-05-04T07:22:24Z</time>
      </trkpt>
      <trkpt lat="45.49353" lon="6.91651">
        <ele>2112.8</ele>
        <time>2021-05-04T07:22:27Z</time>
      </trkpt>
      <trkpt lat="45.49354" lon="6.91648">
        <ele>2115.6</ele>
        <time>2021-05-04T07:22:30Z</time>
      </trkpt>
      <trkpt lat="45.49355" lon="6.91645">
        <ele>2115.6</ele>
        <time>2021-05-04T07:22:33Z</time>
      </trkpt>
      <trkpt lat="45.49355" lon="6.91642">
        <ele>2115.6</ele>
        <time>2021-05-04T07:22:36Z</time>
      </trkpt>
      <trkpt lat="45.49356" lon="6.91639">
        <ele>2115.6</ele>
        <time>2021-05-04T07:22:38Z</time>
      </trkpt>
      <trkpt lat="45.49356" lon="6.91636">
        <ele>2115.6</ele>
        <time>2021-05-04T07:22:41Z</time>
      </trkpt>
      <trkpt lat="45.49356" lon="6.91633">
        <ele>2115.6</ele>
        <time>2021-05-04T07:22:43Z</time>
      </trkpt>
      <trkpt lat="45.49357" lon="6.9163">
        <ele>2115.6</ele>
        <time>2021-05-04T07:22:45Z</time>
      </trkpt>
      <trkpt lat="45.49357" lon="6.91627">
        <ele>2115.6</ele>
        <time>2021-05-04T07:22:48Z</time>
      </trkpt>
      <trkpt lat="45.49356" lon="6.91623">
        <ele>2115.6</ele>
        <time>2021-05-04T07:22:51Z</time>
      </trkpt>
      <trkpt lat="45.49356" lon="6.91619">
        <ele>2115.6</ele>
        <time>2021-05-04T07:22:54Z</time>
      </trkpt>
      <trkpt lat="45.49356" lon="6.91615">
        <ele>2115.6</ele>
        <time>2021-05-04T07:22:57Z</time>
      </trkpt>
      <trkpt lat="45.49355" lon="6.91612">
        <ele>2125.4</ele>
        <time>2021-05-04T07:23:00Z</time>
      </trkpt>
      <trkpt lat="45.49353" lon="6.91609">
        <ele>2125.4</ele>
        <time>2021-05-04T07:23:03Z</time>
      </trkpt>
      <trkpt lat="45.49353" lon="6.91606">
        <ele>2125.4</ele>
        <time>2021-05-04T07:23:06Z</time>
      </trkpt>
      <trkpt lat="45.49352" lon="6.91602">
        <ele>2126.8</ele>
        <time>2021-05-04T07:23:10Z</time>
      </trkpt>
      <trkpt lat="45.49351" lon="6.916">
        <ele>2126.8</ele>
        <time>2021-05-04T07:23:12Z</time>
      </trkpt>
      <trkpt lat="45.49349" lon="6.91598">
        <ele>2126.8</ele>
        <time>2021-05-04T07:23:14Z</time>
      </trkpt>
      <trkpt lat="45.49349" lon="6.91595">
        <ele>2126.8</ele>
        <time>2021-05-04T07:23:16Z</time>
      </trkpt>
      <trkpt lat="45.49348" lon="6.91592">
        <ele>2126.8</ele>
        <time>2021-05-04T07:23:19Z</time>
      </trkpt>
      <trkpt lat="45.49347" lon="6.9159">
        <ele>2126.8</ele>
        <time>2021-05-04T07:23:21Z</time>
      </trkpt>
      <trkpt lat="45.49345" lon="6.91588">
        <ele>2126.8</ele>
        <time>2021-05-04T07:23:23Z</time>
      </trkpt>
      <trkpt lat="45.49344" lon="6.91585">
        <ele>2126.8</ele>
        <time>2021-05-04T07:23:26Z</time>
      </trkpt>
      <trkpt lat="45.49343" lon="6.91582">
        <ele>2126.8</ele>
        <time>2021-05-04T07:23:29Z</time>
      </trkpt>
      <trkpt lat="45.49341" lon="6.9158">
        <ele>2126.8</ele>
        <time>2021-05-04T07:23:31Z</time>
      </trkpt>
      <trkpt lat="45.49341" lon="6.91577">
        <ele>2126.8</ele>
        <time>2021-05-04T07:23:34Z</time>
      </trkpt>
      <trkpt lat="45.4934" lon="6.91574">
        <ele>2126.8</ele>
        <time>2021-05-04T07:23:37Z</time>
      </trkpt>
      <trkpt lat="45.49339" lon="6.91571">
        <ele>2126.8</ele>
        <time>2021-05-04T07:23:39Z</time>
      </trkpt>
      <trkpt lat="45.49338" lon="6.91568">
        <ele>2126.8</ele>
        <time>2021-05-04T07:23:42Z</time>
      </trkpt>
      <trkpt lat="45.49337" lon="6.91566">
        <ele>2126.8</ele>
        <time>2021-05-04T07:23:44Z</time>
      </trkpt>
      <trkpt lat="45.49336" lon="6.91562">
        <ele>2126.8</ele>
        <time>2021-05-04T07:23:47Z</time>
      </trkpt>
      <trkpt lat="45.49335" lon="6.9156">
        <ele>2133.4</ele>
        <time>2021-05-04T07:23:50Z</time>
      </trkpt>
      <trkpt lat="45.49333" lon="6.91557">
        <ele>2133.4</ele>
        <time>2021-05-04T07:23:53Z</time>
      </trkpt>
      <trkpt lat="45.49332" lon="6.91554">
        <ele>2133.4</ele>
        <time>2021-05-04T07:23:56Z</time>
      </trkpt>
      <trkpt lat="45.49331" lon="6.91552">
        <ele>2133.4</ele>
        <time>2021-05-04T07:23:58Z</time>
      </trkpt>
      <trkpt lat="45.4933" lon="6.91549">
        <ele>2133.4</ele>
        <time>2021-05-04T07:24:01Z</time>
      </trkpt>
      <trkpt lat="45.49328" lon="6.91548">
        <ele>2133.4</ele>
        <time>2021-05-04T07:24:04Z</time>
      </trkpt>
      <trkpt lat="45.49326" lon="6.91546">
        <ele>2133.4</ele>
        <time>2021-05-04T07:24:06Z</time>
      </trkpt>
      <trkpt lat="45.49324" lon="6.91545">
        <ele>2133.4</ele>
        <time>2021-05-04T07:24:09Z</time>
      </trkpt>
      <trkpt lat="45.49323" lon="6.91543">
        <ele>2133.4</ele>
        <time>2021-05-04T07:24:12Z</time>
      </trkpt>
      <trkpt lat="45.49321" lon="6.91541">
        <ele>2133.4</ele>
        <time>2021-05-04T07:24:14Z</time>
      </trkpt>
      <trkpt lat="45.49318" lon="6.91539">
        <ele>2133.4</ele>
        <time>2021-05-04T07:24:17Z</time>
      </trkpt>
      <trkpt lat="45.49316" lon="6.91539">
        <ele>2133.4</ele>
        <time>2021-05-04T07:24:19Z</time>
      </trkpt>
      <trkpt lat="45.49315" lon="6.91537">
        <ele>2133.4</ele>
        <time>2021-05-04T07:24:21Z</time>
      </trkpt>
      <trkpt lat="45.49313" lon="6.91536">
        <ele>2133.4</ele>
        <time>2021-05-04T07:24:23Z</time>
      </trkpt>
      <trkpt lat="45.49311" lon="6.91534">
        <ele>2133.4</ele>
        <time>2021-05-04T07:24:25Z</time>
      </trkpt>
      <trkpt lat="45.49309" lon="6.91532">
        <ele>2133.4</ele>
        <time>2021-05-04T07:24:28Z</time>
      </trkpt>
      <trkpt lat="45.49307" lon="6.9153">
        <ele>2133.4</ele>
        <time>2021-05-04T07:24:31Z</time>
      </trkpt>
      <trkpt lat="45.49305" lon="6.91528">
        <ele>2133.4</ele>
        <time>2021-05-04T07:24:34Z</time>
      </trkpt>
      <trkpt lat="45.49303" lon="6.91526">
        <ele>2133.4</ele>
        <time>2021-05-04T07:24:37Z</time>
      </trkpt>
      <trkpt lat="45.49301" lon="6.91525">
        <ele>2133.4</ele>
        <time>2021-05-04T07:24:39Z</time>
      </trkpt>
      <trkpt lat="45.49299" lon="6.91522">
        <ele>2133.4</ele>
        <time>2021-05-04T07:24:42Z</time>
      </trkpt>
      <trkpt lat="45.49297" lon="6.91522">
        <ele>2133.4</ele>
        <time>2021-05-04T07:24:45Z</time>
      </trkpt>
      <trkpt lat="45.49295" lon="6.9152">
        <ele>2133.4</ele>
        <time>2021-05-04T07:24:47Z</time>
      </trkpt>
      <trkpt lat="45.49293" lon="6.91519">
        <ele>2133.4</ele>
        <time>2021-05-04T07:24:49Z</time>
      </trkpt>
      <trkpt lat="45.49291" lon="6.91518">
        <ele>2133.4</ele>
        <time>2021-05-04T07:24:51Z</time>
      </trkpt>
      <trkpt lat="45.49289" lon="6.91517">
        <ele>2133.4</ele>
        <time>2021-05-04T07:24:53Z</time>
      </trkpt>
      <trkpt lat="45.49287" lon="6.91516">
        <ele>2133.4</ele>
        <time>2021-05-04T07:24:55Z</time>
      </trkpt>
      <trkpt lat="45.49285" lon="6.91515">
        <ele>2133.4</ele>
        <time>2021-05-04T07:24:57Z</time>
      </trkpt>
      <trkpt lat="45.49283" lon="6.91514">
        <ele>2133.4</ele>
        <time>2021-05-04T07:24:59Z</time>
      </trkpt>
      <trkpt lat="45.49281" lon="6.91513">
        <ele>2133.4</ele>
        <time>2021-05-04T07:25:01Z</time>
      </trkpt>
      <trkpt lat="45.49279" lon="6.91511">
        <ele>2133.4</ele>
        <time>2021-05-04T07:25:03Z</time>
      </trkpt>
      <trkpt lat="45.49277" lon="6.9151">
        <ele>2133.4</ele>
        <time>2021-05-04T07:25:05Z</time>
      </trkpt>
      <trkpt lat="45.49275" lon="6.91509">
        <ele>2133.4</ele>
        <time>2021-05-04T07:25:07Z</time>
      </trkpt>
      <trkpt lat="45.49273" lon="6.91507">
        <ele>2133.4</ele>
        <time>2021-05-04T07:25:09Z</time>
      </trkpt>
      <trkpt lat="45.49271" lon="6.91506">
        <ele>2133.4</ele>
        <time>2021-05-04T07:25:11Z</time>
      </trkpt>
      <trkpt lat="45.49269" lon="6.91504">
        <ele>2133.4</ele>
        <time>2021-05-04T07:25:13Z</time>
      </trkpt>
      <trkpt lat="45.49268" lon="6.91503">
        <ele>2133.4</ele>
        <time>2021-05-04T07:25:15Z</time>
      </trkpt>
      <trkpt lat="45.49266" lon="6.91501">
        <ele>2133.4</ele>
        <time>2021-05-04T07:25:17Z</time>
      </trkpt>
      <trkpt lat="45.49264" lon="6.915">
        <ele>2133.4</ele>
        <time>2021-05-04T07:25:19Z</time>
      </trkpt>
      <trkpt lat="45.49262" lon="6.91498">
        <ele>2133.4</ele>
        <time>2021-05-04T07:25:21Z</time>
      </trkpt>
      <trkpt lat="45.4926" lon="6.91498">
        <ele>2133.4</ele>
        <time>2021-05-04T07:25:23Z</time>
      </trkpt>
      <trkpt lat="45.49258" lon="6.91497">
        <ele>2133.4</ele>
        <time>2021-05-04T07:25:25Z</time>
      </trkpt>
      <trkpt lat="45.49256" lon="6.91496">
        <ele>2133.4</ele>
        <time>2021-05-04T07:25:27Z</time>
      </trkpt>
      <trkpt lat="45.49254" lon="6.91494">
        <ele>2133.4</ele>
        <time>2021-05-04T07:25:29Z</time>
      </trkpt>
      <trkpt lat="45.49252" lon="6.91492">
        <ele>2133.4</ele>
        <time>2021-05-04T07:25:31Z</time>
      </trkpt>
      <trkpt lat="45.49249" lon="6.91492">
        <ele>2133.4</ele>
        <time>2021-05-04T07:25:33Z</time>
      </trkpt>
      <trkpt lat="45.49247" lon="6.91491">
        <ele>2133.4</ele>
        <time>2021-05-04T07:25:35Z</time>
      </trkpt>
      <trkpt lat="45.49244" lon="6.9149">
        <ele>2133.4</ele>
        <time>2021-05-04T07:25:37Z</time>
      </trkpt>
      <trkpt lat="45.49242" lon="6.91489">
        <ele>2133.4</ele>
        <time>2021-05-04T07:25:39Z</time>
      </trkpt>
      <trkpt lat="45.49239" lon="6.91487">
        <ele>2133.4</ele>
        <time>2021-05-04T07:25:42Z</time>
      </trkpt>
      <trkpt lat="45.49237" lon="6.91485">
        <ele>2133.4</ele>
        <time>2021-05-04T07:25:44Z</time>
      </trkpt>
      <trkpt lat="45.49234" lon="6.91484">
        <ele>2133.4</ele>
        <time>2021-05-04T07:25:46Z</time>
      </trkpt>
      <trkpt lat="45.49232" lon="6.91482">
        <ele>2133.4</ele>
        <time>2021-05-04T07:25:48Z</time>
      </trkpt>
      <trkpt lat="45.4923" lon="6.91481">
        <ele>2153.4</ele>
        <time>2021-05-04T07:25:50Z</time>
      </trkpt>
      <trkpt lat="45.49228" lon="6.91479">
        <ele>2153.4</ele>
        <time>2021-05-04T07:25:52Z</time>
      </trkpt>
      <trkpt lat="45.49226" lon="6.91478">
        <ele>2153.4</ele>
        <time>2021-05-04T07:25:54Z</time>
      </trkpt>
      <trkpt lat="45.49224" lon="6.91477">
        <ele>2153.4</ele>
        <time>2021-05-04T07:25:56Z</time>
      </trkpt>
      <trkpt lat="45.49222" lon="6.91476">
        <ele>2153.4</ele>
        <time>2021-05-04T07:25:58Z</time>
      </trkpt>
      <trkpt lat="45.4922" lon="6.91474">
        <ele>2154.2</ele>
        <time>2021-05-04T07:26:00Z</time>
      </trkpt>
      <trkpt lat="45.49218" lon="6.91472">
        <ele>2154.2</ele>
        <time>2021-05-04T07:26:02Z</time>
      </trkpt>
      <trkpt lat="45.49216" lon="6.91469">
        <ele>2154.2</ele>
        <time>2021-05-04T07:26:04Z</time>
      </trkpt>
      <trkpt lat="45.49214" lon="6.91468">
        <ele>2154.2</ele>
        <time>2021-05-04T07:26:06Z</time>
      </trkpt>
      <trkpt lat="45.49212" lon="6.91466">
        <ele>2154.2</ele>
        <time>2021-05-04T07:26:08Z</time>
      </trkpt>
      <trkpt lat="45.49209" lon="6.91465">
        <ele>2154.6</ele>
        <time>2021-05-04T07:26:10Z</time>
      </trkpt>
      <trkpt lat="45.49207" lon="6.91464">
        <ele>2154.6</ele>
        <time>2021-05-04T07:26:12Z</time>
      </trkpt>
      <trkpt lat="45.49204" lon="6.91462">
        <ele>2154.6</ele>
        <time>2021-05-04T07:26:14Z</time>
      </trkpt>
      <trkpt lat="45.49202" lon="6.9146">
        <ele>2154.6</ele>
        <time>2021-05-04T07:26:16Z</time>
      </trkpt>
      <trkpt lat="45.492" lon="6.91458">
        <ele>2154.6</ele>
        <time>2021-05-04T07:26:18Z</time>
      </trkpt>
      <trkpt lat="45.49197" lon="6.91456">
        <ele>2154.2</ele>
        <time>2021-05-04T07:26:20Z</time>
      </trkpt>
      <trkpt lat="45.49195" lon="6.91454">
        <ele>2154.2</ele>
        <time>2021-05-04T07:26:22Z</time>
      </trkpt>
      <trkpt lat="45.49192" lon="6.91453">
        <ele>2154.2</ele>
        <time>2021-05-04T07:26:24Z</time>
      </trkpt>
      <trkpt lat="45.4919" lon="6.91452">
        <ele>2154.2</ele>
        <time>2021-05-04T07:26:26Z</time>
      </trkpt>
      <trkpt lat="45.49188" lon="6.9145">
        <ele>2154.2</ele>
        <time>2021-05-04T07:26:27Z</time>
      </trkpt>
      <trkpt lat="45.49186" lon="6.91449">
        <ele>2154.2</ele>
        <time>2021-05-04T07:26:29Z</time>
      </trkpt>
      <trkpt lat="45.49184" lon="6.91447">
        <ele>2154.2</ele>
        <time>2021-05-04T07:26:31Z</time>
      </trkpt>
      <trkpt lat="45.49181" lon="6.91445">
        <ele>2154.2</ele>
        <time>2021-05-04T07:26:33Z</time>
      </trkpt>
      <trkpt lat="45.49179" lon="6.91442">
        <ele>2154.2</ele>
        <time>2021-05-04T07:26:35Z</time>
      </trkpt>
      <trkpt lat="45.49176" lon="6.9144">
        <ele>2154.2</ele>
        <time>2021-05-04T07:26:37Z</time>
      </trkpt>
      <trkpt lat="45.49174" lon="6.91438">
        <ele>2154.2</ele>
        <time>2021-05-04T07:26:39Z</time>
      </trkpt>
      <trkpt lat="45.49172" lon="6.91437">
        <ele>2154.2</ele>
        <time>2021-05-04T07:26:41Z</time>
      </trkpt>
      <trkpt lat="45.4917" lon="6.91436">
        <ele>2154.2</ele>
        <time>2021-05-04T07:26:43Z</time>
      </trkpt>
      <trkpt lat="45.49168" lon="6.91433">
        <ele>2154.2</ele>
        <time>2021-05-04T07:26:45Z</time>
      </trkpt>
      <trkpt lat="45.49166" lon="6.91431">
        <ele>2154.2</ele>
        <time>2021-05-04T07:26:47Z</time>
      </trkpt>
      <trkpt lat="45.49164" lon="6.9143">
        <ele>2154.2</ele>
        <time>2021-05-04T07:26:49Z</time>
      </trkpt>
      <trkpt lat="45.49161" lon="6.91428">
        <ele>2154.2</ele>
        <time>2021-05-04T07:26:51Z</time>
      </trkpt>
      <trkpt lat="45.49159" lon="6.91427">
        <ele>2154.2</ele>
        <time>2021-05-04T07:26:53Z</time>
      </trkpt>
      <trkpt lat="45.49157" lon="6.91426">
        <ele>2154.2</ele>
        <time>2021-05-04T07:26:55Z</time>
      </trkpt>
      <trkpt lat="45.49156" lon="6.91424">
        <ele>2154.2</ele>
        <time>2021-05-04T07:26:57Z</time>
      </trkpt>
      <trkpt lat="45.49153" lon="6.91422">
        <ele>2154.2</ele>
        <time>2021-05-04T07:26:59Z</time>
      </trkpt>
      <trkpt lat="45.49151" lon="6.9142">
        <ele>2154.2</ele>
        <time>2021-05-04T07:27:01Z</time>
      </trkpt>
      <trkpt lat="45.49148" lon="6.91419">
        <ele>2154.2</ele>
        <time>2021-05-04T07:27:03Z</time>
      </trkpt>
      <trkpt lat="45.49147" lon="6.91417">
        <ele>2154.2</ele>
        <time>2021-05-04T07:27:05Z</time>
      </trkpt>
      <trkpt lat="45.49144" lon="6.91416">
        <ele>2154.2</ele>
        <time>2021-05-04T07:27:07Z</time>
      </trkpt>
      <trkpt lat="45.49142" lon="6.91414">
        <ele>2154.2</ele>
        <time>2021-05-04T07:27:09Z</time>
      </trkpt>
      <trkpt lat="45.4914" lon="6.91414">
        <ele>2154.2</ele>
        <time>2021-05-04T07:27:11Z</time>
      </trkpt>
      <trkpt lat="45.49137" lon="6.91413">
        <ele>2154.2</ele>
        <time>2021-05-04T07:27:13Z</time>
      </trkpt>
      <trkpt lat="45.49135" lon="6.91412">
        <ele>2154.2</ele>
        <time>2021-05-04T07:27:15Z</time>
      </trkpt>
      <trkpt lat="45.49132" lon="6.91411">
        <ele>2154.2</ele>
        <time>2021-05-04T07:27:17Z</time>
      </trkpt>
      <trkpt lat="45.4913" lon="6.9141">
        <ele>2154.2</ele>
        <time>2021-05-04T07:27:19Z</time>
      </trkpt>
      <trkpt lat="45.49128" lon="6.91409">
        <ele>2154.2</ele>
        <time>2021-05-04T07:27:21Z</time>
      </trkpt>
      <trkpt lat="45.49126" lon="6.91408">
        <ele>2154.2</ele>
        <time>2021-05-04T07:27:23Z</time>
      </trkpt>
      <trkpt lat="45.49124" lon="6.91407">
        <ele>2154.2</ele>
        <time>2021-05-04T07:27:25Z</time>
      </trkpt>
      <trkpt lat="45.49121" lon="6.91406">
        <ele>2154.2</ele>
        <time>2021-05-04T07:27:27Z</time>
      </trkpt>
      <trkpt lat="45.49118" lon="6.91405">
        <ele>2154.2</ele>
        <time>2021-05-04T07:27:29Z</time>
      </trkpt>
      <trkpt lat="45.49116" lon="6.91404">
        <ele>2154.2</ele>
        <time>2021-05-04T07:27:31Z</time>
      </trkpt>
      <trkpt lat="45.49113" lon="6.91404">
        <ele>2154.2</ele>
        <time>2021-05-04T07:27:33Z</time>
      </trkpt>
      <trkpt lat="45.49111" lon="6.91402">
        <ele>2154.2</ele>
        <time>2021-05-04T07:27:35Z</time>
      </trkpt>
      <trkpt lat="45.49108" lon="6.914">
        <ele>2154.2</ele>
        <time>2021-05-04T07:27:37Z</time>
      </trkpt>
      <trkpt lat="45.49104" lon="6.914">
        <ele>2154.2</ele>
        <time>2021-05-04T07:27:39Z</time>
      </trkpt>
      <trkpt lat="45.49101" lon="6.914">
        <ele>2154.2</ele>
        <time>2021-05-04T07:27:41Z</time>
      </trkpt>
      <trkpt lat="45.49099" lon="6.914">
        <ele>2154.2</ele>
        <time>2021-05-04T07:27:43Z</time>
      </trkpt>
      <trkpt lat="45.49097" lon="6.914">
        <ele>2154.2</ele>
        <time>2021-05-04T07:27:45Z</time>
      </trkpt>
      <trkpt lat="45.49094" lon="6.914">
        <ele>2154.2</ele>
        <time>2021-05-04T07:27:47Z</time>
      </trkpt>
      <trkpt lat="45.49092" lon="6.91399">
        <ele>2154.2</ele>
        <time>2021-05-04T07:27:49Z</time>
      </trkpt>
      <trkpt lat="45.4909" lon="6.91397">
        <ele>2154.2</ele>
        <time>2021-05-04T07:27:51Z</time>
      </trkpt>
      <trkpt lat="45.49088" lon="6.91395">
        <ele>2154.2</ele>
        <time>2021-05-04T07:27:53Z</time>
      </trkpt>
      <trkpt lat="45.49086" lon="6.91394">
        <ele>2154.2</ele>
        <time>2021-05-04T07:27:55Z</time>
      </trkpt>
      <trkpt lat="45.49084" lon="6.91394">
        <ele>2154.2</ele>
        <time>2021-05-04T07:27:56Z</time>
      </trkpt>
      <trkpt lat="45.49082" lon="6.91393">
        <ele>2154.2</ele>
        <time>2021-05-04T07:27:58Z</time>
      </trkpt>
      <trkpt lat="45.49079" lon="6.91392">
        <ele>2163</ele>
        <time>2021-05-04T07:28:00Z</time>
      </trkpt>
      <trkpt lat="45.49076" lon="6.9139">
        <ele>2163</ele>
        <time>2021-05-04T07:28:02Z</time>
      </trkpt>
      <trkpt lat="45.49073" lon="6.9139">
        <ele>2163</ele>
        <time>2021-05-04T07:28:04Z</time>
      </trkpt>
      <trkpt lat="45.4907" lon="6.91389">
        <ele>2163</ele>
        <time>2021-05-04T07:28:06Z</time>
      </trkpt>
      <trkpt lat="45.49067" lon="6.91388">
        <ele>2163</ele>
        <time>2021-05-04T07:28:08Z</time>
      </trkpt>
      <trkpt lat="45.49063" lon="6.91387">
        <ele>2163.8</ele>
        <time>2021-05-04T07:28:10Z</time>
      </trkpt>
      <trkpt lat="45.4906" lon="6.91385">
        <ele>2163.8</ele>
        <time>2021-05-04T07:28:12Z</time>
      </trkpt>
      <trkpt lat="45.49058" lon="6.91383">
        <ele>2163.8</ele>
        <time>2021-05-04T07:28:13Z</time>
      </trkpt>
      <trkpt lat="45.49055" lon="6.91381">
        <ele>2163.8</ele>
        <time>2021-05-04T07:28:15Z</time>
      </trkpt>
      <trkpt lat="45.49053" lon="6.9138">
        <ele>2163.8</ele>
        <time>2021-05-04T07:28:16Z</time>
      </trkpt>
      <trkpt lat="45.4905" lon="6.91379">
        <ele>2163.8</ele>
        <time>2021-05-04T07:28:18Z</time>
      </trkpt>
      <trkpt lat="45.49045" lon="6.91377">
        <ele>2163.4</ele>
        <time>2021-05-04T07:28:20Z</time>
      </trkpt>
      <trkpt lat="45.49043" lon="6.91376">
        <ele>2163.4</ele>
        <time>2021-05-04T07:28:21Z</time>
      </trkpt>
      <trkpt lat="45.49041" lon="6.91376">
        <ele>2163.4</ele>
        <time>2021-05-04T07:28:22Z</time>
      </trkpt>
      <trkpt lat="45.49039" lon="6.91374">
        <ele>2163.4</ele>
        <time>2021-05-04T07:28:23Z</time>
      </trkpt>
      <trkpt lat="45.49037" lon="6.91373">
        <ele>2163.4</ele>
        <time>2021-05-04T07:28:24Z</time>
      </trkpt>
      <trkpt lat="45.49035" lon="6.91372">
        <ele>2163.4</ele>
        <time>2021-05-04T07:28:25Z</time>
      </trkpt>
      <trkpt lat="45.49033" lon="6.9137">
        <ele>2163.4</ele>
        <time>2021-05-04T07:28:26Z</time>
      </trkpt>
      <trkpt lat="45.49031" lon="6.91369">
        <ele>2163.4</ele>
        <time>2021-05-04T07:28:27Z</time>
      </trkpt>
      <trkpt lat="45.49029" lon="6.91367">
        <ele>2163.4</ele>
        <time>2021-05-04T07:28:28Z</time>
      </trkpt>
      <trkpt lat="45.49027" lon="6.91366">
        <ele>2162.2</ele>
        <time>2021-05-04T07:28:30Z</time>
      </trkpt>
      <trkpt lat="45.49025" lon="6.91365">
        <ele>2162.2</ele>
        <time>2021-05-04T07:28:31Z</time>
      </trkpt>
      <trkpt lat="45.49021" lon="6.91362">
        <ele>2162.2</ele>
        <time>2021-05-04T07:28:33Z</time>
      </trkpt>
      <trkpt lat="45.4902" lon="6.91361">
        <ele>2162.2</ele>
        <time>2021-05-04T07:28:34Z</time>
      </trkpt>
      <trkpt lat="45.49018" lon="6.9136">
        <ele>2162.2</ele>
        <time>2021-05-04T07:28:35Z</time>
      </trkpt>
      <trkpt lat="45.49015" lon="6.91358">
        <ele>2162.2</ele>
        <time>2021-05-04T07:28:37Z</time>
      </trkpt>
      <trkpt lat="45.49012" lon="6.91356">
        <ele>2162.2</ele>
        <time>2021-05-04T07:28:38Z</time>
      </trkpt>
      <trkpt lat="45.49011" lon="6.91355">
        <ele>2162.2</ele>
        <time>2021-05-04T07:28:39Z</time>
      </trkpt>
      <trkpt lat="45.49009" lon="6.91354">
        <ele>2160.6</ele>
        <time>2021-05-04T07:28:40Z</time>
      </trkpt>
      <trkpt lat="45.49007" lon="6.91352">
        <ele>2160.6</ele>
        <time>2021-05-04T07:28:41Z</time>
      </trkpt>
      <trkpt lat="45.49005" lon="6.91351">
        <ele>2160.6</ele>
        <time>2021-05-04T07:28:42Z</time>
      </trkpt>
      <trkpt lat="45.49002" lon="6.91349">
        <ele>2160.6</ele>
        <time>2021-05-04T07:28:44Z</time>
      </trkpt>
      <trkpt lat="45.48999" lon="6.91346">
        <ele>2160.6</ele>
        <time>2021-05-04T07:28:46Z</time>
      </trkpt>
      <trkpt lat="45.48996" lon="6.91344">
        <ele>2160.6</ele>
        <time>2021-05-04T07:28:48Z</time>
      </trkpt>
      <trkpt lat="45.48995" lon="6.91343">
        <ele>2160.6</ele>
        <time>2021-05-04T07:28:49Z</time>
      </trkpt>
      <trkpt lat="45.48993" lon="6.91342">
        <ele>2160.2</ele>
        <time>2021-05-04T07:28:50Z</time>
      </trkpt>
      <trkpt lat="45.48991" lon="6.9134">
        <ele>2160.2</ele>
        <time>2021-05-04T07:28:52Z</time>
      </trkpt>
      <trkpt lat="45.48988" lon="6.91338">
        <ele>2160.2</ele>
        <time>2021-05-04T07:28:54Z</time>
      </trkpt>
      <trkpt lat="45.48985" lon="6.91336">
        <ele>2160.2</ele>
        <time>2021-05-04T07:28:56Z</time>
      </trkpt>
      <trkpt lat="45.48983" lon="6.91334">
        <ele>2160.2</ele>
        <time>2021-05-04T07:28:58Z</time>
      </trkpt>
      <trkpt lat="45.48981" lon="6.91333">
        <ele>2160.2</ele>
        <time>2021-05-04T07:28:59Z</time>
      </trkpt>
      <trkpt lat="45.48979" lon="6.9133">
        <ele>2160.2</ele>
        <time>2021-05-04T07:29:01Z</time>
      </trkpt>
      <trkpt lat="45.48977" lon="6.91329">
        <ele>2160.2</ele>
        <time>2021-05-04T07:29:02Z</time>
      </trkpt>
      <trkpt lat="45.48975" lon="6.91328">
        <ele>2160.2</ele>
        <time>2021-05-04T07:29:03Z</time>
      </trkpt>
      <trkpt lat="45.48974" lon="6.91326">
        <ele>2160.2</ele>
        <time>2021-05-04T07:29:04Z</time>
      </trkpt>
      <trkpt lat="45.48971" lon="6.91325">
        <ele>2160.2</ele>
        <time>2021-05-04T07:29:06Z</time>
      </trkpt>
      <trkpt lat="45.48968" lon="6.91322">
        <ele>2160.2</ele>
        <time>2021-05-04T07:29:08Z</time>
      </trkpt>
      <trkpt lat="45.48966" lon="6.91322">
        <ele>2160.2</ele>
        <time>2021-05-04T07:29:09Z</time>
      </trkpt>
      <trkpt lat="45.48964" lon="6.9132">
        <ele>2160.2</ele>
        <time>2021-05-04T07:29:11Z</time>
      </trkpt>
      <trkpt lat="45.48962" lon="6.91319">
        <ele>2160.2</ele>
        <time>2021-05-04T07:29:13Z</time>
      </trkpt>
      <trkpt lat="45.48959" lon="6.91318">
        <ele>2160.2</ele>
        <time>2021-05-04T07:29:15Z</time>
      </trkpt>
      <trkpt lat="45.48957" lon="6.91317">
        <ele>2160.2</ele>
        <time>2021-05-04T07:29:17Z</time>
      </trkpt>
      <trkpt lat="45.48954" lon="6.91316">
        <ele>2160.2</ele>
        <time>2021-05-04T07:29:19Z</time>
      </trkpt>
      <trkpt lat="45.48953" lon="6.91314">
        <ele>2160.2</ele>
        <time>2021-05-04T07:29:21Z</time>
      </trkpt>
      <trkpt lat="45.48949" lon="6.91312">
        <ele>2160.2</ele>
        <time>2021-05-04T07:29:23Z</time>
      </trkpt>
      <trkpt lat="45.48947" lon="6.9131">
        <ele>2160.2</ele>
        <time>2021-05-04T07:29:25Z</time>
      </trkpt>
      <trkpt lat="45.48945" lon="6.9131">
        <ele>2160.2</ele>
        <time>2021-05-04T07:29:27Z</time>
      </trkpt>
      <trkpt lat="45.48943" lon="6.91308">
        <ele>2160.2</ele>
        <time>2021-05-04T07:29:29Z</time>
      </trkpt>
      <trkpt lat="45.48941" lon="6.91306">
        <ele>2160.2</ele>
        <time>2021-05-04T07:29:31Z</time>
      </trkpt>
      <trkpt lat="45.48939" lon="6.91305">
        <ele>2160.2</ele>
        <time>2021-05-04T07:29:33Z</time>
      </trkpt>
      <trkpt lat="45.48937" lon="6.91304">
        <ele>2160.2</ele>
        <time>2021-05-04T07:29:35Z</time>
      </trkpt>
      <trkpt lat="45.48934" lon="6.91302">
        <ele>2160.2</ele>
        <time>2021-05-04T07:29:37Z</time>
      </trkpt>
      <trkpt lat="45.48932" lon="6.91301">
        <ele>2160.2</ele>
        <time>2021-05-04T07:29:39Z</time>
      </trkpt>
      <trkpt lat="45.4893" lon="6.91299">
        <ele>2160.2</ele>
        <time>2021-05-04T07:29:41Z</time>
      </trkpt>
      <trkpt lat="45.48928" lon="6.91297">
        <ele>2160.2</ele>
        <time>2021-05-04T07:29:43Z</time>
      </trkpt>
      <trkpt lat="45.48925" lon="6.91296">
        <ele>2160.2</ele>
        <time>2021-05-04T07:29:45Z</time>
      </trkpt>
      <trkpt lat="45.48923" lon="6.91295">
        <ele>2160.2</ele>
        <time>2021-05-04T07:29:47Z</time>
      </trkpt>
      <trkpt lat="45.4892" lon="6.91294">
        <ele>2160.2</ele>
        <time>2021-05-04T07:29:49Z</time>
      </trkpt>
      <trkpt lat="45.48918" lon="6.91293">
        <ele>2160.2</ele>
        <time>2021-05-04T07:29:51Z</time>
      </trkpt>
      <trkpt lat="45.48916" lon="6.91292">
        <ele>2160.2</ele>
        <time>2021-05-04T07:29:53Z</time>
      </trkpt>
      <trkpt lat="45.48914" lon="6.9129">
        <ele>2160.2</ele>
        <time>2021-05-04T07:29:55Z</time>
      </trkpt>
      <trkpt lat="45.48912" lon="6.91289">
        <ele>2160.2</ele>
        <time>2021-05-04T07:29:57Z</time>
      </trkpt>
      <trkpt lat="45.48909" lon="6.91288">
        <ele>2160.2</ele>
        <time>2021-05-04T07:29:59Z</time>
      </trkpt>
      <trkpt lat="45.48908" lon="6.91286">
        <ele>2171.6</ele>
        <time>2021-05-04T07:30:01Z</time>
      </trkpt>
      <trkpt lat="45.48904" lon="6.91285">
        <ele>2171.6</ele>
        <time>2021-05-04T07:30:03Z</time>
      </trkpt>
      <trkpt lat="45.48902" lon="6.91284">
        <ele>2171.6</ele>
        <time>2021-05-04T07:30:05Z</time>
      </trkpt>
      <trkpt lat="45.489" lon="6.91284">
        <ele>2171.6</ele>
        <time>2021-05-04T07:30:07Z</time>
      </trkpt>
      <trkpt lat="45.48898" lon="6.91283">
        <ele>2171.6</ele>
        <time>2021-05-04T07:30:09Z</time>
      </trkpt>
      <trkpt lat="45.48895" lon="6.91281">
        <ele>2171.6</ele>
        <time>2021-05-04T07:30:11Z</time>
      </trkpt>
      <trkpt lat="45.48893" lon="6.9128">
        <ele>2171.6</ele>
        <time>2021-05-04T07:30:13Z</time>
      </trkpt>
      <trkpt lat="45.48891" lon="6.91278">
        <ele>2171.6</ele>
        <time>2021-05-04T07:30:15Z</time>
      </trkpt>
      <trkpt lat="45.48889" lon="6.91276">
        <ele>2171.6</ele>
        <time>2021-05-04T07:30:17Z</time>
      </trkpt>
      <trkpt lat="45.48887" lon="6.91274">
        <ele>2171.6</ele>
        <time>2021-05-04T07:30:19Z</time>
      </trkpt>
      <trkpt lat="45.48884" lon="6.91274">
        <ele>2171.6</ele>
        <time>2021-05-04T07:30:22Z</time>
      </trkpt>
      <trkpt lat="45.48881" lon="6.91274">
        <ele>2171.6</ele>
        <time>2021-05-04T07:30:24Z</time>
      </trkpt>
      <trkpt lat="45.48878" lon="6.91273">
        <ele>2171.6</ele>
        <time>2021-05-04T07:30:26Z</time>
      </trkpt>
      <trkpt lat="45.48876" lon="6.91272">
        <ele>2171.6</ele>
        <time>2021-05-04T07:30:28Z</time>
      </trkpt>
      <trkpt lat="45.48874" lon="6.91271">
        <ele>2175</ele>
        <time>2021-05-04T07:30:30Z</time>
      </trkpt>
      <trkpt lat="45.48872" lon="6.91269">
        <ele>2175</ele>
        <time>2021-05-04T07:30:32Z</time>
      </trkpt>
      <trkpt lat="45.4887" lon="6.91267">
        <ele>2175</ele>
        <time>2021-05-04T07:30:34Z</time>
      </trkpt>
      <trkpt lat="45.48868" lon="6.91266">
        <ele>2175</ele>
        <time>2021-05-04T07:30:36Z</time>
      </trkpt>
      <trkpt lat="45.48866" lon="6.91265">
        <ele>2175</ele>
        <time>2021-05-04T07:30:38Z</time>
      </trkpt>
      <trkpt lat="45.48863" lon="6.91265">
        <ele>2176.8</ele>
        <time>2021-05-04T07:30:40Z</time>
      </trkpt>
      <trkpt lat="45.4886" lon="6.91264">
        <ele>2176.8</ele>
        <time>2021-05-04T07:30:43Z</time>
      </trkpt>
      <trkpt lat="45.48859" lon="6.91263">
        <ele>2176.8</ele>
        <time>2021-05-04T07:30:45Z</time>
      </trkpt>
      <trkpt lat="45.48857" lon="6.91261">
        <ele>2176.8</ele>
        <time>2021-05-04T07:30:47Z</time>
      </trkpt>
      <trkpt lat="45.48854" lon="6.91259">
        <ele>2179</ele>
        <time>2021-05-04T07:30:50Z</time>
      </trkpt>
      <trkpt lat="45.48852" lon="6.91259">
        <ele>2179</ele>
        <time>2021-05-04T07:30:52Z</time>
      </trkpt>
      <trkpt lat="45.4885" lon="6.91257">
        <ele>2179</ele>
        <time>2021-05-04T07:30:54Z</time>
      </trkpt>
      <trkpt lat="45.48848" lon="6.91256">
        <ele>2179</ele>
        <time>2021-05-04T07:30:56Z</time>
      </trkpt>
      <trkpt lat="45.48846" lon="6.91255">
        <ele>2179</ele>
        <time>2021-05-04T07:30:58Z</time>
      </trkpt>
      <trkpt lat="45.48844" lon="6.91253">
        <ele>2179</ele>
        <time>2021-05-04T07:31:01Z</time>
      </trkpt>
      <trkpt lat="45.48842" lon="6.91251">
        <ele>2179</ele>
        <time>2021-05-04T07:31:03Z</time>
      </trkpt>
      <trkpt lat="45.4884" lon="6.9125">
        <ele>2179</ele>
        <time>2021-05-04T07:31:05Z</time>
      </trkpt>
      <trkpt lat="45.48838" lon="6.91249">
        <ele>2179</ele>
        <time>2021-05-04T07:31:07Z</time>
      </trkpt>
      <trkpt lat="45.48836" lon="6.91248">
        <ele>2179</ele>
        <time>2021-05-04T07:31:09Z</time>
      </trkpt>
      <trkpt lat="45.48834" lon="6.91247">
        <ele>2179</ele>
        <time>2021-05-04T07:31:11Z</time>
      </trkpt>
      <trkpt lat="45.48832" lon="6.91246">
        <ele>2179</ele>
        <time>2021-05-04T07:31:13Z</time>
      </trkpt>
      <trkpt lat="45.4883" lon="6.91245">
        <ele>2179</ele>
        <time>2021-05-04T07:31:15Z</time>
      </trkpt>
      <trkpt lat="45.48828" lon="6.91242">
        <ele>2179</ele>
        <time>2021-05-04T07:31:18Z</time>
      </trkpt>
      <trkpt lat="45.48827" lon="6.91241">
        <ele>2185.8</ele>
        <time>2021-05-04T07:31:20Z</time>
      </trkpt>
      <trkpt lat="45.48825" lon="6.91239">
        <ele>2185.8</ele>
        <time>2021-05-04T07:31:23Z</time>
      </trkpt>
      <trkpt lat="45.48823" lon="6.91237">
        <ele>2185.8</ele>
        <time>2021-05-04T07:31:25Z</time>
      </trkpt>
      <trkpt lat="45.4882" lon="6.91236">
        <ele>2185.8</ele>
        <time>2021-05-04T07:31:27Z</time>
      </trkpt>
      <trkpt lat="45.48819" lon="6.91236">
        <ele>2185.8</ele>
        <time>2021-05-04T07:31:29Z</time>
      </trkpt>
      <trkpt lat="45.48817" lon="6.91234">
        <ele>2185.8</ele>
        <time>2021-05-04T07:31:31Z</time>
      </trkpt>
      <trkpt lat="45.48815" lon="6.91233">
        <ele>2185.8</ele>
        <time>2021-05-04T07:31:33Z</time>
      </trkpt>
      <trkpt lat="45.48813" lon="6.91232">
        <ele>2185.8</ele>
        <time>2021-05-04T07:31:35Z</time>
      </trkpt>
      <trkpt lat="45.4881" lon="6.91232">
        <ele>2185.8</ele>
        <time>2021-05-04T07:31:37Z</time>
      </trkpt>
      <trkpt lat="45.48808" lon="6.91231">
        <ele>2185.8</ele>
        <time>2021-05-04T07:31:39Z</time>
      </trkpt>
      <trkpt lat="45.48806" lon="6.9123">
        <ele>2185.8</ele>
        <time>2021-05-04T07:31:41Z</time>
      </trkpt>
      <trkpt lat="45.48804" lon="6.9123">
        <ele>2185.8</ele>
        <time>2021-05-04T07:31:43Z</time>
      </trkpt>
      <trkpt lat="45.48802" lon="6.91228">
        <ele>2185.8</ele>
        <time>2021-05-04T07:31:45Z</time>
      </trkpt>
      <trkpt lat="45.488" lon="6.91227">
        <ele>2185.8</ele>
        <time>2021-05-04T07:31:47Z</time>
      </trkpt>
      <trkpt lat="45.48798" lon="6.91226">
        <ele>2192.2</ele>
        <time>2021-05-04T07:31:50Z</time>
      </trkpt>
      <trkpt lat="45.48796" lon="6.91224">
        <ele>2192.2</ele>
        <time>2021-05-04T07:31:53Z</time>
      </trkpt>
      <trkpt lat="45.48793" lon="6.91224">
        <ele>2192.2</ele>
        <time>2021-05-04T07:31:56Z</time>
      </trkpt>
      <trkpt lat="45.48791" lon="6.91222">
        <ele>2192.2</ele>
        <time>2021-05-04T07:31:59Z</time>
      </trkpt>
      <trkpt lat="45.48789" lon="6.91222">
        <ele>2192.2</ele>
        <time>2021-05-04T07:32:01Z</time>
      </trkpt>
      <trkpt lat="45.48787" lon="6.91221">
        <ele>2192.2</ele>
        <time>2021-05-04T07:32:05Z</time>
      </trkpt>
      <trkpt lat="45.48784" lon="6.91221">
        <ele>2192.2</ele>
        <time>2021-05-04T07:32:08Z</time>
      </trkpt>
      <trkpt lat="45.48782" lon="6.91221">
        <ele>2197.4</ele>
        <time>2021-05-04T07:32:10Z</time>
      </trkpt>
      <trkpt lat="45.4878" lon="6.91219">
        <ele>2197.4</ele>
        <time>2021-05-04T07:32:13Z</time>
      </trkpt>
      <trkpt lat="45.48778" lon="6.91218">
        <ele>2197.4</ele>
        <time>2021-05-04T07:32:16Z</time>
      </trkpt>
      <trkpt lat="45.48775" lon="6.91216">
        <ele>2199.4</ele>
        <time>2021-05-04T07:32:20Z</time>
      </trkpt>
      <trkpt lat="45.48773" lon="6.91215">
        <ele>2199.4</ele>
        <time>2021-05-04T07:32:23Z</time>
      </trkpt>
      <trkpt lat="45.48771" lon="6.91213">
        <ele>2199.4</ele>
        <time>2021-05-04T07:32:26Z</time>
      </trkpt>
      <trkpt lat="45.48769" lon="6.91213">
        <ele>2199.4</ele>
        <time>2021-05-04T07:32:28Z</time>
      </trkpt>
      <trkpt lat="45.48767" lon="6.91211">
        <ele>2199.4</ele>
        <time>2021-05-04T07:32:31Z</time>
      </trkpt>
      <trkpt lat="45.48765" lon="6.9121">
        <ele>2199.4</ele>
        <time>2021-05-04T07:32:33Z</time>
      </trkpt>
      <trkpt lat="45.48763" lon="6.91209">
        <ele>2199.4</ele>
        <time>2021-05-04T07:32:36Z</time>
      </trkpt>
      <trkpt lat="45.48761" lon="6.91208">
        <ele>2199.4</ele>
        <time>2021-05-04T07:32:38Z</time>
      </trkpt>
      <trkpt lat="45.48759" lon="6.91207">
        <ele>2199.4</ele>
        <time>2021-05-04T07:32:41Z</time>
      </trkpt>
      <trkpt lat="45.48758" lon="6.91204">
        <ele>2199.4</ele>
        <time>2021-05-04T07:32:44Z</time>
      </trkpt>
      <trkpt lat="45.48756" lon="6.91203">
        <ele>2199.4</ele>
        <time>2021-05-04T07:32:47Z</time>
      </trkpt>
      <trkpt lat="45.48753" lon="6.91202">
        <ele>2206.2</ele>
        <time>2021-05-04T07:32:50Z</time>
      </trkpt>
      <trkpt lat="45.48751" lon="6.91201">
        <ele>2206.2</ele>
        <time>2021-05-04T07:32:52Z</time>
      </trkpt>
      <trkpt lat="45.48749" lon="6.912">
        <ele>2206.2</ele>
        <time>2021-05-04T07:32:55Z</time>
      </trkpt>
      <trkpt lat="45.48748" lon="6.91198">
        <ele>2206.2</ele>
        <time>2021-05-04T07:32:57Z</time>
      </trkpt>
      <trkpt lat="45.48745" lon="6.91196">
        <ele>2208.8</ele>
        <time>2021-05-04T07:33:00Z</time>
      </trkpt>
      <trkpt lat="45.48743" lon="6.91194">
        <ele>2208.8</ele>
        <time>2021-05-04T07:33:03Z</time>
      </trkpt>
      <trkpt lat="45.48741" lon="6.91191">
        <ele>2208.8</ele>
        <time>2021-05-04T07:33:06Z</time>
      </trkpt>
      <trkpt lat="45.48739" lon="6.9119">
        <ele>2208.8</ele>
        <time>2021-05-04T07:33:08Z</time>
      </trkpt>
      <trkpt lat="45.48737" lon="6.91188">
        <ele>2211.2</ele>
        <time>2021-05-04T07:33:10Z</time>
      </trkpt>
      <trkpt lat="45.48734" lon="6.91187">
        <ele>2211.2</ele>
        <time>2021-05-04T07:33:12Z</time>
      </trkpt>
      <trkpt lat="45.48732" lon="6.91185">
        <ele>2211.2</ele>
        <time>2021-05-04T07:33:14Z</time>
      </trkpt>
      <trkpt lat="45.48729" lon="6.91184">
        <ele>2211.2</ele>
        <time>2021-05-04T07:33:16Z</time>
      </trkpt>
      <trkpt lat="45.48727" lon="6.91183">
        <ele>2211.2</ele>
        <time>2021-05-04T07:33:18Z</time>
      </trkpt>
      <trkpt lat="45.48725" lon="6.91181">
        <ele>2212.6</ele>
        <time>2021-05-04T07:33:20Z</time>
      </trkpt>
      <trkpt lat="45.48723" lon="6.9118">
        <ele>2212.6</ele>
        <time>2021-05-04T07:33:22Z</time>
      </trkpt>
      <trkpt lat="45.4872" lon="6.91178">
        <ele>2212.6</ele>
        <time>2021-05-04T07:33:24Z</time>
      </trkpt>
      <trkpt lat="45.48718" lon="6.91177">
        <ele>2212.6</ele>
        <time>2021-05-04T07:33:26Z</time>
      </trkpt>
      <trkpt lat="45.48716" lon="6.91175">
        <ele>2212.6</ele>
        <time>2021-05-04T07:33:28Z</time>
      </trkpt>
      <trkpt lat="45.48713" lon="6.91174">
        <ele>2213.4</ele>
        <time>2021-05-04T07:33:30Z</time>
      </trkpt>
      <trkpt lat="45.48711" lon="6.91173">
        <ele>2213.4</ele>
        <time>2021-05-04T07:33:32Z</time>
      </trkpt>
      <trkpt lat="45.48708" lon="6.91172">
        <ele>2213.4</ele>
        <time>2021-05-04T07:33:34Z</time>
      </trkpt>
      <trkpt lat="45.48706" lon="6.9117">
        <ele>2213.4</ele>
        <time>2021-05-04T07:33:36Z</time>
      </trkpt>
      <trkpt lat="45.48704" lon="6.91168">
        <ele>2213.4</ele>
        <time>2021-05-04T07:33:38Z</time>
      </trkpt>
      <trkpt lat="45.48702" lon="6.91166">
        <ele>2213.4</ele>
        <time>2021-05-04T07:33:41Z</time>
      </trkpt>
      <trkpt lat="45.487" lon="6.91164">
        <ele>2213.4</ele>
        <time>2021-05-04T07:33:43Z</time>
      </trkpt>
      <trkpt lat="45.48698" lon="6.91162">
        <ele>2213.4</ele>
        <time>2021-05-04T07:33:45Z</time>
      </trkpt>
      <trkpt lat="45.48696" lon="6.91161">
        <ele>2213.4</ele>
        <time>2021-05-04T07:33:47Z</time>
      </trkpt>
      <trkpt lat="45.48694" lon="6.91159">
        <ele>2213.4</ele>
        <time>2021-05-04T07:33:49Z</time>
      </trkpt>
      <trkpt lat="45.48691" lon="6.91158">
        <ele>2213.4</ele>
        <time>2021-05-04T07:33:52Z</time>
      </trkpt>
      <trkpt lat="45.48689" lon="6.91158">
        <ele>2213.4</ele>
        <time>2021-05-04T07:33:54Z</time>
      </trkpt>
      <trkpt lat="45.48687" lon="6.91157">
        <ele>2213.4</ele>
        <time>2021-05-04T07:33:56Z</time>
      </trkpt>
      <trkpt lat="45.48685" lon="6.91156">
        <ele>2213.4</ele>
        <time>2021-05-04T07:33:58Z</time>
      </trkpt>
      <trkpt lat="45.48683" lon="6.91156">
        <ele>2219.8</ele>
        <time>2021-05-04T07:34:00Z</time>
      </trkpt>
      <trkpt lat="45.48681" lon="6.91155">
        <ele>2219.8</ele>
        <time>2021-05-04T07:34:02Z</time>
      </trkpt>
      <trkpt lat="45.48679" lon="6.91154">
        <ele>2219.8</ele>
        <time>2021-05-04T07:34:04Z</time>
      </trkpt>
      <trkpt lat="45.48677" lon="6.91153">
        <ele>2219.8</ele>
        <time>2021-05-04T07:34:06Z</time>
      </trkpt>
      <trkpt lat="45.48675" lon="6.91151">
        <ele>2219.8</ele>
        <time>2021-05-04T07:34:09Z</time>
      </trkpt>
      <trkpt lat="45.48673" lon="6.9115">
        <ele>2219.8</ele>
        <time>2021-05-04T07:34:12Z</time>
      </trkpt>
      <trkpt lat="45.4867" lon="6.9115">
        <ele>2219.8</ele>
        <time>2021-05-04T07:34:14Z</time>
      </trkpt>
      <trkpt lat="45.48668" lon="6.91149">
        <ele>2219.8</ele>
        <time>2021-05-04T07:34:17Z</time>
      </trkpt>
      <trkpt lat="45.48666" lon="6.91149">
        <ele>2219.8</ele>
        <time>2021-05-04T07:34:19Z</time>
      </trkpt>
      <trkpt lat="45.48664" lon="6.91148">
        <ele>2219.8</ele>
        <time>2021-05-04T07:34:21Z</time>
      </trkpt>
      <trkpt lat="45.48662" lon="6.91147">
        <ele>2219.8</ele>
        <time>2021-05-04T07:34:23Z</time>
      </trkpt>
      <trkpt lat="45.4866" lon="6.91146">
        <ele>2219.8</ele>
        <time>2021-05-04T07:34:25Z</time>
      </trkpt>
      <trkpt lat="45.48657" lon="6.91145">
        <ele>2219.8</ele>
        <time>2021-05-04T07:34:27Z</time>
      </trkpt>
      <trkpt lat="45.48655" lon="6.91145">
        <ele>2219.8</ele>
        <time>2021-05-04T07:34:29Z</time>
      </trkpt>
      <trkpt lat="45.48653" lon="6.91144">
        <ele>2219.8</ele>
        <time>2021-05-04T07:34:31Z</time>
      </trkpt>
      <trkpt lat="45.48651" lon="6.91142">
        <ele>2219.8</ele>
        <time>2021-05-04T07:34:34Z</time>
      </trkpt>
      <trkpt lat="45.48649" lon="6.91142">
        <ele>2219.8</ele>
        <time>2021-05-04T07:34:36Z</time>
      </trkpt>
      <trkpt lat="45.48647" lon="6.91141">
        <ele>2219.8</ele>
        <time>2021-05-04T07:34:38Z</time>
      </trkpt>
      <trkpt lat="45.48645" lon="6.9114">
        <ele>2229.6</ele>
        <time>2021-05-04T07:34:40Z</time>
      </trkpt>
      <trkpt lat="45.48644" lon="6.9114">
        <ele>2229.6</ele>
        <time>2021-05-04T07:34:42Z</time>
      </trkpt>
      <trkpt lat="45.48641" lon="6.91137">
        <ele>2229.6</ele>
        <time>2021-05-04T07:34:45Z</time>
      </trkpt>
      <trkpt lat="45.48639" lon="6.91136">
        <ele>2229.6</ele>
        <time>2021-05-04T07:34:48Z</time>
      </trkpt>
      <trkpt lat="45.48637" lon="6.91136">
        <ele>2231.4</ele>
        <time>2021-05-04T07:34:50Z</time>
      </trkpt>
      <trkpt lat="45.48634" lon="6.91134">
        <ele>2231.4</ele>
        <time>2021-05-04T07:34:53Z</time>
      </trkpt>
      <trkpt lat="45.48632" lon="6.91134">
        <ele>2231.4</ele>
        <time>2021-05-04T07:34:56Z</time>
      </trkpt>
      <trkpt lat="45.4863" lon="6.91133">
        <ele>2231.4</ele>
        <time>2021-05-04T07:34:59Z</time>
      </trkpt>
      <trkpt lat="45.48628" lon="6.91132">
        <ele>2231.4</ele>
        <time>2021-05-04T07:35:02Z</time>
      </trkpt>
      <trkpt lat="45.48626" lon="6.91132">
        <ele>2231.4</ele>
        <time>2021-05-04T07:35:04Z</time>
      </trkpt>
      <trkpt lat="45.48624" lon="6.91131">
        <ele>2231.4</ele>
        <time>2021-05-04T07:35:07Z</time>
      </trkpt>
      <trkpt lat="45.48621" lon="6.9113">
        <ele>2236.2</ele>
        <time>2021-05-04T07:35:10Z</time>
      </trkpt>
      <trkpt lat="45.48618" lon="6.9113">
        <ele>2236.2</ele>
        <time>2021-05-04T07:35:13Z</time>
      </trkpt>
      <trkpt lat="45.48616" lon="6.91129">
        <ele>2236.2</ele>
        <time>2021-05-04T07:35:15Z</time>
      </trkpt>
      <trkpt lat="45.48614" lon="6.9113">
        <ele>2236.2</ele>
        <time>2021-05-04T07:35:17Z</time>
      </trkpt>
      <trkpt lat="45.48612" lon="6.9113">
        <ele>2236.2</ele>
        <time>2021-05-04T07:35:19Z</time>
      </trkpt>
      <trkpt lat="45.48611" lon="6.9113">
        <ele>2236.2</ele>
        <time>2021-05-04T07:35:21Z</time>
      </trkpt>
      <trkpt lat="45.48608" lon="6.91129">
        <ele>2236.2</ele>
        <time>2021-05-04T07:35:24Z</time>
      </trkpt>
      <trkpt lat="45.48606" lon="6.91129">
        <ele>2236.2</ele>
        <time>2021-05-04T07:35:26Z</time>
      </trkpt>
      <trkpt lat="45.48604" lon="6.91128">
        <ele>2236.2</ele>
        <time>2021-05-04T07:35:28Z</time>
      </trkpt>
      <trkpt lat="45.48602" lon="6.91128">
        <ele>2240.4</ele>
        <time>2021-05-04T07:35:30Z</time>
      </trkpt>
      <trkpt lat="45.486" lon="6.91129">
        <ele>2240.4</ele>
        <time>2021-05-04T07:35:32Z</time>
      </trkpt>
      <trkpt lat="45.48598" lon="6.9113">
        <ele>2240.4</ele>
        <time>2021-05-04T07:35:34Z</time>
      </trkpt>
      <trkpt lat="45.48596" lon="6.91129">
        <ele>2240.4</ele>
        <time>2021-05-04T07:35:36Z</time>
      </trkpt>
      <trkpt lat="45.48594" lon="6.91129">
        <ele>2240.4</ele>
        <time>2021-05-04T07:35:38Z</time>
      </trkpt>
      <trkpt lat="45.48592" lon="6.91129">
        <ele>2242.6</ele>
        <time>2021-05-04T07:35:40Z</time>
      </trkpt>
      <trkpt lat="45.4859" lon="6.91129">
        <ele>2242.6</ele>
        <time>2021-05-04T07:35:42Z</time>
      </trkpt>
      <trkpt lat="45.48587" lon="6.91129">
        <ele>2242.6</ele>
        <time>2021-05-04T07:35:45Z</time>
      </trkpt>
      <trkpt lat="45.48585" lon="6.91129">
        <ele>2242.6</ele>
        <time>2021-05-04T07:35:47Z</time>
      </trkpt>
      <trkpt lat="45.48583" lon="6.91129">
        <ele>2242.6</ele>
        <time>2021-05-04T07:35:49Z</time>
      </trkpt>
      <trkpt lat="45.48581" lon="6.9113">
        <ele>2242.6</ele>
        <time>2021-05-04T07:35:51Z</time>
      </trkpt>
      <trkpt lat="45.48579" lon="6.9113">
        <ele>2242.6</ele>
        <time>2021-05-04T07:35:54Z</time>
      </trkpt>
      <trkpt lat="45.48577" lon="6.91131">
        <ele>2242.6</ele>
        <time>2021-05-04T07:35:56Z</time>
      </trkpt>
      <trkpt lat="45.48574" lon="6.9113">
        <ele>2242.6</ele>
        <time>2021-05-04T07:35:58Z</time>
      </trkpt>
      <trkpt lat="45.48572" lon="6.9113">
        <ele>2247.4</ele>
        <time>2021-05-04T07:36:00Z</time>
      </trkpt>
      <trkpt lat="45.48571" lon="6.9113">
        <ele>2247.4</ele>
        <time>2021-05-04T07:36:02Z</time>
      </trkpt>
      <trkpt lat="45.48569" lon="6.91131">
        <ele>2247.4</ele>
        <time>2021-05-04T07:36:04Z</time>
      </trkpt>
      <trkpt lat="45.48566" lon="6.91132">
        <ele>2247.4</ele>
        <time>2021-05-04T07:36:06Z</time>
      </trkpt>
      <trkpt lat="45.48564" lon="6.91131">
        <ele>2247.4</ele>
        <time>2021-05-04T07:36:09Z</time>
      </trkpt>
      <trkpt lat="45.48562" lon="6.91131">
        <ele>2247.4</ele>
        <time>2021-05-04T07:36:11Z</time>
      </trkpt>
      <trkpt lat="45.4856" lon="6.91131">
        <ele>2247.4</ele>
        <time>2021-05-04T07:36:14Z</time>
      </trkpt>
      <trkpt lat="45.48557" lon="6.9113">
        <ele>2247.4</ele>
        <time>2021-05-04T07:36:17Z</time>
      </trkpt>
      <trkpt lat="45.48555" lon="6.91131">
        <ele>2247.4</ele>
        <time>2021-05-04T07:36:19Z</time>
      </trkpt>
      <trkpt lat="45.48553" lon="6.9113">
        <ele>2247.4</ele>
        <time>2021-05-04T07:36:22Z</time>
      </trkpt>
      <trkpt lat="45.48551" lon="6.9113">
        <ele>2247.4</ele>
        <time>2021-05-04T07:36:25Z</time>
      </trkpt>
      <trkpt lat="45.48549" lon="6.9113">
        <ele>2247.4</ele>
        <time>2021-05-04T07:36:28Z</time>
      </trkpt>
      <trkpt lat="45.48547" lon="6.9113">
        <ele>2247.4</ele>
        <time>2021-05-04T07:36:31Z</time>
      </trkpt>
      <trkpt lat="45.48544" lon="6.9113">
        <ele>2247.4</ele>
        <time>2021-05-04T07:36:34Z</time>
      </trkpt>
      <trkpt lat="45.48542" lon="6.9113">
        <ele>2247.4</ele>
        <time>2021-05-04T07:36:37Z</time>
      </trkpt>
      <trkpt lat="45.4854" lon="6.9113">
        <ele>2258</ele>
        <time>2021-05-04T07:36:40Z</time>
      </trkpt>
      <trkpt lat="45.48537" lon="6.91131">
        <ele>2258</ele>
        <time>2021-05-04T07:36:43Z</time>
      </trkpt>
      <trkpt lat="45.48534" lon="6.91131">
        <ele>2258</ele>
        <time>2021-05-04T07:36:46Z</time>
      </trkpt>
      <trkpt lat="45.48532" lon="6.9113">
        <ele>2258</ele>
        <time>2021-05-04T07:36:49Z</time>
      </trkpt>
      <trkpt lat="45.4853" lon="6.91131">
        <ele>2258</ele>
        <time>2021-05-04T07:36:51Z</time>
      </trkpt>
      <trkpt lat="45.48528" lon="6.91132">
        <ele>2258</ele>
        <time>2021-05-04T07:36:53Z</time>
      </trkpt>
      <trkpt lat="45.48526" lon="6.91133">
        <ele>2258</ele>
        <time>2021-05-04T07:36:55Z</time>
      </trkpt>
      <trkpt lat="45.48524" lon="6.91133">
        <ele>2258</ele>
        <time>2021-05-04T07:36:58Z</time>
      </trkpt>
      <trkpt lat="45.48522" lon="6.91132">
        <ele>2258</ele>
        <time>2021-05-04T07:37:01Z</time>
      </trkpt>
      <trkpt lat="45.48519" lon="6.91133">
        <ele>2258</ele>
        <time>2021-05-04T07:37:04Z</time>
      </trkpt>
      <trkpt lat="45.48517" lon="6.91133">
        <ele>2258</ele>
        <time>2021-05-04T07:37:08Z</time>
      </trkpt>
      <trkpt lat="45.48515" lon="6.91134">
        <ele>2267.2</ele>
        <time>2021-05-04T07:37:10Z</time>
      </trkpt>
      <trkpt lat="45.48513" lon="6.91134">
        <ele>2267.2</ele>
        <time>2021-05-04T07:37:13Z</time>
      </trkpt>
      <trkpt lat="45.48511" lon="6.91134">
        <ele>2267.2</ele>
        <time>2021-05-04T07:37:15Z</time>
      </trkpt>
      <trkpt lat="45.48509" lon="6.91135">
        <ele>2267.2</ele>
        <time>2021-05-04T07:37:18Z</time>
      </trkpt>
      <trkpt lat="45.48507" lon="6.91135">
        <ele>2267.2</ele>
        <time>2021-05-04T07:37:21Z</time>
      </trkpt>
      <trkpt lat="45.48505" lon="6.91135">
        <ele>2267.2</ele>
        <time>2021-05-04T07:37:24Z</time>
      </trkpt>
      <trkpt lat="45.48502" lon="6.91136">
        <ele>2267.2</ele>
        <time>2021-05-04T07:37:27Z</time>
      </trkpt>
      <trkpt lat="45.485" lon="6.91136">
        <ele>2272.2</ele>
        <time>2021-05-04T07:37:30Z</time>
      </trkpt>
      <trkpt lat="45.48498" lon="6.91137">
        <ele>2272.2</ele>
        <time>2021-05-04T07:37:33Z</time>
      </trkpt>
      <trkpt lat="45.48496" lon="6.91138">
        <ele>2272.2</ele>
        <time>2021-05-04T07:37:36Z</time>
      </trkpt>
      <trkpt lat="45.48493" lon="6.91139">
        <ele>2272.2</ele>
        <time>2021-05-04T07:37:41Z</time>
      </trkpt>
      <trkpt lat="45.48492" lon="6.9114">
        <ele>2272.2</ele>
        <time>2021-05-04T07:37:44Z</time>
      </trkpt>
      <trkpt lat="45.48489" lon="6.91142">
        <ele>2272.2</ele>
        <time>2021-05-04T07:37:47Z</time>
      </trkpt>
      <trkpt lat="45.48487" lon="6.91143">
        <ele>2277.2</ele>
        <time>2021-05-04T07:37:50Z</time>
      </trkpt>
      <trkpt lat="45.48484" lon="6.91144">
        <ele>2277.2</ele>
        <time>2021-05-04T07:37:54Z</time>
      </trkpt>
      <trkpt lat="45.48483" lon="6.91146">
        <ele>2277.2</ele>
        <time>2021-05-04T07:37:56Z</time>
      </trkpt>
      <trkpt lat="45.4848" lon="6.91149">
        <ele>2280.4</ele>
        <time>2021-05-04T07:38:00Z</time>
      </trkpt>
      <trkpt lat="45.48479" lon="6.91151">
        <ele>2280.4</ele>
        <time>2021-05-04T07:38:02Z</time>
      </trkpt>
      <trkpt lat="45.48477" lon="6.91152">
        <ele>2280.4</ele>
        <time>2021-05-04T07:38:05Z</time>
      </trkpt>
      <trkpt lat="45.48476" lon="6.91154">
        <ele>2280.4</ele>
        <time>2021-05-04T07:38:08Z</time>
      </trkpt>
      <trkpt lat="45.48473" lon="6.91156">
        <ele>2280.4</ele>
        <time>2021-05-04T07:38:11Z</time>
      </trkpt>
      <trkpt lat="45.48471" lon="6.91159">
        <ele>2280.4</ele>
        <time>2021-05-04T07:38:34Z</time>
      </trkpt>
      <trkpt lat="45.48469" lon="6.91161">
        <ele>2280.4</ele>
        <time>2021-05-04T07:38:36Z</time>
      </trkpt>
      <trkpt lat="45.48467" lon="6.91164">
        <ele>2280.4</ele>
        <time>2021-05-04T07:38:38Z</time>
      </trkpt>
      <trkpt lat="45.48465" lon="6.91166">
        <ele>2284.8</ele>
        <time>2021-05-04T07:38:40Z</time>
      </trkpt>
      <trkpt lat="45.48463" lon="6.91169">
        <ele>2284.8</ele>
        <time>2021-05-04T07:38:43Z</time>
      </trkpt>
      <trkpt lat="45.48461" lon="6.9117">
        <ele>2284.8</ele>
        <time>2021-05-04T07:38:46Z</time>
      </trkpt>
      <trkpt lat="45.48459" lon="6.91168">
        <ele>2284.8</ele>
        <time>2021-05-04T07:38:49Z</time>
      </trkpt>
      <trkpt lat="45.48457" lon="6.91166">
        <ele>2284.8</ele>
        <time>2021-05-04T07:38:52Z</time>
      </trkpt>
      <trkpt lat="45.48456" lon="6.91164">
        <ele>2284.8</ele>
        <time>2021-05-04T07:38:54Z</time>
      </trkpt>
      <trkpt lat="45.48454" lon="6.91162">
        <ele>2284.8</ele>
        <time>2021-05-04T07:38:56Z</time>
      </trkpt>
      <trkpt lat="45.48452" lon="6.9116">
        <ele>2284.8</ele>
        <time>2021-05-04T07:38:59Z</time>
      </trkpt>
      <trkpt lat="45.48451" lon="6.91158">
        <ele>2284.8</ele>
        <time>2021-05-04T07:39:01Z</time>
      </trkpt>
      <trkpt lat="45.48449" lon="6.91155">
        <ele>2284.8</ele>
        <time>2021-05-04T07:39:04Z</time>
      </trkpt>
      <trkpt lat="45.48448" lon="6.91152">
        <ele>2284.8</ele>
        <time>2021-05-04T07:39:07Z</time>
      </trkpt>
      <trkpt lat="45.48446" lon="6.9115">
        <ele>2292.6</ele>
        <time>2021-05-04T07:39:10Z</time>
      </trkpt>
      <trkpt lat="45.48444" lon="6.91147">
        <ele>2292.6</ele>
        <time>2021-05-04T07:39:13Z</time>
      </trkpt>
      <trkpt lat="45.48443" lon="6.91145">
        <ele>2292.6</ele>
        <time>2021-05-04T07:39:16Z</time>
      </trkpt>
      <trkpt lat="45.48441" lon="6.91142">
        <ele>2292.6</ele>
        <time>2021-05-04T07:39:19Z</time>
      </trkpt>
      <trkpt lat="45.4844" lon="6.9114">
        <ele>2292.6</ele>
        <time>2021-05-04T07:39:21Z</time>
      </trkpt>
      <trkpt lat="45.48439" lon="6.91138">
        <ele>2292.6</ele>
        <time>2021-05-04T07:39:24Z</time>
      </trkpt>
      <trkpt lat="45.48438" lon="6.91135">
        <ele>2292.6</ele>
        <time>2021-05-04T07:39:27Z</time>
      </trkpt>
      <trkpt lat="45.48436" lon="6.91137">
        <ele>2292.6</ele>
        <time>2021-05-04T07:39:36Z</time>
      </trkpt>
      <trkpt lat="45.48435" lon="6.9114">
        <ele>2292.6</ele>
        <time>2021-05-04T07:39:39Z</time>
      </trkpt>
      <trkpt lat="45.48433" lon="6.91142">
        <ele>2292.6</ele>
        <time>2021-05-04T07:39:42Z</time>
      </trkpt>
      <trkpt lat="45.48432" lon="6.91144">
        <ele>2292.6</ele>
        <time>2021-05-04T07:39:44Z</time>
      </trkpt>
      <trkpt lat="45.48429" lon="6.91147">
        <ele>2292.6</ele>
        <time>2021-05-04T07:39:47Z</time>
      </trkpt>
      <trkpt lat="45.48428" lon="6.91148">
        <ele>2302.4</ele>
        <time>2021-05-04T07:39:50Z</time>
      </trkpt>
      <trkpt lat="45.48426" lon="6.9115">
        <ele>2302.4</ele>
        <time>2021-05-04T07:39:53Z</time>
      </trkpt>
      <trkpt lat="45.48424" lon="6.91151">
        <ele>2302.4</ele>
        <time>2021-05-04T07:39:56Z</time>
      </trkpt>
      <trkpt lat="45.48421" lon="6.91154">
        <ele>2302.4</ele>
        <time>2021-05-04T07:39:59Z</time>
      </trkpt>
      <trkpt lat="45.4842" lon="6.91156">
        <ele>2302.4</ele>
        <time>2021-05-04T07:40:02Z</time>
      </trkpt>
      <trkpt lat="45.48418" lon="6.91157">
        <ele>2302.4</ele>
        <time>2021-05-04T07:40:05Z</time>
      </trkpt>
      <trkpt lat="45.48416" lon="6.91155">
        <ele>2302.4</ele>
        <time>2021-05-04T07:40:09Z</time>
      </trkpt>
      <trkpt lat="45.48414" lon="6.91152">
        <ele>2302.4</ele>
        <time>2021-05-04T07:40:12Z</time>
      </trkpt>
      <trkpt lat="45.48413" lon="6.9115">
        <ele>2302.4</ele>
        <time>2021-05-04T07:40:15Z</time>
      </trkpt>
      <trkpt lat="45.48411" lon="6.91148">
        <ele>2302.4</ele>
        <time>2021-05-04T07:40:18Z</time>
      </trkpt>
      <trkpt lat="45.4841" lon="6.91146">
        <ele>2302.4</ele>
        <time>2021-05-04T07:40:21Z</time>
      </trkpt>
      <trkpt lat="45.48409" lon="6.91144">
        <ele>2302.4</ele>
        <time>2021-05-04T07:40:24Z</time>
      </trkpt>
      <trkpt lat="45.48407" lon="6.91142">
        <ele>2302.4</ele>
        <time>2021-05-04T07:40:27Z</time>
      </trkpt>
      <trkpt lat="45.48405" lon="6.9114">
        <ele>2302.4</ele>
        <time>2021-05-04T07:40:29Z</time>
      </trkpt>
      <trkpt lat="45.48404" lon="6.91138">
        <ele>2302.4</ele>
        <time>2021-05-04T07:40:32Z</time>
      </trkpt>
      <trkpt lat="45.48403" lon="6.91135">
        <ele>2302.4</ele>
        <time>2021-05-04T07:40:35Z</time>
      </trkpt>
      <trkpt lat="45.48401" lon="6.91133">
        <ele>2302.4</ele>
        <time>2021-05-04T07:40:38Z</time>
      </trkpt>
      <trkpt lat="45.484" lon="6.9113">
        <ele>2302.4</ele>
        <time>2021-05-04T07:40:41Z</time>
      </trkpt>
      <trkpt lat="45.48399" lon="6.91126">
        <ele>2302.4</ele>
        <time>2021-05-04T07:40:44Z</time>
      </trkpt>
      <trkpt lat="45.48398" lon="6.91124">
        <ele>2302.4</ele>
        <time>2021-05-04T07:40:47Z</time>
      </trkpt>
      <trkpt lat="45.48397" lon="6.9112">
        <ele>2323.8</ele>
        <time>2021-05-04T07:40:50Z</time>
      </trkpt>
      <trkpt lat="45.48395" lon="6.91119">
        <ele>2323.8</ele>
        <time>2021-05-04T07:40:53Z</time>
      </trkpt>
      <trkpt lat="45.48393" lon="6.91119">
        <ele>2323.8</ele>
        <time>2021-05-04T07:40:56Z</time>
      </trkpt>
      <trkpt lat="45.48391" lon="6.9112">
        <ele>2323.8</ele>
        <time>2021-05-04T07:40:58Z</time>
      </trkpt>
      <trkpt lat="45.4839" lon="6.91122">
        <ele>2328.2</ele>
        <time>2021-05-04T07:41:00Z</time>
      </trkpt>
      <trkpt lat="45.48388" lon="6.91122">
        <ele>2328.2</ele>
        <time>2021-05-04T07:41:03Z</time>
      </trkpt>
      <trkpt lat="45.48386" lon="6.91124">
        <ele>2328.2</ele>
        <time>2021-05-04T07:41:06Z</time>
      </trkpt>
      <trkpt lat="45.48384" lon="6.91125">
        <ele>2328.2</ele>
        <time>2021-05-04T07:41:08Z</time>
      </trkpt>
      <trkpt lat="45.48381" lon="6.91125">
        <ele>2328.2</ele>
        <time>2021-05-04T07:41:11Z</time>
      </trkpt>
      <trkpt lat="45.4838" lon="6.91123">
        <ele>2328.2</ele>
        <time>2021-05-04T07:41:13Z</time>
      </trkpt>
      <trkpt lat="45.48378" lon="6.9112">
        <ele>2328.2</ele>
        <time>2021-05-04T07:41:16Z</time>
      </trkpt>
      <trkpt lat="45.48377" lon="6.91117">
        <ele>2328.2</ele>
        <time>2021-05-04T07:41:19Z</time>
      </trkpt>
      <trkpt lat="45.48375" lon="6.91115">
        <ele>2328.2</ele>
        <time>2021-05-04T07:41:21Z</time>
      </trkpt>
      <trkpt lat="45.48374" lon="6.91113">
        <ele>2328.2</ele>
        <time>2021-05-04T07:41:24Z</time>
      </trkpt>
      <trkpt lat="45.48373" lon="6.9111">
        <ele>2328.2</ele>
        <time>2021-05-04T07:41:27Z</time>
      </trkpt>
      <trkpt lat="45.4837" lon="6.91111">
        <ele>2328.2</ele>
        <time>2021-05-04T07:41:31Z</time>
      </trkpt>
      <trkpt lat="45.48367" lon="6.91112">
        <ele>2328.2</ele>
        <time>2021-05-04T07:41:33Z</time>
      </trkpt>
      <trkpt lat="45.48365" lon="6.91114">
        <ele>2328.2</ele>
        <time>2021-05-04T07:41:36Z</time>
      </trkpt>
      <trkpt lat="45.48364" lon="6.91115">
        <ele>2328.2</ele>
        <time>2021-05-04T07:41:39Z</time>
      </trkpt>
      <trkpt lat="45.48361" lon="6.91116">
        <ele>2328.2</ele>
        <time>2021-05-04T07:41:41Z</time>
      </trkpt>
      <trkpt lat="45.4836" lon="6.91114">
        <ele>2328.2</ele>
        <time>2021-05-04T07:41:44Z</time>
      </trkpt>
      <trkpt lat="45.48358" lon="6.91111">
        <ele>2328.2</ele>
        <time>2021-05-04T07:41:46Z</time>
      </trkpt>
      <trkpt lat="45.48357" lon="6.91109">
        <ele>2328.2</ele>
        <time>2021-05-04T07:41:48Z</time>
      </trkpt>
      <trkpt lat="45.48356" lon="6.91106">
        <ele>2349</ele>
        <time>2021-05-04T07:41:50Z</time>
      </trkpt>
      <trkpt lat="45.48354" lon="6.91104">
        <ele>2349</ele>
        <time>2021-05-04T07:41:52Z</time>
      </trkpt>
      <trkpt lat="45.48353" lon="6.91102">
        <ele>2349</ele>
        <time>2021-05-04T07:41:54Z</time>
      </trkpt>
      <trkpt lat="45.48351" lon="6.91099">
        <ele>2349</ele>
        <time>2021-05-04T07:41:57Z</time>
      </trkpt>
      <trkpt lat="45.4835" lon="6.91097">
        <ele>2349</ele>
        <time>2021-05-04T07:41:59Z</time>
      </trkpt>
      <trkpt lat="45.48348" lon="6.91095">
        <ele>2349</ele>
        <time>2021-05-04T07:42:01Z</time>
      </trkpt>
      <trkpt lat="45.48348" lon="6.91092">
        <ele>2349</ele>
        <time>2021-05-04T07:42:03Z</time>
      </trkpt>
      <trkpt lat="45.48348" lon="6.91088">
        <ele>2349</ele>
        <time>2021-05-04T07:42:06Z</time>
      </trkpt>
      <trkpt lat="45.48348" lon="6.91085">
        <ele>2349</ele>
        <time>2021-05-04T07:42:08Z</time>
      </trkpt>
      <trkpt lat="45.48347" lon="6.91083">
        <ele>2358.4</ele>
        <time>2021-05-04T07:42:10Z</time>
      </trkpt>
      <trkpt lat="45.48347" lon="6.91079">
        <ele>2358.4</ele>
        <time>2021-05-04T07:42:12Z</time>
      </trkpt>
      <trkpt lat="45.48347" lon="6.91075">
        <ele>2358.4</ele>
        <time>2021-05-04T07:42:15Z</time>
      </trkpt>
      <trkpt lat="45.48348" lon="6.9107">
        <ele>2358.4</ele>
        <time>2021-05-04T07:42:18Z</time>
      </trkpt>
      <trkpt lat="45.48348" lon="6.91068">
        <ele>2359.8</ele>
        <time>2021-05-04T07:42:20Z</time>
      </trkpt>
      <trkpt lat="45.48348" lon="6.91064">
        <ele>2359.8</ele>
        <time>2021-05-04T07:42:22Z</time>
      </trkpt>
      <trkpt lat="45.48348" lon="6.91061">
        <ele>2359.8</ele>
        <time>2021-05-04T07:42:24Z</time>
      </trkpt>
      <trkpt lat="45.48349" lon="6.91058">
        <ele>2359.8</ele>
        <time>2021-05-04T07:42:27Z</time>
      </trkpt>
      <trkpt lat="45.4835" lon="6.91055">
        <ele>2359.8</ele>
        <time>2021-05-04T07:42:29Z</time>
      </trkpt>
      <trkpt lat="45.4835" lon="6.91052">
        <ele>2359.8</ele>
        <time>2021-05-04T07:42:31Z</time>
      </trkpt>
      <trkpt lat="45.48351" lon="6.91049">
        <ele>2359.8</ele>
        <time>2021-05-04T07:42:33Z</time>
      </trkpt>
      <trkpt lat="45.48352" lon="6.91046">
        <ele>2359.8</ele>
        <time>2021-05-04T07:42:35Z</time>
      </trkpt>
      <trkpt lat="45.48353" lon="6.91044">
        <ele>2359.8</ele>
        <time>2021-05-04T07:42:37Z</time>
      </trkpt>
      <trkpt lat="45.48353" lon="6.91042">
        <ele>2359.8</ele>
        <time>2021-05-04T07:42:39Z</time>
      </trkpt>
      <trkpt lat="45.48354" lon="6.91039">
        <ele>2359.8</ele>
        <time>2021-05-04T07:42:41Z</time>
      </trkpt>
      <trkpt lat="45.48355" lon="6.91036">
        <ele>2359.8</ele>
        <time>2021-05-04T07:42:44Z</time>
      </trkpt>
      <trkpt lat="45.48355" lon="6.91033">
        <ele>2359.8</ele>
        <time>2021-05-04T07:42:47Z</time>
      </trkpt>
      <trkpt lat="45.48356" lon="6.91031">
        <ele>2359.8</ele>
        <time>2021-05-04T07:42:49Z</time>
      </trkpt>
      <trkpt lat="45.48356" lon="6.91027">
        <ele>2359.8</ele>
        <time>2021-05-04T07:42:52Z</time>
      </trkpt>
      <trkpt lat="45.48356" lon="6.91023">
        <ele>2359.8</ele>
        <time>2021-05-04T07:42:55Z</time>
      </trkpt>
      <trkpt lat="45.48356" lon="6.9102">
        <ele>2359.8</ele>
        <time>2021-05-04T07:42:57Z</time>
      </trkpt>
      <trkpt lat="45.48356" lon="6.91018">
        <ele>2359.8</ele>
        <time>2021-05-04T07:42:59Z</time>
      </trkpt>
      <trkpt lat="45.48357" lon="6.91015">
        <ele>2359.8</ele>
        <time>2021-05-04T07:43:01Z</time>
      </trkpt>
      <trkpt lat="45.48357" lon="6.91012">
        <ele>2359.8</ele>
        <time>2021-05-04T07:43:03Z</time>
      </trkpt>
      <trkpt lat="45.48358" lon="6.91009">
        <ele>2359.8</ele>
        <time>2021-05-04T07:43:06Z</time>
      </trkpt>
      <trkpt lat="45.48359" lon="6.91006">
        <ele>2359.8</ele>
        <time>2021-05-04T07:43:08Z</time>
      </trkpt>
      <trkpt lat="45.4836" lon="6.91002">
        <ele>2359.8</ele>
        <time>2021-05-04T07:43:11Z</time>
      </trkpt>
      <trkpt lat="45.4836" lon="6.90999">
        <ele>2359.8</ele>
        <time>2021-05-04T07:43:13Z</time>
      </trkpt>
      <trkpt lat="45.48361" lon="6.90996">
        <ele>2359.8</ele>
        <time>2021-05-04T07:43:15Z</time>
      </trkpt>
      <trkpt lat="45.48362" lon="6.90993">
        <ele>2359.8</ele>
        <time>2021-05-04T07:43:18Z</time>
      </trkpt>
      <trkpt lat="45.48362" lon="6.90991">
        <ele>2379.6</ele>
        <time>2021-05-04T07:43:20Z</time>
      </trkpt>
      <trkpt lat="45.48363" lon="6.90988">
        <ele>2379.6</ele>
        <time>2021-05-04T07:43:22Z</time>
      </trkpt>
      <trkpt lat="45.48364" lon="6.90986">
        <ele>2379.6</ele>
        <time>2021-05-04T07:43:24Z</time>
      </trkpt>
      <trkpt lat="45.48364" lon="6.90983">
        <ele>2379.6</ele>
        <time>2021-05-04T07:43:26Z</time>
      </trkpt>
      <trkpt lat="45.48365" lon="6.9098">
        <ele>2379.6</ele>
        <time>2021-05-04T07:43:29Z</time>
      </trkpt>
      <trkpt lat="45.48366" lon="6.90977">
        <ele>2379.6</ele>
        <time>2021-05-04T07:43:31Z</time>
      </trkpt>
      <trkpt lat="45.48367" lon="6.90975">
        <ele>2379.6</ele>
        <time>2021-05-04T07:43:33Z</time>
      </trkpt>
      <trkpt lat="45.48368" lon="6.90971">
        <ele>2379.6</ele>
        <time>2021-05-04T07:43:36Z</time>
      </trkpt>
      <trkpt lat="45.48368" lon="6.90968">
        <ele>2379.6</ele>
        <time>2021-05-04T07:43:38Z</time>
      </trkpt>
      <trkpt lat="45.48369" lon="6.90964">
        <ele>2379.6</ele>
        <time>2021-05-04T07:43:41Z</time>
      </trkpt>
      <trkpt lat="45.4837" lon="6.90961">
        <ele>2379.6</ele>
        <time>2021-05-04T07:43:43Z</time>
      </trkpt>
      <trkpt lat="45.4837" lon="6.90958">
        <ele>2379.6</ele>
        <time>2021-05-04T07:43:45Z</time>
      </trkpt>
      <trkpt lat="45.48371" lon="6.90954">
        <ele>2379.6</ele>
        <time>2021-05-04T07:43:48Z</time>
      </trkpt>
      <trkpt lat="45.48372" lon="6.90951">
        <ele>2383.6</ele>
        <time>2021-05-04T07:43:50Z</time>
      </trkpt>
      <trkpt lat="45.48373" lon="6.90948">
        <ele>2383.6</ele>
        <time>2021-05-04T07:43:52Z</time>
      </trkpt>
      <trkpt lat="45.48373" lon="6.90944">
        <ele>2383.6</ele>
        <time>2021-05-04T07:43:54Z</time>
      </trkpt>
      <trkpt lat="45.48373" lon="6.90941">
        <ele>2383.6</ele>
        <time>2021-05-04T07:43:56Z</time>
      </trkpt>
      <trkpt lat="45.48374" lon="6.90938">
        <ele>2383.6</ele>
        <time>2021-05-04T07:43:58Z</time>
      </trkpt>
      <trkpt lat="45.48374" lon="6.90935">
        <ele>2384</ele>
        <time>2021-05-04T07:44:00Z</time>
      </trkpt>
      <trkpt lat="45.48375" lon="6.90931">
        <ele>2384</ele>
        <time>2021-05-04T07:44:02Z</time>
      </trkpt>
      <trkpt lat="45.48375" lon="6.90928">
        <ele>2384</ele>
        <time>2021-05-04T07:44:04Z</time>
      </trkpt>
      <trkpt lat="45.48376" lon="6.90924">
        <ele>2384</ele>
        <time>2021-05-04T07:44:06Z</time>
      </trkpt>
      <trkpt lat="45.48376" lon="6.90921">
        <ele>2384</ele>
        <time>2021-05-04T07:44:08Z</time>
      </trkpt>
      <trkpt lat="45.48376" lon="6.90918">
        <ele>2384.2</ele>
        <time>2021-05-04T07:44:10Z</time>
      </trkpt>
      <trkpt lat="45.48376" lon="6.90914">
        <ele>2384.2</ele>
        <time>2021-05-04T07:44:12Z</time>
      </trkpt>
      <trkpt lat="45.48376" lon="6.9091">
        <ele>2384.2</ele>
        <time>2021-05-04T07:44:14Z</time>
      </trkpt>
      <trkpt lat="45.48377" lon="6.90907">
        <ele>2384.2</ele>
        <time>2021-05-04T07:44:16Z</time>
      </trkpt>
      <trkpt lat="45.48378" lon="6.90902">
        <ele>2384.2</ele>
        <time>2021-05-04T07:44:18Z</time>
      </trkpt>
      <trkpt lat="45.48378" lon="6.90898">
        <ele>2384.2</ele>
        <time>2021-05-04T07:44:20Z</time>
      </trkpt>
      <trkpt lat="45.48378" lon="6.90895">
        <ele>2384.2</ele>
        <time>2021-05-04T07:44:22Z</time>
      </trkpt>
      <trkpt lat="45.48378" lon="6.90891">
        <ele>2384.2</ele>
        <time>2021-05-04T07:44:24Z</time>
      </trkpt>
      <trkpt lat="45.48379" lon="6.90887">
        <ele>2384.2</ele>
        <time>2021-05-04T07:44:26Z</time>
      </trkpt>
      <trkpt lat="45.4838" lon="6.90883">
        <ele>2384.2</ele>
        <time>2021-05-04T07:44:28Z</time>
      </trkpt>
      <trkpt lat="45.48379" lon="6.90879">
        <ele>2384.4</ele>
        <time>2021-05-04T07:44:30Z</time>
      </trkpt>
      <trkpt lat="45.48379" lon="6.90875">
        <ele>2384.4</ele>
        <time>2021-05-04T07:44:32Z</time>
      </trkpt>
      <trkpt lat="45.4838" lon="6.90872">
        <ele>2384.4</ele>
        <time>2021-05-04T07:44:34Z</time>
      </trkpt>
      <trkpt lat="45.48379" lon="6.90868">
        <ele>2384.4</ele>
        <time>2021-05-04T07:44:36Z</time>
      </trkpt>
      <trkpt lat="45.4838" lon="6.90865">
        <ele>2384.4</ele>
        <time>2021-05-04T07:44:38Z</time>
      </trkpt>
      <trkpt lat="45.4838" lon="6.90861">
        <ele>2384.4</ele>
        <time>2021-05-04T07:44:40Z</time>
      </trkpt>
      <trkpt lat="45.48379" lon="6.90857">
        <ele>2384.4</ele>
        <time>2021-05-04T07:44:42Z</time>
      </trkpt>
      <trkpt lat="45.48379" lon="6.90854">
        <ele>2384.4</ele>
        <time>2021-05-04T07:44:44Z</time>
      </trkpt>
      <trkpt lat="45.48379" lon="6.9085">
        <ele>2384.4</ele>
        <time>2021-05-04T07:44:46Z</time>
      </trkpt>
      <trkpt lat="45.48378" lon="6.90846">
        <ele>2384.4</ele>
        <time>2021-05-04T07:44:48Z</time>
      </trkpt>
      <trkpt lat="45.48378" lon="6.90843">
        <ele>2384.4</ele>
        <time>2021-05-04T07:44:50Z</time>
      </trkpt>
      <trkpt lat="45.48377" lon="6.90839">
        <ele>2384.4</ele>
        <time>2021-05-04T07:44:52Z</time>
      </trkpt>
      <trkpt lat="45.48377" lon="6.90835">
        <ele>2384.4</ele>
        <time>2021-05-04T07:44:54Z</time>
      </trkpt>
      <trkpt lat="45.48376" lon="6.90832">
        <ele>2384.4</ele>
        <time>2021-05-04T07:44:56Z</time>
      </trkpt>
      <trkpt lat="45.48376" lon="6.90828">
        <ele>2384.4</ele>
        <time>2021-05-04T07:44:58Z</time>
      </trkpt>
      <trkpt lat="45.48376" lon="6.90824">
        <ele>2385.8</ele>
        <time>2021-05-04T07:45:00Z</time>
      </trkpt>
      <trkpt lat="45.48375" lon="6.90821">
        <ele>2385.8</ele>
        <time>2021-05-04T07:45:02Z</time>
      </trkpt>
      <trkpt lat="45.48375" lon="6.90818">
        <ele>2385.8</ele>
        <time>2021-05-04T07:45:04Z</time>
      </trkpt>
      <trkpt lat="45.48374" lon="6.90815">
        <ele>2385.8</ele>
        <time>2021-05-04T07:45:05Z</time>
      </trkpt>
      <trkpt lat="45.48373" lon="6.90811">
        <ele>2385.8</ele>
        <time>2021-05-04T07:45:07Z</time>
      </trkpt>
      <trkpt lat="45.48373" lon="6.90808">
        <ele>2385.8</ele>
        <time>2021-05-04T07:45:09Z</time>
      </trkpt>
      <trkpt lat="45.48372" lon="6.90804">
        <ele>2385.8</ele>
        <time>2021-05-04T07:45:11Z</time>
      </trkpt>
      <trkpt lat="45.48372" lon="6.90802">
        <ele>2385.8</ele>
        <time>2021-05-04T07:45:13Z</time>
      </trkpt>
      <trkpt lat="45.48371" lon="6.90798">
        <ele>2385.8</ele>
        <time>2021-05-04T07:45:15Z</time>
      </trkpt>
      <trkpt lat="45.4837" lon="6.90796">
        <ele>2385.8</ele>
        <time>2021-05-04T07:45:17Z</time>
      </trkpt>
      <trkpt lat="45.48369" lon="6.90793">
        <ele>2385.8</ele>
        <time>2021-05-04T07:45:19Z</time>
      </trkpt>
      <trkpt lat="45.48368" lon="6.9079">
        <ele>2385.8</ele>
        <time>2021-05-04T07:45:21Z</time>
      </trkpt>
      <trkpt lat="45.48368" lon="6.90787">
        <ele>2385.8</ele>
        <time>2021-05-04T07:45:23Z</time>
      </trkpt>
      <trkpt lat="45.48367" lon="6.90782">
        <ele>2385.8</ele>
        <time>2021-05-04T07:45:26Z</time>
      </trkpt>
      <trkpt lat="45.48366" lon="6.9078">
        <ele>2385.8</ele>
        <time>2021-05-04T07:45:28Z</time>
      </trkpt>
      <trkpt lat="45.48365" lon="6.90776">
        <ele>2385.8</ele>
        <time>2021-05-04T07:45:31Z</time>
      </trkpt>
      <trkpt lat="45.48364" lon="6.90773">
        <ele>2385.8</ele>
        <time>2021-05-04T07:45:33Z</time>
      </trkpt>
      <trkpt lat="45.48364" lon="6.90769">
        <ele>2385.8</ele>
        <time>2021-05-04T07:45:35Z</time>
      </trkpt>
      <trkpt lat="45.48363" lon="6.90767">
        <ele>2385.8</ele>
        <time>2021-05-04T07:45:37Z</time>
      </trkpt>
      <trkpt lat="45.48361" lon="6.90764">
        <ele>2385.8</ele>
        <time>2021-05-04T07:45:39Z</time>
      </trkpt>
      <trkpt lat="45.4836" lon="6.9076">
        <ele>2385.8</ele>
        <time>2021-05-04T07:45:42Z</time>
      </trkpt>
      <trkpt lat="45.48359" lon="6.90758">
        <ele>2385.8</ele>
        <time>2021-05-04T07:45:44Z</time>
      </trkpt>
      <trkpt lat="45.48358" lon="6.90755">
        <ele>2385.8</ele>
        <time>2021-05-04T07:45:46Z</time>
      </trkpt>
      <trkpt lat="45.48356" lon="6.90752">
        <ele>2385.8</ele>
        <time>2021-05-04T07:45:49Z</time>
      </trkpt>
      <trkpt lat="45.48355" lon="6.90749">
        <ele>2385.8</ele>
        <time>2021-05-04T07:45:51Z</time>
      </trkpt>
      <trkpt lat="45.48354" lon="6.90746">
        <ele>2385.8</ele>
        <time>2021-05-04T07:45:53Z</time>
      </trkpt>
      <trkpt lat="45.48352" lon="6.90743">
        <ele>2385.8</ele>
        <time>2021-05-04T07:45:55Z</time>
      </trkpt>
      <trkpt lat="45.48351" lon="6.9074">
        <ele>2385.8</ele>
        <time>2021-05-04T07:45:57Z</time>
      </trkpt>
      <trkpt lat="45.4835" lon="6.90737">
        <ele>2385.8</ele>
        <time>2021-05-04T07:45:59Z</time>
      </trkpt>
      <trkpt lat="45.48348" lon="6.90734">
        <ele>2385.8</ele>
        <time>2021-05-04T07:46:01Z</time>
      </trkpt>
      <trkpt lat="45.48347" lon="6.90732">
        <ele>2385.8</ele>
        <time>2021-05-04T07:46:03Z</time>
      </trkpt>
      <trkpt lat="45.48346" lon="6.9073">
        <ele>2385.8</ele>
        <time>2021-05-04T07:46:05Z</time>
      </trkpt>
      <trkpt lat="45.48344" lon="6.90728">
        <ele>2385.8</ele>
        <time>2021-05-04T07:46:07Z</time>
      </trkpt>
      <trkpt lat="45.48342" lon="6.90726">
        <ele>2385.8</ele>
        <time>2021-05-04T07:46:09Z</time>
      </trkpt>
      <trkpt lat="45.4834" lon="6.90724">
        <ele>2385.8</ele>
        <time>2021-05-04T07:46:11Z</time>
      </trkpt>
      <trkpt lat="45.48338" lon="6.90722">
        <ele>2385.8</ele>
        <time>2021-05-04T07:46:13Z</time>
      </trkpt>
      <trkpt lat="45.48337" lon="6.9072">
        <ele>2385.8</ele>
        <time>2021-05-04T07:46:15Z</time>
      </trkpt>
      <trkpt lat="45.48335" lon="6.90718">
        <ele>2385.8</ele>
        <time>2021-05-04T07:46:17Z</time>
      </trkpt>
      <trkpt lat="45.48333" lon="6.90716">
        <ele>2385.8</ele>
        <time>2021-05-04T07:46:19Z</time>
      </trkpt>
      <trkpt lat="45.48332" lon="6.90714">
        <ele>2385.8</ele>
        <time>2021-05-04T07:46:21Z</time>
      </trkpt>
      <trkpt lat="45.4833" lon="6.90712">
        <ele>2385.8</ele>
        <time>2021-05-04T07:46:23Z</time>
      </trkpt>
      <trkpt lat="45.48329" lon="6.9071">
        <ele>2385.8</ele>
        <time>2021-05-04T07:46:25Z</time>
      </trkpt>
      <trkpt lat="45.48326" lon="6.90708">
        <ele>2385.8</ele>
        <time>2021-05-04T07:46:28Z</time>
      </trkpt>
      <trkpt lat="45.48325" lon="6.90706">
        <ele>2411.4</ele>
        <time>2021-05-04T07:46:30Z</time>
      </trkpt>
      <trkpt lat="45.48324" lon="6.90704">
        <ele>2411.4</ele>
        <time>2021-05-04T07:46:32Z</time>
      </trkpt>
      <trkpt lat="45.48322" lon="6.90702">
        <ele>2411.4</ele>
        <time>2021-05-04T07:46:34Z</time>
      </trkpt>
      <trkpt lat="45.4832" lon="6.90701">
        <ele>2411.4</ele>
        <time>2021-05-04T07:46:36Z</time>
      </trkpt>
      <trkpt lat="45.48318" lon="6.90699">
        <ele>2411.4</ele>
        <time>2021-05-04T07:46:38Z</time>
      </trkpt>
      <trkpt lat="45.48316" lon="6.90696">
        <ele>2411.4</ele>
        <time>2021-05-04T07:46:41Z</time>
      </trkpt>
      <trkpt lat="45.48315" lon="6.90695">
        <ele>2411.4</ele>
        <time>2021-05-04T07:46:43Z</time>
      </trkpt>
      <trkpt lat="45.48313" lon="6.90692">
        <ele>2411.4</ele>
        <time>2021-05-04T07:46:46Z</time>
      </trkpt>
      <trkpt lat="45.48311" lon="6.9069">
        <ele>2411.4</ele>
        <time>2021-05-04T07:46:49Z</time>
      </trkpt>
      <trkpt lat="45.48308" lon="6.90688">
        <ele>2411.4</ele>
        <time>2021-05-04T07:46:52Z</time>
      </trkpt>
      <trkpt lat="45.48306" lon="6.90688">
        <ele>2411.4</ele>
        <time>2021-05-04T07:48:34Z</time>
      </trkpt>
      <trkpt lat="45.48304" lon="6.90685">
        <ele>2411.4</ele>
        <time>2021-05-04T07:48:36Z</time>
      </trkpt>
      <trkpt lat="45.48302" lon="6.90682">
        <ele>2411.4</ele>
        <time>2021-05-04T07:48:38Z</time>
      </trkpt>
      <trkpt lat="45.483" lon="6.9068">
        <ele>2411.4</ele>
        <time>2021-05-04T07:48:39Z</time>
      </trkpt>
      <trkpt lat="45.48298" lon="6.90678">
        <ele>2411.4</ele>
        <time>2021-05-04T07:48:41Z</time>
      </trkpt>
      <trkpt lat="45.48296" lon="6.90675">
        <ele>2411.4</ele>
        <time>2021-05-04T07:48:43Z</time>
      </trkpt>
      <trkpt lat="45.48294" lon="6.90674">
        <ele>2411.4</ele>
        <time>2021-05-04T07:48:45Z</time>
      </trkpt>
      <trkpt lat="45.48292" lon="6.90672">
        <ele>2411.4</ele>
        <time>2021-05-04T07:48:47Z</time>
      </trkpt>
      <trkpt lat="45.48291" lon="6.9067">
        <ele>2411.4</ele>
        <time>2021-05-04T07:48:49Z</time>
      </trkpt>
      <trkpt lat="45.48289" lon="6.90669">
        <ele>2411.4</ele>
        <time>2021-05-04T07:48:51Z</time>
      </trkpt>
      <trkpt lat="45.48286" lon="6.90667">
        <ele>2411.4</ele>
        <time>2021-05-04T07:48:54Z</time>
      </trkpt>
      <trkpt lat="45.48284" lon="6.90666">
        <ele>2411.4</ele>
        <time>2021-05-04T07:48:56Z</time>
      </trkpt>
      <trkpt lat="45.48283" lon="6.90665">
        <ele>2411.4</ele>
        <time>2021-05-04T07:48:58Z</time>
      </trkpt>
      <trkpt lat="45.48282" lon="6.90662">
        <ele>2408.8</ele>
        <time>2021-05-04T07:49:00Z</time>
      </trkpt>
      <trkpt lat="45.4828" lon="6.9066">
        <ele>2408.8</ele>
        <time>2021-05-04T07:49:02Z</time>
      </trkpt>
      <trkpt lat="45.48279" lon="6.90658">
        <ele>2408.8</ele>
        <time>2021-05-04T07:49:04Z</time>
      </trkpt>
      <trkpt lat="45.48277" lon="6.90656">
        <ele>2408.8</ele>
        <time>2021-05-04T07:49:07Z</time>
      </trkpt>
      <trkpt lat="45.48276" lon="6.90654">
        <ele>2408.8</ele>
        <time>2021-05-04T07:49:09Z</time>
      </trkpt>
      <trkpt lat="45.48276" lon="6.9065">
        <ele>2408.8</ele>
        <time>2021-05-04T07:49:12Z</time>
      </trkpt>
      <trkpt lat="45.48275" lon="6.90647">
        <ele>2408.8</ele>
        <time>2021-05-04T07:49:14Z</time>
      </trkpt>
      <trkpt lat="45.48275" lon="6.90645">
        <ele>2408.8</ele>
        <time>2021-05-04T07:49:17Z</time>
      </trkpt>
      <trkpt lat="45.48275" lon="6.90641">
        <ele>2417.8</ele>
        <time>2021-05-04T07:49:20Z</time>
      </trkpt>
      <trkpt lat="45.48274" lon="6.90638">
        <ele>2417.8</ele>
        <time>2021-05-04T07:49:22Z</time>
      </trkpt>
      <trkpt lat="45.48274" lon="6.90635">
        <ele>2417.8</ele>
        <time>2021-05-04T07:49:24Z</time>
      </trkpt>
      <trkpt lat="45.48273" lon="6.90632">
        <ele>2417.8</ele>
        <time>2021-05-04T07:49:27Z</time>
      </trkpt>
      <trkpt lat="45.48272" lon="6.9063">
        <ele>2417.8</ele>
        <time>2021-05-04T07:49:29Z</time>
      </trkpt>
      <trkpt lat="45.48272" lon="6.90626">
        <ele>2417.8</ele>
        <time>2021-05-04T07:49:32Z</time>
      </trkpt>
      <trkpt lat="45.48272" lon="6.90622">
        <ele>2417.8</ele>
        <time>2021-05-04T07:49:35Z</time>
      </trkpt>
      <trkpt lat="45.48272" lon="6.9062">
        <ele>2417.8</ele>
        <time>2021-05-04T07:49:37Z</time>
      </trkpt>
      <trkpt lat="45.48272" lon="6.90616">
        <ele>2424</ele>
        <time>2021-05-04T07:49:40Z</time>
      </trkpt>
      <trkpt lat="45.48272" lon="6.90613">
        <ele>2424</ele>
        <time>2021-05-04T07:49:43Z</time>
      </trkpt>
      <trkpt lat="45.48272" lon="6.9061">
        <ele>2424</ele>
        <time>2021-05-04T07:49:46Z</time>
      </trkpt>
      <trkpt lat="45.48272" lon="6.90606">
        <ele>2427.2</ele>
        <time>2021-05-04T07:49:50Z</time>
      </trkpt>
      <trkpt lat="45.48273" lon="6.90602">
        <ele>2427.2</ele>
        <time>2021-05-04T07:49:53Z</time>
      </trkpt>
      <trkpt lat="45.48273" lon="6.906">
        <ele>2427.2</ele>
        <time>2021-05-04T07:49:55Z</time>
      </trkpt>
      <trkpt lat="45.48274" lon="6.90596">
        <ele>2427.2</ele>
        <time>2021-05-04T07:49:58Z</time>
      </trkpt>
      <trkpt lat="45.48274" lon="6.90592">
        <ele>2427.2</ele>
        <time>2021-05-04T07:50:01Z</time>
      </trkpt>
      <trkpt lat="45.48274" lon="6.90588">
        <ele>2427.2</ele>
        <time>2021-05-04T07:50:04Z</time>
      </trkpt>
      <trkpt lat="45.48274" lon="6.90585">
        <ele>2427.2</ele>
        <time>2021-05-04T07:50:07Z</time>
      </trkpt>
      <trkpt lat="45.48275" lon="6.90581">
        <ele>2431.8</ele>
        <time>2021-05-04T07:50:10Z</time>
      </trkpt>
      <trkpt lat="45.48276" lon="6.90578">
        <ele>2431.8</ele>
        <time>2021-05-04T07:50:12Z</time>
      </trkpt>
      <trkpt lat="45.48276" lon="6.90574">
        <ele>2431.8</ele>
        <time>2021-05-04T07:50:15Z</time>
      </trkpt>
      <trkpt lat="45.48276" lon="6.90572">
        <ele>2431.8</ele>
        <time>2021-05-04T07:50:17Z</time>
      </trkpt>
      <trkpt lat="45.48276" lon="6.90569">
        <ele>2431.8</ele>
        <time>2021-05-04T07:50:19Z</time>
      </trkpt>
      <trkpt lat="45.48277" lon="6.90566">
        <ele>2431.8</ele>
        <time>2021-05-04T07:50:22Z</time>
      </trkpt>
      <trkpt lat="45.48278" lon="6.90563">
        <ele>2431.8</ele>
        <time>2021-05-04T07:50:24Z</time>
      </trkpt>
      <trkpt lat="45.48278" lon="6.90559">
        <ele>2431.8</ele>
        <time>2021-05-04T07:50:27Z</time>
      </trkpt>
      <trkpt lat="45.48279" lon="6.90556">
        <ele>2435.6</ele>
        <time>2021-05-04T07:50:30Z</time>
      </trkpt>
      <trkpt lat="45.48279" lon="6.90553">
        <ele>2435.6</ele>
        <time>2021-05-04T07:50:33Z</time>
      </trkpt>
      <trkpt lat="45.4828" lon="6.9055">
        <ele>2435.6</ele>
        <time>2021-05-04T07:50:36Z</time>
      </trkpt>
      <trkpt lat="45.4828" lon="6.90546">
        <ele>2435.6</ele>
        <time>2021-05-04T07:50:39Z</time>
      </trkpt>
      <trkpt lat="45.4828" lon="6.90542">
        <ele>2435.6</ele>
        <time>2021-05-04T07:50:42Z</time>
      </trkpt>
      <trkpt lat="45.48281" lon="6.90539">
        <ele>2435.6</ele>
        <time>2021-05-04T07:50:45Z</time>
      </trkpt>
      <trkpt lat="45.48282" lon="6.90537">
        <ele>2435.6</ele>
        <time>2021-05-04T07:50:47Z</time>
      </trkpt>
      <trkpt lat="45.48283" lon="6.90534">
        <ele>2438.4</ele>
        <time>2021-05-04T07:50:50Z</time>
      </trkpt>
      <trkpt lat="45.48284" lon="6.90532">
        <ele>2438.4</ele>
        <time>2021-05-04T07:50:53Z</time>
      </trkpt>
      <trkpt lat="45.48284" lon="6.90529">
        <ele>2438.4</ele>
        <time>2021-05-04T07:50:56Z</time>
      </trkpt>
      <trkpt lat="45.48285" lon="6.90526">
        <ele>2438.4</ele>
        <time>2021-05-04T07:50:59Z</time>
      </trkpt>
      <trkpt lat="45.48286" lon="6.90522">
        <ele>2438.4</ele>
        <time>2021-05-04T07:51:02Z</time>
      </trkpt>
      <trkpt lat="45.48287" lon="6.90519">
        <ele>2438.4</ele>
        <time>2021-05-04T07:51:04Z</time>
      </trkpt>
      <trkpt lat="45.48289" lon="6.90518">
        <ele>2438.4</ele>
        <time>2021-05-04T07:51:06Z</time>
      </trkpt>
      <trkpt lat="45.48291" lon="6.90517">
        <ele>2438.4</ele>
        <time>2021-05-04T07:51:08Z</time>
      </trkpt>
      <trkpt lat="45.48294" lon="6.90516">
        <ele>2438.4</ele>
        <time>2021-05-04T07:51:11Z</time>
      </trkpt>
      <trkpt lat="45.48295" lon="6.90514">
        <ele>2438.4</ele>
        <time>2021-05-04T07:51:13Z</time>
      </trkpt>
      <trkpt lat="45.48298" lon="6.90513">
        <ele>2438.4</ele>
        <time>2021-05-04T07:51:16Z</time>
      </trkpt>
      <trkpt lat="45.483" lon="6.90513">
        <ele>2438.4</ele>
        <time>2021-05-04T07:51:18Z</time>
      </trkpt>
      <trkpt lat="45.48301" lon="6.90513">
        <ele>2444.6</ele>
        <time>2021-05-04T07:51:20Z</time>
      </trkpt>
      <trkpt lat="45.48303" lon="6.90512">
        <ele>2444.6</ele>
        <time>2021-05-04T07:51:22Z</time>
      </trkpt>
      <trkpt lat="45.48306" lon="6.90512">
        <ele>2444.6</ele>
        <time>2021-05-04T07:51:24Z</time>
      </trkpt>
      <trkpt lat="45.48308" lon="6.90512">
        <ele>2444.6</ele>
        <time>2021-05-04T07:51:26Z</time>
      </trkpt>
      <trkpt lat="45.48309" lon="6.90512">
        <ele>2444.6</ele>
        <time>2021-05-04T07:51:28Z</time>
      </trkpt>
      <trkpt lat="45.48311" lon="6.9051">
        <ele>2444.6</ele>
        <time>2021-05-04T07:51:31Z</time>
      </trkpt>
      <trkpt lat="45.48313" lon="6.90508">
        <ele>2444.6</ele>
        <time>2021-05-04T07:51:34Z</time>
      </trkpt>
      <trkpt lat="45.48315" lon="6.90508">
        <ele>2444.6</ele>
        <time>2021-05-04T07:51:36Z</time>
      </trkpt>
      <trkpt lat="45.48316" lon="6.90506">
        <ele>2444.6</ele>
        <time>2021-05-04T07:51:38Z</time>
      </trkpt>
      <trkpt lat="45.48318" lon="6.90505">
        <ele>2449.2</ele>
        <time>2021-05-04T07:51:40Z</time>
      </trkpt>
      <trkpt lat="45.4832" lon="6.90503">
        <ele>2449.2</ele>
        <time>2021-05-04T07:51:43Z</time>
      </trkpt>
      <trkpt lat="45.48321" lon="6.90501">
        <ele>2449.2</ele>
        <time>2021-05-04T07:51:46Z</time>
      </trkpt>
      <trkpt lat="45.48321" lon="6.90498">
        <ele>2449.2</ele>
        <time>2021-05-04T07:51:49Z</time>
      </trkpt>
      <trkpt lat="45.48322" lon="6.90495">
        <ele>2449.2</ele>
        <time>2021-05-04T07:51:51Z</time>
      </trkpt>
      <trkpt lat="45.48323" lon="6.90493">
        <ele>2449.2</ele>
        <time>2021-05-04T07:51:53Z</time>
      </trkpt>
      <trkpt lat="45.48324" lon="6.9049">
        <ele>2449.2</ele>
        <time>2021-05-04T07:51:56Z</time>
      </trkpt>
      <trkpt lat="45.48326" lon="6.90487">
        <ele>2449.2</ele>
        <time>2021-05-04T07:51:59Z</time>
      </trkpt>
      <trkpt lat="45.48327" lon="6.90484">
        <ele>2449.2</ele>
        <time>2021-05-04T07:52:02Z</time>
      </trkpt>
      <trkpt lat="45.48328" lon="6.90482">
        <ele>2449.2</ele>
        <time>2021-05-04T07:52:05Z</time>
      </trkpt>
      <trkpt lat="45.4833" lon="6.9048">
        <ele>2449.2</ele>
        <time>2021-05-04T07:52:07Z</time>
      </trkpt>
      <trkpt lat="45.48332" lon="6.90479">
        <ele>2449.2</ele>
        <time>2021-05-04T07:52:09Z</time>
      </trkpt>
      <trkpt lat="45.48333" lon="6.90477">
        <ele>2449.2</ele>
        <time>2021-05-04T07:52:11Z</time>
      </trkpt>
      <trkpt lat="45.48334" lon="6.90475">
        <ele>2449.2</ele>
        <time>2021-05-04T07:52:14Z</time>
      </trkpt>
      <trkpt lat="45.48336" lon="6.90472">
        <ele>2449.2</ele>
        <time>2021-05-04T07:52:17Z</time>
      </trkpt>
      <trkpt lat="45.48338" lon="6.9047">
        <ele>2449.2</ele>
        <time>2021-05-04T07:52:19Z</time>
      </trkpt>
      <trkpt lat="45.48339" lon="6.90467">
        <ele>2449.2</ele>
        <time>2021-05-04T07:52:22Z</time>
      </trkpt>
      <trkpt lat="45.4834" lon="6.90465">
        <ele>2449.2</ele>
        <time>2021-05-04T07:52:25Z</time>
      </trkpt>
      <trkpt lat="45.48342" lon="6.90463">
        <ele>2449.2</ele>
        <time>2021-05-04T07:52:27Z</time>
      </trkpt>
      <trkpt lat="45.48344" lon="6.90461">
        <ele>2463</ele>
        <time>2021-05-04T07:52:30Z</time>
      </trkpt>
      <trkpt lat="45.48345" lon="6.9046">
        <ele>2463</ele>
        <time>2021-05-04T07:52:32Z</time>
      </trkpt>
      <trkpt lat="45.48348" lon="6.90458">
        <ele>2463</ele>
        <time>2021-05-04T07:52:35Z</time>
      </trkpt>
      <trkpt lat="45.48349" lon="6.90456">
        <ele>2463</ele>
        <time>2021-05-04T07:52:38Z</time>
      </trkpt>
      <trkpt lat="45.48351" lon="6.90455">
        <ele>2466</ele>
        <time>2021-05-04T07:52:40Z</time>
      </trkpt>
      <trkpt lat="45.48353" lon="6.90453">
        <ele>2466</ele>
        <time>2021-05-04T07:52:43Z</time>
      </trkpt>
      <trkpt lat="45.48354" lon="6.9045">
        <ele>2466</ele>
        <time>2021-05-04T07:52:46Z</time>
      </trkpt>
      <trkpt lat="45.48356" lon="6.90448">
        <ele>2466</ele>
        <time>2021-05-04T07:52:48Z</time>
      </trkpt>
      <trkpt lat="45.48357" lon="6.90445">
        <ele>2466</ele>
        <time>2021-05-04T07:52:51Z</time>
      </trkpt>
      <trkpt lat="45.48359" lon="6.90443">
        <ele>2466</ele>
        <time>2021-05-04T07:52:54Z</time>
      </trkpt>
      <trkpt lat="45.48361" lon="6.90441">
        <ele>2466</ele>
        <time>2021-05-04T07:52:57Z</time>
      </trkpt>
      <trkpt lat="45.48363" lon="6.90438">
        <ele>2472</ele>
        <time>2021-05-04T07:53:00Z</time>
      </trkpt>
      <trkpt lat="45.48365" lon="6.90435">
        <ele>2472</ele>
        <time>2021-05-04T07:53:03Z</time>
      </trkpt>
      <trkpt lat="45.48367" lon="6.90433">
        <ele>2472</ele>
        <time>2021-05-04T07:53:05Z</time>
      </trkpt>
      <trkpt lat="45.48368" lon="6.9043">
        <ele>2472</ele>
        <time>2021-05-04T07:53:08Z</time>
      </trkpt>
      <trkpt lat="45.48371" lon="6.90428">
        <ele>2474.6</ele>
        <time>2021-05-04T07:53:10Z</time>
      </trkpt>
      <trkpt lat="45.48373" lon="6.90426">
        <ele>2474.6</ele>
        <time>2021-05-04T07:53:13Z</time>
      </trkpt>
      <trkpt lat="45.48375" lon="6.90424">
        <ele>2474.6</ele>
        <time>2021-05-04T07:53:15Z</time>
      </trkpt>
      <trkpt lat="45.48376" lon="6.90422">
        <ele>2474.6</ele>
        <time>2021-05-04T07:53:17Z</time>
      </trkpt>
      <trkpt lat="45.48378" lon="6.9042">
        <ele>2474.6</ele>
        <time>2021-05-04T07:53:19Z</time>
      </trkpt>
      <trkpt lat="45.4838" lon="6.90418">
        <ele>2474.6</ele>
        <time>2021-05-04T07:53:21Z</time>
      </trkpt>
      <trkpt lat="45.48382" lon="6.90415">
        <ele>2474.6</ele>
        <time>2021-05-04T07:53:23Z</time>
      </trkpt>
      <trkpt lat="45.48384" lon="6.90413">
        <ele>2474.6</ele>
        <time>2021-05-04T07:53:25Z</time>
      </trkpt>
      <trkpt lat="45.48386" lon="6.90411">
        <ele>2474.6</ele>
        <time>2021-05-04T07:53:27Z</time>
      </trkpt>
      <trkpt lat="45.48388" lon="6.9041">
        <ele>2474.6</ele>
        <time>2021-05-04T07:53:29Z</time>
      </trkpt>
      <trkpt lat="45.4839" lon="6.90408">
        <ele>2474.6</ele>
        <time>2021-05-04T07:53:31Z</time>
      </trkpt>
      <trkpt lat="45.48392" lon="6.90406">
        <ele>2474.6</ele>
        <time>2021-05-04T07:53:33Z</time>
      </trkpt>
      <trkpt lat="45.48394" lon="6.90404">
        <ele>2474.6</ele>
        <time>2021-05-04T07:53:35Z</time>
      </trkpt>
      <trkpt lat="45.48396" lon="6.90401">
        <ele>2474.6</ele>
        <time>2021-05-04T07:53:37Z</time>
      </trkpt>
      <trkpt lat="45.48398" lon="6.90399">
        <ele>2474.6</ele>
        <time>2021-05-04T07:53:39Z</time>
      </trkpt>
      <trkpt lat="45.484" lon="6.90397">
        <ele>2474.6</ele>
        <time>2021-05-04T07:53:41Z</time>
      </trkpt>
      <trkpt lat="45.48401" lon="6.90394">
        <ele>2474.6</ele>
        <time>2021-05-04T07:53:43Z</time>
      </trkpt>
      <trkpt lat="45.48403" lon="6.90391">
        <ele>2474.6</ele>
        <time>2021-05-04T07:53:45Z</time>
      </trkpt>
      <trkpt lat="45.48404" lon="6.90389">
        <ele>2474.6</ele>
        <time>2021-05-04T07:53:47Z</time>
      </trkpt>
      <trkpt lat="45.48406" lon="6.90386">
        <ele>2474.6</ele>
        <time>2021-05-04T07:53:49Z</time>
      </trkpt>
      <trkpt lat="45.48407" lon="6.90382">
        <ele>2474.6</ele>
        <time>2021-05-04T07:53:51Z</time>
      </trkpt>
      <trkpt lat="45.48408" lon="6.90379">
        <ele>2474.6</ele>
        <time>2021-05-04T07:53:53Z</time>
      </trkpt>
      <trkpt lat="45.48409" lon="6.90376">
        <ele>2474.6</ele>
        <time>2021-05-04T07:53:55Z</time>
      </trkpt>
      <trkpt lat="45.48411" lon="6.90374">
        <ele>2474.6</ele>
        <time>2021-05-04T07:53:57Z</time>
      </trkpt>
      <trkpt lat="45.48412" lon="6.90371">
        <ele>2474.6</ele>
        <time>2021-05-04T07:53:59Z</time>
      </trkpt>
      <trkpt lat="45.48414" lon="6.90369">
        <ele>2474.6</ele>
        <time>2021-05-04T07:54:01Z</time>
      </trkpt>
      <trkpt lat="45.48416" lon="6.90367">
        <ele>2474.6</ele>
        <time>2021-05-04T07:54:03Z</time>
      </trkpt>
      <trkpt lat="45.48419" lon="6.90365">
        <ele>2474.6</ele>
        <time>2021-05-04T07:54:06Z</time>
      </trkpt>
      <trkpt lat="45.4842" lon="6.90362">
        <ele>2474.6</ele>
        <time>2021-05-04T07:54:08Z</time>
      </trkpt>
      <trkpt lat="45.48421" lon="6.9036">
        <ele>2485.2</ele>
        <time>2021-05-04T07:54:10Z</time>
      </trkpt>
      <trkpt lat="45.48423" lon="6.90357">
        <ele>2485.2</ele>
        <time>2021-05-04T07:54:12Z</time>
      </trkpt>
      <trkpt lat="45.48424" lon="6.90355">
        <ele>2485.2</ele>
        <time>2021-05-04T07:54:14Z</time>
      </trkpt>
      <trkpt lat="45.48426" lon="6.90352">
        <ele>2485.2</ele>
        <time>2021-05-04T07:54:16Z</time>
      </trkpt>
      <trkpt lat="45.48427" lon="6.9035">
        <ele>2485.2</ele>
        <time>2021-05-04T07:54:18Z</time>
      </trkpt>
      <trkpt lat="45.48427" lon="6.90348">
        <ele>2487</ele>
        <time>2021-05-04T07:54:20Z</time>
      </trkpt>
      <trkpt lat="45.48428" lon="6.90345">
        <ele>2487</ele>
        <time>2021-05-04T07:54:22Z</time>
      </trkpt>
      <trkpt lat="45.4843" lon="6.90342">
        <ele>2487</ele>
        <time>2021-05-04T07:54:25Z</time>
      </trkpt>
      <trkpt lat="45.48431" lon="6.9034">
        <ele>2487</ele>
        <time>2021-05-04T07:54:27Z</time>
      </trkpt>
      <trkpt lat="45.48433" lon="6.90337">
        <ele>2489.6</ele>
        <time>2021-05-04T07:54:30Z</time>
      </trkpt>
      <trkpt lat="45.48434" lon="6.90334">
        <ele>2489.6</ele>
        <time>2021-05-04T07:54:32Z</time>
      </trkpt>
      <trkpt lat="45.48435" lon="6.90332">
        <ele>2489.6</ele>
        <time>2021-05-04T07:54:34Z</time>
      </trkpt>
      <trkpt lat="45.48436" lon="6.90329">
        <ele>2489.6</ele>
        <time>2021-05-04T07:54:37Z</time>
      </trkpt>
      <trkpt lat="45.48437" lon="6.90327">
        <ele>2489.6</ele>
        <time>2021-05-04T07:54:39Z</time>
      </trkpt>
      <trkpt lat="45.48438" lon="6.90325">
        <ele>2489.6</ele>
        <time>2021-05-04T07:54:41Z</time>
      </trkpt>
      <trkpt lat="45.48439" lon="6.90322">
        <ele>2489.6</ele>
        <time>2021-05-04T07:54:44Z</time>
      </trkpt>
      <trkpt lat="45.4844" lon="6.9032">
        <ele>2489.6</ele>
        <time>2021-05-04T07:54:46Z</time>
      </trkpt>
      <trkpt lat="45.48441" lon="6.90316">
        <ele>2489.6</ele>
        <time>2021-05-04T07:54:48Z</time>
      </trkpt>
      <trkpt lat="45.48443" lon="6.90314">
        <ele>2493.4</ele>
        <time>2021-05-04T07:54:50Z</time>
      </trkpt>
      <trkpt lat="45.48445" lon="6.90311">
        <ele>2493.4</ele>
        <time>2021-05-04T07:54:53Z</time>
      </trkpt>
      <trkpt lat="45.48446" lon="6.90308">
        <ele>2493.4</ele>
        <time>2021-05-04T07:54:55Z</time>
      </trkpt>
      <trkpt lat="45.48447" lon="6.90306">
        <ele>2493.4</ele>
        <time>2021-05-04T07:54:57Z</time>
      </trkpt>
      <trkpt lat="45.48448" lon="6.90303">
        <ele>2493.4</ele>
        <time>2021-05-04T07:54:59Z</time>
      </trkpt>
      <trkpt lat="45.4845" lon="6.903">
        <ele>2493.4</ele>
        <time>2021-05-04T07:55:01Z</time>
      </trkpt>
      <trkpt lat="45.48451" lon="6.90297">
        <ele>2493.4</ele>
        <time>2021-05-04T07:55:03Z</time>
      </trkpt>
      <trkpt lat="45.48453" lon="6.90294">
        <ele>2493.4</ele>
        <time>2021-05-04T07:55:05Z</time>
      </trkpt>
      <trkpt lat="45.48455" lon="6.90292">
        <ele>2493.4</ele>
        <time>2021-05-04T07:55:07Z</time>
      </trkpt>
      <trkpt lat="45.48456" lon="6.9029">
        <ele>2493.4</ele>
        <time>2021-05-04T07:55:09Z</time>
      </trkpt>
      <trkpt lat="45.48457" lon="6.90287">
        <ele>2493.4</ele>
        <time>2021-05-04T07:55:11Z</time>
      </trkpt>
      <trkpt lat="45.48459" lon="6.90284">
        <ele>2493.4</ele>
        <time>2021-05-04T07:55:13Z</time>
      </trkpt>
      <trkpt lat="45.4846" lon="6.90281">
        <ele>2493.4</ele>
        <time>2021-05-04T07:55:15Z</time>
      </trkpt>
      <trkpt lat="45.48463" lon="6.90278">
        <ele>2493.4</ele>
        <time>2021-05-04T07:55:17Z</time>
      </trkpt>
      <trkpt lat="45.48464" lon="6.90276">
        <ele>2493.4</ele>
        <time>2021-05-04T07:55:19Z</time>
      </trkpt>
      <trkpt lat="45.48465" lon="6.90273">
        <ele>2493.4</ele>
        <time>2021-05-04T07:55:21Z</time>
      </trkpt>
      <trkpt lat="45.48467" lon="6.9027">
        <ele>2493.4</ele>
        <time>2021-05-04T07:55:23Z</time>
      </trkpt>
      <trkpt lat="45.48468" lon="6.90268">
        <ele>2493.4</ele>
        <time>2021-05-04T07:55:25Z</time>
      </trkpt>
      <trkpt lat="45.4847" lon="6.90265">
        <ele>2493.4</ele>
        <time>2021-05-04T07:55:27Z</time>
      </trkpt>
      <trkpt lat="45.48472" lon="6.90262">
        <ele>2497</ele>
        <time>2021-05-04T07:55:30Z</time>
      </trkpt>
      <trkpt lat="45.48473" lon="6.9026">
        <ele>2497</ele>
        <time>2021-05-04T07:55:32Z</time>
      </trkpt>
      <trkpt lat="45.48475" lon="6.90257">
        <ele>2497</ele>
        <time>2021-05-04T07:55:34Z</time>
      </trkpt>
      <trkpt lat="45.48476" lon="6.90255">
        <ele>2497</ele>
        <time>2021-05-04T07:55:36Z</time>
      </trkpt>
      <trkpt lat="45.48478" lon="6.90253">
        <ele>2497</ele>
        <time>2021-05-04T07:55:38Z</time>
      </trkpt>
      <trkpt lat="45.48479" lon="6.9025">
        <ele>2498.4</ele>
        <time>2021-05-04T07:55:40Z</time>
      </trkpt>
      <trkpt lat="45.48481" lon="6.90248">
        <ele>2498.4</ele>
        <time>2021-05-04T07:55:42Z</time>
      </trkpt>
      <trkpt lat="45.48482" lon="6.90245">
        <ele>2498.4</ele>
        <time>2021-05-04T07:55:44Z</time>
      </trkpt>
      <trkpt lat="45.48484" lon="6.90242">
        <ele>2498.4</ele>
        <time>2021-05-04T07:55:47Z</time>
      </trkpt>
      <trkpt lat="45.48486" lon="6.90239">
        <ele>2499.6</ele>
        <time>2021-05-04T07:55:50Z</time>
      </trkpt>
      <trkpt lat="45.48488" lon="6.90237">
        <ele>2499.6</ele>
        <time>2021-05-04T07:55:52Z</time>
      </trkpt>
      <trkpt lat="45.48489" lon="6.90234">
        <ele>2499.6</ele>
        <time>2021-05-04T07:55:54Z</time>
      </trkpt>
      <trkpt lat="45.48491" lon="6.90231">
        <ele>2499.6</ele>
        <time>2021-05-04T07:55:57Z</time>
      </trkpt>
      <trkpt lat="45.48492" lon="6.9023">
        <ele>2499.6</ele>
        <time>2021-05-04T07:55:59Z</time>
      </trkpt>
      <trkpt lat="45.48494" lon="6.90228">
        <ele>2499.6</ele>
        <time>2021-05-04T07:56:01Z</time>
      </trkpt>
      <trkpt lat="45.48495" lon="6.90226">
        <ele>2499.6</ele>
        <time>2021-05-04T07:56:03Z</time>
      </trkpt>
      <trkpt lat="45.48497" lon="6.90223">
        <ele>2499.6</ele>
        <time>2021-05-04T07:56:05Z</time>
      </trkpt>
      <trkpt lat="45.48498" lon="6.90221">
        <ele>2499.6</ele>
        <time>2021-05-04T07:56:07Z</time>
      </trkpt>
      <trkpt lat="45.485" lon="6.90219">
        <ele>2499.6</ele>
        <time>2021-05-04T07:56:09Z</time>
      </trkpt>
      <trkpt lat="45.48501" lon="6.90218">
        <ele>2499.6</ele>
        <time>2021-05-04T07:56:11Z</time>
      </trkpt>
      <trkpt lat="45.48503" lon="6.90216">
        <ele>2499.6</ele>
        <time>2021-05-04T07:56:13Z</time>
      </trkpt>
      <trkpt lat="45.48505" lon="6.90213">
        <ele>2499.6</ele>
        <time>2021-05-04T07:56:15Z</time>
      </trkpt>
      <trkpt lat="45.48507" lon="6.90211">
        <ele>2499.6</ele>
        <time>2021-05-04T07:56:18Z</time>
      </trkpt>
      <trkpt lat="45.48509" lon="6.90209">
        <ele>2505</ele>
        <time>2021-05-04T07:56:20Z</time>
      </trkpt>
      <trkpt lat="45.4851" lon="6.90207">
        <ele>2505</ele>
        <time>2021-05-04T07:56:22Z</time>
      </trkpt>
      <trkpt lat="45.48513" lon="6.90204">
        <ele>2505</ele>
        <time>2021-05-04T07:56:25Z</time>
      </trkpt>
      <trkpt lat="45.48515" lon="6.90203">
        <ele>2505</ele>
        <time>2021-05-04T07:56:27Z</time>
      </trkpt>
      <trkpt lat="45.48516" lon="6.90201">
        <ele>2505</ele>
        <time>2021-05-04T07:56:29Z</time>
      </trkpt>
      <trkpt lat="45.48518" lon="6.902">
        <ele>2505</ele>
        <time>2021-05-04T07:56:31Z</time>
      </trkpt>
      <trkpt lat="45.4852" lon="6.90199">
        <ele>2505</ele>
        <time>2021-05-04T07:56:33Z</time>
      </trkpt>
      <trkpt lat="45.48523" lon="6.90198">
        <ele>2505</ele>
        <time>2021-05-04T07:56:36Z</time>
      </trkpt>
      <trkpt lat="45.48524" lon="6.90197">
        <ele>2505</ele>
        <time>2021-05-04T07:56:38Z</time>
      </trkpt>
      <trkpt lat="45.48526" lon="6.90196">
        <ele>2508.2</ele>
        <time>2021-05-04T07:56:40Z</time>
      </trkpt>
      <trkpt lat="45.48529" lon="6.90195">
        <ele>2508.2</ele>
        <time>2021-05-04T07:56:42Z</time>
      </trkpt>
      <trkpt lat="45.48531" lon="6.90194">
        <ele>2508.2</ele>
        <time>2021-05-04T07:56:45Z</time>
      </trkpt>
      <trkpt lat="45.48534" lon="6.90194">
        <ele>2508.2</ele>
        <time>2021-05-04T07:56:47Z</time>
      </trkpt>
      <trkpt lat="45.48537" lon="6.90193">
        <ele>2508.2</ele>
        <time>2021-05-04T07:56:49Z</time>
      </trkpt>
      <trkpt lat="45.48539" lon="6.90193">
        <ele>2508.2</ele>
        <time>2021-05-04T07:56:51Z</time>
      </trkpt>
      <trkpt lat="45.48542" lon="6.90192">
        <ele>2508.2</ele>
        <time>2021-05-04T07:56:53Z</time>
      </trkpt>
      <trkpt lat="45.48544" lon="6.90192">
        <ele>2508.2</ele>
        <time>2021-05-04T07:56:55Z</time>
      </trkpt>
      <trkpt lat="45.48546" lon="6.90192">
        <ele>2508.2</ele>
        <time>2021-05-04T07:56:57Z</time>
      </trkpt>
      <trkpt lat="45.48548" lon="6.90192">
        <ele>2508.2</ele>
        <time>2021-05-04T07:56:59Z</time>
      </trkpt>
      <trkpt lat="45.48551" lon="6.90192">
        <ele>2508.2</ele>
        <time>2021-05-04T07:57:01Z</time>
      </trkpt>
      <trkpt lat="45.48554" lon="6.90192">
        <ele>2508.2</ele>
        <time>2021-05-04T07:57:03Z</time>
      </trkpt>
      <trkpt lat="45.48556" lon="6.90192">
        <ele>2508.2</ele>
        <time>2021-05-04T07:57:05Z</time>
      </trkpt>
      <trkpt lat="45.48557" lon="6.90192">
        <ele>2508.2</ele>
        <time>2021-05-04T07:57:07Z</time>
      </trkpt>
      <trkpt lat="45.4856" lon="6.90191">
        <ele>2508.2</ele>
        <time>2021-05-04T07:57:09Z</time>
      </trkpt>
      <trkpt lat="45.48562" lon="6.90191">
        <ele>2508.2</ele>
        <time>2021-05-04T07:57:11Z</time>
      </trkpt>
      <trkpt lat="45.48564" lon="6.90192">
        <ele>2508.2</ele>
        <time>2021-05-04T07:57:13Z</time>
      </trkpt>
      <trkpt lat="45.48565" lon="6.90192">
        <ele>2508.2</ele>
        <time>2021-05-04T07:57:15Z</time>
      </trkpt>
      <trkpt lat="45.48568" lon="6.90192">
        <ele>2508.2</ele>
        <time>2021-05-04T07:57:19Z</time>
      </trkpt>
      <trkpt lat="45.48571" lon="6.90192">
        <ele>2508.2</ele>
        <time>2021-05-04T07:57:21Z</time>
      </trkpt>
      <trkpt lat="45.48573" lon="6.90192">
        <ele>2508.2</ele>
        <time>2021-05-04T07:57:24Z</time>
      </trkpt>
      <trkpt lat="45.48576" lon="6.90192">
        <ele>2508.2</ele>
        <time>2021-05-04T07:57:26Z</time>
      </trkpt>
      <trkpt lat="45.48578" lon="6.90191">
        <ele>2508.2</ele>
        <time>2021-05-04T07:57:28Z</time>
      </trkpt>
      <trkpt lat="45.4858" lon="6.90191">
        <ele>2516.8</ele>
        <time>2021-05-04T07:57:30Z</time>
      </trkpt>
      <trkpt lat="45.48583" lon="6.90189">
        <ele>2516.8</ele>
        <time>2021-05-04T07:57:33Z</time>
      </trkpt>
      <trkpt lat="45.48585" lon="6.90187">
        <ele>2516.8</ele>
        <time>2021-05-04T07:57:35Z</time>
      </trkpt>
      <trkpt lat="45.48587" lon="6.90185">
        <ele>2516.8</ele>
        <time>2021-05-04T07:57:37Z</time>
      </trkpt>
      <trkpt lat="45.48588" lon="6.90184">
        <ele>2516.8</ele>
        <time>2021-05-04T07:57:39Z</time>
      </trkpt>
      <trkpt lat="45.48591" lon="6.90182">
        <ele>2516.8</ele>
        <time>2021-05-04T07:57:42Z</time>
      </trkpt>
      <trkpt lat="45.48593" lon="6.9018">
        <ele>2516.8</ele>
        <time>2021-05-04T07:57:45Z</time>
      </trkpt>
      <trkpt lat="45.48595" lon="6.90178">
        <ele>2516.8</ele>
        <time>2021-05-04T07:57:48Z</time>
      </trkpt>
      <trkpt lat="45.48596" lon="6.90175">
        <ele>2520.2</ele>
        <time>2021-05-04T07:57:50Z</time>
      </trkpt>
      <trkpt lat="45.48597" lon="6.90172">
        <ele>2520.2</ele>
        <time>2021-05-04T07:57:53Z</time>
      </trkpt>
      <trkpt lat="45.48598" lon="6.90169">
        <ele>2520.2</ele>
        <time>2021-05-04T07:57:56Z</time>
      </trkpt>
      <trkpt lat="45.48599" lon="6.90166">
        <ele>2520.2</ele>
        <time>2021-05-04T07:57:58Z</time>
      </trkpt>
      <trkpt lat="45.486" lon="6.90164">
        <ele>2520.2</ele>
        <time>2021-05-04T07:58:01Z</time>
      </trkpt>
      <trkpt lat="45.486" lon="6.9016">
        <ele>2520.2</ele>
        <time>2021-05-04T07:58:04Z</time>
      </trkpt>
      <trkpt lat="45.48601" lon="6.90157">
        <ele>2520.2</ele>
        <time>2021-05-04T07:58:06Z</time>
      </trkpt>
      <trkpt lat="45.48602" lon="6.90154">
        <ele>2520.2</ele>
        <time>2021-05-04T07:58:09Z</time>
      </trkpt>
      <trkpt lat="45.48602" lon="6.90152">
        <ele>2520.2</ele>
        <time>2021-05-04T07:58:12Z</time>
      </trkpt>
      <trkpt lat="45.48602" lon="6.90148">
        <ele>2520.2</ele>
        <time>2021-05-04T07:58:15Z</time>
      </trkpt>
      <trkpt lat="45.48603" lon="6.90145">
        <ele>2520.2</ele>
        <time>2021-05-04T07:58:18Z</time>
      </trkpt>
      <trkpt lat="45.48603" lon="6.90142">
        <ele>2526.6</ele>
        <time>2021-05-04T07:58:20Z</time>
      </trkpt>
      <trkpt lat="45.48604" lon="6.9014">
        <ele>2526.6</ele>
        <time>2021-05-04T07:58:23Z</time>
      </trkpt>
      <trkpt lat="45.48604" lon="6.90137">
        <ele>2526.6</ele>
        <time>2021-05-04T07:58:26Z</time>
      </trkpt>
      <trkpt lat="45.48604" lon="6.90134">
        <ele>2526.6</ele>
        <time>2021-05-04T07:58:29Z</time>
      </trkpt>
      <trkpt lat="45.48605" lon="6.90131">
        <ele>2526.6</ele>
        <time>2021-05-04T07:58:32Z</time>
      </trkpt>
      <trkpt lat="45.48605" lon="6.90127">
        <ele>2526.6</ele>
        <time>2021-05-04T07:58:36Z</time>
      </trkpt>
      <trkpt lat="45.48606" lon="6.90124">
        <ele>2531</ele>
        <time>2021-05-04T07:58:40Z</time>
      </trkpt>
      <trkpt lat="45.48607" lon="6.90121">
        <ele>2531</ele>
        <time>2021-05-04T07:58:43Z</time>
      </trkpt>
      <trkpt lat="45.48608" lon="6.90118">
        <ele>2531</ele>
        <time>2021-05-04T07:58:46Z</time>
      </trkpt>
      <trkpt lat="45.48608" lon="6.90116">
        <ele>2531</ele>
        <time>2021-05-04T07:58:48Z</time>
      </trkpt>
      <trkpt lat="45.48609" lon="6.90113">
        <ele>2531</ele>
        <time>2021-05-04T07:58:51Z</time>
      </trkpt>
      <trkpt lat="45.48608" lon="6.9011">
        <ele>2531</ele>
        <time>2021-05-04T07:58:55Z</time>
      </trkpt>
      <trkpt lat="45.48606" lon="6.90108">
        <ele>2531</ele>
        <time>2021-05-04T07:58:57Z</time>
      </trkpt>
      <trkpt lat="45.48606" lon="6.90105">
        <ele>2531</ele>
        <time>2021-05-04T07:59:01Z</time>
      </trkpt>
      <trkpt lat="45.48607" lon="6.90102">
        <ele>2531</ele>
        <time>2021-05-04T07:59:04Z</time>
      </trkpt>
      <trkpt lat="45.48608" lon="6.901">
        <ele>2531</ele>
        <time>2021-05-04T07:59:07Z</time>
      </trkpt>
      <trkpt lat="45.4861" lon="6.90097">
        <ele>2538.6</ele>
        <time>2021-05-04T07:59:10Z</time>
      </trkpt>
      <trkpt lat="45.48611" lon="6.90095">
        <ele>2538.6</ele>
        <time>2021-05-04T07:59:14Z</time>
      </trkpt>
      <trkpt lat="45.4861" lon="6.90093">
        <ele>2538.6</ele>
        <time>2021-05-04T07:59:18Z</time>
      </trkpt>
      <trkpt lat="45.48608" lon="6.90091">
        <ele>2538.6</ele>
        <time>2021-05-04T07:59:21Z</time>
      </trkpt>
      <trkpt lat="45.48605" lon="6.90089">
        <ele>2538.6</ele>
        <time>2021-05-04T07:59:24Z</time>
      </trkpt>
      <trkpt lat="45.48604" lon="6.90088">
        <ele>2538.6</ele>
        <time>2021-05-04T07:59:27Z</time>
      </trkpt>
      <trkpt lat="45.48602" lon="6.90087">
        <ele>2542.8</ele>
        <time>2021-05-04T07:59:30Z</time>
      </trkpt>
      <trkpt lat="45.486" lon="6.90086">
        <ele>2542.8</ele>
        <time>2021-05-04T07:59:33Z</time>
      </trkpt>
      <trkpt lat="45.48598" lon="6.90085">
        <ele>2542.8</ele>
        <time>2021-05-04T07:59:35Z</time>
      </trkpt>
      <trkpt lat="45.48595" lon="6.90084">
        <ele>2542.8</ele>
        <time>2021-05-04T07:59:38Z</time>
      </trkpt>
      <trkpt lat="45.48592" lon="6.90083">
        <ele>2542.8</ele>
        <time>2021-05-04T07:59:41Z</time>
      </trkpt>
      <trkpt lat="45.4859" lon="6.90082">
        <ele>2542.8</ele>
        <time>2021-05-04T07:59:44Z</time>
      </trkpt>
      <trkpt lat="45.48588" lon="6.90081">
        <ele>2542.8</ele>
        <time>2021-05-04T07:59:47Z</time>
      </trkpt>
      <trkpt lat="45.48587" lon="6.90079">
        <ele>2547</ele>
        <time>2021-05-04T07:59:50Z</time>
      </trkpt>
      <trkpt lat="45.48584" lon="6.90077">
        <ele>2547</ele>
        <time>2021-05-04T07:59:53Z</time>
      </trkpt>
      <trkpt lat="45.48582" lon="6.90077">
        <ele>2547</ele>
        <time>2021-05-04T07:59:56Z</time>
      </trkpt>
      <trkpt lat="45.4858" lon="6.90076">
        <ele>2547</ele>
        <time>2021-05-04T07:59:59Z</time>
      </trkpt>
      <trkpt lat="45.48578" lon="6.90076">
        <ele>2549</ele>
        <time>2021-05-04T08:00:01Z</time>
      </trkpt>
      <trkpt lat="45.48575" lon="6.90074">
        <ele>2549</ele>
        <time>2021-05-04T08:00:05Z</time>
      </trkpt>
      <trkpt lat="45.48573" lon="6.90075">
        <ele>2549</ele>
        <time>2021-05-04T08:00:08Z</time>
      </trkpt>
      <trkpt lat="45.48571" lon="6.90074">
        <ele>2551</ele>
        <time>2021-05-04T08:00:10Z</time>
      </trkpt>
      <trkpt lat="45.4857" lon="6.90071">
        <ele>2551</ele>
        <time>2021-05-04T08:00:13Z</time>
      </trkpt>
      <trkpt lat="45.4857" lon="6.90067">
        <ele>2551</ele>
        <time>2021-05-04T08:00:16Z</time>
      </trkpt>
      <trkpt lat="45.4857" lon="6.90065">
        <ele>2551</ele>
        <time>2021-05-04T08:00:18Z</time>
      </trkpt>
      <trkpt lat="45.48569" lon="6.90061">
        <ele>2551</ele>
        <time>2021-05-04T08:00:21Z</time>
      </trkpt>
      <trkpt lat="45.4857" lon="6.90058">
        <ele>2551</ele>
        <time>2021-05-04T08:00:24Z</time>
      </trkpt>
      <trkpt lat="45.48571" lon="6.90055">
        <ele>2551</ele>
        <time>2021-05-04T08:00:27Z</time>
      </trkpt>
      <trkpt lat="45.48571" lon="6.90052">
        <ele>2555</ele>
        <time>2021-05-04T08:00:30Z</time>
      </trkpt>
      <trkpt lat="45.4857" lon="6.90049">
        <ele>2555</ele>
        <time>2021-05-04T08:00:33Z</time>
      </trkpt>
      <trkpt lat="45.4857" lon="6.90046">
        <ele>2555</ele>
        <time>2021-05-04T08:00:36Z</time>
      </trkpt>
      <trkpt lat="45.48568" lon="6.90043">
        <ele>2555</ele>
        <time>2021-05-04T08:00:39Z</time>
      </trkpt>
      <trkpt lat="45.48566" lon="6.90042">
        <ele>2555</ele>
        <time>2021-05-04T08:00:41Z</time>
      </trkpt>
      <trkpt lat="45.48566" lon="6.90039">
        <ele>2555</ele>
        <time>2021-05-04T08:00:44Z</time>
      </trkpt>
      <trkpt lat="45.48565" lon="6.90037">
        <ele>2555</ele>
        <time>2021-05-04T08:00:47Z</time>
      </trkpt>
      <trkpt lat="45.48564" lon="6.90034">
        <ele>2559.8</ele>
        <time>2021-05-04T08:00:50Z</time>
      </trkpt>
      <trkpt lat="45.48564" lon="6.9003">
        <ele>2559.8</ele>
        <time>2021-05-04T08:00:53Z</time>
      </trkpt>
      <trkpt lat="45.48562" lon="6.90028">
        <ele>2559.8</ele>
        <time>2021-05-04T08:00:56Z</time>
      </trkpt>
      <trkpt lat="45.4856" lon="6.90026">
        <ele>2559.8</ele>
        <time>2021-05-04T08:00:59Z</time>
      </trkpt>
      <trkpt lat="45.48558" lon="6.90024">
        <ele>2559.8</ele>
        <time>2021-05-04T08:01:02Z</time>
      </trkpt>
      <trkpt lat="45.48556" lon="6.90022">
        <ele>2559.8</ele>
        <time>2021-05-04T08:01:05Z</time>
      </trkpt>
      <trkpt lat="45.48555" lon="6.90019">
        <ele>2559.8</ele>
        <time>2021-05-04T08:01:08Z</time>
      </trkpt>
      <trkpt lat="45.48554" lon="6.90016">
        <ele>2559.8</ele>
        <time>2021-05-04T08:01:11Z</time>
      </trkpt>
      <trkpt lat="45.48554" lon="6.90013">
        <ele>2559.8</ele>
        <time>2021-05-04T08:01:13Z</time>
      </trkpt>
      <trkpt lat="45.48553" lon="6.90011">
        <ele>2559.8</ele>
        <time>2021-05-04T08:01:15Z</time>
      </trkpt>
      <trkpt lat="45.48552" lon="6.90008">
        <ele>2559.8</ele>
        <time>2021-05-04T08:01:18Z</time>
      </trkpt>
      <trkpt lat="45.48551" lon="6.90005">
        <ele>2559.8</ele>
        <time>2021-05-04T08:01:21Z</time>
      </trkpt>
      <trkpt lat="45.4855" lon="6.90002">
        <ele>2559.8</ele>
        <time>2021-05-04T08:01:24Z</time>
      </trkpt>
      <trkpt lat="45.48549" lon="6.9">
        <ele>2559.8</ele>
        <time>2021-05-04T08:01:26Z</time>
      </trkpt>
      <trkpt lat="45.48548" lon="6.89996">
        <ele>2559.8</ele>
        <time>2021-05-04T08:01:29Z</time>
      </trkpt>
      <trkpt lat="45.48548" lon="6.89993">
        <ele>2559.8</ele>
        <time>2021-05-04T08:01:31Z</time>
      </trkpt>
      <trkpt lat="45.48547" lon="6.89991">
        <ele>2559.8</ele>
        <time>2021-05-04T08:01:34Z</time>
      </trkpt>
      <trkpt lat="45.48546" lon="6.89988">
        <ele>2559.8</ele>
        <time>2021-05-04T08:01:36Z</time>
      </trkpt>
      <trkpt lat="45.48546" lon="6.89984">
        <ele>2559.8</ele>
        <time>2021-05-04T08:01:39Z</time>
      </trkpt>
      <trkpt lat="45.48547" lon="6.89982">
        <ele>2559.8</ele>
        <time>2021-05-04T08:01:41Z</time>
      </trkpt>
      <trkpt lat="45.48546" lon="6.89978">
        <ele>2559.8</ele>
        <time>2021-05-04T08:01:44Z</time>
      </trkpt>
      <trkpt lat="45.48545" lon="6.89975">
        <ele>2559.8</ele>
        <time>2021-05-04T08:01:47Z</time>
      </trkpt>
      <trkpt lat="45.48545" lon="6.89972">
        <ele>2574.8</ele>
        <time>2021-05-04T08:01:50Z</time>
      </trkpt>
      <trkpt lat="45.48545" lon="6.89969">
        <ele>2574.8</ele>
        <time>2021-05-04T08:01:53Z</time>
      </trkpt>
      <trkpt lat="45.48546" lon="6.89966">
        <ele>2574.8</ele>
        <time>2021-05-04T08:01:55Z</time>
      </trkpt>
      <trkpt lat="45.48546" lon="6.89963">
        <ele>2574.8</ele>
        <time>2021-05-04T08:01:58Z</time>
      </trkpt>
      <trkpt lat="45.48544" lon="6.89963">
        <ele>2574.8</ele>
        <time>2021-05-04T08:02:04Z</time>
      </trkpt>
      <trkpt lat="45.48541" lon="6.89964">
        <ele>2574.8</ele>
        <time>2021-05-04T08:02:07Z</time>
      </trkpt>
      <trkpt lat="45.48539" lon="6.89964">
        <ele>2580.2</ele>
        <time>2021-05-04T08:02:10Z</time>
      </trkpt>
      <trkpt lat="45.48537" lon="6.89964">
        <ele>2580.2</ele>
        <time>2021-05-04T08:02:13Z</time>
      </trkpt>
      <trkpt lat="45.48535" lon="6.89963">
        <ele>2580.2</ele>
        <time>2021-05-04T08:02:15Z</time>
      </trkpt>
      <trkpt lat="45.48532" lon="6.89963">
        <ele>2580.2</ele>
        <time>2021-05-04T08:02:19Z</time>
      </trkpt>
      <trkpt lat="45.48531" lon="6.89962">
        <ele>2580.2</ele>
        <time>2021-05-04T08:02:22Z</time>
      </trkpt>
      <trkpt lat="45.48528" lon="6.89961">
        <ele>2580.2</ele>
        <time>2021-05-04T08:02:26Z</time>
      </trkpt>
      <trkpt lat="45.48526" lon="6.8996">
        <ele>2580.2</ele>
        <time>2021-05-04T08:02:29Z</time>
      </trkpt>
      <trkpt lat="45.48524" lon="6.89958">
        <ele>2580.2</ele>
        <time>2021-05-04T08:02:32Z</time>
      </trkpt>
      <trkpt lat="45.48523" lon="6.89956">
        <ele>2580.2</ele>
        <time>2021-05-04T08:02:35Z</time>
      </trkpt>
      <trkpt lat="45.48524" lon="6.89952">
        <ele>2580.2</ele>
        <time>2021-05-04T08:02:37Z</time>
      </trkpt>
      <trkpt lat="45.48526" lon="6.89949">
        <ele>2590.8</ele>
        <time>2021-05-04T08:02:40Z</time>
      </trkpt>
      <trkpt lat="45.48526" lon="6.89946">
        <ele>2590.8</ele>
        <time>2021-05-04T08:02:42Z</time>
      </trkpt>
      <trkpt lat="45.48528" lon="6.89943">
        <ele>2590.8</ele>
        <time>2021-05-04T08:02:45Z</time>
      </trkpt>
      <trkpt lat="45.48529" lon="6.8994">
        <ele>2590.8</ele>
        <time>2021-05-04T08:02:47Z</time>
      </trkpt>
      <trkpt lat="45.48529" lon="6.89938">
        <ele>2590.8</ele>
        <time>2021-05-04T08:02:49Z</time>
      </trkpt>
      <trkpt lat="45.4853" lon="6.89935">
        <ele>2590.8</ele>
        <time>2021-05-04T08:02:51Z</time>
      </trkpt>
      <trkpt lat="45.4853" lon="6.89932">
        <ele>2590.8</ele>
        <time>2021-05-04T08:02:53Z</time>
      </trkpt>
      <trkpt lat="45.48531" lon="6.89928">
        <ele>2590.8</ele>
        <time>2021-05-04T08:02:55Z</time>
      </trkpt>
      <trkpt lat="45.48531" lon="6.89924">
        <ele>2590.8</ele>
        <time>2021-05-04T08:02:57Z</time>
      </trkpt>
      <trkpt lat="45.48532" lon="6.89921">
        <ele>2590.8</ele>
        <time>2021-05-04T08:02:59Z</time>
      </trkpt>
      <trkpt lat="45.48532" lon="6.89918">
        <ele>2590.8</ele>
        <time>2021-05-04T08:03:01Z</time>
      </trkpt>
      <trkpt lat="45.48532" lon="6.89915">
        <ele>2590.8</ele>
        <time>2021-05-04T08:03:03Z</time>
      </trkpt>
      <trkpt lat="45.48532" lon="6.89912">
        <ele>2590.8</ele>
        <time>2021-05-04T08:03:05Z</time>
      </trkpt>
      <trkpt lat="45.48533" lon="6.89908">
        <ele>2590.8</ele>
        <time>2021-05-04T08:03:07Z</time>
      </trkpt>
      <trkpt lat="45.48533" lon="6.89905">
        <ele>2590.8</ele>
        <time>2021-05-04T08:03:09Z</time>
      </trkpt>
      <trkpt lat="45.48533" lon="6.89902">
        <ele>2590.8</ele>
        <time>2021-05-04T08:03:11Z</time>
      </trkpt>
      <trkpt lat="45.48533" lon="6.89899">
        <ele>2590.8</ele>
        <time>2021-05-04T08:03:13Z</time>
      </trkpt>
      <trkpt lat="45.48534" lon="6.89895">
        <ele>2590.8</ele>
        <time>2021-05-04T08:03:15Z</time>
      </trkpt>
      <trkpt lat="45.48534" lon="6.89892">
        <ele>2590.8</ele>
        <time>2021-05-04T08:03:17Z</time>
      </trkpt>
      <trkpt lat="45.48535" lon="6.89889">
        <ele>2590.8</ele>
        <time>2021-05-04T08:03:19Z</time>
      </trkpt>
      <trkpt lat="45.48534" lon="6.89885">
        <ele>2590.8</ele>
        <time>2021-05-04T08:03:21Z</time>
      </trkpt>
      <trkpt lat="45.48535" lon="6.89881">
        <ele>2590.8</ele>
        <time>2021-05-04T08:03:23Z</time>
      </trkpt>
      <trkpt lat="45.48535" lon="6.89878">
        <ele>2590.8</ele>
        <time>2021-05-04T08:03:25Z</time>
      </trkpt>
      <trkpt lat="45.48536" lon="6.89874">
        <ele>2590.8</ele>
        <time>2021-05-04T08:03:27Z</time>
      </trkpt>
      <trkpt lat="45.48537" lon="6.8987">
        <ele>2590.8</ele>
        <time>2021-05-04T08:03:29Z</time>
      </trkpt>
      <trkpt lat="45.48537" lon="6.89866">
        <ele>2590.8</ele>
        <time>2021-05-04T08:03:31Z</time>
      </trkpt>
      <trkpt lat="45.48538" lon="6.89862">
        <ele>2590.8</ele>
        <time>2021-05-04T08:03:33Z</time>
      </trkpt>
      <trkpt lat="45.48538" lon="6.89858">
        <ele>2590.8</ele>
        <time>2021-05-04T08:03:35Z</time>
      </trkpt>
      <trkpt lat="45.48538" lon="6.89854">
        <ele>2590.8</ele>
        <time>2021-05-04T08:03:37Z</time>
      </trkpt>
      <trkpt lat="45.48537" lon="6.8985">
        <ele>2590.8</ele>
        <time>2021-05-04T08:03:39Z</time>
      </trkpt>
      <trkpt lat="45.48537" lon="6.89846">
        <ele>2590.8</ele>
        <time>2021-05-04T08:03:41Z</time>
      </trkpt>
      <trkpt lat="45.48537" lon="6.89841">
        <ele>2590.8</ele>
        <time>2021-05-04T08:03:43Z</time>
      </trkpt>
      <trkpt lat="45.48537" lon="6.89837">
        <ele>2590.8</ele>
        <time>2021-05-04T08:03:45Z</time>
      </trkpt>
      <trkpt lat="45.48537" lon="6.89832">
        <ele>2590.8</ele>
        <time>2021-05-04T08:03:47Z</time>
      </trkpt>
      <trkpt lat="45.48536" lon="6.89827">
        <ele>2590.8</ele>
        <time>2021-05-04T08:03:49Z</time>
      </trkpt>
      <trkpt lat="45.48536" lon="6.89822">
        <ele>2590.8</ele>
        <time>2021-05-04T08:03:51Z</time>
      </trkpt>
      <trkpt lat="45.48536" lon="6.89817">
        <ele>2590.8</ele>
        <time>2021-05-04T08:03:53Z</time>
      </trkpt>
      <trkpt lat="45.48536" lon="6.89814">
        <ele>2590.8</ele>
        <time>2021-05-04T08:03:54Z</time>
      </trkpt>
      <trkpt lat="45.48536" lon="6.89812">
        <ele>2590.8</ele>
        <time>2021-05-04T08:03:55Z</time>
      </trkpt>
      <trkpt lat="45.48536" lon="6.89809">
        <ele>2590.8</ele>
        <time>2021-05-04T08:03:56Z</time>
      </trkpt>
      <trkpt lat="45.48536" lon="6.89806">
        <ele>2590.8</ele>
        <time>2021-05-04T08:03:57Z</time>
      </trkpt>
      <trkpt lat="45.48536" lon="6.89802">
        <ele>2590.8</ele>
        <time>2021-05-04T08:03:58Z</time>
      </trkpt>
      <trkpt lat="45.48535" lon="6.89797">
        <ele>2606.2</ele>
        <time>2021-05-04T08:04:00Z</time>
      </trkpt>
      <trkpt lat="45.48534" lon="6.89794">
        <ele>2606.2</ele>
        <time>2021-05-04T08:04:01Z</time>
      </trkpt>
      <trkpt lat="45.48534" lon="6.89791">
        <ele>2606.2</ele>
        <time>2021-05-04T08:04:02Z</time>
      </trkpt>
      <trkpt lat="45.48533" lon="6.89788">
        <ele>2606.2</ele>
        <time>2021-05-04T08:04:03Z</time>
      </trkpt>
      <trkpt lat="45.48532" lon="6.89786">
        <ele>2606.2</ele>
        <time>2021-05-04T08:04:04Z</time>
      </trkpt>
      <trkpt lat="45.48532" lon="6.89783">
        <ele>2606.2</ele>
        <time>2021-05-04T08:04:05Z</time>
      </trkpt>
      <trkpt lat="45.48532" lon="6.8978">
        <ele>2606.2</ele>
        <time>2021-05-04T08:04:06Z</time>
      </trkpt>
      <trkpt lat="45.48531" lon="6.89778">
        <ele>2606.2</ele>
        <time>2021-05-04T08:04:07Z</time>
      </trkpt>
      <trkpt lat="45.48531" lon="6.89775">
        <ele>2606.2</ele>
        <time>2021-05-04T08:04:08Z</time>
      </trkpt>
      <trkpt lat="45.48529" lon="6.89773">
        <ele>2606.2</ele>
        <time>2021-05-04T08:04:09Z</time>
      </trkpt>
      <trkpt lat="45.48529" lon="6.89768">
        <ele>2606.2</ele>
        <time>2021-05-04T08:04:11Z</time>
      </trkpt>
      <trkpt lat="45.48527" lon="6.89764">
        <ele>2606.2</ele>
        <time>2021-05-04T08:04:13Z</time>
      </trkpt>
      <trkpt lat="45.48526" lon="6.8976">
        <ele>2606.2</ele>
        <time>2021-05-04T08:04:15Z</time>
      </trkpt>
      <trkpt lat="45.48525" lon="6.89756">
        <ele>2606.2</ele>
        <time>2021-05-04T08:04:17Z</time>
      </trkpt>
      <trkpt lat="45.48523" lon="6.89753">
        <ele>2606.2</ele>
        <time>2021-05-04T08:04:19Z</time>
      </trkpt>
      <trkpt lat="45.48523" lon="6.89749">
        <ele>2606.2</ele>
        <time>2021-05-04T08:04:21Z</time>
      </trkpt>
      <trkpt lat="45.48521" lon="6.89746">
        <ele>2606.2</ele>
        <time>2021-05-04T08:04:23Z</time>
      </trkpt>
      <trkpt lat="45.48519" lon="6.89743">
        <ele>2606.2</ele>
        <time>2021-05-04T08:04:25Z</time>
      </trkpt>
      <trkpt lat="45.48518" lon="6.8974">
        <ele>2606.2</ele>
        <time>2021-05-04T08:04:27Z</time>
      </trkpt>
      <trkpt lat="45.48517" lon="6.89736">
        <ele>2606.2</ele>
        <time>2021-05-04T08:04:29Z</time>
      </trkpt>
      <trkpt lat="45.48515" lon="6.89733">
        <ele>2606.2</ele>
        <time>2021-05-04T08:04:31Z</time>
      </trkpt>
      <trkpt lat="45.48514" lon="6.89729">
        <ele>2606.2</ele>
        <time>2021-05-04T08:04:33Z</time>
      </trkpt>
      <trkpt lat="45.48512" lon="6.89728">
        <ele>2606.2</ele>
        <time>2021-05-04T08:04:34Z</time>
      </trkpt>
      <trkpt lat="45.4851" lon="6.89723">
        <ele>2606.2</ele>
        <time>2021-05-04T08:04:36Z</time>
      </trkpt>
      <trkpt lat="45.48509" lon="6.89721">
        <ele>2606.2</ele>
        <time>2021-05-04T08:04:37Z</time>
      </trkpt>
      <trkpt lat="45.48507" lon="6.89717">
        <ele>2606.2</ele>
        <time>2021-05-04T08:04:39Z</time>
      </trkpt>
      <trkpt lat="45.48506" lon="6.89714">
        <ele>2607.4</ele>
        <time>2021-05-04T08:04:40Z</time>
      </trkpt>
      <trkpt lat="45.48505" lon="6.89713">
        <ele>2607.4</ele>
        <time>2021-05-04T08:04:41Z</time>
      </trkpt>
      <trkpt lat="45.48503" lon="6.89709">
        <ele>2607.4</ele>
        <time>2021-05-04T08:04:43Z</time>
      </trkpt>
      <trkpt lat="45.48501" lon="6.89705">
        <ele>2607.4</ele>
        <time>2021-05-04T08:04:45Z</time>
      </trkpt>
      <trkpt lat="45.485" lon="6.89701">
        <ele>2607.4</ele>
        <time>2021-05-04T08:04:47Z</time>
      </trkpt>
      <trkpt lat="45.48498" lon="6.89699">
        <ele>2607.4</ele>
        <time>2021-05-04T08:04:48Z</time>
      </trkpt>
      <trkpt lat="45.48496" lon="6.89695">
        <ele>2607.4</ele>
        <time>2021-05-04T08:04:50Z</time>
      </trkpt>
      <trkpt lat="45.48494" lon="6.89692">
        <ele>2607.4</ele>
        <time>2021-05-04T08:04:52Z</time>
      </trkpt>
      <trkpt lat="45.48493" lon="6.8969">
        <ele>2607.4</ele>
        <time>2021-05-04T08:04:53Z</time>
      </trkpt>
      <trkpt lat="45.48492" lon="6.89686">
        <ele>2607.4</ele>
        <time>2021-05-04T08:04:55Z</time>
      </trkpt>
      <trkpt lat="45.4849" lon="6.89684">
        <ele>2607.4</ele>
        <time>2021-05-04T08:04:56Z</time>
      </trkpt>
      <trkpt lat="45.48489" lon="6.89682">
        <ele>2607.4</ele>
        <time>2021-05-04T08:04:57Z</time>
      </trkpt>
      <trkpt lat="45.48487" lon="6.89678">
        <ele>2607.4</ele>
        <time>2021-05-04T08:04:59Z</time>
      </trkpt>
      <trkpt lat="45.48485" lon="6.89675">
        <ele>2607.4</ele>
        <time>2021-05-04T08:05:01Z</time>
      </trkpt>
      <trkpt lat="45.48483" lon="6.89672">
        <ele>2607.4</ele>
        <time>2021-05-04T08:05:03Z</time>
      </trkpt>
      <trkpt lat="45.48482" lon="6.89671">
        <ele>2607.4</ele>
        <time>2021-05-04T08:05:04Z</time>
      </trkpt>
      <trkpt lat="45.4848" lon="6.89668">
        <ele>2607.4</ele>
        <time>2021-05-04T08:05:06Z</time>
      </trkpt>
      <trkpt lat="45.48478" lon="6.89665">
        <ele>2607.4</ele>
        <time>2021-05-04T08:05:08Z</time>
      </trkpt>
      <trkpt lat="45.48477" lon="6.89663">
        <ele>2607.6</ele>
        <time>2021-05-04T08:05:10Z</time>
      </trkpt>
      <trkpt lat="45.48475" lon="6.89661">
        <ele>2607.6</ele>
        <time>2021-05-04T08:05:12Z</time>
      </trkpt>
      <trkpt lat="45.48474" lon="6.89659">
        <ele>2607.6</ele>
        <time>2021-05-04T08:05:14Z</time>
      </trkpt>
      <trkpt lat="45.48472" lon="6.89657">
        <ele>2607.6</ele>
        <time>2021-05-04T08:05:17Z</time>
      </trkpt>
      <trkpt lat="45.48471" lon="6.89654">
        <ele>2607.6</ele>
        <time>2021-05-04T08:05:19Z</time>
      </trkpt>
      <trkpt lat="45.4847" lon="6.89651">
        <ele>2607.6</ele>
        <time>2021-05-04T08:05:22Z</time>
      </trkpt>
      <trkpt lat="45.48469" lon="6.89649">
        <ele>2607.6</ele>
        <time>2021-05-04T08:05:26Z</time>
      </trkpt>
      <trkpt lat="45.48468" lon="6.89646">
        <ele>2607.6</ele>
        <time>2021-05-04T08:05:29Z</time>
      </trkpt>
      <trkpt lat="45.48467" lon="6.89644">
        <ele>2607.6</ele>
        <time>2021-05-04T08:05:31Z</time>
      </trkpt>
      <trkpt lat="45.48465" lon="6.89642">
        <ele>2607.6</ele>
        <time>2021-05-04T08:05:33Z</time>
      </trkpt>
      <trkpt lat="45.48464" lon="6.8964">
        <ele>2607.6</ele>
        <time>2021-05-04T08:05:35Z</time>
      </trkpt>
      <trkpt lat="45.48463" lon="6.89637">
        <ele>2607.6</ele>
        <time>2021-05-04T08:05:37Z</time>
      </trkpt>
      <trkpt lat="45.48462" lon="6.89635">
        <ele>2607.6</ele>
        <time>2021-05-04T08:05:39Z</time>
      </trkpt>
      <trkpt lat="45.4846" lon="6.89632">
        <ele>2607.6</ele>
        <time>2021-05-04T08:05:42Z</time>
      </trkpt>
      <trkpt lat="45.48459" lon="6.89629">
        <ele>2607.6</ele>
        <time>2021-05-04T08:05:45Z</time>
      </trkpt>
      <trkpt lat="45.48458" lon="6.89627">
        <ele>2607.6</ele>
        <time>2021-05-04T08:05:48Z</time>
      </trkpt>
      <trkpt lat="45.48457" lon="6.89624">
        <ele>2607.6</ele>
        <time>2021-05-04T08:05:51Z</time>
      </trkpt>
      <trkpt lat="45.48456" lon="6.89621">
        <ele>2607.6</ele>
        <time>2021-05-04T08:05:54Z</time>
      </trkpt>
      <trkpt lat="45.48456" lon="6.89619">
        <ele>2607.6</ele>
        <time>2021-05-04T08:05:57Z</time>
      </trkpt>
      <trkpt lat="45.48455" lon="6.89616">
        <ele>2614.6</ele>
        <time>2021-05-04T08:06:00Z</time>
      </trkpt>
      <trkpt lat="45.48454" lon="6.89613">
        <ele>2614.6</ele>
        <time>2021-05-04T08:06:04Z</time>
      </trkpt>
      <trkpt lat="45.48453" lon="6.89611">
        <ele>2614.6</ele>
        <time>2021-05-04T08:06:07Z</time>
      </trkpt>
      <trkpt lat="45.48453" lon="6.89608">
        <ele>2614.6</ele>
        <time>2021-05-04T08:06:11Z</time>
      </trkpt>
      <trkpt lat="45.48452" lon="6.89606">
        <ele>2614.6</ele>
        <time>2021-05-04T08:06:13Z</time>
      </trkpt>
      <trkpt lat="45.48451" lon="6.89604">
        <ele>2614.6</ele>
        <time>2021-05-04T08:06:16Z</time>
      </trkpt>
      <trkpt lat="45.48451" lon="6.896">
        <ele>2617.8</ele>
        <time>2021-05-04T08:06:20Z</time>
      </trkpt>
      <trkpt lat="45.4845" lon="6.89596">
        <ele>2617.8</ele>
        <time>2021-05-04T08:06:26Z</time>
      </trkpt>
      <trkpt lat="45.48449" lon="6.89594">
        <ele>2617.8</ele>
        <time>2021-05-04T08:06:28Z</time>
      </trkpt>
      <trkpt lat="45.48448" lon="6.89591">
        <ele>2617.8</ele>
        <time>2021-05-04T08:06:32Z</time>
      </trkpt>
      <trkpt lat="45.48447" lon="6.89588">
        <ele>2617.8</ele>
        <time>2021-05-04T08:06:36Z</time>
      </trkpt>
      <trkpt lat="45.48445" lon="6.89586">
        <ele>2617.8</ele>
        <time>2021-05-04T08:06:41Z</time>
      </trkpt>
      <trkpt lat="45.48444" lon="6.89584">
        <ele>2617.8</ele>
        <time>2021-05-04T08:06:45Z</time>
      </trkpt>
      <trkpt lat="45.48444" lon="6.89581">
        <ele>2617.8</ele>
        <time>2021-05-04T08:06:48Z</time>
      </trkpt>
      <trkpt lat="45.48443" lon="6.89577">
        <ele>2617.8</ele>
        <time>2021-05-04T08:06:52Z</time>
      </trkpt>
      <trkpt lat="45.48442" lon="6.89575">
        <ele>2617.8</ele>
        <time>2021-05-04T08:06:55Z</time>
      </trkpt>
      <trkpt lat="45.48442" lon="6.89572">
        <ele>2617.8</ele>
        <time>2021-05-04T08:06:58Z</time>
      </trkpt>
      <trkpt lat="45.48441" lon="6.89568">
        <ele>2617.8</ele>
        <time>2021-05-04T08:07:02Z</time>
      </trkpt>
      <trkpt lat="45.4844" lon="6.89565">
        <ele>2617.8</ele>
        <time>2021-05-04T08:07:06Z</time>
      </trkpt>
      <trkpt lat="45.48439" lon="6.89563">
        <ele>2617.8</ele>
        <time>2021-05-04T08:07:09Z</time>
      </trkpt>
      <trkpt lat="45.48437" lon="6.8956">
        <ele>2617.8</ele>
        <time>2021-05-04T08:07:11Z</time>
      </trkpt>
      <trkpt lat="45.48437" lon="6.89557">
        <ele>2617.8</ele>
        <time>2021-05-04T08:07:14Z</time>
      </trkpt>
      <trkpt lat="45.48437" lon="6.89554">
        <ele>2617.8</ele>
        <time>2021-05-04T08:07:17Z</time>
      </trkpt>
      <trkpt lat="45.48437" lon="6.89551">
        <ele>2617.8</ele>
        <time>2021-05-04T08:07:21Z</time>
      </trkpt>
      <trkpt lat="45.48437" lon="6.89548">
        <ele>2617.8</ele>
        <time>2021-05-04T08:07:24Z</time>
      </trkpt>
      <trkpt lat="45.48437" lon="6.89545">
        <ele>2617.8</ele>
        <time>2021-05-04T08:07:27Z</time>
      </trkpt>
      <trkpt lat="45.48437" lon="6.89542">
        <ele>2635.6</ele>
        <time>2021-05-04T08:07:30Z</time>
      </trkpt>
      <trkpt lat="45.48437" lon="6.89538">
        <ele>2635.6</ele>
        <time>2021-05-04T08:07:33Z</time>
      </trkpt>
      <trkpt lat="45.48438" lon="6.89536">
        <ele>2635.6</ele>
        <time>2021-05-04T08:07:36Z</time>
      </trkpt>
      <trkpt lat="45.48437" lon="6.89532">
        <ele>2635.6</ele>
        <time>2021-05-04T08:07:39Z</time>
      </trkpt>
      <trkpt lat="45.48438" lon="6.8953">
        <ele>2635.6</ele>
        <time>2021-05-04T08:07:42Z</time>
      </trkpt>
      <trkpt lat="45.48438" lon="6.89527">
        <ele>2635.6</ele>
        <time>2021-05-04T08:07:46Z</time>
      </trkpt>
      <trkpt lat="45.48439" lon="6.89524">
        <ele>2635.6</ele>
        <time>2021-05-04T08:07:49Z</time>
      </trkpt>
      <trkpt lat="45.48439" lon="6.89521">
        <ele>2635.6</ele>
        <time>2021-05-04T08:07:51Z</time>
      </trkpt>
      <trkpt lat="45.48439" lon="6.89518">
        <ele>2635.6</ele>
        <time>2021-05-04T08:07:54Z</time>
      </trkpt>
      <trkpt lat="45.48439" lon="6.89515">
        <ele>2635.6</ele>
        <time>2021-05-04T08:07:58Z</time>
      </trkpt>
      <trkpt lat="45.48439" lon="6.89513">
        <ele>2635.6</ele>
        <time>2021-05-04T08:08:01Z</time>
      </trkpt>
      <trkpt lat="45.4844" lon="6.8951">
        <ele>2635.6</ele>
        <time>2021-05-04T08:08:04Z</time>
      </trkpt>
      <trkpt lat="45.48441" lon="6.89507">
        <ele>2635.6</ele>
        <time>2021-05-04T08:08:07Z</time>
      </trkpt>
      <trkpt lat="45.48441" lon="6.89503">
        <ele>2635.6</ele>
        <time>2021-05-04T08:08:11Z</time>
      </trkpt>
      <trkpt lat="45.48441" lon="6.89499">
        <ele>2635.6</ele>
        <time>2021-05-04T08:08:14Z</time>
      </trkpt>
      <trkpt lat="45.48441" lon="6.89496">
        <ele>2635.6</ele>
        <time>2021-05-04T08:08:17Z</time>
      </trkpt>
      <trkpt lat="45.48442" lon="6.89492">
        <ele>2645</ele>
        <time>2021-05-04T08:08:20Z</time>
      </trkpt>
      <trkpt lat="45.48443" lon="6.8949">
        <ele>2645</ele>
        <time>2021-05-04T08:08:23Z</time>
      </trkpt>
      <trkpt lat="45.48444" lon="6.89486">
        <ele>2645</ele>
        <time>2021-05-04T08:08:26Z</time>
      </trkpt>
      <trkpt lat="45.48445" lon="6.89484">
        <ele>2645</ele>
        <time>2021-05-04T08:08:28Z</time>
      </trkpt>
      <trkpt lat="45.48446" lon="6.89482">
        <ele>2648.6</ele>
        <time>2021-05-04T08:08:30Z</time>
      </trkpt>
      <trkpt lat="45.48448" lon="6.8948">
        <ele>2648.6</ele>
        <time>2021-05-04T08:08:32Z</time>
      </trkpt>
      <trkpt lat="45.48449" lon="6.89478">
        <ele>2648.6</ele>
        <time>2021-05-04T08:08:34Z</time>
      </trkpt>
      <trkpt lat="45.4845" lon="6.89476">
        <ele>2648.6</ele>
        <time>2021-05-04T08:08:36Z</time>
      </trkpt>
      <trkpt lat="45.48452" lon="6.89473">
        <ele>2648.6</ele>
        <time>2021-05-04T08:08:38Z</time>
      </trkpt>
      <trkpt lat="45.48453" lon="6.8947">
        <ele>2651.2</ele>
        <time>2021-05-04T08:08:40Z</time>
      </trkpt>
      <trkpt lat="45.48455" lon="6.89468">
        <ele>2651.2</ele>
        <time>2021-05-04T08:08:43Z</time>
      </trkpt>
      <trkpt lat="45.48457" lon="6.89466">
        <ele>2651.2</ele>
        <time>2021-05-04T08:08:46Z</time>
      </trkpt>
      <trkpt lat="45.48459" lon="6.89463">
        <ele>2651.2</ele>
        <time>2021-05-04T08:08:49Z</time>
      </trkpt>
      <trkpt lat="45.4846" lon="6.8946">
        <ele>2651.2</ele>
        <time>2021-05-04T08:08:51Z</time>
      </trkpt>
      <trkpt lat="45.48461" lon="6.89458">
        <ele>2651.2</ele>
        <time>2021-05-04T08:08:53Z</time>
      </trkpt>
      <trkpt lat="45.48463" lon="6.89456">
        <ele>2651.2</ele>
        <time>2021-05-04T08:08:55Z</time>
      </trkpt>
      <trkpt lat="45.48464" lon="6.89454">
        <ele>2651.2</ele>
        <time>2021-05-04T08:08:57Z</time>
      </trkpt>
      <trkpt lat="45.48466" lon="6.89451">
        <ele>2656.6</ele>
        <time>2021-05-04T08:09:00Z</time>
      </trkpt>
      <trkpt lat="45.48467" lon="6.89448">
        <ele>2656.6</ele>
        <time>2021-05-04T08:09:02Z</time>
      </trkpt>
      <trkpt lat="45.48468" lon="6.89445">
        <ele>2656.6</ele>
        <time>2021-05-04T08:09:04Z</time>
      </trkpt>
      <trkpt lat="45.48469" lon="6.89442">
        <ele>2656.6</ele>
        <time>2021-05-04T08:09:06Z</time>
      </trkpt>
      <trkpt lat="45.48471" lon="6.89439">
        <ele>2656.6</ele>
        <time>2021-05-04T08:09:08Z</time>
      </trkpt>
      <trkpt lat="45.48472" lon="6.89437">
        <ele>2658.6</ele>
        <time>2021-05-04T08:09:10Z</time>
      </trkpt>
      <trkpt lat="45.48473" lon="6.89433">
        <ele>2658.6</ele>
        <time>2021-05-04T08:09:12Z</time>
      </trkpt>
      <trkpt lat="45.48475" lon="6.8943">
        <ele>2658.6</ele>
        <time>2021-05-04T08:09:14Z</time>
      </trkpt>
      <trkpt lat="45.48476" lon="6.89427">
        <ele>2658.6</ele>
        <time>2021-05-04T08:09:16Z</time>
      </trkpt>
      <trkpt lat="45.48476" lon="6.89424">
        <ele>2658.6</ele>
        <time>2021-05-04T08:09:18Z</time>
      </trkpt>
      <trkpt lat="45.48477" lon="6.89421">
        <ele>2659.8</ele>
        <time>2021-05-04T08:09:20Z</time>
      </trkpt>
      <trkpt lat="45.48477" lon="6.89418">
        <ele>2659.8</ele>
        <time>2021-05-04T08:09:22Z</time>
      </trkpt>
      <trkpt lat="45.48478" lon="6.89414">
        <ele>2659.8</ele>
        <time>2021-05-04T08:09:24Z</time>
      </trkpt>
      <trkpt lat="45.48478" lon="6.89411">
        <ele>2659.8</ele>
        <time>2021-05-04T08:09:26Z</time>
      </trkpt>
      <trkpt lat="45.48478" lon="6.89408">
        <ele>2659.8</ele>
        <time>2021-05-04T08:09:28Z</time>
      </trkpt>
      <trkpt lat="45.48477" lon="6.89404">
        <ele>2661</ele>
        <time>2021-05-04T08:09:30Z</time>
      </trkpt>
      <trkpt lat="45.48477" lon="6.89401">
        <ele>2661</ele>
        <time>2021-05-04T08:09:32Z</time>
      </trkpt>
      <trkpt lat="45.48476" lon="6.89398">
        <ele>2661</ele>
        <time>2021-05-04T08:09:34Z</time>
      </trkpt>
      <trkpt lat="45.48475" lon="6.89394">
        <ele>2661</ele>
        <time>2021-05-04T08:09:36Z</time>
      </trkpt>
      <trkpt lat="45.48475" lon="6.89391">
        <ele>2661</ele>
        <time>2021-05-04T08:09:38Z</time>
      </trkpt>
      <trkpt lat="45.48475" lon="6.89388">
        <ele>2662</ele>
        <time>2021-05-04T08:09:40Z</time>
      </trkpt>
      <trkpt lat="45.48475" lon="6.89384">
        <ele>2662</ele>
        <time>2021-05-04T08:09:43Z</time>
      </trkpt>
      <trkpt lat="45.48474" lon="6.89382">
        <ele>2662</ele>
        <time>2021-05-04T08:09:45Z</time>
      </trkpt>
      <trkpt lat="45.48473" lon="6.89379">
        <ele>2662</ele>
        <time>2021-05-04T08:09:47Z</time>
      </trkpt>
      <trkpt lat="45.48473" lon="6.89376">
        <ele>2662</ele>
        <time>2021-05-04T08:09:49Z</time>
      </trkpt>
      <trkpt lat="45.48473" lon="6.89373">
        <ele>2662</ele>
        <time>2021-05-04T08:09:51Z</time>
      </trkpt>
      <trkpt lat="45.48472" lon="6.8937">
        <ele>2662</ele>
        <time>2021-05-04T08:09:53Z</time>
      </trkpt>
      <trkpt lat="45.48472" lon="6.89367">
        <ele>2662</ele>
        <time>2021-05-04T08:09:55Z</time>
      </trkpt>
      <trkpt lat="45.48471" lon="6.89365">
        <ele>2662</ele>
        <time>2021-05-04T08:09:57Z</time>
      </trkpt>
      <trkpt lat="45.48471" lon="6.89361">
        <ele>2662</ele>
        <time>2021-05-04T08:10:00Z</time>
      </trkpt>
      <trkpt lat="45.48471" lon="6.89358">
        <ele>2662</ele>
        <time>2021-05-04T08:10:03Z</time>
      </trkpt>
      <trkpt lat="45.48471" lon="6.89354">
        <ele>2662</ele>
        <time>2021-05-04T08:10:06Z</time>
      </trkpt>
      <trkpt lat="45.48469" lon="6.89351">
        <ele>2662</ele>
        <time>2021-05-04T08:10:09Z</time>
      </trkpt>
      <trkpt lat="45.48469" lon="6.89348">
        <ele>2662</ele>
        <time>2021-05-04T08:10:11Z</time>
      </trkpt>
      <trkpt lat="45.48468" lon="6.89344">
        <ele>2662</ele>
        <time>2021-05-04T08:10:14Z</time>
      </trkpt>
      <trkpt lat="45.48468" lon="6.89342">
        <ele>2662</ele>
        <time>2021-05-04T08:10:16Z</time>
      </trkpt>
      <trkpt lat="45.48468" lon="6.89338">
        <ele>2662</ele>
        <time>2021-05-04T08:10:19Z</time>
      </trkpt>
      <trkpt lat="45.48468" lon="6.89335">
        <ele>2662</ele>
        <time>2021-05-04T08:10:22Z</time>
      </trkpt>
      <trkpt lat="45.48468" lon="6.89333">
        <ele>2662</ele>
        <time>2021-05-04T08:10:24Z</time>
      </trkpt>
      <trkpt lat="45.48468" lon="6.8933">
        <ele>2662</ele>
        <time>2021-05-04T08:10:27Z</time>
      </trkpt>
      <trkpt lat="45.48468" lon="6.89327">
        <ele>2670.6</ele>
        <time>2021-05-04T08:10:30Z</time>
      </trkpt>
      <trkpt lat="45.48467" lon="6.89324">
        <ele>2670.6</ele>
        <time>2021-05-04T08:10:33Z</time>
      </trkpt>
      <trkpt lat="45.48467" lon="6.89321">
        <ele>2670.6</ele>
        <time>2021-05-04T08:10:35Z</time>
      </trkpt>
      <trkpt lat="45.48467" lon="6.89317">
        <ele>2670.6</ele>
        <time>2021-05-04T08:10:39Z</time>
      </trkpt>
      <trkpt lat="45.48465" lon="6.89314">
        <ele>2670.6</ele>
        <time>2021-05-04T08:10:42Z</time>
      </trkpt>
      <trkpt lat="45.48464" lon="6.89311">
        <ele>2670.6</ele>
        <time>2021-05-04T08:10:44Z</time>
      </trkpt>
      <trkpt lat="45.48465" lon="6.89308">
        <ele>2670.6</ele>
        <time>2021-05-04T08:10:46Z</time>
      </trkpt>
      <trkpt lat="45.48464" lon="6.89306">
        <ele>2670.6</ele>
        <time>2021-05-04T08:10:48Z</time>
      </trkpt>
      <trkpt lat="45.48463" lon="6.89302">
        <ele>2670.6</ele>
        <time>2021-05-04T08:10:51Z</time>
      </trkpt>
      <trkpt lat="45.48463" lon="6.893">
        <ele>2670.6</ele>
        <time>2021-05-04T08:10:53Z</time>
      </trkpt>
      <trkpt lat="45.48463" lon="6.89297">
        <ele>2670.6</ele>
        <time>2021-05-04T08:10:55Z</time>
      </trkpt>
      <trkpt lat="45.48463" lon="6.89294">
        <ele>2670.6</ele>
        <time>2021-05-04T08:10:57Z</time>
      </trkpt>
      <trkpt lat="45.48463" lon="6.89291">
        <ele>2670.6</ele>
        <time>2021-05-04T08:10:59Z</time>
      </trkpt>
      <trkpt lat="45.48463" lon="6.89287">
        <ele>2670.6</ele>
        <time>2021-05-04T08:11:02Z</time>
      </trkpt>
      <trkpt lat="45.48462" lon="6.89284">
        <ele>2670.6</ele>
        <time>2021-05-04T08:11:04Z</time>
      </trkpt>
      <trkpt lat="45.48462" lon="6.89281">
        <ele>2670.6</ele>
        <time>2021-05-04T08:11:06Z</time>
      </trkpt>
      <trkpt lat="45.48462" lon="6.89278">
        <ele>2670.6</ele>
        <time>2021-05-04T08:11:08Z</time>
      </trkpt>
      <trkpt lat="45.48462" lon="6.89274">
        <ele>2681</ele>
        <time>2021-05-04T08:11:10Z</time>
      </trkpt>
      <trkpt lat="45.48462" lon="6.89271">
        <ele>2681</ele>
        <time>2021-05-04T08:11:12Z</time>
      </trkpt>
      <trkpt lat="45.48461" lon="6.89268">
        <ele>2681</ele>
        <time>2021-05-04T08:11:14Z</time>
      </trkpt>
      <trkpt lat="45.4846" lon="6.89265">
        <ele>2681</ele>
        <time>2021-05-04T08:11:16Z</time>
      </trkpt>
      <trkpt lat="45.4846" lon="6.89262">
        <ele>2681</ele>
        <time>2021-05-04T08:11:18Z</time>
      </trkpt>
      <trkpt lat="45.48459" lon="6.8926">
        <ele>2681.8</ele>
        <time>2021-05-04T08:11:20Z</time>
      </trkpt>
      <trkpt lat="45.48459" lon="6.89256">
        <ele>2681.8</ele>
        <time>2021-05-04T08:11:22Z</time>
      </trkpt>
      <trkpt lat="45.48458" lon="6.89253">
        <ele>2681.8</ele>
        <time>2021-05-04T08:11:24Z</time>
      </trkpt>
      <trkpt lat="45.48456" lon="6.8925">
        <ele>2681.8</ele>
        <time>2021-05-04T08:11:26Z</time>
      </trkpt>
      <trkpt lat="45.48455" lon="6.89247">
        <ele>2681.8</ele>
        <time>2021-05-04T08:11:28Z</time>
      </trkpt>
      <trkpt lat="45.48455" lon="6.89244">
        <ele>2683.2</ele>
        <time>2021-05-04T08:11:30Z</time>
      </trkpt>
      <trkpt lat="45.48453" lon="6.8924">
        <ele>2683.2</ele>
        <time>2021-05-04T08:11:32Z</time>
      </trkpt>
      <trkpt lat="45.48452" lon="6.89237">
        <ele>2683.2</ele>
        <time>2021-05-04T08:11:34Z</time>
      </trkpt>
      <trkpt lat="45.48452" lon="6.89234">
        <ele>2683.2</ele>
        <time>2021-05-04T08:11:36Z</time>
      </trkpt>
      <trkpt lat="45.48451" lon="6.8923">
        <ele>2683.2</ele>
        <time>2021-05-04T08:11:38Z</time>
      </trkpt>
      <trkpt lat="45.4845" lon="6.89227">
        <ele>2684.4</ele>
        <time>2021-05-04T08:11:40Z</time>
      </trkpt>
      <trkpt lat="45.48449" lon="6.89223">
        <ele>2684.4</ele>
        <time>2021-05-04T08:11:42Z</time>
      </trkpt>
      <trkpt lat="45.48448" lon="6.8922">
        <ele>2684.4</ele>
        <time>2021-05-04T08:11:44Z</time>
      </trkpt>
      <trkpt lat="45.48447" lon="6.89218">
        <ele>2684.4</ele>
        <time>2021-05-04T08:11:46Z</time>
      </trkpt>
      <trkpt lat="45.48445" lon="6.89215">
        <ele>2684.4</ele>
        <time>2021-05-04T08:11:48Z</time>
      </trkpt>
      <trkpt lat="45.48444" lon="6.89212">
        <ele>2686.2</ele>
        <time>2021-05-04T08:11:50Z</time>
      </trkpt>
      <trkpt lat="45.48442" lon="6.89209">
        <ele>2686.2</ele>
        <time>2021-05-04T08:11:52Z</time>
      </trkpt>
      <trkpt lat="45.48441" lon="6.89206">
        <ele>2686.2</ele>
        <time>2021-05-04T08:11:54Z</time>
      </trkpt>
      <trkpt lat="45.4844" lon="6.89203">
        <ele>2686.2</ele>
        <time>2021-05-04T08:11:56Z</time>
      </trkpt>
      <trkpt lat="45.48439" lon="6.892">
        <ele>2686.2</ele>
        <time>2021-05-04T08:11:58Z</time>
      </trkpt>
      <trkpt lat="45.48438" lon="6.89198">
        <ele>2686.2</ele>
        <time>2021-05-04T08:11:59Z</time>
      </trkpt>
      <trkpt lat="45.48437" lon="6.89195">
        <ele>2686.2</ele>
        <time>2021-05-04T08:12:01Z</time>
      </trkpt>
      <trkpt lat="45.48436" lon="6.89192">
        <ele>2686.2</ele>
        <time>2021-05-04T08:12:03Z</time>
      </trkpt>
      <trkpt lat="45.48435" lon="6.89188">
        <ele>2686.2</ele>
        <time>2021-05-04T08:12:05Z</time>
      </trkpt>
      <trkpt lat="45.48435" lon="6.89185">
        <ele>2686.2</ele>
        <time>2021-05-04T08:12:07Z</time>
      </trkpt>
      <trkpt lat="45.48434" lon="6.89182">
        <ele>2686.2</ele>
        <time>2021-05-04T08:12:09Z</time>
      </trkpt>
      <trkpt lat="45.48433" lon="6.89178">
        <ele>2686.2</ele>
        <time>2021-05-04T08:12:11Z</time>
      </trkpt>
      <trkpt lat="45.48433" lon="6.89174">
        <ele>2686.2</ele>
        <time>2021-05-04T08:12:13Z</time>
      </trkpt>
      <trkpt lat="45.48433" lon="6.8917">
        <ele>2686.2</ele>
        <time>2021-05-04T08:12:15Z</time>
      </trkpt>
      <trkpt lat="45.48433" lon="6.89167">
        <ele>2686.2</ele>
        <time>2021-05-04T08:12:17Z</time>
      </trkpt>
      <trkpt lat="45.48432" lon="6.89164">
        <ele>2686.2</ele>
        <time>2021-05-04T08:12:36Z</time>
      </trkpt>
      <trkpt lat="45.48431" lon="6.89159">
        <ele>2686.2</ele>
        <time>2021-05-04T08:12:38Z</time>
      </trkpt>
      <trkpt lat="45.4843" lon="6.89155">
        <ele>2688.8</ele>
        <time>2021-05-04T08:12:40Z</time>
      </trkpt>
      <trkpt lat="45.4843" lon="6.8915">
        <ele>2688.8</ele>
        <time>2021-05-04T08:12:42Z</time>
      </trkpt>
      <trkpt lat="45.4843" lon="6.89148">
        <ele>2688.8</ele>
        <time>2021-05-04T08:12:43Z</time>
      </trkpt>
      <trkpt lat="45.48431" lon="6.89144">
        <ele>2688.8</ele>
        <time>2021-05-04T08:12:45Z</time>
      </trkpt>
      <trkpt lat="45.4843" lon="6.8914">
        <ele>2688.8</ele>
        <time>2021-05-04T08:12:47Z</time>
      </trkpt>
      <trkpt lat="45.4843" lon="6.89136">
        <ele>2688.8</ele>
        <time>2021-05-04T08:12:49Z</time>
      </trkpt>
      <trkpt lat="45.4843" lon="6.89132">
        <ele>2688.8</ele>
        <time>2021-05-04T08:12:51Z</time>
      </trkpt>
      <trkpt lat="45.48429" lon="6.89128">
        <ele>2688.8</ele>
        <time>2021-05-04T08:12:53Z</time>
      </trkpt>
      <trkpt lat="45.48429" lon="6.89125">
        <ele>2688.8</ele>
        <time>2021-05-04T08:12:55Z</time>
      </trkpt>
      <trkpt lat="45.48429" lon="6.89121">
        <ele>2688.8</ele>
        <time>2021-05-04T08:12:57Z</time>
      </trkpt>
      <trkpt lat="45.4843" lon="6.89117">
        <ele>2688.8</ele>
        <time>2021-05-04T08:12:59Z</time>
      </trkpt>
      <trkpt lat="45.4843" lon="6.89113">
        <ele>2688.8</ele>
        <time>2021-05-04T08:13:01Z</time>
      </trkpt>
      <trkpt lat="45.4843" lon="6.89109">
        <ele>2688.8</ele>
        <time>2021-05-04T08:13:03Z</time>
      </trkpt>
      <trkpt lat="45.48429" lon="6.89106">
        <ele>2688.8</ele>
        <time>2021-05-04T08:13:05Z</time>
      </trkpt>
      <trkpt lat="45.48429" lon="6.89101">
        <ele>2688.8</ele>
        <time>2021-05-04T08:13:07Z</time>
      </trkpt>
      <trkpt lat="45.48429" lon="6.89097">
        <ele>2688.8</ele>
        <time>2021-05-04T08:13:09Z</time>
      </trkpt>
      <trkpt lat="45.4843" lon="6.89092">
        <ele>2688.8</ele>
        <time>2021-05-04T08:13:11Z</time>
      </trkpt>
      <trkpt lat="45.4843" lon="6.89088">
        <ele>2688.8</ele>
        <time>2021-05-04T08:13:13Z</time>
      </trkpt>
      <trkpt lat="45.4843" lon="6.89084">
        <ele>2688.8</ele>
        <time>2021-05-04T08:13:15Z</time>
      </trkpt>
      <trkpt lat="45.48431" lon="6.89081">
        <ele>2688.8</ele>
        <time>2021-05-04T08:13:17Z</time>
      </trkpt>
      <trkpt lat="45.48431" lon="6.89078">
        <ele>2688.8</ele>
        <time>2021-05-04T08:13:19Z</time>
      </trkpt>
      <trkpt lat="45.48431" lon="6.89074">
        <ele>2688.8</ele>
        <time>2021-05-04T08:13:21Z</time>
      </trkpt>
      <trkpt lat="45.4843" lon="6.8907">
        <ele>2688.8</ele>
        <time>2021-05-04T08:13:23Z</time>
      </trkpt>
      <trkpt lat="45.4843" lon="6.89068">
        <ele>2688.8</ele>
        <time>2021-05-04T08:13:25Z</time>
      </trkpt>
      <trkpt lat="45.48431" lon="6.89064">
        <ele>2688.8</ele>
        <time>2021-05-04T08:13:27Z</time>
      </trkpt>
      <trkpt lat="45.48431" lon="6.89061">
        <ele>2688.8</ele>
        <time>2021-05-04T08:13:29Z</time>
      </trkpt>
      <trkpt lat="45.48431" lon="6.89058">
        <ele>2688.8</ele>
        <time>2021-05-04T08:13:31Z</time>
      </trkpt>
      <trkpt lat="45.48431" lon="6.89055">
        <ele>2688.8</ele>
        <time>2021-05-04T08:13:33Z</time>
      </trkpt>
      <trkpt lat="45.48432" lon="6.89052">
        <ele>2688.8</ele>
        <time>2021-05-04T08:13:35Z</time>
      </trkpt>
      <trkpt lat="45.48432" lon="6.89049">
        <ele>2688.8</ele>
        <time>2021-05-04T08:13:37Z</time>
      </trkpt>
      <trkpt lat="45.48433" lon="6.89046">
        <ele>2699.2</ele>
        <time>2021-05-04T08:13:40Z</time>
      </trkpt>
      <trkpt lat="45.48434" lon="6.89043">
        <ele>2699.2</ele>
        <time>2021-05-04T08:13:42Z</time>
      </trkpt>
      <trkpt lat="45.48435" lon="6.8904">
        <ele>2699.2</ele>
        <time>2021-05-04T08:13:44Z</time>
      </trkpt>
      <trkpt lat="45.48435" lon="6.89036">
        <ele>2699.2</ele>
        <time>2021-05-04T08:13:47Z</time>
      </trkpt>
      <trkpt lat="45.48436" lon="6.89033">
        <ele>2701.6</ele>
        <time>2021-05-04T08:13:50Z</time>
      </trkpt>
      <trkpt lat="45.48436" lon="6.8903">
        <ele>2701.6</ele>
        <time>2021-05-04T08:13:53Z</time>
      </trkpt>
      <trkpt lat="45.48437" lon="6.89027">
        <ele>2701.6</ele>
        <time>2021-05-04T08:13:56Z</time>
      </trkpt>
      <trkpt lat="45.48437" lon="6.89024">
        <ele>2701.6</ele>
        <time>2021-05-04T08:13:59Z</time>
      </trkpt>
      <trkpt lat="45.48438" lon="6.89021">
        <ele>2701.6</ele>
        <time>2021-05-04T08:14:01Z</time>
      </trkpt>
      <trkpt lat="45.48439" lon="6.89018">
        <ele>2701.6</ele>
        <time>2021-05-04T08:14:04Z</time>
      </trkpt>
      <trkpt lat="45.48439" lon="6.89014">
        <ele>2701.6</ele>
        <time>2021-05-04T08:14:07Z</time>
      </trkpt>
      <trkpt lat="45.48439" lon="6.89011">
        <ele>2705.4</ele>
        <time>2021-05-04T08:14:10Z</time>
      </trkpt>
      <trkpt lat="45.4844" lon="6.89007">
        <ele>2705.4</ele>
        <time>2021-05-04T08:14:13Z</time>
      </trkpt>
      <trkpt lat="45.48441" lon="6.89003">
        <ele>2705.4</ele>
        <time>2021-05-04T08:14:16Z</time>
      </trkpt>
      <trkpt lat="45.48441" lon="6.89001">
        <ele>2705.4</ele>
        <time>2021-05-04T08:14:19Z</time>
      </trkpt>
      <trkpt lat="45.48442" lon="6.88998">
        <ele>2705.4</ele>
        <time>2021-05-04T08:14:22Z</time>
      </trkpt>
      <trkpt lat="45.48443" lon="6.88995">
        <ele>2705.4</ele>
        <time>2021-05-04T08:14:24Z</time>
      </trkpt>
      <trkpt lat="45.48444" lon="6.88992">
        <ele>2705.4</ele>
        <time>2021-05-04T08:14:27Z</time>
      </trkpt>
      <trkpt lat="45.48445" lon="6.8899">
        <ele>2711</ele>
        <time>2021-05-04T08:14:30Z</time>
      </trkpt>
      <trkpt lat="45.48447" lon="6.88987">
        <ele>2711</ele>
        <time>2021-05-04T08:14:32Z</time>
      </trkpt>
      <trkpt lat="45.48447" lon="6.88984">
        <ele>2711</ele>
        <time>2021-05-04T08:14:35Z</time>
      </trkpt>
      <trkpt lat="45.48449" lon="6.88982">
        <ele>2711</ele>
        <time>2021-05-04T08:14:38Z</time>
      </trkpt>
      <trkpt lat="45.48449" lon="6.88978">
        <ele>2711</ele>
        <time>2021-05-04T08:14:42Z</time>
      </trkpt>
      <trkpt lat="45.48451" lon="6.88977">
        <ele>2711</ele>
        <time>2021-05-04T08:14:44Z</time>
      </trkpt>
      <trkpt lat="45.48451" lon="6.88974">
        <ele>2711</ele>
        <time>2021-05-04T08:14:47Z</time>
      </trkpt>
      <trkpt lat="45.48453" lon="6.88971">
        <ele>2720.4</ele>
        <time>2021-05-04T08:14:50Z</time>
      </trkpt>
      <trkpt lat="45.48453" lon="6.88968">
        <ele>2720.4</ele>
        <time>2021-05-04T08:14:53Z</time>
      </trkpt>
      <trkpt lat="45.48454" lon="6.88965">
        <ele>2720.4</ele>
        <time>2021-05-04T08:14:56Z</time>
      </trkpt>
      <trkpt lat="45.48457" lon="6.88963">
        <ele>2720.4</ele>
        <time>2021-05-04T08:14:59Z</time>
      </trkpt>
      <trkpt lat="45.48459" lon="6.8896">
        <ele>2720.4</ele>
        <time>2021-05-04T08:15:01Z</time>
      </trkpt>
      <trkpt lat="45.4846" lon="6.88958">
        <ele>2720.4</ele>
        <time>2021-05-04T08:15:04Z</time>
      </trkpt>
      <trkpt lat="45.48461" lon="6.88955">
        <ele>2720.4</ele>
        <time>2021-05-04T08:15:07Z</time>
      </trkpt>
      <trkpt lat="45.48461" lon="6.88952">
        <ele>2729.2</ele>
        <time>2021-05-04T08:15:10Z</time>
      </trkpt>
      <trkpt lat="45.48462" lon="6.88949">
        <ele>2729.2</ele>
        <time>2021-05-04T08:15:13Z</time>
      </trkpt>
      <trkpt lat="45.48462" lon="6.88946">
        <ele>2729.2</ele>
        <time>2021-05-04T08:15:16Z</time>
      </trkpt>
      <trkpt lat="45.48462" lon="6.88943">
        <ele>2729.2</ele>
        <time>2021-05-04T08:15:18Z</time>
      </trkpt>
      <trkpt lat="45.48461" lon="6.8894">
        <ele>2735.2</ele>
        <time>2021-05-04T08:15:20Z</time>
      </trkpt>
      <trkpt lat="45.48461" lon="6.88938">
        <ele>2735.2</ele>
        <time>2021-05-04T08:15:23Z</time>
      </trkpt>
      <trkpt lat="45.4846" lon="6.88935">
        <ele>2735.2</ele>
        <time>2021-05-04T08:15:26Z</time>
      </trkpt>
      <trkpt lat="45.48459" lon="6.88932">
        <ele>2735.2</ele>
        <time>2021-05-04T08:15:29Z</time>
      </trkpt>
      <trkpt lat="45.48459" lon="6.88928">
        <ele>2735.2</ele>
        <time>2021-05-04T08:15:32Z</time>
      </trkpt>
      <trkpt lat="45.48458" lon="6.88924">
        <ele>2735.2</ele>
        <time>2021-05-04T08:15:35Z</time>
      </trkpt>
      <trkpt lat="45.48457" lon="6.88922">
        <ele>2735.2</ele>
        <time>2021-05-04T08:15:38Z</time>
      </trkpt>
      <trkpt lat="45.48455" lon="6.88919">
        <ele>2735.2</ele>
        <time>2021-05-04T08:15:41Z</time>
      </trkpt>
      <trkpt lat="45.48455" lon="6.88916">
        <ele>2735.2</ele>
        <time>2021-05-04T08:15:44Z</time>
      </trkpt>
      <trkpt lat="45.48454" lon="6.88913">
        <ele>2735.2</ele>
        <time>2021-05-04T08:15:47Z</time>
      </trkpt>
      <trkpt lat="45.48453" lon="6.8891">
        <ele>2742</ele>
        <time>2021-05-04T08:15:50Z</time>
      </trkpt>
      <trkpt lat="45.48453" lon="6.88906">
        <ele>2742</ele>
        <time>2021-05-04T08:15:53Z</time>
      </trkpt>
      <trkpt lat="45.48453" lon="6.88904">
        <ele>2742</ele>
        <time>2021-05-04T08:15:55Z</time>
      </trkpt>
      <trkpt lat="45.48453" lon="6.889">
        <ele>2742</ele>
        <time>2021-05-04T08:15:57Z</time>
      </trkpt>
      <trkpt lat="45.48454" lon="6.88897">
        <ele>2742</ele>
        <time>2021-05-04T08:15:59Z</time>
      </trkpt>
      <trkpt lat="45.48454" lon="6.88894">
        <ele>2742</ele>
        <time>2021-05-04T08:16:01Z</time>
      </trkpt>
      <trkpt lat="45.48455" lon="6.88891">
        <ele>2742</ele>
        <time>2021-05-04T08:16:03Z</time>
      </trkpt>
      <trkpt lat="45.48455" lon="6.88887">
        <ele>2742</ele>
        <time>2021-05-04T08:16:05Z</time>
      </trkpt>
      <trkpt lat="45.48456" lon="6.88884">
        <ele>2742</ele>
        <time>2021-05-04T08:16:07Z</time>
      </trkpt>
      <trkpt lat="45.48457" lon="6.88882">
        <ele>2742</ele>
        <time>2021-05-04T08:16:09Z</time>
      </trkpt>
      <trkpt lat="45.48458" lon="6.8888">
        <ele>2742</ele>
        <time>2021-05-04T08:16:11Z</time>
      </trkpt>
      <trkpt lat="45.48458" lon="6.88877">
        <ele>2742</ele>
        <time>2021-05-04T08:16:13Z</time>
      </trkpt>
      <trkpt lat="45.48457" lon="6.88873">
        <ele>2742</ele>
        <time>2021-05-04T08:16:15Z</time>
      </trkpt>
      <trkpt lat="45.48456" lon="6.8887">
        <ele>2742</ele>
        <time>2021-05-04T08:16:17Z</time>
      </trkpt>
      <trkpt lat="45.48455" lon="6.88867">
        <ele>2742</ele>
        <time>2021-05-04T08:16:19Z</time>
      </trkpt>
      <trkpt lat="45.48453" lon="6.88865">
        <ele>2742</ele>
        <time>2021-05-04T08:16:21Z</time>
      </trkpt>
      <trkpt lat="45.48452" lon="6.88863">
        <ele>2742</ele>
        <time>2021-05-04T08:16:23Z</time>
      </trkpt>
      <trkpt lat="45.48449" lon="6.88862">
        <ele>2742</ele>
        <time>2021-05-04T08:16:25Z</time>
      </trkpt>
      <trkpt lat="45.48447" lon="6.88861">
        <ele>2742</ele>
        <time>2021-05-04T08:16:27Z</time>
      </trkpt>
      <trkpt lat="45.48445" lon="6.8886">
        <ele>2742</ele>
        <time>2021-05-04T08:16:29Z</time>
      </trkpt>
      <trkpt lat="45.48443" lon="6.8886">
        <ele>2742</ele>
        <time>2021-05-04T08:16:31Z</time>
      </trkpt>
      <trkpt lat="45.48441" lon="6.88863">
        <ele>2742</ele>
        <time>2021-05-04T08:18:13Z</time>
      </trkpt>
      <trkpt lat="45.48439" lon="6.88865">
        <ele>2742</ele>
        <time>2021-05-04T08:18:14Z</time>
      </trkpt>
      <trkpt lat="45.48435" lon="6.88867">
        <ele>2742</ele>
        <time>2021-05-04T08:18:15Z</time>
      </trkpt>
      <trkpt lat="45.48433" lon="6.88871">
        <ele>2742</ele>
        <time>2021-05-04T08:18:16Z</time>
      </trkpt>
      <trkpt lat="45.48431" lon="6.88874">
        <ele>2742</ele>
        <time>2021-05-04T08:18:17Z</time>
      </trkpt>
      <trkpt lat="45.48429" lon="6.88878">
        <ele>2742</ele>
        <time>2021-05-04T08:18:18Z</time>
      </trkpt>
      <trkpt lat="45.48429" lon="6.8888">
        <ele>2742</ele>
        <time>2021-05-04T08:18:19Z</time>
      </trkpt>
      <trkpt lat="45.48428" lon="6.88883">
        <ele>2729.2</ele>
        <time>2021-05-04T08:18:20Z</time>
      </trkpt>
      <trkpt lat="45.48429" lon="6.88887">
        <ele>2729.2</ele>
        <time>2021-05-04T08:18:22Z</time>
      </trkpt>
      <trkpt lat="45.4843" lon="6.8889">
        <ele>2729.2</ele>
        <time>2021-05-04T08:18:24Z</time>
      </trkpt>
      <trkpt lat="45.48431" lon="6.88893">
        <ele>2729.2</ele>
        <time>2021-05-04T08:18:26Z</time>
      </trkpt>
      <trkpt lat="45.48432" lon="6.88897">
        <ele>2729.2</ele>
        <time>2021-05-04T08:18:28Z</time>
      </trkpt>
      <trkpt lat="45.48432" lon="6.889">
        <ele>2730.6</ele>
        <time>2021-05-04T08:18:40Z</time>
      </trkpt>
      <trkpt lat="45.48432" lon="6.88904">
        <ele>2730.6</ele>
        <time>2021-05-04T08:21:23Z</time>
      </trkpt>
      <trkpt lat="45.48432" lon="6.88909">
        <ele>2730.6</ele>
        <time>2021-05-04T08:21:25Z</time>
      </trkpt>
      <trkpt lat="45.48432" lon="6.88912">
        <ele>2730.6</ele>
        <time>2021-05-04T08:21:26Z</time>
      </trkpt>
      <trkpt lat="45.48431" lon="6.88915">
        <ele>2730.6</ele>
        <time>2021-05-04T08:21:27Z</time>
      </trkpt>
      <trkpt lat="45.48432" lon="6.88918">
        <ele>2730.6</ele>
        <time>2021-05-04T08:21:28Z</time>
      </trkpt>
      <trkpt lat="45.48432" lon="6.88921">
        <ele>2730.6</ele>
        <time>2021-05-04T08:21:29Z</time>
      </trkpt>
      <trkpt lat="45.48433" lon="6.88924">
        <ele>2715.2</ele>
        <time>2021-05-04T08:21:30Z</time>
      </trkpt>
      <trkpt lat="45.48434" lon="6.88928">
        <ele>2715.2</ele>
        <time>2021-05-04T08:21:31Z</time>
      </trkpt>
      <trkpt lat="45.48435" lon="6.88932">
        <ele>2715.2</ele>
        <time>2021-05-04T08:21:32Z</time>
      </trkpt>
      <trkpt lat="45.48434" lon="6.88936">
        <ele>2715.2</ele>
        <time>2021-05-04T08:21:33Z</time>
      </trkpt>
      <trkpt lat="45.48434" lon="6.88939">
        <ele>2715.2</ele>
        <time>2021-05-04T08:22:04Z</time>
      </trkpt>
      <trkpt lat="45.48435" lon="6.88944">
        <ele>2715.2</ele>
        <time>2021-05-04T08:22:05Z</time>
      </trkpt>
      <trkpt lat="45.48435" lon="6.8895">
        <ele>2715.2</ele>
        <time>2021-05-04T08:22:06Z</time>
      </trkpt>
      <trkpt lat="45.48435" lon="6.88957">
        <ele>2715.2</ele>
        <time>2021-05-04T08:22:07Z</time>
      </trkpt>
      <trkpt lat="45.48433" lon="6.8896">
        <ele>2715.2</ele>
        <time>2021-05-04T08:22:08Z</time>
      </trkpt>
      <trkpt lat="45.48432" lon="6.88963">
        <ele>2715.2</ele>
        <time>2021-05-04T08:22:09Z</time>
      </trkpt>
      <trkpt lat="45.48431" lon="6.88968">
        <ele>2715.2</ele>
        <time>2021-05-04T08:22:11Z</time>
      </trkpt>
      <trkpt lat="45.4843" lon="6.8897">
        <ele>2715.2</ele>
        <time>2021-05-04T08:22:12Z</time>
      </trkpt>
      <trkpt lat="45.48428" lon="6.88974">
        <ele>2715.2</ele>
        <time>2021-05-04T08:22:13Z</time>
      </trkpt>
      <trkpt lat="45.48427" lon="6.88977">
        <ele>2715.2</ele>
        <time>2021-05-04T08:22:14Z</time>
      </trkpt>
      <trkpt lat="45.48425" lon="6.88979">
        <ele>2715.2</ele>
        <time>2021-05-04T08:22:15Z</time>
      </trkpt>
      <trkpt lat="45.48425" lon="6.88983">
        <ele>2715.2</ele>
        <time>2021-05-04T08:22:17Z</time>
      </trkpt>
      <trkpt lat="45.48427" lon="6.88988">
        <ele>2715.2</ele>
        <time>2021-05-04T08:22:19Z</time>
      </trkpt>
      <trkpt lat="45.48429" lon="6.88989">
        <ele>2701.6</ele>
        <time>2021-05-04T08:22:20Z</time>
      </trkpt>
      <trkpt lat="45.48432" lon="6.88992">
        <ele>2701.6</ele>
        <time>2021-05-04T08:22:21Z</time>
      </trkpt>
      <trkpt lat="45.48433" lon="6.88996">
        <ele>2701.6</ele>
        <time>2021-05-04T08:22:22Z</time>
      </trkpt>
      <trkpt lat="45.48433" lon="6.89002">
        <ele>2701.6</ele>
        <time>2021-05-04T08:22:23Z</time>
      </trkpt>
      <trkpt lat="45.48432" lon="6.89013">
        <ele>2701.6</ele>
        <time>2021-05-04T08:22:24Z</time>
      </trkpt>
      <trkpt lat="45.48432" lon="6.89026">
        <ele>2701.6</ele>
        <time>2021-05-04T08:22:25Z</time>
      </trkpt>
      <trkpt lat="45.48432" lon="6.89037">
        <ele>2701.6</ele>
        <time>2021-05-04T08:22:26Z</time>
      </trkpt>
      <trkpt lat="45.48431" lon="6.89055">
        <ele>2701.6</ele>
        <time>2021-05-04T08:22:27Z</time>
      </trkpt>
      <trkpt lat="45.48432" lon="6.89072">
        <ele>2701.6</ele>
        <time>2021-05-04T08:22:28Z</time>
      </trkpt>
      <trkpt lat="45.48432" lon="6.8909">
        <ele>2701.6</ele>
        <time>2021-05-04T08:22:29Z</time>
      </trkpt>
      <trkpt lat="45.48432" lon="6.89106">
        <ele>2686.2</ele>
        <time>2021-05-04T08:22:30Z</time>
      </trkpt>
      <trkpt lat="45.48432" lon="6.89119">
        <ele>2686.2</ele>
        <time>2021-05-04T08:22:31Z</time>
      </trkpt>
      <trkpt lat="45.48433" lon="6.89133">
        <ele>2686.2</ele>
        <time>2021-05-04T08:22:32Z</time>
      </trkpt>
      <trkpt lat="45.48433" lon="6.8915">
        <ele>2686.2</ele>
        <time>2021-05-04T08:22:33Z</time>
      </trkpt>
      <trkpt lat="45.48435" lon="6.89164">
        <ele>2686.2</ele>
        <time>2021-05-04T08:22:34Z</time>
      </trkpt>
      <trkpt lat="45.48436" lon="6.89174">
        <ele>2686.2</ele>
        <time>2021-05-04T08:22:35Z</time>
      </trkpt>
      <trkpt lat="45.48438" lon="6.89186">
        <ele>2686.2</ele>
        <time>2021-05-04T08:22:36Z</time>
      </trkpt>
      <trkpt lat="45.48441" lon="6.892">
        <ele>2686.2</ele>
        <time>2021-05-04T08:22:37Z</time>
      </trkpt>
      <trkpt lat="45.48445" lon="6.89211">
        <ele>2686.2</ele>
        <time>2021-05-04T08:22:38Z</time>
      </trkpt>
      <trkpt lat="45.48449" lon="6.89221">
        <ele>2686.2</ele>
        <time>2021-05-04T08:22:39Z</time>
      </trkpt>
      <trkpt lat="45.48452" lon="6.89232">
        <ele>2672.6</ele>
        <time>2021-05-04T08:22:40Z</time>
      </trkpt>
      <trkpt lat="45.48454" lon="6.89243">
        <ele>2672.6</ele>
        <time>2021-05-04T08:22:41Z</time>
      </trkpt>
      <trkpt lat="45.48456" lon="6.89253">
        <ele>2672.6</ele>
        <time>2021-05-04T08:22:42Z</time>
      </trkpt>
      <trkpt lat="45.48459" lon="6.89263">
        <ele>2672.6</ele>
        <time>2021-05-04T08:22:43Z</time>
      </trkpt>
      <trkpt lat="45.4846" lon="6.89272">
        <ele>2672.6</ele>
        <time>2021-05-04T08:22:44Z</time>
      </trkpt>
      <trkpt lat="45.48461" lon="6.8928">
        <ele>2672.6</ele>
        <time>2021-05-04T08:22:45Z</time>
      </trkpt>
      <trkpt lat="45.48461" lon="6.89289">
        <ele>2672.6</ele>
        <time>2021-05-04T08:22:46Z</time>
      </trkpt>
      <trkpt lat="45.48461" lon="6.893">
        <ele>2672.6</ele>
        <time>2021-05-04T08:22:47Z</time>
      </trkpt>
      <trkpt lat="45.4846" lon="6.8931">
        <ele>2672.6</ele>
        <time>2021-05-04T08:22:48Z</time>
      </trkpt>
      <trkpt lat="45.48461" lon="6.89318">
        <ele>2672.6</ele>
        <time>2021-05-04T08:22:49Z</time>
      </trkpt>
      <trkpt lat="45.48461" lon="6.89328">
        <ele>2663.4</ele>
        <time>2021-05-04T08:22:50Z</time>
      </trkpt>
      <trkpt lat="45.4846" lon="6.89339">
        <ele>2663.4</ele>
        <time>2021-05-04T08:22:51Z</time>
      </trkpt>
      <trkpt lat="45.48459" lon="6.89347">
        <ele>2663.4</ele>
        <time>2021-05-04T08:22:52Z</time>
      </trkpt>
      <trkpt lat="45.48459" lon="6.89353">
        <ele>2663.4</ele>
        <time>2021-05-04T08:22:53Z</time>
      </trkpt>
      <trkpt lat="45.48458" lon="6.89357">
        <ele>2663.4</ele>
        <time>2021-05-04T08:22:54Z</time>
      </trkpt>
      <trkpt lat="45.48458" lon="6.89361">
        <ele>2663.4</ele>
        <time>2021-05-04T08:22:55Z</time>
      </trkpt>
      <trkpt lat="45.48461" lon="6.89364">
        <ele>2663.4</ele>
        <time>2021-05-04T08:22:58Z</time>
      </trkpt>
      <trkpt lat="45.48465" lon="6.89368">
        <ele>2663.4</ele>
        <time>2021-05-04T08:22:59Z</time>
      </trkpt>
      <trkpt lat="45.4847" lon="6.89375">
        <ele>2655.6</ele>
        <time>2021-05-04T08:23:00Z</time>
      </trkpt>
      <trkpt lat="45.48475" lon="6.89384">
        <ele>2655.6</ele>
        <time>2021-05-04T08:23:01Z</time>
      </trkpt>
      <trkpt lat="45.48479" lon="6.89397">
        <ele>2655.6</ele>
        <time>2021-05-04T08:23:02Z</time>
      </trkpt>
      <trkpt lat="45.48481" lon="6.89406">
        <ele>2655.6</ele>
        <time>2021-05-04T08:23:03Z</time>
      </trkpt>
      <trkpt lat="45.48482" lon="6.89419">
        <ele>2655.6</ele>
        <time>2021-05-04T08:23:04Z</time>
      </trkpt>
      <trkpt lat="45.48481" lon="6.89427">
        <ele>2655.6</ele>
        <time>2021-05-04T08:23:05Z</time>
      </trkpt>
      <trkpt lat="45.4848" lon="6.89432">
        <ele>2655.6</ele>
        <time>2021-05-04T08:23:06Z</time>
      </trkpt>
      <trkpt lat="45.48478" lon="6.89438">
        <ele>2655.6</ele>
        <time>2021-05-04T08:23:07Z</time>
      </trkpt>
      <trkpt lat="45.48476" lon="6.89443">
        <ele>2655.6</ele>
        <time>2021-05-04T08:23:08Z</time>
      </trkpt>
      <trkpt lat="45.48473" lon="6.89448">
        <ele>2655.6</ele>
        <time>2021-05-04T08:23:09Z</time>
      </trkpt>
      <trkpt lat="45.48471" lon="6.89451">
        <ele>2642.8</ele>
        <time>2021-05-04T08:23:10Z</time>
      </trkpt>
      <trkpt lat="45.48468" lon="6.89453">
        <ele>2642.8</ele>
        <time>2021-05-04T08:23:11Z</time>
      </trkpt>
      <trkpt lat="45.48466" lon="6.89456">
        <ele>2642.8</ele>
        <time>2021-05-04T08:23:12Z</time>
      </trkpt>
      <trkpt lat="45.48464" lon="6.89459">
        <ele>2642.8</ele>
        <time>2021-05-04T08:23:13Z</time>
      </trkpt>
      <trkpt lat="45.48461" lon="6.89462">
        <ele>2642.8</ele>
        <time>2021-05-04T08:23:14Z</time>
      </trkpt>
      <trkpt lat="45.48459" lon="6.89466">
        <ele>2642.8</ele>
        <time>2021-05-04T08:23:15Z</time>
      </trkpt>
      <trkpt lat="45.48457" lon="6.89469">
        <ele>2642.8</ele>
        <time>2021-05-04T08:23:17Z</time>
      </trkpt>
      <trkpt lat="45.48454" lon="6.89472">
        <ele>2642.8</ele>
        <time>2021-05-04T08:23:18Z</time>
      </trkpt>
      <trkpt lat="45.48452" lon="6.89475">
        <ele>2642.8</ele>
        <time>2021-05-04T08:23:19Z</time>
      </trkpt>
      <trkpt lat="45.4845" lon="6.89478">
        <ele>2637.6</ele>
        <time>2021-05-04T08:23:20Z</time>
      </trkpt>
      <trkpt lat="45.48449" lon="6.8948">
        <ele>2637.6</ele>
        <time>2021-05-04T08:23:21Z</time>
      </trkpt>
      <trkpt lat="45.48447" lon="6.89482">
        <ele>2637.6</ele>
        <time>2021-05-04T08:23:22Z</time>
      </trkpt>
      <trkpt lat="45.48446" lon="6.89485">
        <ele>2637.6</ele>
        <time>2021-05-04T08:23:23Z</time>
      </trkpt>
      <trkpt lat="45.48445" lon="6.89489">
        <ele>2637.6</ele>
        <time>2021-05-04T08:23:24Z</time>
      </trkpt>
      <trkpt lat="45.48445" lon="6.89494">
        <ele>2637.6</ele>
        <time>2021-05-04T08:23:25Z</time>
      </trkpt>
      <trkpt lat="45.48444" lon="6.895">
        <ele>2637.6</ele>
        <time>2021-05-04T08:23:26Z</time>
      </trkpt>
      <trkpt lat="45.48443" lon="6.89506">
        <ele>2637.6</ele>
        <time>2021-05-04T08:23:27Z</time>
      </trkpt>
      <trkpt lat="45.4844" lon="6.89509">
        <ele>2637.6</ele>
        <time>2021-05-04T08:23:28Z</time>
      </trkpt>
      <trkpt lat="45.48439" lon="6.89513">
        <ele>2637.6</ele>
        <time>2021-05-04T08:23:32Z</time>
      </trkpt>
      <trkpt lat="45.48441" lon="6.89521">
        <ele>2637.6</ele>
        <time>2021-05-04T08:23:33Z</time>
      </trkpt>
      <trkpt lat="45.48441" lon="6.89528">
        <ele>2637.6</ele>
        <time>2021-05-04T08:23:34Z</time>
      </trkpt>
      <trkpt lat="45.4844" lon="6.89533">
        <ele>2637.6</ele>
        <time>2021-05-04T08:23:35Z</time>
      </trkpt>
      <trkpt lat="45.48441" lon="6.8954">
        <ele>2637.6</ele>
        <time>2021-05-04T08:23:36Z</time>
      </trkpt>
      <trkpt lat="45.48441" lon="6.89545">
        <ele>2637.6</ele>
        <time>2021-05-04T08:23:37Z</time>
      </trkpt>
      <trkpt lat="45.48439" lon="6.8955">
        <ele>2637.6</ele>
        <time>2021-05-04T08:23:38Z</time>
      </trkpt>
      <trkpt lat="45.48438" lon="6.89552">
        <ele>2622.6</ele>
        <time>2021-05-04T08:23:40Z</time>
      </trkpt>
      <trkpt lat="45.4844" lon="6.89551">
        <ele>2622.6</ele>
        <time>2021-05-04T08:23:45Z</time>
      </trkpt>
      <trkpt lat="45.48443" lon="6.89552">
        <ele>2622.6</ele>
        <time>2021-05-04T08:23:46Z</time>
      </trkpt>
      <trkpt lat="45.48444" lon="6.89556">
        <ele>2622.6</ele>
        <time>2021-05-04T08:23:47Z</time>
      </trkpt>
      <trkpt lat="45.48445" lon="6.89563">
        <ele>2622.6</ele>
        <time>2021-05-04T08:23:48Z</time>
      </trkpt>
      <trkpt lat="45.48447" lon="6.89571">
        <ele>2622.6</ele>
        <time>2021-05-04T08:23:49Z</time>
      </trkpt>
      <trkpt lat="45.48446" lon="6.89579">
        <ele>2617</ele>
        <time>2021-05-04T08:23:50Z</time>
      </trkpt>
      <trkpt lat="45.48445" lon="6.8959">
        <ele>2617</ele>
        <time>2021-05-04T08:23:51Z</time>
      </trkpt>
      <trkpt lat="45.48444" lon="6.89598">
        <ele>2617</ele>
        <time>2021-05-04T08:23:52Z</time>
      </trkpt>
      <trkpt lat="45.48444" lon="6.89608">
        <ele>2617</ele>
        <time>2021-05-04T08:23:53Z</time>
      </trkpt>
      <trkpt lat="45.48445" lon="6.89618">
        <ele>2617</ele>
        <time>2021-05-04T08:23:54Z</time>
      </trkpt>
      <trkpt lat="45.48449" lon="6.89631">
        <ele>2617</ele>
        <time>2021-05-04T08:23:55Z</time>
      </trkpt>
      <trkpt lat="45.48457" lon="6.89645">
        <ele>2617</ele>
        <time>2021-05-04T08:23:56Z</time>
      </trkpt>
      <trkpt lat="45.48463" lon="6.89655">
        <ele>2617</ele>
        <time>2021-05-04T08:23:57Z</time>
      </trkpt>
      <trkpt lat="45.48472" lon="6.89668">
        <ele>2617</ele>
        <time>2021-05-04T08:23:58Z</time>
      </trkpt>
      <trkpt lat="45.48482" lon="6.8968">
        <ele>2617</ele>
        <time>2021-05-04T08:23:59Z</time>
      </trkpt>
      <trkpt lat="45.48491" lon="6.89692">
        <ele>2595.8</ele>
        <time>2021-05-04T08:24:00Z</time>
      </trkpt>
      <trkpt lat="45.48499" lon="6.89704">
        <ele>2595.8</ele>
        <time>2021-05-04T08:24:01Z</time>
      </trkpt>
      <trkpt lat="45.48505" lon="6.89715">
        <ele>2595.8</ele>
        <time>2021-05-04T08:24:02Z</time>
      </trkpt>
      <trkpt lat="45.48511" lon="6.89726">
        <ele>2595.8</ele>
        <time>2021-05-04T08:24:03Z</time>
      </trkpt>
      <trkpt lat="45.48515" lon="6.89735">
        <ele>2595.8</ele>
        <time>2021-05-04T08:24:04Z</time>
      </trkpt>
      <trkpt lat="45.4852" lon="6.89745">
        <ele>2595.8</ele>
        <time>2021-05-04T08:24:05Z</time>
      </trkpt>
      <trkpt lat="45.48524" lon="6.89754">
        <ele>2595.8</ele>
        <time>2021-05-04T08:24:06Z</time>
      </trkpt>
      <trkpt lat="45.48526" lon="6.8976">
        <ele>2595.8</ele>
        <time>2021-05-04T08:24:07Z</time>
      </trkpt>
      <trkpt lat="45.48529" lon="6.89767">
        <ele>2595.8</ele>
        <time>2021-05-04T08:24:08Z</time>
      </trkpt>
      <trkpt lat="45.48532" lon="6.89775">
        <ele>2595.8</ele>
        <time>2021-05-04T08:24:09Z</time>
      </trkpt>
      <trkpt lat="45.48534" lon="6.8978">
        <ele>2585.6</ele>
        <time>2021-05-04T08:24:10Z</time>
      </trkpt>
      <trkpt lat="45.48535" lon="6.89784">
        <ele>2585.6</ele>
        <time>2021-05-04T08:24:11Z</time>
      </trkpt>
      <trkpt lat="45.48536" lon="6.89789">
        <ele>2585.6</ele>
        <time>2021-05-04T08:24:12Z</time>
      </trkpt>
      <trkpt lat="45.48537" lon="6.89793">
        <ele>2585.6</ele>
        <time>2021-05-04T08:24:13Z</time>
      </trkpt>
      <trkpt lat="45.48538" lon="6.89798">
        <ele>2585.6</ele>
        <time>2021-05-04T08:24:14Z</time>
      </trkpt>
      <trkpt lat="45.48539" lon="6.89802">
        <ele>2585.6</ele>
        <time>2021-05-04T08:24:15Z</time>
      </trkpt>
      <trkpt lat="45.48539" lon="6.89805">
        <ele>2585.6</ele>
        <time>2021-05-04T08:24:16Z</time>
      </trkpt>
      <trkpt lat="45.48539" lon="6.89808">
        <ele>2585.6</ele>
        <time>2021-05-04T08:24:17Z</time>
      </trkpt>
      <trkpt lat="45.48538" lon="6.89811">
        <ele>2585.6</ele>
        <time>2021-05-04T08:24:18Z</time>
      </trkpt>
      <trkpt lat="45.48538" lon="6.89815">
        <ele>2585.6</ele>
        <time>2021-05-04T08:24:19Z</time>
      </trkpt>
      <trkpt lat="45.48538" lon="6.89818">
        <ele>2585.2</ele>
        <time>2021-05-04T08:24:20Z</time>
      </trkpt>
      <trkpt lat="45.48538" lon="6.89823">
        <ele>2585.2</ele>
        <time>2021-05-04T08:24:22Z</time>
      </trkpt>
      <trkpt lat="45.48538" lon="6.89826">
        <ele>2585.2</ele>
        <time>2021-05-04T08:24:23Z</time>
      </trkpt>
      <trkpt lat="45.48538" lon="6.89831">
        <ele>2585.2</ele>
        <time>2021-05-04T08:24:25Z</time>
      </trkpt>
      <trkpt lat="45.48539" lon="6.89834">
        <ele>2585.2</ele>
        <time>2021-05-04T08:24:26Z</time>
      </trkpt>
      <trkpt lat="45.48539" lon="6.89837">
        <ele>2585.2</ele>
        <time>2021-05-04T08:24:27Z</time>
      </trkpt>
      <trkpt lat="45.48539" lon="6.8984">
        <ele>2585.2</ele>
        <time>2021-05-04T08:24:28Z</time>
      </trkpt>
      <trkpt lat="45.4854" lon="6.89843">
        <ele>2585.2</ele>
        <time>2021-05-04T08:24:29Z</time>
      </trkpt>
      <trkpt lat="45.4854" lon="6.89846">
        <ele>2586.4</ele>
        <time>2021-05-04T08:24:30Z</time>
      </trkpt>
      <trkpt lat="45.4854" lon="6.89849">
        <ele>2586.4</ele>
        <time>2021-05-04T08:24:31Z</time>
      </trkpt>
      <trkpt lat="45.4854" lon="6.89853">
        <ele>2586.4</ele>
        <time>2021-05-04T08:24:32Z</time>
      </trkpt>
      <trkpt lat="45.4854" lon="6.89858">
        <ele>2586.4</ele>
        <time>2021-05-04T08:24:34Z</time>
      </trkpt>
      <trkpt lat="45.48541" lon="6.8986">
        <ele>2586.4</ele>
        <time>2021-05-04T08:24:35Z</time>
      </trkpt>
      <trkpt lat="45.48541" lon="6.89863">
        <ele>2586.4</ele>
        <time>2021-05-04T08:24:36Z</time>
      </trkpt>
      <trkpt lat="45.48542" lon="6.89865">
        <ele>2586.4</ele>
        <time>2021-05-04T08:24:37Z</time>
      </trkpt>
      <trkpt lat="45.48542" lon="6.89868">
        <ele>2586.4</ele>
        <time>2021-05-04T08:24:38Z</time>
      </trkpt>
      <trkpt lat="45.48543" lon="6.89872">
        <ele>2586.4</ele>
        <time>2021-05-04T08:24:39Z</time>
      </trkpt>
      <trkpt lat="45.48543" lon="6.89875">
        <ele>2587.2</ele>
        <time>2021-05-04T08:24:40Z</time>
      </trkpt>
      <trkpt lat="45.48543" lon="6.89878">
        <ele>2587.2</ele>
        <time>2021-05-04T08:24:41Z</time>
      </trkpt>
      <trkpt lat="45.48543" lon="6.89882">
        <ele>2587.2</ele>
        <time>2021-05-04T08:24:42Z</time>
      </trkpt>
      <trkpt lat="45.48543" lon="6.89886">
        <ele>2587.2</ele>
        <time>2021-05-04T08:24:43Z</time>
      </trkpt>
      <trkpt lat="45.48543" lon="6.8989">
        <ele>2587.2</ele>
        <time>2021-05-04T08:24:44Z</time>
      </trkpt>
      <trkpt lat="45.48543" lon="6.89893">
        <ele>2587.2</ele>
        <time>2021-05-04T08:24:45Z</time>
      </trkpt>
      <trkpt lat="45.48542" lon="6.89898">
        <ele>2587.2</ele>
        <time>2021-05-04T08:24:46Z</time>
      </trkpt>
      <trkpt lat="45.48542" lon="6.89902">
        <ele>2587.2</ele>
        <time>2021-05-04T08:24:47Z</time>
      </trkpt>
      <trkpt lat="45.48542" lon="6.89905">
        <ele>2587.2</ele>
        <time>2021-05-04T08:24:48Z</time>
      </trkpt>
      <trkpt lat="45.48542" lon="6.89908">
        <ele>2587.2</ele>
        <time>2021-05-04T08:24:49Z</time>
      </trkpt>
      <trkpt lat="45.48541" lon="6.89911">
        <ele>2585.8</ele>
        <time>2021-05-04T08:24:50Z</time>
      </trkpt>
      <trkpt lat="45.4854" lon="6.89914">
        <ele>2585.8</ele>
        <time>2021-05-04T08:24:51Z</time>
      </trkpt>
      <trkpt lat="45.4854" lon="6.89918">
        <ele>2585.8</ele>
        <time>2021-05-04T08:24:52Z</time>
      </trkpt>
      <trkpt lat="45.4854" lon="6.89922">
        <ele>2585.8</ele>
        <time>2021-05-04T08:24:53Z</time>
      </trkpt>
      <trkpt lat="45.48539" lon="6.89925">
        <ele>2585.8</ele>
        <time>2021-05-04T08:24:54Z</time>
      </trkpt>
      <trkpt lat="45.48539" lon="6.89929">
        <ele>2585.8</ele>
        <time>2021-05-04T08:24:55Z</time>
      </trkpt>
      <trkpt lat="45.48538" lon="6.89932">
        <ele>2585.8</ele>
        <time>2021-05-04T08:24:56Z</time>
      </trkpt>
      <trkpt lat="45.48537" lon="6.89937">
        <ele>2585.8</ele>
        <time>2021-05-04T08:24:57Z</time>
      </trkpt>
      <trkpt lat="45.48536" lon="6.89942">
        <ele>2585.8</ele>
        <time>2021-05-04T08:24:58Z</time>
      </trkpt>
      <trkpt lat="45.48534" lon="6.89948">
        <ele>2585.8</ele>
        <time>2021-05-04T08:24:59Z</time>
      </trkpt>
      <trkpt lat="45.48532" lon="6.89953">
        <ele>2584.6</ele>
        <time>2021-05-04T08:25:00Z</time>
      </trkpt>
      <trkpt lat="45.48529" lon="6.89957">
        <ele>2584.6</ele>
        <time>2021-05-04T08:25:01Z</time>
      </trkpt>
      <trkpt lat="45.48526" lon="6.89962">
        <ele>2584.6</ele>
        <time>2021-05-04T08:25:02Z</time>
      </trkpt>
      <trkpt lat="45.48523" lon="6.89967">
        <ele>2584.6</ele>
        <time>2021-05-04T08:25:03Z</time>
      </trkpt>
      <trkpt lat="45.4852" lon="6.89972">
        <ele>2584.6</ele>
        <time>2021-05-04T08:25:04Z</time>
      </trkpt>
      <trkpt lat="45.48517" lon="6.89978">
        <ele>2584.6</ele>
        <time>2021-05-04T08:25:05Z</time>
      </trkpt>
      <trkpt lat="45.48515" lon="6.89983">
        <ele>2584.6</ele>
        <time>2021-05-04T08:25:06Z</time>
      </trkpt>
      <trkpt lat="45.48512" lon="6.89988">
        <ele>2584.6</ele>
        <time>2021-05-04T08:25:07Z</time>
      </trkpt>
      <trkpt lat="45.4851" lon="6.89994">
        <ele>2584.6</ele>
        <time>2021-05-04T08:25:08Z</time>
      </trkpt>
      <trkpt lat="45.48508" lon="6.90002">
        <ele>2584.6</ele>
        <time>2021-05-04T08:25:09Z</time>
      </trkpt>
      <trkpt lat="45.48506" lon="6.9001">
        <ele>2577.6</ele>
        <time>2021-05-04T08:25:10Z</time>
      </trkpt>
      <trkpt lat="45.48506" lon="6.90019">
        <ele>2577.6</ele>
        <time>2021-05-04T08:25:11Z</time>
      </trkpt>
      <trkpt lat="45.48508" lon="6.90026">
        <ele>2577.6</ele>
        <time>2021-05-04T08:25:12Z</time>
      </trkpt>
      <trkpt lat="45.48513" lon="6.90028">
        <ele>2577.6</ele>
        <time>2021-05-04T08:25:13Z</time>
      </trkpt>
      <trkpt lat="45.48519" lon="6.9003">
        <ele>2577.6</ele>
        <time>2021-05-04T08:25:14Z</time>
      </trkpt>
      <trkpt lat="45.48523" lon="6.90033">
        <ele>2577.6</ele>
        <time>2021-05-04T08:25:15Z</time>
      </trkpt>
      <trkpt lat="45.48529" lon="6.90035">
        <ele>2577.6</ele>
        <time>2021-05-04T08:25:16Z</time>
      </trkpt>
      <trkpt lat="45.48535" lon="6.90036">
        <ele>2577.6</ele>
        <time>2021-05-04T08:25:17Z</time>
      </trkpt>
      <trkpt lat="45.48539" lon="6.90039">
        <ele>2577.6</ele>
        <time>2021-05-04T08:25:18Z</time>
      </trkpt>
      <trkpt lat="45.48542" lon="6.90044">
        <ele>2577.6</ele>
        <time>2021-05-04T08:25:19Z</time>
      </trkpt>
      <trkpt lat="45.48545" lon="6.90046">
        <ele>2566.6</ele>
        <time>2021-05-04T08:25:20Z</time>
      </trkpt>
      <trkpt lat="45.48554" lon="6.90043">
        <ele>2566.6</ele>
        <time>2021-05-04T08:25:22Z</time>
      </trkpt>
      <trkpt lat="45.48557" lon="6.90042">
        <ele>2566.6</ele>
        <time>2021-05-04T08:25:23Z</time>
      </trkpt>
      <trkpt lat="45.48561" lon="6.90044">
        <ele>2566.6</ele>
        <time>2021-05-04T08:25:24Z</time>
      </trkpt>
      <trkpt lat="45.48562" lon="6.90048">
        <ele>2566.6</ele>
        <time>2021-05-04T08:25:25Z</time>
      </trkpt>
      <trkpt lat="45.48562" lon="6.90051">
        <ele>2566.6</ele>
        <time>2021-05-04T08:25:27Z</time>
      </trkpt>
      <trkpt lat="45.48564" lon="6.90053">
        <ele>2566.6</ele>
        <time>2021-05-04T08:25:39Z</time>
      </trkpt>
      <trkpt lat="45.48566" lon="6.90055">
        <ele>2557</ele>
        <time>2021-05-04T08:25:40Z</time>
      </trkpt>
      <trkpt lat="45.48568" lon="6.90058">
        <ele>2557</ele>
        <time>2021-05-04T08:25:41Z</time>
      </trkpt>
      <trkpt lat="45.48571" lon="6.90062">
        <ele>2557</ele>
        <time>2021-05-04T08:25:42Z</time>
      </trkpt>
      <trkpt lat="45.48572" lon="6.90066">
        <ele>2557</ele>
        <time>2021-05-04T08:25:43Z</time>
      </trkpt>
      <trkpt lat="45.48574" lon="6.9007">
        <ele>2557</ele>
        <time>2021-05-04T08:25:44Z</time>
      </trkpt>
      <trkpt lat="45.48577" lon="6.90072">
        <ele>2557</ele>
        <time>2021-05-04T08:25:45Z</time>
      </trkpt>
      <trkpt lat="45.48582" lon="6.90074">
        <ele>2557</ele>
        <time>2021-05-04T08:25:46Z</time>
      </trkpt>
      <trkpt lat="45.48588" lon="6.90074">
        <ele>2557</ele>
        <time>2021-05-04T08:25:47Z</time>
      </trkpt>
      <trkpt lat="45.48594" lon="6.90074">
        <ele>2557</ele>
        <time>2021-05-04T08:25:48Z</time>
      </trkpt>
      <trkpt lat="45.48599" lon="6.90073">
        <ele>2557</ele>
        <time>2021-05-04T08:25:49Z</time>
      </trkpt>
      <trkpt lat="45.48603" lon="6.90072">
        <ele>2549.8</ele>
        <time>2021-05-04T08:25:50Z</time>
      </trkpt>
      <trkpt lat="45.48607" lon="6.90072">
        <ele>2549.8</ele>
        <time>2021-05-04T08:25:51Z</time>
      </trkpt>
      <trkpt lat="45.4861" lon="6.90071">
        <ele>2549.8</ele>
        <time>2021-05-04T08:25:52Z</time>
      </trkpt>
      <trkpt lat="45.48614" lon="6.90072">
        <ele>2549.8</ele>
        <time>2021-05-04T08:25:53Z</time>
      </trkpt>
      <trkpt lat="45.48617" lon="6.90073">
        <ele>2549.8</ele>
        <time>2021-05-04T08:25:54Z</time>
      </trkpt>
      <trkpt lat="45.48623" lon="6.90075">
        <ele>2549.8</ele>
        <time>2021-05-04T08:25:55Z</time>
      </trkpt>
      <trkpt lat="45.48624" lon="6.9008">
        <ele>2549.8</ele>
        <time>2021-05-04T08:25:56Z</time>
      </trkpt>
      <trkpt lat="45.48622" lon="6.90086">
        <ele>2549.8</ele>
        <time>2021-05-04T08:25:57Z</time>
      </trkpt>
      <trkpt lat="45.48619" lon="6.90088">
        <ele>2549.8</ele>
        <time>2021-05-04T08:25:58Z</time>
      </trkpt>
      <trkpt lat="45.48617" lon="6.90089">
        <ele>2549.8</ele>
        <time>2021-05-04T08:25:59Z</time>
      </trkpt>
      <trkpt lat="45.48613" lon="6.90093">
        <ele>2538.4</ele>
        <time>2021-05-04T08:26:20Z</time>
      </trkpt>
      <trkpt lat="45.48611" lon="6.90096">
        <ele>2538.4</ele>
        <time>2021-05-04T08:26:21Z</time>
      </trkpt>
      <trkpt lat="45.48609" lon="6.90098">
        <ele>2538.4</ele>
        <time>2021-05-04T08:26:22Z</time>
      </trkpt>
      <trkpt lat="45.48607" lon="6.901">
        <ele>2538.4</ele>
        <time>2021-05-04T08:26:23Z</time>
      </trkpt>
      <trkpt lat="45.48607" lon="6.90107">
        <ele>2538.4</ele>
        <time>2021-05-04T08:26:25Z</time>
      </trkpt>
      <trkpt lat="45.48608" lon="6.90112">
        <ele>2538.4</ele>
        <time>2021-05-04T08:26:26Z</time>
      </trkpt>
      <trkpt lat="45.48607" lon="6.90119">
        <ele>2538.4</ele>
        <time>2021-05-04T08:26:27Z</time>
      </trkpt>
      <trkpt lat="45.48605" lon="6.90125">
        <ele>2538.4</ele>
        <time>2021-05-04T08:26:28Z</time>
      </trkpt>
      <trkpt lat="45.48602" lon="6.90129">
        <ele>2538.4</ele>
        <time>2021-05-04T08:26:29Z</time>
      </trkpt>
      <trkpt lat="45.486" lon="6.90132">
        <ele>2532</ele>
        <time>2021-05-04T08:26:30Z</time>
      </trkpt>
      <trkpt lat="45.48599" lon="6.90135">
        <ele>2532</ele>
        <time>2021-05-04T08:26:31Z</time>
      </trkpt>
      <trkpt lat="45.486" lon="6.90138">
        <ele>2532</ele>
        <time>2021-05-04T08:26:32Z</time>
      </trkpt>
      <trkpt lat="45.48601" lon="6.90143">
        <ele>2532</ele>
        <time>2021-05-04T08:26:33Z</time>
      </trkpt>
      <trkpt lat="45.48601" lon="6.90148">
        <ele>2532</ele>
        <time>2021-05-04T08:26:34Z</time>
      </trkpt>
      <trkpt lat="45.486" lon="6.90154">
        <ele>2532</ele>
        <time>2021-05-04T08:26:35Z</time>
      </trkpt>
      <trkpt lat="45.486" lon="6.90162">
        <ele>2532</ele>
        <time>2021-05-04T08:26:36Z</time>
      </trkpt>
      <trkpt lat="45.48598" lon="6.90168">
        <ele>2532</ele>
        <time>2021-05-04T08:26:37Z</time>
      </trkpt>
      <trkpt lat="45.48595" lon="6.90175">
        <ele>2532</ele>
        <time>2021-05-04T08:26:38Z</time>
      </trkpt>
      <trkpt lat="45.48591" lon="6.90181">
        <ele>2532</ele>
        <time>2021-05-04T08:26:39Z</time>
      </trkpt>
      <trkpt lat="45.48587" lon="6.90186">
        <ele>2520.8</ele>
        <time>2021-05-04T08:26:40Z</time>
      </trkpt>
      <trkpt lat="45.48581" lon="6.9019">
        <ele>2520.8</ele>
        <time>2021-05-04T08:26:41Z</time>
      </trkpt>
      <trkpt lat="45.48575" lon="6.90193">
        <ele>2520.8</ele>
        <time>2021-05-04T08:26:42Z</time>
      </trkpt>
      <trkpt lat="45.48569" lon="6.90194">
        <ele>2520.8</ele>
        <time>2021-05-04T08:26:43Z</time>
      </trkpt>
      <trkpt lat="45.48562" lon="6.90194">
        <ele>2520.8</ele>
        <time>2021-05-04T08:26:44Z</time>
      </trkpt>
      <trkpt lat="45.48554" lon="6.90194">
        <ele>2520.8</ele>
        <time>2021-05-04T08:26:45Z</time>
      </trkpt>
      <trkpt lat="45.48547" lon="6.90194">
        <ele>2520.8</ele>
        <time>2021-05-04T08:26:46Z</time>
      </trkpt>
      <trkpt lat="45.48539" lon="6.90195">
        <ele>2520.8</ele>
        <time>2021-05-04T08:26:47Z</time>
      </trkpt>
      <trkpt lat="45.48533" lon="6.90196">
        <ele>2520.8</ele>
        <time>2021-05-04T08:26:48Z</time>
      </trkpt>
      <trkpt lat="45.48526" lon="6.90196">
        <ele>2520.8</ele>
        <time>2021-05-04T08:26:49Z</time>
      </trkpt>
      <trkpt lat="45.48518" lon="6.90199">
        <ele>2508.8</ele>
        <time>2021-05-04T08:26:50Z</time>
      </trkpt>
      <trkpt lat="45.48512" lon="6.90204">
        <ele>2508.8</ele>
        <time>2021-05-04T08:26:51Z</time>
      </trkpt>
      <trkpt lat="45.48506" lon="6.90212">
        <ele>2508.8</ele>
        <time>2021-05-04T08:26:52Z</time>
      </trkpt>
      <trkpt lat="45.485" lon="6.90221">
        <ele>2508.8</ele>
        <time>2021-05-04T08:26:53Z</time>
      </trkpt>
      <trkpt lat="45.48494" lon="6.90229">
        <ele>2508.8</ele>
        <time>2021-05-04T08:26:54Z</time>
      </trkpt>
      <trkpt lat="45.48489" lon="6.90238">
        <ele>2508.8</ele>
        <time>2021-05-04T08:26:55Z</time>
      </trkpt>
      <trkpt lat="45.48483" lon="6.90246">
        <ele>2508.8</ele>
        <time>2021-05-04T08:26:56Z</time>
      </trkpt>
      <trkpt lat="45.48478" lon="6.90254">
        <ele>2508.8</ele>
        <time>2021-05-04T08:26:57Z</time>
      </trkpt>
      <trkpt lat="45.48473" lon="6.90262">
        <ele>2508.8</ele>
        <time>2021-05-04T08:26:58Z</time>
      </trkpt>
      <trkpt lat="45.48468" lon="6.90271">
        <ele>2508.8</ele>
        <time>2021-05-04T08:26:59Z</time>
      </trkpt>
      <trkpt lat="45.48464" lon="6.90278">
        <ele>2495.8</ele>
        <time>2021-05-04T08:27:00Z</time>
      </trkpt>
      <trkpt lat="45.4846" lon="6.90285">
        <ele>2495.8</ele>
        <time>2021-05-04T08:27:01Z</time>
      </trkpt>
      <trkpt lat="45.48456" lon="6.90291">
        <ele>2495.8</ele>
        <time>2021-05-04T08:27:02Z</time>
      </trkpt>
      <trkpt lat="45.48453" lon="6.90297">
        <ele>2495.8</ele>
        <time>2021-05-04T08:27:03Z</time>
      </trkpt>
      <trkpt lat="45.4845" lon="6.90302">
        <ele>2495.8</ele>
        <time>2021-05-04T08:27:04Z</time>
      </trkpt>
      <trkpt lat="45.48447" lon="6.90307">
        <ele>2495.8</ele>
        <time>2021-05-04T08:27:05Z</time>
      </trkpt>
      <trkpt lat="45.48445" lon="6.90311">
        <ele>2495.8</ele>
        <time>2021-05-04T08:27:06Z</time>
      </trkpt>
      <trkpt lat="45.48444" lon="6.90317">
        <ele>2495.8</ele>
        <time>2021-05-04T08:27:07Z</time>
      </trkpt>
      <trkpt lat="45.48443" lon="6.90322">
        <ele>2495.8</ele>
        <time>2021-05-04T08:27:08Z</time>
      </trkpt>
      <trkpt lat="45.48441" lon="6.90328">
        <ele>2495.8</ele>
        <time>2021-05-04T08:27:09Z</time>
      </trkpt>
      <trkpt lat="45.48439" lon="6.90333">
        <ele>2486.8</ele>
        <time>2021-05-04T08:27:10Z</time>
      </trkpt>
      <trkpt lat="45.48437" lon="6.90339">
        <ele>2486.8</ele>
        <time>2021-05-04T08:27:11Z</time>
      </trkpt>
      <trkpt lat="45.48435" lon="6.90345">
        <ele>2486.8</ele>
        <time>2021-05-04T08:27:12Z</time>
      </trkpt>
      <trkpt lat="45.48433" lon="6.90351">
        <ele>2486.8</ele>
        <time>2021-05-04T08:27:13Z</time>
      </trkpt>
      <trkpt lat="45.4843" lon="6.90358">
        <ele>2486.8</ele>
        <time>2021-05-04T08:27:14Z</time>
      </trkpt>
      <trkpt lat="45.48427" lon="6.90365">
        <ele>2486.8</ele>
        <time>2021-05-04T08:27:15Z</time>
      </trkpt>
      <trkpt lat="45.48423" lon="6.90372">
        <ele>2486.8</ele>
        <time>2021-05-04T08:27:16Z</time>
      </trkpt>
      <trkpt lat="45.48418" lon="6.90379">
        <ele>2486.8</ele>
        <time>2021-05-04T08:27:17Z</time>
      </trkpt>
      <trkpt lat="45.48413" lon="6.90386">
        <ele>2486.8</ele>
        <time>2021-05-04T08:27:18Z</time>
      </trkpt>
      <trkpt lat="45.48407" lon="6.90392">
        <ele>2486.8</ele>
        <time>2021-05-04T08:27:19Z</time>
      </trkpt>
      <trkpt lat="45.48402" lon="6.90398">
        <ele>2476.6</ele>
        <time>2021-05-04T08:27:20Z</time>
      </trkpt>
      <trkpt lat="45.48397" lon="6.90404">
        <ele>2476.6</ele>
        <time>2021-05-04T08:27:21Z</time>
      </trkpt>
      <trkpt lat="45.48393" lon="6.9041">
        <ele>2476.6</ele>
        <time>2021-05-04T08:27:22Z</time>
      </trkpt>
      <trkpt lat="45.48389" lon="6.90414">
        <ele>2476.6</ele>
        <time>2021-05-04T08:27:23Z</time>
      </trkpt>
      <trkpt lat="45.48385" lon="6.90418">
        <ele>2476.6</ele>
        <time>2021-05-04T08:27:24Z</time>
      </trkpt>
      <trkpt lat="45.48382" lon="6.90423">
        <ele>2476.6</ele>
        <time>2021-05-04T08:27:25Z</time>
      </trkpt>
      <trkpt lat="45.48379" lon="6.90428">
        <ele>2476.6</ele>
        <time>2021-05-04T08:27:26Z</time>
      </trkpt>
      <trkpt lat="45.48376" lon="6.90432">
        <ele>2476.6</ele>
        <time>2021-05-04T08:27:27Z</time>
      </trkpt>
      <trkpt lat="45.48373" lon="6.90434">
        <ele>2476.6</ele>
        <time>2021-05-04T08:27:28Z</time>
      </trkpt>
      <trkpt lat="45.4837" lon="6.90435">
        <ele>2476.6</ele>
        <time>2021-05-04T08:27:29Z</time>
      </trkpt>
      <trkpt lat="45.48366" lon="6.90437">
        <ele>2468.4</ele>
        <time>2021-05-04T08:27:30Z</time>
      </trkpt>
      <trkpt lat="45.48364" lon="6.9044">
        <ele>2468.4</ele>
        <time>2021-05-04T08:27:31Z</time>
      </trkpt>
      <trkpt lat="45.4836" lon="6.90441">
        <ele>2468.4</ele>
        <time>2021-05-04T08:27:32Z</time>
      </trkpt>
      <trkpt lat="45.48356" lon="6.90442">
        <ele>2468.4</ele>
        <time>2021-05-04T08:27:33Z</time>
      </trkpt>
      <trkpt lat="45.48354" lon="6.90442">
        <ele>2468.4</ele>
        <time>2021-05-04T08:27:34Z</time>
      </trkpt>
      <trkpt lat="45.4835" lon="6.90443">
        <ele>2468.4</ele>
        <time>2021-05-04T08:27:35Z</time>
      </trkpt>
      <trkpt lat="45.48346" lon="6.90445">
        <ele>2468.4</ele>
        <time>2021-05-04T08:27:36Z</time>
      </trkpt>
      <trkpt lat="45.48342" lon="6.90448">
        <ele>2468.4</ele>
        <time>2021-05-04T08:27:37Z</time>
      </trkpt>
      <trkpt lat="45.48338" lon="6.90451">
        <ele>2468.4</ele>
        <time>2021-05-04T08:27:38Z</time>
      </trkpt>
      <trkpt lat="45.48335" lon="6.90454">
        <ele>2468.4</ele>
        <time>2021-05-04T08:27:39Z</time>
      </trkpt>
      <trkpt lat="45.48334" lon="6.90458">
        <ele>2460.6</ele>
        <time>2021-05-04T08:27:40Z</time>
      </trkpt>
      <trkpt lat="45.48335" lon="6.90463">
        <ele>2460.6</ele>
        <time>2021-05-04T08:27:41Z</time>
      </trkpt>
      <trkpt lat="45.48335" lon="6.90469">
        <ele>2460.6</ele>
        <time>2021-05-04T08:27:42Z</time>
      </trkpt>
      <trkpt lat="45.48333" lon="6.90473">
        <ele>2460.6</ele>
        <time>2021-05-04T08:27:43Z</time>
      </trkpt>
      <trkpt lat="45.4833" lon="6.90475">
        <ele>2460.6</ele>
        <time>2021-05-04T08:27:44Z</time>
      </trkpt>
      <trkpt lat="45.48329" lon="6.9048">
        <ele>2460.6</ele>
        <time>2021-05-04T08:27:45Z</time>
      </trkpt>
      <trkpt lat="45.48328" lon="6.90485">
        <ele>2460.6</ele>
        <time>2021-05-04T08:27:46Z</time>
      </trkpt>
      <trkpt lat="45.48325" lon="6.9049">
        <ele>2460.6</ele>
        <time>2021-05-04T08:27:47Z</time>
      </trkpt>
      <trkpt lat="45.48322" lon="6.90492">
        <ele>2460.6</ele>
        <time>2021-05-04T08:27:48Z</time>
      </trkpt>
      <trkpt lat="45.48319" lon="6.90494">
        <ele>2460.6</ele>
        <time>2021-05-04T08:27:49Z</time>
      </trkpt>
      <trkpt lat="45.48316" lon="6.90497">
        <ele>2449.6</ele>
        <time>2021-05-04T08:27:50Z</time>
      </trkpt>
      <trkpt lat="45.48312" lon="6.90502">
        <ele>2449.6</ele>
        <time>2021-05-04T08:27:51Z</time>
      </trkpt>
      <trkpt lat="45.48309" lon="6.90504">
        <ele>2449.6</ele>
        <time>2021-05-04T08:27:52Z</time>
      </trkpt>
      <trkpt lat="45.48305" lon="6.90505">
        <ele>2449.6</ele>
        <time>2021-05-04T08:27:53Z</time>
      </trkpt>
      <trkpt lat="45.48302" lon="6.90506">
        <ele>2449.6</ele>
        <time>2021-05-04T08:27:54Z</time>
      </trkpt>
      <trkpt lat="45.483" lon="6.90511">
        <ele>2449.6</ele>
        <time>2021-05-04T08:27:55Z</time>
      </trkpt>
      <trkpt lat="45.48298" lon="6.90517">
        <ele>2449.6</ele>
        <time>2021-05-04T08:27:56Z</time>
      </trkpt>
      <trkpt lat="45.48294" lon="6.90522">
        <ele>2449.6</ele>
        <time>2021-05-04T08:27:57Z</time>
      </trkpt>
      <trkpt lat="45.48289" lon="6.90524">
        <ele>2449.6</ele>
        <time>2021-05-04T08:27:58Z</time>
      </trkpt>
      <trkpt lat="45.48283" lon="6.90527">
        <ele>2449.6</ele>
        <time>2021-05-04T08:27:59Z</time>
      </trkpt>
      <trkpt lat="45.48276" lon="6.90532">
        <ele>2437.4</ele>
        <time>2021-05-04T08:28:00Z</time>
      </trkpt>
      <trkpt lat="45.48269" lon="6.90539">
        <ele>2437.4</ele>
        <time>2021-05-04T08:28:01Z</time>
      </trkpt>
      <trkpt lat="45.48263" lon="6.90548">
        <ele>2437.4</ele>
        <time>2021-05-04T08:28:02Z</time>
      </trkpt>
      <trkpt lat="45.48258" lon="6.90559">
        <ele>2437.4</ele>
        <time>2021-05-04T08:28:03Z</time>
      </trkpt>
      <trkpt lat="45.48253" lon="6.9057">
        <ele>2437.4</ele>
        <time>2021-05-04T08:28:04Z</time>
      </trkpt>
      <trkpt lat="45.48251" lon="6.9058">
        <ele>2437.4</ele>
        <time>2021-05-04T08:28:05Z</time>
      </trkpt>
      <trkpt lat="45.48251" lon="6.90589">
        <ele>2437.4</ele>
        <time>2021-05-04T08:28:06Z</time>
      </trkpt>
      <trkpt lat="45.48254" lon="6.90597">
        <ele>2437.4</ele>
        <time>2021-05-04T08:28:07Z</time>
      </trkpt>
      <trkpt lat="45.48255" lon="6.90605">
        <ele>2437.4</ele>
        <time>2021-05-04T08:28:08Z</time>
      </trkpt>
      <trkpt lat="45.48257" lon="6.90612">
        <ele>2437.4</ele>
        <time>2021-05-04T08:28:09Z</time>
      </trkpt>
      <trkpt lat="45.48261" lon="6.90618">
        <ele>2424.4</ele>
        <time>2021-05-04T08:28:10Z</time>
      </trkpt>
      <trkpt lat="45.48265" lon="6.90625">
        <ele>2424.4</ele>
        <time>2021-05-04T08:28:11Z</time>
      </trkpt>
      <trkpt lat="45.48267" lon="6.90632">
        <ele>2424.4</ele>
        <time>2021-05-04T08:28:12Z</time>
      </trkpt>
      <trkpt lat="45.4827" lon="6.90639">
        <ele>2424.4</ele>
        <time>2021-05-04T08:28:13Z</time>
      </trkpt>
      <trkpt lat="45.48274" lon="6.90646">
        <ele>2424.4</ele>
        <time>2021-05-04T08:28:14Z</time>
      </trkpt>
      <trkpt lat="45.4828" lon="6.90652">
        <ele>2424.4</ele>
        <time>2021-05-04T08:28:15Z</time>
      </trkpt>
      <trkpt lat="45.48286" lon="6.90659">
        <ele>2424.4</ele>
        <time>2021-05-04T08:28:16Z</time>
      </trkpt>
      <trkpt lat="45.48294" lon="6.90668">
        <ele>2424.4</ele>
        <time>2021-05-04T08:28:17Z</time>
      </trkpt>
      <trkpt lat="45.48304" lon="6.90677">
        <ele>2424.4</ele>
        <time>2021-05-04T08:28:18Z</time>
      </trkpt>
      <trkpt lat="45.48314" lon="6.90687">
        <ele>2424.4</ele>
        <time>2021-05-04T08:28:19Z</time>
      </trkpt>
      <trkpt lat="45.48324" lon="6.90697">
        <ele>2406.2</ele>
        <time>2021-05-04T08:28:20Z</time>
      </trkpt>
      <trkpt lat="45.48333" lon="6.90708">
        <ele>2406.2</ele>
        <time>2021-05-04T08:28:21Z</time>
      </trkpt>
      <trkpt lat="45.48342" lon="6.90721">
        <ele>2406.2</ele>
        <time>2021-05-04T08:28:22Z</time>
      </trkpt>
      <trkpt lat="45.48351" lon="6.90734">
        <ele>2406.2</ele>
        <time>2021-05-04T08:28:23Z</time>
      </trkpt>
      <trkpt lat="45.48358" lon="6.90748">
        <ele>2406.2</ele>
        <time>2021-05-04T08:28:24Z</time>
      </trkpt>
      <trkpt lat="45.48363" lon="6.90763">
        <ele>2406.2</ele>
        <time>2021-05-04T08:28:25Z</time>
      </trkpt>
      <trkpt lat="45.48368" lon="6.90778">
        <ele>2406.2</ele>
        <time>2021-05-04T08:28:26Z</time>
      </trkpt>
      <trkpt lat="45.48373" lon="6.90794">
        <ele>2406.2</ele>
        <time>2021-05-04T08:28:27Z</time>
      </trkpt>
      <trkpt lat="45.48377" lon="6.9081">
        <ele>2406.2</ele>
        <time>2021-05-04T08:28:28Z</time>
      </trkpt>
      <trkpt lat="45.4838" lon="6.90825">
        <ele>2406.2</ele>
        <time>2021-05-04T08:28:29Z</time>
      </trkpt>
      <trkpt lat="45.48383" lon="6.90841">
        <ele>2381</ele>
        <time>2021-05-04T08:28:30Z</time>
      </trkpt>
      <trkpt lat="45.48387" lon="6.90856">
        <ele>2381</ele>
        <time>2021-05-04T08:28:31Z</time>
      </trkpt>
      <trkpt lat="45.48391" lon="6.9087">
        <ele>2381</ele>
        <time>2021-05-04T08:28:32Z</time>
      </trkpt>
      <trkpt lat="45.48395" lon="6.90884">
        <ele>2381</ele>
        <time>2021-05-04T08:28:33Z</time>
      </trkpt>
      <trkpt lat="45.48399" lon="6.90897">
        <ele>2381</ele>
        <time>2021-05-04T08:28:34Z</time>
      </trkpt>
      <trkpt lat="45.48403" lon="6.90908">
        <ele>2381</ele>
        <time>2021-05-04T08:28:35Z</time>
      </trkpt>
      <trkpt lat="45.48404" lon="6.90916">
        <ele>2381</ele>
        <time>2021-05-04T08:28:36Z</time>
      </trkpt>
      <trkpt lat="45.48404" lon="6.90921">
        <ele>2381</ele>
        <time>2021-05-04T08:28:37Z</time>
      </trkpt>
      <trkpt lat="45.48401" lon="6.90922">
        <ele>2381</ele>
        <time>2021-05-04T08:28:38Z</time>
      </trkpt>
      <trkpt lat="45.48397" lon="6.9092">
        <ele>2381</ele>
        <time>2021-05-04T08:28:39Z</time>
      </trkpt>
      <trkpt lat="45.48391" lon="6.90919">
        <ele>2368.6</ele>
        <time>2021-05-04T08:28:40Z</time>
      </trkpt>
      <trkpt lat="45.48385" lon="6.9092">
        <ele>2368.6</ele>
        <time>2021-05-04T08:28:41Z</time>
      </trkpt>
      <trkpt lat="45.48381" lon="6.90924">
        <ele>2368.6</ele>
        <time>2021-05-04T08:28:42Z</time>
      </trkpt>
      <trkpt lat="45.48378" lon="6.9093">
        <ele>2368.6</ele>
        <time>2021-05-04T08:28:43Z</time>
      </trkpt>
      <trkpt lat="45.48378" lon="6.90939">
        <ele>2368.6</ele>
        <time>2021-05-04T08:28:44Z</time>
      </trkpt>
      <trkpt lat="45.48377" lon="6.90947">
        <ele>2368.6</ele>
        <time>2021-05-04T08:28:45Z</time>
      </trkpt>
      <trkpt lat="45.48376" lon="6.90954">
        <ele>2368.6</ele>
        <time>2021-05-04T08:28:46Z</time>
      </trkpt>
      <trkpt lat="45.48375" lon="6.90961">
        <ele>2368.6</ele>
        <time>2021-05-04T08:28:47Z</time>
      </trkpt>
      <trkpt lat="45.48375" lon="6.90968">
        <ele>2368.6</ele>
        <time>2021-05-04T08:28:48Z</time>
      </trkpt>
      <trkpt lat="45.48374" lon="6.90975">
        <ele>2368.6</ele>
        <time>2021-05-04T08:28:49Z</time>
      </trkpt>
      <trkpt lat="45.48372" lon="6.90981">
        <ele>2359.8</ele>
        <time>2021-05-04T08:28:50Z</time>
      </trkpt>
      <trkpt lat="45.4837" lon="6.90987">
        <ele>2359.8</ele>
        <time>2021-05-04T08:28:51Z</time>
      </trkpt>
      <trkpt lat="45.48369" lon="6.90995">
        <ele>2359.8</ele>
        <time>2021-05-04T08:28:52Z</time>
      </trkpt>
      <trkpt lat="45.48367" lon="6.91001">
        <ele>2359.8</ele>
        <time>2021-05-04T08:28:53Z</time>
      </trkpt>
      <trkpt lat="45.48364" lon="6.91007">
        <ele>2359.8</ele>
        <time>2021-05-04T08:28:54Z</time>
      </trkpt>
      <trkpt lat="45.48364" lon="6.91014">
        <ele>2359.8</ele>
        <time>2021-05-04T08:28:55Z</time>
      </trkpt>
      <trkpt lat="45.48362" lon="6.91021">
        <ele>2359.8</ele>
        <time>2021-05-04T08:28:56Z</time>
      </trkpt>
      <trkpt lat="45.48361" lon="6.91027">
        <ele>2359.8</ele>
        <time>2021-05-04T08:28:57Z</time>
      </trkpt>
      <trkpt lat="45.4836" lon="6.91034">
        <ele>2359.8</ele>
        <time>2021-05-04T08:28:58Z</time>
      </trkpt>
      <trkpt lat="45.4836" lon="6.91041">
        <ele>2359.8</ele>
        <time>2021-05-04T08:28:59Z</time>
      </trkpt>
      <trkpt lat="45.48358" lon="6.91048">
        <ele>2349</ele>
        <time>2021-05-04T08:29:00Z</time>
      </trkpt>
      <trkpt lat="45.48358" lon="6.91054">
        <ele>2349</ele>
        <time>2021-05-04T08:29:01Z</time>
      </trkpt>
      <trkpt lat="45.48359" lon="6.91059">
        <ele>2349</ele>
        <time>2021-05-04T08:29:02Z</time>
      </trkpt>
      <trkpt lat="45.48361" lon="6.91064">
        <ele>2349</ele>
        <time>2021-05-04T08:29:03Z</time>
      </trkpt>
      <trkpt lat="45.48362" lon="6.91069">
        <ele>2349</ele>
        <time>2021-05-04T08:29:04Z</time>
      </trkpt>
      <trkpt lat="45.48363" lon="6.91074">
        <ele>2349</ele>
        <time>2021-05-04T08:29:05Z</time>
      </trkpt>
      <trkpt lat="45.48365" lon="6.91078">
        <ele>2349</ele>
        <time>2021-05-04T08:29:06Z</time>
      </trkpt>
      <trkpt lat="45.48368" lon="6.91083">
        <ele>2349</ele>
        <time>2021-05-04T08:29:07Z</time>
      </trkpt>
      <trkpt lat="45.48371" lon="6.91088">
        <ele>2349</ele>
        <time>2021-05-04T08:29:08Z</time>
      </trkpt>
      <trkpt lat="45.48374" lon="6.91092">
        <ele>2349</ele>
        <time>2021-05-04T08:29:09Z</time>
      </trkpt>
      <trkpt lat="45.48378" lon="6.91094">
        <ele>2336.4</ele>
        <time>2021-05-04T08:29:10Z</time>
      </trkpt>
      <trkpt lat="45.48381" lon="6.91099">
        <ele>2336.4</ele>
        <time>2021-05-04T08:29:11Z</time>
      </trkpt>
      <trkpt lat="45.48383" lon="6.91106">
        <ele>2336.4</ele>
        <time>2021-05-04T08:29:12Z</time>
      </trkpt>
      <trkpt lat="45.48383" lon="6.91113">
        <ele>2336.4</ele>
        <time>2021-05-04T08:29:13Z</time>
      </trkpt>
      <trkpt lat="45.48383" lon="6.9112">
        <ele>2336.4</ele>
        <time>2021-05-04T08:29:14Z</time>
      </trkpt>
      <trkpt lat="45.48385" lon="6.91124">
        <ele>2336.4</ele>
        <time>2021-05-04T08:29:15Z</time>
      </trkpt>
      <trkpt lat="45.48388" lon="6.91124">
        <ele>2336.4</ele>
        <time>2021-05-04T08:29:16Z</time>
      </trkpt>
      <trkpt lat="45.48392" lon="6.91125">
        <ele>2336.4</ele>
        <time>2021-05-04T08:29:17Z</time>
      </trkpt>
      <trkpt lat="45.48394" lon="6.91128">
        <ele>2336.4</ele>
        <time>2021-05-04T08:29:18Z</time>
      </trkpt>
      <trkpt lat="45.48397" lon="6.9113">
        <ele>2336.4</ele>
        <time>2021-05-04T08:29:19Z</time>
      </trkpt>
      <trkpt lat="45.484" lon="6.9113">
        <ele>2323.8</ele>
        <time>2021-05-04T08:29:20Z</time>
      </trkpt>
      <trkpt lat="45.48403" lon="6.91128">
        <ele>2323.8</ele>
        <time>2021-05-04T08:29:21Z</time>
      </trkpt>
      <trkpt lat="45.48407" lon="6.91126">
        <ele>2323.8</ele>
        <time>2021-05-04T08:29:22Z</time>
      </trkpt>
      <trkpt lat="45.48409" lon="6.9113">
        <ele>2323.8</ele>
        <time>2021-05-04T08:29:24Z</time>
      </trkpt>
      <trkpt lat="45.4841" lon="6.91132">
        <ele>2323.8</ele>
        <time>2021-05-04T08:29:25Z</time>
      </trkpt>
      <trkpt lat="45.48413" lon="6.91132">
        <ele>2323.8</ele>
        <time>2021-05-04T08:29:26Z</time>
      </trkpt>
      <trkpt lat="45.48415" lon="6.91129">
        <ele>2323.8</ele>
        <time>2021-05-04T08:29:27Z</time>
      </trkpt>
      <trkpt lat="45.48417" lon="6.91125">
        <ele>2323.8</ele>
        <time>2021-05-04T08:29:28Z</time>
      </trkpt>
      <trkpt lat="45.48419" lon="6.91121">
        <ele>2323.8</ele>
        <time>2021-05-04T08:29:29Z</time>
      </trkpt>
      <trkpt lat="45.48419" lon="6.91119">
        <ele>2312.6</ele>
        <time>2021-05-04T08:29:30Z</time>
      </trkpt>
      <trkpt lat="45.4842" lon="6.91116">
        <ele>2312.6</ele>
        <time>2021-05-04T08:29:31Z</time>
      </trkpt>
      <trkpt lat="45.48421" lon="6.91113">
        <ele>2312.6</ele>
        <time>2021-05-04T08:29:32Z</time>
      </trkpt>
      <trkpt lat="45.48424" lon="6.91111">
        <ele>2312.6</ele>
        <time>2021-05-04T08:29:33Z</time>
      </trkpt>
      <trkpt lat="45.48426" lon="6.91108">
        <ele>2312.6</ele>
        <time>2021-05-04T08:29:34Z</time>
      </trkpt>
      <trkpt lat="45.48428" lon="6.91104">
        <ele>2312.6</ele>
        <time>2021-05-04T08:29:35Z</time>
      </trkpt>
      <trkpt lat="45.48431" lon="6.91099">
        <ele>2312.6</ele>
        <time>2021-05-04T08:29:36Z</time>
      </trkpt>
      <trkpt lat="45.48434" lon="6.91095">
        <ele>2312.6</ele>
        <time>2021-05-04T08:29:37Z</time>
      </trkpt>
      <trkpt lat="45.48436" lon="6.91091">
        <ele>2312.6</ele>
        <time>2021-05-04T08:29:38Z</time>
      </trkpt>
      <trkpt lat="45.48439" lon="6.91087">
        <ele>2312.6</ele>
        <time>2021-05-04T08:29:39Z</time>
      </trkpt>
      <trkpt lat="45.48442" lon="6.91084">
        <ele>2307.6</ele>
        <time>2021-05-04T08:29:40Z</time>
      </trkpt>
      <trkpt lat="45.48445" lon="6.91081">
        <ele>2307.6</ele>
        <time>2021-05-04T08:29:41Z</time>
      </trkpt>
      <trkpt lat="45.48449" lon="6.91081">
        <ele>2307.6</ele>
        <time>2021-05-04T08:29:42Z</time>
      </trkpt>
      <trkpt lat="45.48451" lon="6.91084">
        <ele>2307.6</ele>
        <time>2021-05-04T08:29:43Z</time>
      </trkpt>
      <trkpt lat="45.48453" lon="6.91088">
        <ele>2307.6</ele>
        <time>2021-05-04T08:29:44Z</time>
      </trkpt>
      <trkpt lat="45.48457" lon="6.9109">
        <ele>2307.6</ele>
        <time>2021-05-04T08:29:45Z</time>
      </trkpt>
      <trkpt lat="45.48461" lon="6.91091">
        <ele>2307.6</ele>
        <time>2021-05-04T08:29:46Z</time>
      </trkpt>
      <trkpt lat="45.48465" lon="6.91095">
        <ele>2307.6</ele>
        <time>2021-05-04T08:29:47Z</time>
      </trkpt>
      <trkpt lat="45.48466" lon="6.91102">
        <ele>2307.6</ele>
        <time>2021-05-04T08:29:48Z</time>
      </trkpt>
      <trkpt lat="45.48467" lon="6.9111">
        <ele>2307.6</ele>
        <time>2021-05-04T08:29:49Z</time>
      </trkpt>
      <trkpt lat="45.48465" lon="6.91118">
        <ele>2297.8</ele>
        <time>2021-05-04T08:29:50Z</time>
      </trkpt>
      <trkpt lat="45.48464" lon="6.91124">
        <ele>2297.8</ele>
        <time>2021-05-04T08:29:51Z</time>
      </trkpt>
      <trkpt lat="45.48465" lon="6.91129">
        <ele>2297.8</ele>
        <time>2021-05-04T08:29:52Z</time>
      </trkpt>
      <trkpt lat="45.48468" lon="6.9113">
        <ele>2297.8</ele>
        <time>2021-05-04T08:29:53Z</time>
      </trkpt>
      <trkpt lat="45.48472" lon="6.91127">
        <ele>2297.8</ele>
        <time>2021-05-04T08:29:54Z</time>
      </trkpt>
      <trkpt lat="45.48475" lon="6.91122">
        <ele>2297.8</ele>
        <time>2021-05-04T08:29:55Z</time>
      </trkpt>
      <trkpt lat="45.48477" lon="6.91117">
        <ele>2297.8</ele>
        <time>2021-05-04T08:29:56Z</time>
      </trkpt>
      <trkpt lat="45.48481" lon="6.91115">
        <ele>2297.8</ele>
        <time>2021-05-04T08:29:57Z</time>
      </trkpt>
      <trkpt lat="45.48485" lon="6.91115">
        <ele>2297.8</ele>
        <time>2021-05-04T08:29:58Z</time>
      </trkpt>
      <trkpt lat="45.4849" lon="6.9112">
        <ele>2297.8</ele>
        <time>2021-05-04T08:29:59Z</time>
      </trkpt>
      <trkpt lat="45.48492" lon="6.91129">
        <ele>2297.8</ele>
        <time>2021-05-04T08:30:00Z</time>
      </trkpt>
      <trkpt lat="45.48493" lon="6.91137">
        <ele>2285</ele>
        <time>2021-05-04T08:30:01Z</time>
      </trkpt>
      <trkpt lat="45.48496" lon="6.91142">
        <ele>2285</ele>
        <time>2021-05-04T08:30:02Z</time>
      </trkpt>
      <trkpt lat="45.48499" lon="6.91142">
        <ele>2285</ele>
        <time>2021-05-04T08:30:03Z</time>
      </trkpt>
      <trkpt lat="45.48501" lon="6.9114">
        <ele>2285</ele>
        <time>2021-05-04T08:30:04Z</time>
      </trkpt>
      <trkpt lat="45.48503" lon="6.91135">
        <ele>2285</ele>
        <time>2021-05-04T08:30:05Z</time>
      </trkpt>
      <trkpt lat="45.48507" lon="6.91133">
        <ele>2285</ele>
        <time>2021-05-04T08:30:06Z</time>
      </trkpt>
      <trkpt lat="45.48509" lon="6.91132">
        <ele>2285</ele>
        <time>2021-05-04T08:30:07Z</time>
      </trkpt>
      <trkpt lat="45.48511" lon="6.91134">
        <ele>2285</ele>
        <time>2021-05-04T08:30:08Z</time>
      </trkpt>
      <trkpt lat="45.48514" lon="6.91134">
        <ele>2285</ele>
        <time>2021-05-04T08:30:09Z</time>
      </trkpt>
      <trkpt lat="45.48517" lon="6.91132">
        <ele>2274.8</ele>
        <time>2021-05-04T08:30:10Z</time>
      </trkpt>
      <trkpt lat="45.48519" lon="6.91128">
        <ele>2274.8</ele>
        <time>2021-05-04T08:30:11Z</time>
      </trkpt>
      <trkpt lat="45.48521" lon="6.91123">
        <ele>2274.8</ele>
        <time>2021-05-04T08:30:12Z</time>
      </trkpt>
      <trkpt lat="45.48524" lon="6.91118">
        <ele>2274.8</ele>
        <time>2021-05-04T08:30:13Z</time>
      </trkpt>
      <trkpt lat="45.48525" lon="6.91113">
        <ele>2274.8</ele>
        <time>2021-05-04T08:30:14Z</time>
      </trkpt>
      <trkpt lat="45.48526" lon="6.91109">
        <ele>2274.8</ele>
        <time>2021-05-04T08:30:15Z</time>
      </trkpt>
      <trkpt lat="45.48527" lon="6.91106">
        <ele>2274.8</ele>
        <time>2021-05-04T08:30:17Z</time>
      </trkpt>
      <trkpt lat="45.48531" lon="6.91106">
        <ele>2274.8</ele>
        <time>2021-05-04T08:30:33Z</time>
      </trkpt>
      <trkpt lat="45.48534" lon="6.9111">
        <ele>2274.8</ele>
        <time>2021-05-04T08:30:34Z</time>
      </trkpt>
      <trkpt lat="45.48537" lon="6.91115">
        <ele>2274.8</ele>
        <time>2021-05-04T08:30:35Z</time>
      </trkpt>
      <trkpt lat="45.48539" lon="6.91118">
        <ele>2274.8</ele>
        <time>2021-05-04T08:30:36Z</time>
      </trkpt>
      <trkpt lat="45.48543" lon="6.9112">
        <ele>2274.8</ele>
        <time>2021-05-04T08:30:37Z</time>
      </trkpt>
      <trkpt lat="45.48548" lon="6.91121">
        <ele>2274.8</ele>
        <time>2021-05-04T08:30:38Z</time>
      </trkpt>
      <trkpt lat="45.48552" lon="6.91121">
        <ele>2274.8</ele>
        <time>2021-05-04T08:30:39Z</time>
      </trkpt>
      <trkpt lat="45.48557" lon="6.91121">
        <ele>2263.2</ele>
        <time>2021-05-04T08:30:40Z</time>
      </trkpt>
      <trkpt lat="45.48562" lon="6.91122">
        <ele>2263.2</ele>
        <time>2021-05-04T08:30:41Z</time>
      </trkpt>
      <trkpt lat="45.48566" lon="6.91122">
        <ele>2263.2</ele>
        <time>2021-05-04T08:30:42Z</time>
      </trkpt>
      <trkpt lat="45.4857" lon="6.91122">
        <ele>2263.2</ele>
        <time>2021-05-04T08:30:43Z</time>
      </trkpt>
      <trkpt lat="45.48574" lon="6.91122">
        <ele>2263.2</ele>
        <time>2021-05-04T08:30:44Z</time>
      </trkpt>
      <trkpt lat="45.48578" lon="6.91122">
        <ele>2263.2</ele>
        <time>2021-05-04T08:30:45Z</time>
      </trkpt>
      <trkpt lat="45.48582" lon="6.91123">
        <ele>2263.2</ele>
        <time>2021-05-04T08:30:46Z</time>
      </trkpt>
      <trkpt lat="45.48586" lon="6.91123">
        <ele>2263.2</ele>
        <time>2021-05-04T08:30:47Z</time>
      </trkpt>
      <trkpt lat="45.48589" lon="6.91123">
        <ele>2263.2</ele>
        <time>2021-05-04T08:30:48Z</time>
      </trkpt>
      <trkpt lat="45.48593" lon="6.91124">
        <ele>2263.2</ele>
        <time>2021-05-04T08:30:49Z</time>
      </trkpt>
      <trkpt lat="45.48597" lon="6.91125">
        <ele>2253.2</ele>
        <time>2021-05-04T08:30:50Z</time>
      </trkpt>
      <trkpt lat="45.48601" lon="6.91127">
        <ele>2253.2</ele>
        <time>2021-05-04T08:30:51Z</time>
      </trkpt>
      <trkpt lat="45.48605" lon="6.91129">
        <ele>2253.2</ele>
        <time>2021-05-04T08:30:52Z</time>
      </trkpt>
      <trkpt lat="45.4861" lon="6.9113">
        <ele>2253.2</ele>
        <time>2021-05-04T08:30:53Z</time>
      </trkpt>
      <trkpt lat="45.48616" lon="6.9113">
        <ele>2253.2</ele>
        <time>2021-05-04T08:30:54Z</time>
      </trkpt>
      <trkpt lat="45.48621" lon="6.9113">
        <ele>2253.2</ele>
        <time>2021-05-04T08:30:55Z</time>
      </trkpt>
      <trkpt lat="45.48626" lon="6.91129">
        <ele>2253.2</ele>
        <time>2021-05-04T08:30:56Z</time>
      </trkpt>
      <trkpt lat="45.4863" lon="6.91128">
        <ele>2253.2</ele>
        <time>2021-05-04T08:30:57Z</time>
      </trkpt>
      <trkpt lat="45.48635" lon="6.91128">
        <ele>2253.2</ele>
        <time>2021-05-04T08:30:58Z</time>
      </trkpt>
      <trkpt lat="45.48639" lon="6.91128">
        <ele>2253.2</ele>
        <time>2021-05-04T08:30:59Z</time>
      </trkpt>
      <trkpt lat="45.48643" lon="6.9113">
        <ele>2242.8</ele>
        <time>2021-05-04T08:31:00Z</time>
      </trkpt>
      <trkpt lat="45.48646" lon="6.91132">
        <ele>2242.8</ele>
        <time>2021-05-04T08:31:01Z</time>
      </trkpt>
      <trkpt lat="45.48649" lon="6.91137">
        <ele>2242.8</ele>
        <time>2021-05-04T08:31:02Z</time>
      </trkpt>
      <trkpt lat="45.48652" lon="6.91142">
        <ele>2242.8</ele>
        <time>2021-05-04T08:31:03Z</time>
      </trkpt>
      <trkpt lat="45.48654" lon="6.91148">
        <ele>2242.8</ele>
        <time>2021-05-04T08:31:04Z</time>
      </trkpt>
      <trkpt lat="45.48659" lon="6.91153">
        <ele>2242.8</ele>
        <time>2021-05-04T08:31:05Z</time>
      </trkpt>
      <trkpt lat="45.48665" lon="6.91156">
        <ele>2242.8</ele>
        <time>2021-05-04T08:31:06Z</time>
      </trkpt>
      <trkpt lat="45.48672" lon="6.91156">
        <ele>2242.8</ele>
        <time>2021-05-04T08:31:07Z</time>
      </trkpt>
      <trkpt lat="45.48679" lon="6.91154">
        <ele>2242.8</ele>
        <time>2021-05-04T08:31:08Z</time>
      </trkpt>
      <trkpt lat="45.48686" lon="6.91154">
        <ele>2242.8</ele>
        <time>2021-05-04T08:31:09Z</time>
      </trkpt>
      <trkpt lat="45.48694" lon="6.91155">
        <ele>2230.6</ele>
        <time>2021-05-04T08:31:10Z</time>
      </trkpt>
      <trkpt lat="45.48702" lon="6.91157">
        <ele>2230.6</ele>
        <time>2021-05-04T08:31:11Z</time>
      </trkpt>
      <trkpt lat="45.48709" lon="6.91161">
        <ele>2230.6</ele>
        <time>2021-05-04T08:31:12Z</time>
      </trkpt>
      <trkpt lat="45.48716" lon="6.91167">
        <ele>2230.6</ele>
        <time>2021-05-04T08:31:13Z</time>
      </trkpt>
      <trkpt lat="45.48724" lon="6.91172">
        <ele>2230.6</ele>
        <time>2021-05-04T08:31:14Z</time>
      </trkpt>
      <trkpt lat="45.48731" lon="6.91176">
        <ele>2230.6</ele>
        <time>2021-05-04T08:31:15Z</time>
      </trkpt>
      <trkpt lat="45.48736" lon="6.91179">
        <ele>2230.6</ele>
        <time>2021-05-04T08:31:16Z</time>
      </trkpt>
      <trkpt lat="45.48741" lon="6.9118">
        <ele>2230.6</ele>
        <time>2021-05-04T08:31:17Z</time>
      </trkpt>
      <trkpt lat="45.48746" lon="6.91181">
        <ele>2230.6</ele>
        <time>2021-05-04T08:31:18Z</time>
      </trkpt>
      <trkpt lat="45.48751" lon="6.9118">
        <ele>2230.6</ele>
        <time>2021-05-04T08:31:19Z</time>
      </trkpt>
      <trkpt lat="45.48756" lon="6.9118">
        <ele>2219.8</ele>
        <time>2021-05-04T08:31:20Z</time>
      </trkpt>
      <trkpt lat="45.48761" lon="6.91181">
        <ele>2219.8</ele>
        <time>2021-05-04T08:31:21Z</time>
      </trkpt>
      <trkpt lat="45.48764" lon="6.91185">
        <ele>2219.8</ele>
        <time>2021-05-04T08:31:22Z</time>
      </trkpt>
      <trkpt lat="45.48765" lon="6.91191">
        <ele>2219.8</ele>
        <time>2021-05-04T08:31:23Z</time>
      </trkpt>
      <trkpt lat="45.48766" lon="6.91196">
        <ele>2219.8</ele>
        <time>2021-05-04T08:31:24Z</time>
      </trkpt>
      <trkpt lat="45.48768" lon="6.912">
        <ele>2219.8</ele>
        <time>2021-05-04T08:31:25Z</time>
      </trkpt>
      <trkpt lat="45.48771" lon="6.91205">
        <ele>2219.8</ele>
        <time>2021-05-04T08:31:26Z</time>
      </trkpt>
      <trkpt lat="45.48773" lon="6.91211">
        <ele>2219.8</ele>
        <time>2021-05-04T08:31:27Z</time>
      </trkpt>
      <trkpt lat="45.48776" lon="6.91216">
        <ele>2219.8</ele>
        <time>2021-05-04T08:31:28Z</time>
      </trkpt>
      <trkpt lat="45.48781" lon="6.91219">
        <ele>2219.8</ele>
        <time>2021-05-04T08:31:29Z</time>
      </trkpt>
      <trkpt lat="45.48788" lon="6.91222">
        <ele>2209.4</ele>
        <time>2021-05-04T08:31:30Z</time>
      </trkpt>
      <trkpt lat="45.48795" lon="6.91225">
        <ele>2209.4</ele>
        <time>2021-05-04T08:31:31Z</time>
      </trkpt>
      <trkpt lat="45.48805" lon="6.91229">
        <ele>2209.4</ele>
        <time>2021-05-04T08:31:32Z</time>
      </trkpt>
      <trkpt lat="45.48814" lon="6.91234">
        <ele>2209.4</ele>
        <time>2021-05-04T08:31:33Z</time>
      </trkpt>
      <trkpt lat="45.48824" lon="6.91239">
        <ele>2209.4</ele>
        <time>2021-05-04T08:31:34Z</time>
      </trkpt>
      <trkpt lat="45.48834" lon="6.91245">
        <ele>2209.4</ele>
        <time>2021-05-04T08:31:35Z</time>
      </trkpt>
      <trkpt lat="45.48844" lon="6.91251">
        <ele>2209.4</ele>
        <time>2021-05-04T08:31:36Z</time>
      </trkpt>
      <trkpt lat="45.48854" lon="6.91258">
        <ele>2209.4</ele>
        <time>2021-05-04T08:31:37Z</time>
      </trkpt>
      <trkpt lat="45.48864" lon="6.91264">
        <ele>2209.4</ele>
        <time>2021-05-04T08:31:38Z</time>
      </trkpt>
      <trkpt lat="45.48875" lon="6.91271">
        <ele>2209.4</ele>
        <time>2021-05-04T08:31:39Z</time>
      </trkpt>
      <trkpt lat="45.48886" lon="6.91276">
        <ele>2188.8</ele>
        <time>2021-05-04T08:31:40Z</time>
      </trkpt>
      <trkpt lat="45.48896" lon="6.91282">
        <ele>2188.8</ele>
        <time>2021-05-04T08:31:41Z</time>
      </trkpt>
      <trkpt lat="45.48906" lon="6.91288">
        <ele>2188.8</ele>
        <time>2021-05-04T08:31:42Z</time>
      </trkpt>
      <trkpt lat="45.48917" lon="6.91294">
        <ele>2188.8</ele>
        <time>2021-05-04T08:31:43Z</time>
      </trkpt>
      <trkpt lat="45.48928" lon="6.913">
        <ele>2188.8</ele>
        <time>2021-05-04T08:31:44Z</time>
      </trkpt>
      <trkpt lat="45.48939" lon="6.91307">
        <ele>2188.8</ele>
        <time>2021-05-04T08:31:45Z</time>
      </trkpt>
      <trkpt lat="45.4895" lon="6.91314">
        <ele>2188.8</ele>
        <time>2021-05-04T08:31:46Z</time>
      </trkpt>
      <trkpt lat="45.4896" lon="6.91322">
        <ele>2188.8</ele>
        <time>2021-05-04T08:31:47Z</time>
      </trkpt>
      <trkpt lat="45.4897" lon="6.91329">
        <ele>2188.8</ele>
        <time>2021-05-04T08:31:48Z</time>
      </trkpt>
      <trkpt lat="45.4898" lon="6.91336">
        <ele>2188.8</ele>
        <time>2021-05-04T08:31:49Z</time>
      </trkpt>
      <trkpt lat="45.48989" lon="6.91343">
        <ele>2165.8</ele>
        <time>2021-05-04T08:31:50Z</time>
      </trkpt>
      <trkpt lat="45.48998" lon="6.9135">
        <ele>2165.8</ele>
        <time>2021-05-04T08:31:51Z</time>
      </trkpt>
      <trkpt lat="45.49007" lon="6.91356">
        <ele>2165.8</ele>
        <time>2021-05-04T08:31:52Z</time>
      </trkpt>
      <trkpt lat="45.49016" lon="6.91362">
        <ele>2165.8</ele>
        <time>2021-05-04T08:31:53Z</time>
      </trkpt>
      <trkpt lat="45.49024" lon="6.91369">
        <ele>2165.8</ele>
        <time>2021-05-04T08:31:54Z</time>
      </trkpt>
      <trkpt lat="45.49031" lon="6.91375">
        <ele>2165.8</ele>
        <time>2021-05-04T08:31:55Z</time>
      </trkpt>
      <trkpt lat="45.49037" lon="6.91381">
        <ele>2165.8</ele>
        <time>2021-05-04T08:31:56Z</time>
      </trkpt>
      <trkpt lat="45.49043" lon="6.91384">
        <ele>2165.8</ele>
        <time>2021-05-04T08:31:57Z</time>
      </trkpt>
      <trkpt lat="45.49047" lon="6.91386">
        <ele>2165.8</ele>
        <time>2021-05-04T08:31:58Z</time>
      </trkpt>
      <trkpt lat="45.49052" lon="6.91387">
        <ele>2165.8</ele>
        <time>2021-05-04T08:31:59Z</time>
      </trkpt>
      <trkpt lat="45.49055" lon="6.91388">
        <ele>2162</ele>
        <time>2021-05-04T08:32:00Z</time>
      </trkpt>
      <trkpt lat="45.49058" lon="6.9139">
        <ele>2162</ele>
        <time>2021-05-04T08:32:01Z</time>
      </trkpt>
      <trkpt lat="45.4906" lon="6.91391">
        <ele>2162</ele>
        <time>2021-05-04T08:32:02Z</time>
      </trkpt>
      <trkpt lat="45.49062" lon="6.91392">
        <ele>2162</ele>
        <time>2021-05-04T08:32:03Z</time>
      </trkpt>
      <trkpt lat="45.49064" lon="6.91393">
        <ele>2162</ele>
        <time>2021-05-04T08:32:04Z</time>
      </trkpt>
      <trkpt lat="45.49066" lon="6.91394">
        <ele>2162</ele>
        <time>2021-05-04T08:32:05Z</time>
      </trkpt>
      <trkpt lat="45.49068" lon="6.91395">
        <ele>2162</ele>
        <time>2021-05-04T08:32:06Z</time>
      </trkpt>
      <trkpt lat="45.4907" lon="6.91397">
        <ele>2162</ele>
        <time>2021-05-04T08:32:07Z</time>
      </trkpt>
      <trkpt lat="45.49073" lon="6.91397">
        <ele>2162</ele>
        <time>2021-05-04T08:32:08Z</time>
      </trkpt>
      <trkpt lat="45.49074" lon="6.91399">
        <ele>2162</ele>
        <time>2021-05-04T08:32:09Z</time>
      </trkpt>
      <trkpt lat="45.49076" lon="6.914">
        <ele>2163.4</ele>
        <time>2021-05-04T08:32:10Z</time>
      </trkpt>
      <trkpt lat="45.49078" lon="6.91401">
        <ele>2163.4</ele>
        <time>2021-05-04T08:32:11Z</time>
      </trkpt>
      <trkpt lat="45.49081" lon="6.91402">
        <ele>2163.4</ele>
        <time>2021-05-04T08:32:12Z</time>
      </trkpt>
      <trkpt lat="45.49083" lon="6.91403">
        <ele>2163.4</ele>
        <time>2021-05-04T08:32:13Z</time>
      </trkpt>
      <trkpt lat="45.49086" lon="6.91404">
        <ele>2163.4</ele>
        <time>2021-05-04T08:32:14Z</time>
      </trkpt>
      <trkpt lat="45.49089" lon="6.91406">
        <ele>2163.4</ele>
        <time>2021-05-04T08:32:15Z</time>
      </trkpt>
      <trkpt lat="45.49092" lon="6.91407">
        <ele>2163.4</ele>
        <time>2021-05-04T08:32:16Z</time>
      </trkpt>
      <trkpt lat="45.49095" lon="6.91409">
        <ele>2163.4</ele>
        <time>2021-05-04T08:32:17Z</time>
      </trkpt>
      <trkpt lat="45.49099" lon="6.91411">
        <ele>2163.4</ele>
        <time>2021-05-04T08:32:18Z</time>
      </trkpt>
      <trkpt lat="45.49104" lon="6.91414">
        <ele>2163.4</ele>
        <time>2021-05-04T08:32:19Z</time>
      </trkpt>
      <trkpt lat="45.49108" lon="6.91416">
        <ele>2162.4</ele>
        <time>2021-05-04T08:32:20Z</time>
      </trkpt>
      <trkpt lat="45.49113" lon="6.9142">
        <ele>2162.4</ele>
        <time>2021-05-04T08:32:21Z</time>
      </trkpt>
      <trkpt lat="45.49118" lon="6.91424">
        <ele>2162.4</ele>
        <time>2021-05-04T08:32:22Z</time>
      </trkpt>
      <trkpt lat="45.49123" lon="6.91428">
        <ele>2162.4</ele>
        <time>2021-05-04T08:32:23Z</time>
      </trkpt>
      <trkpt lat="45.49128" lon="6.91433">
        <ele>2162.4</ele>
        <time>2021-05-04T08:32:24Z</time>
      </trkpt>
      <trkpt lat="45.49132" lon="6.91438">
        <ele>2162.4</ele>
        <time>2021-05-04T08:32:25Z</time>
      </trkpt>
      <trkpt lat="45.49138" lon="6.91442">
        <ele>2162.4</ele>
        <time>2021-05-04T08:32:26Z</time>
      </trkpt>
      <trkpt lat="45.49144" lon="6.91447">
        <ele>2162.4</ele>
        <time>2021-05-04T08:32:27Z</time>
      </trkpt>
      <trkpt lat="45.49149" lon="6.91449">
        <ele>2162.4</ele>
        <time>2021-05-04T08:32:28Z</time>
      </trkpt>
      <trkpt lat="45.49155" lon="6.91452">
        <ele>2162.4</ele>
        <time>2021-05-04T08:32:29Z</time>
      </trkpt>
      <trkpt lat="45.49159" lon="6.91454">
        <ele>2155.4</ele>
        <time>2021-05-04T08:32:30Z</time>
      </trkpt>
      <trkpt lat="45.49164" lon="6.91455">
        <ele>2155.4</ele>
        <time>2021-05-04T08:32:31Z</time>
      </trkpt>
      <trkpt lat="45.4917" lon="6.91458">
        <ele>2155.4</ele>
        <time>2021-05-04T08:32:32Z</time>
      </trkpt>
      <trkpt lat="45.49176" lon="6.91461">
        <ele>2155.4</ele>
        <time>2021-05-04T08:32:33Z</time>
      </trkpt>
      <trkpt lat="45.49182" lon="6.91465">
        <ele>2155.4</ele>
        <time>2021-05-04T08:32:34Z</time>
      </trkpt>
      <trkpt lat="45.49188" lon="6.91469">
        <ele>2155.4</ele>
        <time>2021-05-04T08:32:35Z</time>
      </trkpt>
      <trkpt lat="45.49193" lon="6.91472">
        <ele>2155.4</ele>
        <time>2021-05-04T08:32:36Z</time>
      </trkpt>
      <trkpt lat="45.49199" lon="6.91474">
        <ele>2155.4</ele>
        <time>2021-05-04T08:32:37Z</time>
      </trkpt>
      <trkpt lat="45.49205" lon="6.91477">
        <ele>2155.4</ele>
        <time>2021-05-04T08:32:38Z</time>
      </trkpt>
      <trkpt lat="45.49211" lon="6.91479">
        <ele>2155.4</ele>
        <time>2021-05-04T08:32:39Z</time>
      </trkpt>
      <trkpt lat="45.49216" lon="6.91482">
        <ele>2147.6</ele>
        <time>2021-05-04T08:32:40Z</time>
      </trkpt>
      <trkpt lat="45.49221" lon="6.91486">
        <ele>2147.6</ele>
        <time>2021-05-04T08:32:41Z</time>
      </trkpt>
      <trkpt lat="45.49226" lon="6.91492">
        <ele>2147.6</ele>
        <time>2021-05-04T08:32:42Z</time>
      </trkpt>
      <trkpt lat="45.4923" lon="6.91498">
        <ele>2147.6</ele>
        <time>2021-05-04T08:32:43Z</time>
      </trkpt>
      <trkpt lat="45.49234" lon="6.91503">
        <ele>2147.6</ele>
        <time>2021-05-04T08:32:44Z</time>
      </trkpt>
      <trkpt lat="45.49239" lon="6.91506">
        <ele>2147.6</ele>
        <time>2021-05-04T08:32:45Z</time>
      </trkpt>
      <trkpt lat="45.49245" lon="6.91508">
        <ele>2147.6</ele>
        <time>2021-05-04T08:32:46Z</time>
      </trkpt>
      <trkpt lat="45.49251" lon="6.91512">
        <ele>2147.6</ele>
        <time>2021-05-04T08:32:47Z</time>
      </trkpt>
      <trkpt lat="45.49256" lon="6.91517">
        <ele>2147.6</ele>
        <time>2021-05-04T08:32:48Z</time>
      </trkpt>
      <trkpt lat="45.4926" lon="6.91522">
        <ele>2147.6</ele>
        <time>2021-05-04T08:32:49Z</time>
      </trkpt>
      <trkpt lat="45.49264" lon="6.91528">
        <ele>2144</ele>
        <time>2021-05-04T08:32:50Z</time>
      </trkpt>
      <trkpt lat="45.49267" lon="6.91535">
        <ele>2144</ele>
        <time>2021-05-04T08:32:51Z</time>
      </trkpt>
      <trkpt lat="45.49268" lon="6.91542">
        <ele>2144</ele>
        <time>2021-05-04T08:32:52Z</time>
      </trkpt>
      <trkpt lat="45.49272" lon="6.91546">
        <ele>2144</ele>
        <time>2021-05-04T08:32:53Z</time>
      </trkpt>
      <trkpt lat="45.49276" lon="6.91548">
        <ele>2144</ele>
        <time>2021-05-04T08:32:54Z</time>
      </trkpt>
      <trkpt lat="45.49281" lon="6.9155">
        <ele>2144</ele>
        <time>2021-05-04T08:32:55Z</time>
      </trkpt>
      <trkpt lat="45.49284" lon="6.91553">
        <ele>2144</ele>
        <time>2021-05-04T08:32:56Z</time>
      </trkpt>
      <trkpt lat="45.49288" lon="6.91558">
        <ele>2144</ele>
        <time>2021-05-04T08:32:57Z</time>
      </trkpt>
      <trkpt lat="45.49293" lon="6.9156">
        <ele>2144</ele>
        <time>2021-05-04T08:32:58Z</time>
      </trkpt>
      <trkpt lat="45.49298" lon="6.9156">
        <ele>2144</ele>
        <time>2021-05-04T08:32:59Z</time>
      </trkpt>
      <trkpt lat="45.49302" lon="6.91557">
        <ele>2137.4</ele>
        <time>2021-05-04T08:33:00Z</time>
      </trkpt>
      <trkpt lat="45.49307" lon="6.91555">
        <ele>2137.4</ele>
        <time>2021-05-04T08:33:01Z</time>
      </trkpt>
      <trkpt lat="45.49311" lon="6.91556">
        <ele>2137.4</ele>
        <time>2021-05-04T08:33:02Z</time>
      </trkpt>
      <trkpt lat="45.49315" lon="6.91559">
        <ele>2137.4</ele>
        <time>2021-05-04T08:33:03Z</time>
      </trkpt>
      <trkpt lat="45.49318" lon="6.91562">
        <ele>2137.4</ele>
        <time>2021-05-04T08:33:04Z</time>
      </trkpt>
      <trkpt lat="45.49323" lon="6.91562">
        <ele>2137.4</ele>
        <time>2021-05-04T08:33:05Z</time>
      </trkpt>
      <trkpt lat="45.49327" lon="6.91566">
        <ele>2137.4</ele>
        <time>2021-05-04T08:33:06Z</time>
      </trkpt>
      <trkpt lat="45.49329" lon="6.9157">
        <ele>2137.4</ele>
        <time>2021-05-04T08:33:07Z</time>
      </trkpt>
      <trkpt lat="45.49332" lon="6.91573">
        <ele>2137.4</ele>
        <time>2021-05-04T08:33:08Z</time>
      </trkpt>
      <trkpt lat="45.49336" lon="6.91575">
        <ele>2137.4</ele>
        <time>2021-05-04T08:33:09Z</time>
      </trkpt>
      <trkpt lat="45.4934" lon="6.91577">
        <ele>2128.4</ele>
        <time>2021-05-04T08:33:10Z</time>
      </trkpt>
      <trkpt lat="45.49343" lon="6.91581">
        <ele>2128.4</ele>
        <time>2021-05-04T08:33:11Z</time>
      </trkpt>
      <trkpt lat="45.49345" lon="6.91587">
        <ele>2128.4</ele>
        <time>2021-05-04T08:33:12Z</time>
      </trkpt>
      <trkpt lat="45.49347" lon="6.91591">
        <ele>2128.4</ele>
        <time>2021-05-04T08:33:13Z</time>
      </trkpt>
      <trkpt lat="45.4935" lon="6.91594">
        <ele>2128.4</ele>
        <time>2021-05-04T08:33:14Z</time>
      </trkpt>
      <trkpt lat="45.49354" lon="6.91598">
        <ele>2128.4</ele>
        <time>2021-05-04T08:33:15Z</time>
      </trkpt>
      <trkpt lat="45.49357" lon="6.91603">
        <ele>2128.4</ele>
        <time>2021-05-04T08:33:16Z</time>
      </trkpt>
      <trkpt lat="45.4936" lon="6.91609">
        <ele>2128.4</ele>
        <time>2021-05-04T08:33:17Z</time>
      </trkpt>
      <trkpt lat="45.49361" lon="6.91616">
        <ele>2128.4</ele>
        <time>2021-05-04T08:33:18Z</time>
      </trkpt>
      <trkpt lat="45.49361" lon="6.91622">
        <ele>2128.4</ele>
        <time>2021-05-04T08:33:19Z</time>
      </trkpt>
      <trkpt lat="45.49359" lon="6.91627">
        <ele>2118.2</ele>
        <time>2021-05-04T08:33:20Z</time>
      </trkpt>
      <trkpt lat="45.49358" lon="6.91632">
        <ele>2118.2</ele>
        <time>2021-05-04T08:33:21Z</time>
      </trkpt>
      <trkpt lat="45.49357" lon="6.91639">
        <ele>2118.2</ele>
        <time>2021-05-04T08:33:22Z</time>
      </trkpt>
      <trkpt lat="45.49355" lon="6.91646">
        <ele>2118.2</ele>
        <time>2021-05-04T08:33:23Z</time>
      </trkpt>
      <trkpt lat="45.49353" lon="6.91652">
        <ele>2118.2</ele>
        <time>2021-05-04T08:33:24Z</time>
      </trkpt>
      <trkpt lat="45.4935" lon="6.91658">
        <ele>2118.2</ele>
        <time>2021-05-04T08:33:25Z</time>
      </trkpt>
      <trkpt lat="45.49348" lon="6.91664">
        <ele>2118.2</ele>
        <time>2021-05-04T08:33:26Z</time>
      </trkpt>
      <trkpt lat="45.49346" lon="6.9167">
        <ele>2118.2</ele>
        <time>2021-05-04T08:33:27Z</time>
      </trkpt>
      <trkpt lat="45.49343" lon="6.91676">
        <ele>2118.2</ele>
        <time>2021-05-04T08:33:28Z</time>
      </trkpt>
      <trkpt lat="45.49341" lon="6.91681">
        <ele>2118.2</ele>
        <time>2021-05-04T08:33:29Z</time>
      </trkpt>
      <trkpt lat="45.49341" lon="6.91688">
        <ele>2108.2</ele>
        <time>2021-05-04T08:33:30Z</time>
      </trkpt>
      <trkpt lat="45.49341" lon="6.91697">
        <ele>2108.2</ele>
        <time>2021-05-04T08:33:31Z</time>
      </trkpt>
      <trkpt lat="45.49341" lon="6.91705">
        <ele>2108.2</ele>
        <time>2021-05-04T08:33:32Z</time>
      </trkpt>
      <trkpt lat="45.4934" lon="6.91713">
        <ele>2108.2</ele>
        <time>2021-05-04T08:33:33Z</time>
      </trkpt>
      <trkpt lat="45.49339" lon="6.91722">
        <ele>2108.2</ele>
        <time>2021-05-04T08:33:34Z</time>
      </trkpt>
      <trkpt lat="45.49338" lon="6.9173">
        <ele>2108.2</ele>
        <time>2021-05-04T08:33:35Z</time>
      </trkpt>
      <trkpt lat="45.49337" lon="6.9174">
        <ele>2108.2</ele>
        <time>2021-05-04T08:33:36Z</time>
      </trkpt>
      <trkpt lat="45.49337" lon="6.9175">
        <ele>2108.2</ele>
        <time>2021-05-04T08:33:37Z</time>
      </trkpt>
      <trkpt lat="45.49337" lon="6.91761">
        <ele>2108.2</ele>
        <time>2021-05-04T08:33:38Z</time>
      </trkpt>
      <trkpt lat="45.49336" lon="6.91773">
        <ele>2108.2</ele>
        <time>2021-05-04T08:33:39Z</time>
      </trkpt>
      <trkpt lat="45.49335" lon="6.91784">
        <ele>2096.2</ele>
        <time>2021-05-04T08:33:40Z</time>
      </trkpt>
      <trkpt lat="45.49331" lon="6.91795">
        <ele>2096.2</ele>
        <time>2021-05-04T08:33:41Z</time>
      </trkpt>
      <trkpt lat="45.49326" lon="6.91802">
        <ele>2096.2</ele>
        <time>2021-05-04T08:33:42Z</time>
      </trkpt>
      <trkpt lat="45.49322" lon="6.91808">
        <ele>2096.2</ele>
        <time>2021-05-04T08:33:43Z</time>
      </trkpt>
      <trkpt lat="45.49318" lon="6.91814">
        <ele>2096.2</ele>
        <time>2021-05-04T08:33:44Z</time>
      </trkpt>
      <trkpt lat="45.49314" lon="6.91821">
        <ele>2096.2</ele>
        <time>2021-05-04T08:33:45Z</time>
      </trkpt>
      <trkpt lat="45.4931" lon="6.91828">
        <ele>2096.2</ele>
        <time>2021-05-04T08:33:46Z</time>
      </trkpt>
      <trkpt lat="45.49307" lon="6.91836">
        <ele>2096.2</ele>
        <time>2021-05-04T08:33:47Z</time>
      </trkpt>
      <trkpt lat="45.49302" lon="6.91843">
        <ele>2096.2</ele>
        <time>2021-05-04T08:33:48Z</time>
      </trkpt>
      <trkpt lat="45.49297" lon="6.9185">
        <ele>2096.2</ele>
        <time>2021-05-04T08:33:49Z</time>
      </trkpt>
      <trkpt lat="45.49293" lon="6.91858">
        <ele>2090</ele>
        <time>2021-05-04T08:33:50Z</time>
      </trkpt>
      <trkpt lat="45.49288" lon="6.91865">
        <ele>2090</ele>
        <time>2021-05-04T08:33:51Z</time>
      </trkpt>
      <trkpt lat="45.49283" lon="6.91872">
        <ele>2090</ele>
        <time>2021-05-04T08:33:52Z</time>
      </trkpt>
      <trkpt lat="45.49278" lon="6.91878">
        <ele>2090</ele>
        <time>2021-05-04T08:33:53Z</time>
      </trkpt>
      <trkpt lat="45.49272" lon="6.91886">
        <ele>2090</ele>
        <time>2021-05-04T08:33:54Z</time>
      </trkpt>
      <trkpt lat="45.49268" lon="6.91893">
        <ele>2090</ele>
        <time>2021-05-04T08:33:55Z</time>
      </trkpt>
      <trkpt lat="45.49264" lon="6.91899">
        <ele>2090</ele>
        <time>2021-05-04T08:33:56Z</time>
      </trkpt>
      <trkpt lat="45.49259" lon="6.91905">
        <ele>2090</ele>
        <time>2021-05-04T08:33:57Z</time>
      </trkpt>
      <trkpt lat="45.49253" lon="6.91911">
        <ele>2090</ele>
        <time>2021-05-04T08:33:58Z</time>
      </trkpt>
      <trkpt lat="45.4925" lon="6.91915">
        <ele>2090</ele>
        <time>2021-05-04T08:33:59Z</time>
      </trkpt>
      <trkpt lat="45.49246" lon="6.9192">
        <ele>2089.6</ele>
        <time>2021-05-04T08:34:00Z</time>
      </trkpt>
      <trkpt lat="45.49243" lon="6.91926">
        <ele>2089.6</ele>
        <time>2021-05-04T08:34:01Z</time>
      </trkpt>
      <trkpt lat="45.49239" lon="6.9193">
        <ele>2089.6</ele>
        <time>2021-05-04T08:34:02Z</time>
      </trkpt>
      <trkpt lat="45.49236" lon="6.91934">
        <ele>2089.6</ele>
        <time>2021-05-04T08:34:03Z</time>
      </trkpt>
      <trkpt lat="45.49231" lon="6.91939">
        <ele>2089.6</ele>
        <time>2021-05-04T08:34:04Z</time>
      </trkpt>
      <trkpt lat="45.49229" lon="6.91944">
        <ele>2089.6</ele>
        <time>2021-05-04T08:34:05Z</time>
      </trkpt>
      <trkpt lat="45.49224" lon="6.9195">
        <ele>2089.6</ele>
        <time>2021-05-04T08:34:06Z</time>
      </trkpt>
      <trkpt lat="45.49221" lon="6.91954">
        <ele>2089.6</ele>
        <time>2021-05-04T08:34:07Z</time>
      </trkpt>
      <trkpt lat="45.49216" lon="6.91961">
        <ele>2089.6</ele>
        <time>2021-05-04T08:34:08Z</time>
      </trkpt>
      <trkpt lat="45.49213" lon="6.91965">
        <ele>2089.6</ele>
        <time>2021-05-04T08:34:09Z</time>
      </trkpt>
      <trkpt lat="45.4921" lon="6.91969">
        <ele>2085.4</ele>
        <time>2021-05-04T08:34:10Z</time>
      </trkpt>
      <trkpt lat="45.49206" lon="6.91973">
        <ele>2085.4</ele>
        <time>2021-05-04T08:34:11Z</time>
      </trkpt>
      <trkpt lat="45.49202" lon="6.91976">
        <ele>2085.4</ele>
        <time>2021-05-04T08:34:12Z</time>
      </trkpt>
      <trkpt lat="45.49198" lon="6.9198">
        <ele>2085.4</ele>
        <time>2021-05-04T08:34:13Z</time>
      </trkpt>
      <trkpt lat="45.49194" lon="6.91984">
        <ele>2085.4</ele>
        <time>2021-05-04T08:34:14Z</time>
      </trkpt>
      <trkpt lat="45.49191" lon="6.91988">
        <ele>2085.4</ele>
        <time>2021-05-04T08:34:15Z</time>
      </trkpt>
      <trkpt lat="45.49187" lon="6.91991">
        <ele>2085.4</ele>
        <time>2021-05-04T08:34:16Z</time>
      </trkpt>
      <trkpt lat="45.49183" lon="6.91994">
        <ele>2085.4</ele>
        <time>2021-05-04T08:34:17Z</time>
      </trkpt>
      <trkpt lat="45.4918" lon="6.91997">
        <ele>2085.4</ele>
        <time>2021-05-04T08:34:18Z</time>
      </trkpt>
      <trkpt lat="45.49176" lon="6.92">
        <ele>2085.4</ele>
        <time>2021-05-04T08:34:19Z</time>
      </trkpt>
      <trkpt lat="45.49172" lon="6.92002">
        <ele>2075.8</ele>
        <time>2021-05-04T08:34:20Z</time>
      </trkpt>
      <trkpt lat="45.49168" lon="6.92004">
        <ele>2075.8</ele>
        <time>2021-05-04T08:34:21Z</time>
      </trkpt>
      <trkpt lat="45.49164" lon="6.92007">
        <ele>2075.8</ele>
        <time>2021-05-04T08:34:22Z</time>
      </trkpt>
      <trkpt lat="45.49161" lon="6.9201">
        <ele>2075.8</ele>
        <time>2021-05-04T08:34:23Z</time>
      </trkpt>
      <trkpt lat="45.49157" lon="6.92012">
        <ele>2075.8</ele>
        <time>2021-05-04T08:34:24Z</time>
      </trkpt>
      <trkpt lat="45.49153" lon="6.92016">
        <ele>2075.8</ele>
        <time>2021-05-04T08:34:25Z</time>
      </trkpt>
      <trkpt lat="45.49148" lon="6.92018">
        <ele>2075.8</ele>
        <time>2021-05-04T08:34:26Z</time>
      </trkpt>
      <trkpt lat="45.49142" lon="6.9202">
        <ele>2075.8</ele>
        <time>2021-05-04T08:34:27Z</time>
      </trkpt>
      <trkpt lat="45.49136" lon="6.92022">
        <ele>2075.8</ele>
        <time>2021-05-04T08:34:28Z</time>
      </trkpt>
      <trkpt lat="45.4913" lon="6.92024">
        <ele>2075.8</ele>
        <time>2021-05-04T08:34:29Z</time>
      </trkpt>
      <trkpt lat="45.49123" lon="6.92028">
        <ele>2071.6</ele>
        <time>2021-05-04T08:34:30Z</time>
      </trkpt>
      <trkpt lat="45.49117" lon="6.92032">
        <ele>2071.6</ele>
        <time>2021-05-04T08:34:31Z</time>
      </trkpt>
      <trkpt lat="45.4911" lon="6.92038">
        <ele>2071.6</ele>
        <time>2021-05-04T08:34:32Z</time>
      </trkpt>
      <trkpt lat="45.49104" lon="6.92043">
        <ele>2071.6</ele>
        <time>2021-05-04T08:34:33Z</time>
      </trkpt>
      <trkpt lat="45.49098" lon="6.92049">
        <ele>2071.6</ele>
        <time>2021-05-04T08:34:34Z</time>
      </trkpt>
      <trkpt lat="45.49092" lon="6.92056">
        <ele>2071.6</ele>
        <time>2021-05-04T08:34:35Z</time>
      </trkpt>
      <trkpt lat="45.49086" lon="6.92064">
        <ele>2071.6</ele>
        <time>2021-05-04T08:34:36Z</time>
      </trkpt>
      <trkpt lat="45.49081" lon="6.92072">
        <ele>2071.6</ele>
        <time>2021-05-04T08:34:37Z</time>
      </trkpt>
      <trkpt lat="45.49078" lon="6.92081">
        <ele>2071.6</ele>
        <time>2021-05-04T08:34:38Z</time>
      </trkpt>
      <trkpt lat="45.49075" lon="6.92091">
        <ele>2071.6</ele>
        <time>2021-05-04T08:34:39Z</time>
      </trkpt>
      <trkpt lat="45.49072" lon="6.92099">
        <ele>2064.2</ele>
        <time>2021-05-04T08:34:40Z</time>
      </trkpt>
      <trkpt lat="45.4907" lon="6.92108">
        <ele>2064.2</ele>
        <time>2021-05-04T08:34:41Z</time>
      </trkpt>
      <trkpt lat="45.49069" lon="6.92116">
        <ele>2064.2</ele>
        <time>2021-05-04T08:34:42Z</time>
      </trkpt>
      <trkpt lat="45.49067" lon="6.92125">
        <ele>2064.2</ele>
        <time>2021-05-04T08:34:43Z</time>
      </trkpt>
      <trkpt lat="45.49063" lon="6.92132">
        <ele>2064.2</ele>
        <time>2021-05-04T08:34:44Z</time>
      </trkpt>
      <trkpt lat="45.49061" lon="6.9214">
        <ele>2064.2</ele>
        <time>2021-05-04T08:34:45Z</time>
      </trkpt>
      <trkpt lat="45.4906" lon="6.92149">
        <ele>2064.2</ele>
        <time>2021-05-04T08:34:46Z</time>
      </trkpt>
      <trkpt lat="45.49057" lon="6.92156">
        <ele>2064.2</ele>
        <time>2021-05-04T08:34:47Z</time>
      </trkpt>
      <trkpt lat="45.49055" lon="6.92163">
        <ele>2064.2</ele>
        <time>2021-05-04T08:34:48Z</time>
      </trkpt>
      <trkpt lat="45.49052" lon="6.92169">
        <ele>2064.2</ele>
        <time>2021-05-04T08:34:49Z</time>
      </trkpt>
      <trkpt lat="45.49049" lon="6.92175">
        <ele>2052.2</ele>
        <time>2021-05-04T08:34:50Z</time>
      </trkpt>
      <trkpt lat="45.49047" lon="6.92181">
        <ele>2052.2</ele>
        <time>2021-05-04T08:34:51Z</time>
      </trkpt>
      <trkpt lat="45.49044" lon="6.92189">
        <ele>2052.2</ele>
        <time>2021-05-04T08:34:52Z</time>
      </trkpt>
      <trkpt lat="45.49042" lon="6.92196">
        <ele>2052.2</ele>
        <time>2021-05-04T08:34:53Z</time>
      </trkpt>
      <trkpt lat="45.49041" lon="6.92203">
        <ele>2052.2</ele>
        <time>2021-05-04T08:34:54Z</time>
      </trkpt>
      <trkpt lat="45.49039" lon="6.9221">
        <ele>2052.2</ele>
        <time>2021-05-04T08:34:55Z</time>
      </trkpt>
      <trkpt lat="45.49037" lon="6.92217">
        <ele>2052.2</ele>
        <time>2021-05-04T08:34:56Z</time>
      </trkpt>
      <trkpt lat="45.49037" lon="6.92227">
        <ele>2052.2</ele>
        <time>2021-05-04T08:34:57Z</time>
      </trkpt>
      <trkpt lat="45.49038" lon="6.92233">
        <ele>2052.2</ele>
        <time>2021-05-04T08:34:58Z</time>
      </trkpt>
      <trkpt lat="45.4904" lon="6.92239">
        <ele>2052.2</ele>
        <time>2021-05-04T08:34:59Z</time>
      </trkpt>
      <trkpt lat="45.49043" lon="6.92241">
        <ele>2039.2</ele>
        <time>2021-05-04T08:35:00Z</time>
      </trkpt>
      <trkpt lat="45.49045" lon="6.92239">
        <ele>2039.2</ele>
        <time>2021-05-04T08:35:01Z</time>
      </trkpt>
      <trkpt lat="45.49049" lon="6.92239">
        <ele>2039.2</ele>
        <time>2021-05-04T08:35:02Z</time>
      </trkpt>
      <trkpt lat="45.49052" lon="6.92241">
        <ele>2039.2</ele>
        <time>2021-05-04T08:35:03Z</time>
      </trkpt>
      <trkpt lat="45.49056" lon="6.92241">
        <ele>2039.2</ele>
        <time>2021-05-04T08:35:04Z</time>
      </trkpt>
      <trkpt lat="45.49059" lon="6.9224">
        <ele>2039.2</ele>
        <time>2021-05-04T08:35:05Z</time>
      </trkpt>
      <trkpt lat="45.49062" lon="6.9224">
        <ele>2039.2</ele>
        <time>2021-05-04T08:35:06Z</time>
      </trkpt>
      <trkpt lat="45.49066" lon="6.92239">
        <ele>2039.2</ele>
        <time>2021-05-04T08:35:07Z</time>
      </trkpt>
      <trkpt lat="45.4907" lon="6.92237">
        <ele>2039.2</ele>
        <time>2021-05-04T08:35:08Z</time>
      </trkpt>
      <trkpt lat="45.49074" lon="6.92235">
        <ele>2039.2</ele>
        <time>2021-05-04T08:35:09Z</time>
      </trkpt>
      <trkpt lat="45.49077" lon="6.92231">
        <ele>2024.6</ele>
        <time>2021-05-04T08:35:10Z</time>
      </trkpt>
      <trkpt lat="45.4908" lon="6.92227">
        <ele>2024.6</ele>
        <time>2021-05-04T08:35:11Z</time>
      </trkpt>
      <trkpt lat="45.49083" lon="6.92222">
        <ele>2024.6</ele>
        <time>2021-05-04T08:35:12Z</time>
      </trkpt>
      <trkpt lat="45.49085" lon="6.92217">
        <ele>2024.6</ele>
        <time>2021-05-04T08:35:13Z</time>
      </trkpt>
      <trkpt lat="45.49088" lon="6.92213">
        <ele>2024.6</ele>
        <time>2021-05-04T08:35:14Z</time>
      </trkpt>
      <trkpt lat="45.4909" lon="6.92209">
        <ele>2024.6</ele>
        <time>2021-05-04T08:35:15Z</time>
      </trkpt>
      <trkpt lat="45.49092" lon="6.92206">
        <ele>2024.6</ele>
        <time>2021-05-04T08:35:16Z</time>
      </trkpt>
      <trkpt lat="45.49094" lon="6.92202">
        <ele>2024.6</ele>
        <time>2021-05-04T08:35:17Z</time>
      </trkpt>
      <trkpt lat="45.49097" lon="6.92198">
        <ele>2024.6</ele>
        <time>2021-05-04T08:35:18Z</time>
      </trkpt>
      <trkpt lat="45.49099" lon="6.92195">
        <ele>2024.6</ele>
        <time>2021-05-04T08:35:19Z</time>
      </trkpt>
      <trkpt lat="45.49103" lon="6.92192">
        <ele>2012.8</ele>
        <time>2021-05-04T08:35:20Z</time>
      </trkpt>
      <trkpt lat="45.49107" lon="6.92189">
        <ele>2012.8</ele>
        <time>2021-05-04T08:35:21Z</time>
      </trkpt>
      <trkpt lat="45.49111" lon="6.92187">
        <ele>2012.8</ele>
        <time>2021-05-04T08:35:22Z</time>
      </trkpt>
      <trkpt lat="45.49115" lon="6.92184">
        <ele>2012.8</ele>
        <time>2021-05-04T08:35:23Z</time>
      </trkpt>
      <trkpt lat="45.49119" lon="6.92181">
        <ele>2012.8</ele>
        <time>2021-05-04T08:35:24Z</time>
      </trkpt>
      <trkpt lat="45.49123" lon="6.92179">
        <ele>2012.8</ele>
        <time>2021-05-04T08:35:25Z</time>
      </trkpt>
      <trkpt lat="45.49126" lon="6.92176">
        <ele>2012.8</ele>
        <time>2021-05-04T08:35:26Z</time>
      </trkpt>
      <trkpt lat="45.4913" lon="6.92174">
        <ele>2012.8</ele>
        <time>2021-05-04T08:35:27Z</time>
      </trkpt>
      <trkpt lat="45.49133" lon="6.92172">
        <ele>2012.8</ele>
        <time>2021-05-04T08:35:28Z</time>
      </trkpt>
      <trkpt lat="45.49136" lon="6.9217">
        <ele>2012.8</ele>
        <time>2021-05-04T08:35:29Z</time>
      </trkpt>
      <trkpt lat="45.4914" lon="6.92169">
        <ele>2001</ele>
        <time>2021-05-04T08:35:30Z</time>
      </trkpt>
      <trkpt lat="45.49142" lon="6.92167">
        <ele>2001</ele>
        <time>2021-05-04T08:35:31Z</time>
      </trkpt>
      <trkpt lat="45.49146" lon="6.92164">
        <ele>2001</ele>
        <time>2021-05-04T08:35:32Z</time>
      </trkpt>
      <trkpt lat="45.49148" lon="6.92163">
        <ele>2001</ele>
        <time>2021-05-04T08:35:33Z</time>
      </trkpt>
      <trkpt lat="45.49152" lon="6.92162">
        <ele>2001</ele>
        <time>2021-05-04T08:35:34Z</time>
      </trkpt>
      <trkpt lat="45.49156" lon="6.9216">
        <ele>2001</ele>
        <time>2021-05-04T08:35:35Z</time>
      </trkpt>
      <trkpt lat="45.4916" lon="6.92158">
        <ele>2001</ele>
        <time>2021-05-04T08:35:36Z</time>
      </trkpt>
      <trkpt lat="45.49165" lon="6.92156">
        <ele>2001</ele>
        <time>2021-05-04T08:35:37Z</time>
      </trkpt>
      <trkpt lat="45.49169" lon="6.92156">
        <ele>2001</ele>
        <time>2021-05-04T08:35:38Z</time>
      </trkpt>
      <trkpt lat="45.49173" lon="6.92156">
        <ele>2001</ele>
        <time>2021-05-04T08:35:39Z</time>
      </trkpt>
      <trkpt lat="45.49177" lon="6.92155">
        <ele>1989.8</ele>
        <time>2021-05-04T08:35:40Z</time>
      </trkpt>
      <trkpt lat="45.49182" lon="6.92156">
        <ele>1989.8</ele>
        <time>2021-05-04T08:35:41Z</time>
      </trkpt>
      <trkpt lat="45.49186" lon="6.92155">
        <ele>1989.8</ele>
        <time>2021-05-04T08:35:42Z</time>
      </trkpt>
      <trkpt lat="45.49189" lon="6.92153">
        <ele>1989.8</ele>
        <time>2021-05-04T08:35:43Z</time>
      </trkpt>
      <trkpt lat="45.49193" lon="6.92153">
        <ele>1989.8</ele>
        <time>2021-05-04T08:35:44Z</time>
      </trkpt>
      <trkpt lat="45.49196" lon="6.92154">
        <ele>1989.8</ele>
        <time>2021-05-04T08:35:45Z</time>
      </trkpt>
      <trkpt lat="45.492" lon="6.92154">
        <ele>1989.8</ele>
        <time>2021-05-04T08:35:46Z</time>
      </trkpt>
      <trkpt lat="45.49203" lon="6.92155">
        <ele>1989.8</ele>
        <time>2021-05-04T08:35:47Z</time>
      </trkpt>
      <trkpt lat="45.49206" lon="6.92156">
        <ele>1989.8</ele>
        <time>2021-05-04T08:35:48Z</time>
      </trkpt>
      <trkpt lat="45.4921" lon="6.92156">
        <ele>1989.8</ele>
        <time>2021-05-04T08:35:49Z</time>
      </trkpt>
      <trkpt lat="45.49214" lon="6.92156">
        <ele>1976.4</ele>
        <time>2021-05-04T08:35:50Z</time>
      </trkpt>
      <trkpt lat="45.49218" lon="6.92156">
        <ele>1976.4</ele>
        <time>2021-05-04T08:35:51Z</time>
      </trkpt>
      <trkpt lat="45.49221" lon="6.92156">
        <ele>1976.4</ele>
        <time>2021-05-04T08:35:52Z</time>
      </trkpt>
      <trkpt lat="45.49225" lon="6.92156">
        <ele>1976.4</ele>
        <time>2021-05-04T08:35:53Z</time>
      </trkpt>
      <trkpt lat="45.49228" lon="6.92156">
        <ele>1976.4</ele>
        <time>2021-05-04T08:35:54Z</time>
      </trkpt>
      <trkpt lat="45.49233" lon="6.92155">
        <ele>1976.4</ele>
        <time>2021-05-04T08:35:55Z</time>
      </trkpt>
      <trkpt lat="45.49236" lon="6.92155">
        <ele>1976.4</ele>
        <time>2021-05-04T08:35:56Z</time>
      </trkpt>
      <trkpt lat="45.4924" lon="6.92156">
        <ele>1976.4</ele>
        <time>2021-05-04T08:35:57Z</time>
      </trkpt>
      <trkpt lat="45.49243" lon="6.92156">
        <ele>1976.4</ele>
        <time>2021-05-04T08:35:58Z</time>
      </trkpt>
      <trkpt lat="45.49247" lon="6.92157">
        <ele>1976.4</ele>
        <time>2021-05-04T08:35:59Z</time>
      </trkpt>
      <trkpt lat="45.49251" lon="6.92158">
        <ele>1963.4</ele>
        <time>2021-05-04T08:36:00Z</time>
      </trkpt>
      <trkpt lat="45.49254" lon="6.92158">
        <ele>1963.4</ele>
        <time>2021-05-04T08:36:01Z</time>
      </trkpt>
      <trkpt lat="45.49259" lon="6.92158">
        <ele>1963.4</ele>
        <time>2021-05-04T08:36:02Z</time>
      </trkpt>
      <trkpt lat="45.49262" lon="6.92158">
        <ele>1963.4</ele>
        <time>2021-05-04T08:36:03Z</time>
      </trkpt>
      <trkpt lat="45.49266" lon="6.92157">
        <ele>1963.4</ele>
        <time>2021-05-04T08:36:04Z</time>
      </trkpt>
      <trkpt lat="45.4927" lon="6.92157">
        <ele>1963.4</ele>
        <time>2021-05-04T08:36:05Z</time>
      </trkpt>
      <trkpt lat="45.49274" lon="6.92157">
        <ele>1963.4</ele>
        <time>2021-05-04T08:36:06Z</time>
      </trkpt>
      <trkpt lat="45.49277" lon="6.92157">
        <ele>1963.4</ele>
        <time>2021-05-04T08:36:07Z</time>
      </trkpt>
      <trkpt lat="45.4928" lon="6.92157">
        <ele>1963.4</ele>
        <time>2021-05-04T08:36:08Z</time>
      </trkpt>
      <trkpt lat="45.49283" lon="6.92156">
        <ele>1963.4</ele>
        <time>2021-05-04T08:36:09Z</time>
      </trkpt>
      <trkpt lat="45.49286" lon="6.92155">
        <ele>1952</ele>
        <time>2021-05-04T08:36:10Z</time>
      </trkpt>
      <trkpt lat="45.49289" lon="6.92154">
        <ele>1952</ele>
        <time>2021-05-04T08:36:11Z</time>
      </trkpt>
      <trkpt lat="45.49293" lon="6.92152">
        <ele>1952</ele>
        <time>2021-05-04T08:36:12Z</time>
      </trkpt>
      <trkpt lat="45.49297" lon="6.9215">
        <ele>1952</ele>
        <time>2021-05-04T08:36:13Z</time>
      </trkpt>
      <trkpt lat="45.49301" lon="6.9215">
        <ele>1952</ele>
        <time>2021-05-04T08:36:14Z</time>
      </trkpt>
      <trkpt lat="45.49304" lon="6.92148">
        <ele>1952</ele>
        <time>2021-05-04T08:36:15Z</time>
      </trkpt>
      <trkpt lat="45.49306" lon="6.92146">
        <ele>1952</ele>
        <time>2021-05-04T08:36:16Z</time>
      </trkpt>
      <trkpt lat="45.49308" lon="6.92144">
        <ele>1952</ele>
        <time>2021-05-04T08:36:17Z</time>
      </trkpt>
      <trkpt lat="45.49313" lon="6.92144">
        <ele>1952</ele>
        <time>2021-05-04T08:36:18Z</time>
      </trkpt>
      <trkpt lat="45.49316" lon="6.92144">
        <ele>1952</ele>
        <time>2021-05-04T08:36:19Z</time>
      </trkpt>
      <trkpt lat="45.4932" lon="6.92143">
        <ele>1945</ele>
        <time>2021-05-04T08:36:20Z</time>
      </trkpt>
      <trkpt lat="45.49325" lon="6.92142">
        <ele>1945</ele>
        <time>2021-05-04T08:36:21Z</time>
      </trkpt>
      <trkpt lat="45.49329" lon="6.92141">
        <ele>1945</ele>
        <time>2021-05-04T08:36:22Z</time>
      </trkpt>
      <trkpt lat="45.49332" lon="6.9214">
        <ele>1945</ele>
        <time>2021-05-04T08:36:23Z</time>
      </trkpt>
      <trkpt lat="45.49335" lon="6.92139">
        <ele>1945</ele>
        <time>2021-05-04T08:36:24Z</time>
      </trkpt>
      <trkpt lat="45.4934" lon="6.92137">
        <ele>1945</ele>
        <time>2021-05-04T08:36:25Z</time>
      </trkpt>
      <trkpt lat="45.49345" lon="6.92136">
        <ele>1945</ele>
        <time>2021-05-04T08:36:26Z</time>
      </trkpt>
      <trkpt lat="45.49349" lon="6.92135">
        <ele>1945</ele>
        <time>2021-05-04T08:36:27Z</time>
      </trkpt>
      <trkpt lat="45.49353" lon="6.92134">
        <ele>1945</ele>
        <time>2021-05-04T08:36:28Z</time>
      </trkpt>
      <trkpt lat="45.49356" lon="6.92133">
        <ele>1945</ele>
        <time>2021-05-04T08:36:29Z</time>
      </trkpt>
      <trkpt lat="45.4936" lon="6.92132">
        <ele>1934.4</ele>
        <time>2021-05-04T08:36:30Z</time>
      </trkpt>
      <trkpt lat="45.49364" lon="6.92132">
        <ele>1934.4</ele>
        <time>2021-05-04T08:36:31Z</time>
      </trkpt>
      <trkpt lat="45.49368" lon="6.92131">
        <ele>1934.4</ele>
        <time>2021-05-04T08:36:32Z</time>
      </trkpt>
      <trkpt lat="45.49372" lon="6.9213">
        <ele>1934.4</ele>
        <time>2021-05-04T08:36:33Z</time>
      </trkpt>
      <trkpt lat="45.49375" lon="6.9213">
        <ele>1934.4</ele>
        <time>2021-05-04T08:36:34Z</time>
      </trkpt>
      <trkpt lat="45.49378" lon="6.92129">
        <ele>1934.4</ele>
        <time>2021-05-04T08:36:35Z</time>
      </trkpt>
      <trkpt lat="45.49382" lon="6.92127">
        <ele>1934.4</ele>
        <time>2021-05-04T08:36:36Z</time>
      </trkpt>
      <trkpt lat="45.49385" lon="6.92127">
        <ele>1934.4</ele>
        <time>2021-05-04T08:36:37Z</time>
      </trkpt>
      <trkpt lat="45.49389" lon="6.92126">
        <ele>1934.4</ele>
        <time>2021-05-04T08:36:38Z</time>
      </trkpt>
      <trkpt lat="45.49393" lon="6.92126">
        <ele>1934.4</ele>
        <time>2021-05-04T08:36:39Z</time>
      </trkpt>
      <trkpt lat="45.49396" lon="6.92126">
        <ele>1928.6</ele>
        <time>2021-05-04T08:36:40Z</time>
      </trkpt>
      <trkpt lat="45.494" lon="6.92126">
        <ele>1928.6</ele>
        <time>2021-05-04T08:36:41Z</time>
      </trkpt>
      <trkpt lat="45.49404" lon="6.92125">
        <ele>1928.6</ele>
        <time>2021-05-04T08:36:42Z</time>
      </trkpt>
      <trkpt lat="45.49406" lon="6.92124">
        <ele>1928.6</ele>
        <time>2021-05-04T08:36:43Z</time>
      </trkpt>
      <trkpt lat="45.49409" lon="6.92123">
        <ele>1928.6</ele>
        <time>2021-05-04T08:36:44Z</time>
      </trkpt>
      <trkpt lat="45.49412" lon="6.92123">
        <ele>1928.6</ele>
        <time>2021-05-04T08:36:45Z</time>
      </trkpt>
      <trkpt lat="45.49415" lon="6.92123">
        <ele>1928.6</ele>
        <time>2021-05-04T08:36:46Z</time>
      </trkpt>
      <trkpt lat="45.49418" lon="6.92122">
        <ele>1928.6</ele>
        <time>2021-05-04T08:36:48Z</time>
      </trkpt>
      <trkpt lat="45.49421" lon="6.92122">
        <ele>1916.8</ele>
        <time>2021-05-04T08:36:50Z</time>
      </trkpt>
      <trkpt lat="45.49423" lon="6.92122">
        <ele>1916.8</ele>
        <time>2021-05-04T08:36:51Z</time>
      </trkpt>
      <trkpt lat="45.49426" lon="6.92122">
        <ele>1916.8</ele>
        <time>2021-05-04T08:36:53Z</time>
      </trkpt>
      <trkpt lat="45.49428" lon="6.92124">
        <ele>1916.8</ele>
        <time>2021-05-04T08:36:54Z</time>
      </trkpt>
      <trkpt lat="45.49428" lon="6.92128">
        <ele>1916.8</ele>
        <time>2021-05-04T08:36:56Z</time>
      </trkpt>
      <trkpt lat="45.49429" lon="6.92132">
        <ele>1916.8</ele>
        <time>2021-05-04T08:36:58Z</time>
      </trkpt>
      <trkpt lat="45.49431" lon="6.92136">
        <ele>1903.6</ele>
        <time>2021-05-04T08:37:00Z</time>
      </trkpt>
      <trkpt lat="45.49432" lon="6.9214">
        <ele>1903.6</ele>
        <time>2021-05-04T08:37:02Z</time>
      </trkpt>
      <trkpt lat="45.49432" lon="6.92143">
        <ele>1903.6</ele>
        <time>2021-05-04T08:37:04Z</time>
      </trkpt>
      <trkpt lat="45.49432" lon="6.92146">
        <ele>1903.6</ele>
        <time>2021-05-04T08:37:07Z</time>
      </trkpt>
      <trkpt lat="45.4943" lon="6.92149">
        <ele>1903.6</ele>
        <time>2021-05-04T08:37:09Z</time>
      </trkpt>
      <trkpt lat="45.49428" lon="6.92154">
        <ele>1903.6</ele>
        <time>2021-05-04T08:37:11Z</time>
      </trkpt>
      <trkpt lat="45.49426" lon="6.92156">
        <ele>1903.6</ele>
        <time>2021-05-04T08:37:12Z</time>
      </trkpt>
      <trkpt lat="45.49425" lon="6.92159">
        <ele>1903.6</ele>
        <time>2021-05-04T08:37:14Z</time>
      </trkpt>
      <trkpt lat="45.49424" lon="6.92162">
        <ele>1903.6</ele>
        <time>2021-05-04T08:37:15Z</time>
      </trkpt>
      <trkpt lat="45.49425" lon="6.92165">
        <ele>1903.6</ele>
        <time>2021-05-04T08:37:17Z</time>
      </trkpt>
      <trkpt lat="45.49428" lon="6.92168">
        <ele>1903.6</ele>
        <time>2021-05-04T08:37:19Z</time>
      </trkpt>
      <trkpt lat="45.49432" lon="6.92169">
        <ele>1903.6</ele>
        <time>2021-05-04T08:37:21Z</time>
      </trkpt>
      <trkpt lat="45.49432" lon="6.92172">
        <ele>1903.6</ele>
        <time>2021-05-04T08:37:22Z</time>
      </trkpt>
      <trkpt lat="45.49432" lon="6.92176">
        <ele>1903.6</ele>
        <time>2021-05-04T08:37:23Z</time>
      </trkpt>
      <trkpt lat="45.49432" lon="6.92179">
        <ele>1903.6</ele>
        <time>2021-05-04T08:37:24Z</time>
      </trkpt>
      <trkpt lat="45.49434" lon="6.92184">
        <ele>1903.6</ele>
        <time>2021-05-04T08:37:26Z</time>
      </trkpt>
      <trkpt lat="45.49435" lon="6.92188">
        <ele>1903.6</ele>
        <time>2021-05-04T08:37:27Z</time>
      </trkpt>
      <trkpt lat="45.49436" lon="6.92192">
        <ele>1903.6</ele>
        <time>2021-05-04T08:37:28Z</time>
      </trkpt>
      <trkpt lat="45.49437" lon="6.92195">
        <ele>1903.6</ele>
        <time>2021-05-04T08:37:29Z</time>
      </trkpt>
      <trkpt lat="45.4944" lon="6.92199">
        <ele>1876.6</ele>
        <time>2021-05-04T08:37:30Z</time>
      </trkpt>
      <trkpt lat="45.49444" lon="6.92202">
        <ele>1876.6</ele>
        <time>2021-05-04T08:37:31Z</time>
      </trkpt>
      <trkpt lat="45.49449" lon="6.92204">
        <ele>1876.6</ele>
        <time>2021-05-04T08:37:32Z</time>
      </trkpt>
      <trkpt lat="45.49455" lon="6.92204">
        <ele>1876.6</ele>
        <time>2021-05-04T08:37:33Z</time>
      </trkpt>
      <trkpt lat="45.49462" lon="6.92204">
        <ele>1876.6</ele>
        <time>2021-05-04T08:37:34Z</time>
      </trkpt>
      <trkpt lat="45.49469" lon="6.92203">
        <ele>1876.6</ele>
        <time>2021-05-04T08:37:35Z</time>
      </trkpt>
      <trkpt lat="45.49478" lon="6.92202">
        <ele>1876.6</ele>
        <time>2021-05-04T08:37:36Z</time>
      </trkpt>
      <trkpt lat="45.49484" lon="6.92201">
        <ele>1876.6</ele>
        <time>2021-05-04T08:37:37Z</time>
      </trkpt>
      <trkpt lat="45.49492" lon="6.922">
        <ele>1876.6</ele>
        <time>2021-05-04T08:37:38Z</time>
      </trkpt>
      <trkpt lat="45.49498" lon="6.92198">
        <ele>1876.6</ele>
        <time>2021-05-04T08:37:39Z</time>
      </trkpt>
      <trkpt lat="45.49502" lon="6.92197">
        <ele>1876</ele>
        <time>2021-05-04T08:37:40Z</time>
      </trkpt>
      <trkpt lat="45.49508" lon="6.92196">
        <ele>1876</ele>
        <time>2021-05-04T08:37:41Z</time>
      </trkpt>
      <trkpt lat="45.49514" lon="6.92194">
        <ele>1876</ele>
        <time>2021-05-04T08:37:42Z</time>
      </trkpt>
      <trkpt lat="45.49519" lon="6.92193">
        <ele>1876</ele>
        <time>2021-05-04T08:37:43Z</time>
      </trkpt>
      <trkpt lat="45.49525" lon="6.92192">
        <ele>1876</ele>
        <time>2021-05-04T08:37:44Z</time>
      </trkpt>
      <trkpt lat="45.49531" lon="6.9219">
        <ele>1876</ele>
        <time>2021-05-04T08:37:45Z</time>
      </trkpt>
      <trkpt lat="45.49536" lon="6.92188">
        <ele>1876</ele>
        <time>2021-05-04T08:37:46Z</time>
      </trkpt>
      <trkpt lat="45.49541" lon="6.92188">
        <ele>1876</ele>
        <time>2021-05-04T08:37:47Z</time>
      </trkpt>
      <trkpt lat="45.49547" lon="6.92187">
        <ele>1876</ele>
        <time>2021-05-04T08:37:48Z</time>
      </trkpt>
      <trkpt lat="45.49553" lon="6.92187">
        <ele>1876</ele>
        <time>2021-05-04T08:37:49Z</time>
      </trkpt>
      <trkpt lat="45.49559" lon="6.92186">
        <ele>1876.4</ele>
        <time>2021-05-04T08:37:50Z</time>
      </trkpt>
      <trkpt lat="45.49564" lon="6.92186">
        <ele>1876.4</ele>
        <time>2021-05-04T08:37:51Z</time>
      </trkpt>
      <trkpt lat="45.49569" lon="6.92185">
        <ele>1876.4</ele>
        <time>2021-05-04T08:37:52Z</time>
      </trkpt>
      <trkpt lat="45.49575" lon="6.92186">
        <ele>1876.4</ele>
        <time>2021-05-04T08:37:53Z</time>
      </trkpt>
      <trkpt lat="45.4958" lon="6.92186">
        <ele>1876.4</ele>
        <time>2021-05-04T08:37:54Z</time>
      </trkpt>
      <trkpt lat="45.49583" lon="6.92186">
        <ele>1876.4</ele>
        <time>2021-05-04T08:37:55Z</time>
      </trkpt>
      <trkpt lat="45.49588" lon="6.92185">
        <ele>1876.4</ele>
        <time>2021-05-04T08:37:56Z</time>
      </trkpt>
      <trkpt lat="45.49591" lon="6.92184">
        <ele>1876.4</ele>
        <time>2021-05-04T08:37:57Z</time>
      </trkpt>
      <trkpt lat="45.49595" lon="6.92183">
        <ele>1876.4</ele>
        <time>2021-05-04T08:37:58Z</time>
      </trkpt>
      <trkpt lat="45.49599" lon="6.92182">
        <ele>1876.4</ele>
        <time>2021-05-04T08:37:59Z</time>
      </trkpt>
      <trkpt lat="45.49603" lon="6.92181">
        <ele>1873</ele>
        <time>2021-05-04T08:38:00Z</time>
      </trkpt>
      <trkpt lat="45.49606" lon="6.9218">
        <ele>1873</ele>
        <time>2021-05-04T08:38:01Z</time>
      </trkpt>
      <trkpt lat="45.49609" lon="6.9218">
        <ele>1873</ele>
        <time>2021-05-04T08:38:02Z</time>
      </trkpt>
      <trkpt lat="45.49612" lon="6.9218">
        <ele>1873</ele>
        <time>2021-05-04T08:38:03Z</time>
      </trkpt>
      <trkpt lat="45.49615" lon="6.9218">
        <ele>1873</ele>
        <time>2021-05-04T08:38:04Z</time>
      </trkpt>
      <trkpt lat="45.49617" lon="6.92179">
        <ele>1873</ele>
        <time>2021-05-04T08:38:05Z</time>
      </trkpt>
      <trkpt lat="45.4962" lon="6.92177">
        <ele>1873</ele>
        <time>2021-05-04T08:38:07Z</time>
      </trkpt>
      <trkpt lat="45.49618" lon="6.92179">
        <ele>1873</ele>
        <time>2021-05-04T08:39:11Z</time>
      </trkpt>
      <trkpt lat="45.49619" lon="6.92183">
        <ele>1873</ele>
        <time>2021-05-04T08:39:13Z</time>
      </trkpt>
      <trkpt lat="45.49621" lon="6.92187">
        <ele>1873</ele>
        <time>2021-05-04T08:39:15Z</time>
      </trkpt>
      <trkpt lat="45.49622" lon="6.92191">
        <ele>1873</ele>
        <time>2021-05-04T08:39:17Z</time>
      </trkpt>
      <trkpt lat="45.49623" lon="6.92193">
        <ele>1873</ele>
        <time>2021-05-04T08:39:18Z</time>
      </trkpt>
      <trkpt lat="45.49624" lon="6.92197">
        <ele>1832.2</ele>
        <time>2021-05-04T08:39:20Z</time>
      </trkpt>
      <trkpt lat="45.49624" lon="6.92201">
        <ele>1832.2</ele>
        <time>2021-05-04T08:39:22Z</time>
      </trkpt>
      <trkpt lat="45.49625" lon="6.92205">
        <ele>1832.2</ele>
        <time>2021-05-04T08:39:24Z</time>
      </trkpt>
      <trkpt lat="45.49626" lon="6.92208">
        <ele>1832.2</ele>
        <time>2021-05-04T08:39:26Z</time>
      </trkpt>
      <trkpt lat="45.49626" lon="6.92212">
        <ele>1832.2</ele>
        <time>2021-05-04T08:39:28Z</time>
      </trkpt>
      <trkpt lat="45.49628" lon="6.92216">
        <ele>1830</ele>
        <time>2021-05-04T08:39:30Z</time>
      </trkpt>
      <trkpt lat="45.49628" lon="6.92219">
        <ele>1830</ele>
        <time>2021-05-04T08:39:32Z</time>
      </trkpt>
      <trkpt lat="45.49627" lon="6.92223">
        <ele>1830</ele>
        <time>2021-05-04T08:39:34Z</time>
      </trkpt>
      <trkpt lat="45.49626" lon="6.92227">
        <ele>1830</ele>
        <time>2021-05-04T08:39:36Z</time>
      </trkpt>
      <trkpt lat="45.49626" lon="6.92231">
        <ele>1830</ele>
        <time>2021-05-04T08:39:38Z</time>
      </trkpt>
      <trkpt lat="45.49625" lon="6.92235">
        <ele>1830.2</ele>
        <time>2021-05-04T08:39:40Z</time>
      </trkpt>
      <trkpt lat="45.49624" lon="6.92239">
        <ele>1830.2</ele>
        <time>2021-05-04T08:39:42Z</time>
      </trkpt>
      <trkpt lat="45.49623" lon="6.92242">
        <ele>1830.2</ele>
        <time>2021-05-04T08:39:44Z</time>
      </trkpt>
      <trkpt lat="45.49622" lon="6.92245">
        <ele>1830.2</ele>
        <time>2021-05-04T08:39:46Z</time>
      </trkpt>
      <trkpt lat="45.49621" lon="6.92248">
        <ele>1830.2</ele>
        <time>2021-05-04T08:39:48Z</time>
      </trkpt>
      <trkpt lat="45.49621" lon="6.92251">
        <ele>1830.8</ele>
        <time>2021-05-04T08:39:50Z</time>
      </trkpt>
      <trkpt lat="45.4962" lon="6.92255">
        <ele>1830.8</ele>
        <time>2021-05-04T08:39:52Z</time>
      </trkpt>
      <trkpt lat="45.49619" lon="6.92259">
        <ele>1830.8</ele>
        <time>2021-05-04T08:39:54Z</time>
      </trkpt>
      <trkpt lat="45.49618" lon="6.92262">
        <ele>1830.8</ele>
        <time>2021-05-04T08:39:56Z</time>
      </trkpt>
      <trkpt lat="45.49617" lon="6.92266">
        <ele>1830.8</ele>
        <time>2021-05-04T08:39:58Z</time>
      </trkpt>
      <trkpt lat="45.49615" lon="6.92269">
        <ele>1830.8</ele>
        <time>2021-05-04T08:40:00Z</time>
      </trkpt>
      <trkpt lat="45.49614" lon="6.92272">
        <ele>1830.8</ele>
        <time>2021-05-04T08:40:02Z</time>
      </trkpt>
      <trkpt lat="45.49613" lon="6.92275">
        <ele>1830.8</ele>
        <time>2021-05-04T08:40:04Z</time>
      </trkpt>
      <trkpt lat="45.49612" lon="6.92278">
        <ele>1830.8</ele>
        <time>2021-05-04T08:40:06Z</time>
      </trkpt>
      <trkpt lat="45.49611" lon="6.92281">
        <ele>1830.8</ele>
        <time>2021-05-04T08:40:08Z</time>
      </trkpt>
      <trkpt lat="45.49609" lon="6.92284">
        <ele>1831.2</ele>
        <time>2021-05-04T08:40:10Z</time>
      </trkpt>
      <trkpt lat="45.49608" lon="6.92288">
        <ele>1831.2</ele>
        <time>2021-05-04T08:40:12Z</time>
      </trkpt>
      <trkpt lat="45.49606" lon="6.9229">
        <ele>1831.2</ele>
        <time>2021-05-04T08:40:14Z</time>
      </trkpt>
      <trkpt lat="45.49605" lon="6.92294">
        <ele>1831.2</ele>
        <time>2021-05-04T08:40:16Z</time>
      </trkpt>
      <trkpt lat="45.49603" lon="6.92297">
        <ele>1831.2</ele>
        <time>2021-05-04T08:40:18Z</time>
      </trkpt>
      <trkpt lat="45.49602" lon="6.923">
        <ele>1832.4</ele>
        <time>2021-05-04T08:40:20Z</time>
      </trkpt>
      <trkpt lat="45.49601" lon="6.92303">
        <ele>1832.4</ele>
        <time>2021-05-04T08:40:22Z</time>
      </trkpt>
      <trkpt lat="45.49599" lon="6.92306">
        <ele>1832.4</ele>
        <time>2021-05-04T08:40:24Z</time>
      </trkpt>
      <trkpt lat="45.49598" lon="6.92309">
        <ele>1832.4</ele>
        <time>2021-05-04T08:40:26Z</time>
      </trkpt>
      <trkpt lat="45.49599" lon="6.92311">
        <ele>1832.4</ele>
        <time>2021-05-04T08:40:29Z</time>
      </trkpt>
      <trkpt lat="45.49601" lon="6.92312">
        <ele>1832.4</ele>
        <time>2021-05-04T08:40:31Z</time>
      </trkpt>
      <trkpt lat="45.49604" lon="6.92313">
        <ele>1832.4</ele>
        <time>2021-05-04T08:40:33Z</time>
      </trkpt>
      <trkpt lat="45.49607" lon="6.92314">
        <ele>1832.4</ele>
        <time>2021-05-04T08:40:35Z</time>
      </trkpt>
      <trkpt lat="45.49609" lon="6.92314">
        <ele>1832.4</ele>
        <time>2021-05-04T08:40:37Z</time>
      </trkpt>
      <trkpt lat="45.49612" lon="6.92315">
        <ele>1832.4</ele>
        <time>2021-05-04T08:40:39Z</time>
      </trkpt>
      <trkpt lat="45.49614" lon="6.92315">
        <ele>1832.4</ele>
        <time>2021-05-04T08:40:41Z</time>
      </trkpt>
      <trkpt lat="45.49617" lon="6.92314">
        <ele>1832.4</ele>
        <time>2021-05-04T08:40:43Z</time>
      </trkpt>
      <trkpt lat="45.4962" lon="6.92313">
        <ele>1832.4</ele>
        <time>2021-05-04T08:40:45Z</time>
      </trkpt>
      <trkpt lat="45.49622" lon="6.92313">
        <ele>1832.4</ele>
        <time>2021-05-04T08:40:46Z</time>
      </trkpt>
      <trkpt lat="45.49625" lon="6.92314">
        <ele>1832.4</ele>
        <time>2021-05-04T08:40:48Z</time>
      </trkpt>
      <trkpt lat="45.49627" lon="6.92315">
        <ele>1832.4</ele>
        <time>2021-05-04T08:40:49Z</time>
      </trkpt>
      <trkpt lat="45.49627" lon="6.92319">
        <ele>1832.4</ele>
        <time>2021-05-04T08:40:51Z</time>
      </trkpt>
      <trkpt lat="45.49625" lon="6.92323">
        <ele>1832.4</ele>
        <time>2021-05-04T08:40:53Z</time>
      </trkpt>
      <trkpt lat="45.49623" lon="6.92326">
        <ele>1832.4</ele>
        <time>2021-05-04T08:40:55Z</time>
      </trkpt>
      <trkpt lat="45.49621" lon="6.92329">
        <ele>1832.4</ele>
        <time>2021-05-04T08:40:57Z</time>
      </trkpt>
      <trkpt lat="45.49619" lon="6.92332">
        <ele>1832.4</ele>
        <time>2021-05-04T08:40:59Z</time>
      </trkpt>
      <trkpt lat="45.49617" lon="6.92334">
        <ele>1832.4</ele>
        <time>2021-05-04T08:41:01Z</time>
      </trkpt>
      <trkpt lat="45.49615" lon="6.92338">
        <ele>1832.4</ele>
        <time>2021-05-04T08:41:03Z</time>
      </trkpt>
      <trkpt lat="45.49613" lon="6.9234">
        <ele>1832.4</ele>
        <time>2021-05-04T08:41:05Z</time>
      </trkpt>
      <trkpt lat="45.49611" lon="6.92342">
        <ele>1832.4</ele>
        <time>2021-05-04T08:41:07Z</time>
      </trkpt>
      <trkpt lat="45.49609" lon="6.92345">
        <ele>1832.4</ele>
        <time>2021-05-04T08:41:09Z</time>
      </trkpt>
      <trkpt lat="45.49607" lon="6.92348">
        <ele>1832.4</ele>
        <time>2021-05-04T08:41:11Z</time>
      </trkpt>
      <trkpt lat="45.49605" lon="6.9235">
        <ele>1832.4</ele>
        <time>2021-05-04T08:41:13Z</time>
      </trkpt>
      <trkpt lat="45.49604" lon="6.92353">
        <ele>1832.4</ele>
        <time>2021-05-04T08:41:15Z</time>
      </trkpt>
      <trkpt lat="45.49603" lon="6.92356">
        <ele>1832.4</ele>
        <time>2021-05-04T08:41:17Z</time>
      </trkpt>
      <trkpt lat="45.49602" lon="6.9236">
        <ele>1832.4</ele>
        <time>2021-05-04T08:41:19Z</time>
      </trkpt>
      <trkpt lat="45.496" lon="6.92363">
        <ele>1832.4</ele>
        <time>2021-05-04T08:41:21Z</time>
      </trkpt>
      <trkpt lat="45.49598" lon="6.92366">
        <ele>1832.4</ele>
        <time>2021-05-04T08:41:23Z</time>
      </trkpt>
      <trkpt lat="45.49596" lon="6.92368">
        <ele>1832.4</ele>
        <time>2021-05-04T08:41:25Z</time>
      </trkpt>
      <trkpt lat="45.49595" lon="6.92371">
        <ele>1832.4</ele>
        <time>2021-05-04T08:41:27Z</time>
      </trkpt>
      <trkpt lat="45.49593" lon="6.92376">
        <ele>1832.4</ele>
        <time>2021-05-04T08:41:29Z</time>
      </trkpt>
      <trkpt lat="45.49591" lon="6.92379">
        <ele>1832.4</ele>
        <time>2021-05-04T08:41:31Z</time>
      </trkpt>
      <trkpt lat="45.49589" lon="6.92381">
        <ele>1832.4</ele>
        <time>2021-05-04T08:41:33Z</time>
      </trkpt>
      <trkpt lat="45.49587" lon="6.92382">
        <ele>1832.4</ele>
        <time>2021-05-04T08:41:34Z</time>
      </trkpt>
      <trkpt lat="45.49585" lon="6.92384">
        <ele>1832.4</ele>
        <time>2021-05-04T08:41:36Z</time>
      </trkpt>
      <trkpt lat="45.49583" lon="6.92386">
        <ele>1832.4</ele>
        <time>2021-05-04T08:41:38Z</time>
      </trkpt>
      <trkpt lat="45.4958" lon="6.92388">
        <ele>1811.8</ele>
        <time>2021-05-04T08:41:40Z</time>
      </trkpt>
      <trkpt lat="45.49579" lon="6.9239">
        <ele>1811.8</ele>
        <time>2021-05-04T08:41:42Z</time>
      </trkpt>
      <trkpt lat="45.49578" lon="6.92393">
        <ele>1811.8</ele>
        <time>2021-05-04T08:41:44Z</time>
      </trkpt>
      <trkpt lat="45.49577" lon="6.92395">
        <ele>1811.8</ele>
        <time>2021-05-04T08:41:46Z</time>
      </trkpt>
      <trkpt lat="45.49575" lon="6.92398">
        <ele>1811.8</ele>
        <time>2021-05-04T08:41:48Z</time>
      </trkpt>
      <trkpt lat="45.49574" lon="6.92401">
        <ele>1808.6</ele>
        <time>2021-05-04T08:41:50Z</time>
      </trkpt>
      <trkpt lat="45.49573" lon="6.92404">
        <ele>1808.6</ele>
        <time>2021-05-04T08:41:52Z</time>
      </trkpt>
      <trkpt lat="45.49573" lon="6.92408">
        <ele>1808.6</ele>
        <time>2021-05-04T08:41:54Z</time>
      </trkpt>
      <trkpt lat="45.49573" lon="6.92412">
        <ele>1808.6</ele>
        <time>2021-05-04T08:41:56Z</time>
      </trkpt>
      <trkpt lat="45.49572" lon="6.92415">
        <ele>1808.6</ele>
        <time>2021-05-04T08:41:58Z</time>
      </trkpt>
      <trkpt lat="45.49571" lon="6.92418">
        <ele>1805.4</ele>
        <time>2021-05-04T08:42:00Z</time>
      </trkpt>
      <trkpt lat="45.4957" lon="6.92422">
        <ele>1805.4</ele>
        <time>2021-05-04T08:42:02Z</time>
      </trkpt>
      <trkpt lat="45.49568" lon="6.92425">
        <ele>1805.4</ele>
        <time>2021-05-04T08:42:04Z</time>
      </trkpt>
      <trkpt lat="45.49567" lon="6.92426">
        <ele>1805.4</ele>
        <time>2021-05-04T08:42:05Z</time>
      </trkpt>
      <trkpt lat="45.49565" lon="6.9243">
        <ele>1805.4</ele>
        <time>2021-05-04T08:42:07Z</time>
      </trkpt>
      <trkpt lat="45.49563" lon="6.92433">
        <ele>1805.4</ele>
        <time>2021-05-04T08:42:09Z</time>
      </trkpt>
      <trkpt lat="45.49562" lon="6.92436">
        <ele>1805.4</ele>
        <time>2021-05-04T08:42:11Z</time>
      </trkpt>
      <trkpt lat="45.4956" lon="6.9244">
        <ele>1805.4</ele>
        <time>2021-05-04T08:42:13Z</time>
      </trkpt>
      <trkpt lat="45.49559" lon="6.92443">
        <ele>1805.4</ele>
        <time>2021-05-04T08:42:15Z</time>
      </trkpt>
      <trkpt lat="45.49557" lon="6.92447">
        <ele>1805.4</ele>
        <time>2021-05-04T08:42:17Z</time>
      </trkpt>
      <trkpt lat="45.49556" lon="6.92451">
        <ele>1805.4</ele>
        <time>2021-05-04T08:42:19Z</time>
      </trkpt>
      <trkpt lat="45.49554" lon="6.92454">
        <ele>1805.4</ele>
        <time>2021-05-04T08:42:21Z</time>
      </trkpt>
      <trkpt lat="45.49553" lon="6.92457">
        <ele>1805.4</ele>
        <time>2021-05-04T08:42:23Z</time>
      </trkpt>
      <trkpt lat="45.49551" lon="6.9246">
        <ele>1805.4</ele>
        <time>2021-05-04T08:42:25Z</time>
      </trkpt>
      <trkpt lat="45.49549" lon="6.92463">
        <ele>1805.4</ele>
        <time>2021-05-04T08:42:27Z</time>
      </trkpt>
      <trkpt lat="45.49548" lon="6.92467">
        <ele>1805.4</ele>
        <time>2021-05-04T08:42:29Z</time>
      </trkpt>
      <trkpt lat="45.49546" lon="6.9247">
        <ele>1805.4</ele>
        <time>2021-05-04T08:42:31Z</time>
      </trkpt>
      <trkpt lat="45.49545" lon="6.92472">
        <ele>1805.4</ele>
        <time>2021-05-04T08:42:33Z</time>
      </trkpt>
      <trkpt lat="45.49543" lon="6.92476">
        <ele>1805.4</ele>
        <time>2021-05-04T08:42:35Z</time>
      </trkpt>
      <trkpt lat="45.49543" lon="6.92479">
        <ele>1805.4</ele>
        <time>2021-05-04T08:42:37Z</time>
      </trkpt>
      <trkpt lat="45.49541" lon="6.92482">
        <ele>1805.4</ele>
        <time>2021-05-04T08:42:39Z</time>
      </trkpt>
      <trkpt lat="45.4954" lon="6.92486">
        <ele>1805.4</ele>
        <time>2021-05-04T08:42:41Z</time>
      </trkpt>
      <trkpt lat="45.49538" lon="6.92489">
        <ele>1805.4</ele>
        <time>2021-05-04T08:42:43Z</time>
      </trkpt>
      <trkpt lat="45.49538" lon="6.92492">
        <ele>1805.4</ele>
        <time>2021-05-04T08:42:45Z</time>
      </trkpt>
      <trkpt lat="45.49537" lon="6.92496">
        <ele>1805.4</ele>
        <time>2021-05-04T08:42:47Z</time>
      </trkpt>
      <trkpt lat="45.49537" lon="6.92501">
        <ele>1805.4</ele>
        <time>2021-05-04T08:42:49Z</time>
      </trkpt>
      <trkpt lat="45.49538" lon="6.92505">
        <ele>1805.4</ele>
        <time>2021-05-04T08:42:51Z</time>
      </trkpt>
      <trkpt lat="45.49539" lon="6.92509">
        <ele>1805.4</ele>
        <time>2021-05-04T08:42:53Z</time>
      </trkpt>
      <trkpt lat="45.49539" lon="6.92512">
        <ele>1805.4</ele>
        <time>2021-05-04T08:42:55Z</time>
      </trkpt>
      <trkpt lat="45.4954" lon="6.92516">
        <ele>1805.4</ele>
        <time>2021-05-04T08:42:57Z</time>
      </trkpt>
      <trkpt lat="45.49541" lon="6.9252">
        <ele>1805.4</ele>
        <time>2021-05-04T08:42:59Z</time>
      </trkpt>
      <trkpt lat="45.49541" lon="6.92524">
        <ele>1805.4</ele>
        <time>2021-05-04T08:43:01Z</time>
      </trkpt>
      <trkpt lat="45.49541" lon="6.92528">
        <ele>1805.4</ele>
        <time>2021-05-04T08:43:03Z</time>
      </trkpt>
      <trkpt lat="45.49541" lon="6.92532">
        <ele>1805.4</ele>
        <time>2021-05-04T08:43:05Z</time>
      </trkpt>
      <trkpt lat="45.49542" lon="6.92536">
        <ele>1805.4</ele>
        <time>2021-05-04T08:43:07Z</time>
      </trkpt>
      <trkpt lat="45.49541" lon="6.92541">
        <ele>1805.4</ele>
        <time>2021-05-04T08:43:09Z</time>
      </trkpt>
      <trkpt lat="45.49541" lon="6.92544">
        <ele>1805.4</ele>
        <time>2021-05-04T08:43:11Z</time>
      </trkpt>
      <trkpt lat="45.4954" lon="6.92548">
        <ele>1805.4</ele>
        <time>2021-05-04T08:43:13Z</time>
      </trkpt>
      <trkpt lat="45.49538" lon="6.92552">
        <ele>1805.4</ele>
        <time>2021-05-04T08:43:15Z</time>
      </trkpt>
      <trkpt lat="45.49537" lon="6.92556">
        <ele>1805.4</ele>
        <time>2021-05-04T08:43:17Z</time>
      </trkpt>
      <trkpt lat="45.49535" lon="6.92559">
        <ele>1805.4</ele>
        <time>2021-05-04T08:43:19Z</time>
      </trkpt>
      <trkpt lat="45.49534" lon="6.92562">
        <ele>1805.4</ele>
        <time>2021-05-04T08:43:21Z</time>
      </trkpt>
      <trkpt lat="45.49532" lon="6.92566">
        <ele>1805.4</ele>
        <time>2021-05-04T08:43:23Z</time>
      </trkpt>
      <trkpt lat="45.49531" lon="6.92569">
        <ele>1805.4</ele>
        <time>2021-05-04T08:43:25Z</time>
      </trkpt>
      <trkpt lat="45.49529" lon="6.92572">
        <ele>1805.4</ele>
        <time>2021-05-04T08:43:27Z</time>
      </trkpt>
      <trkpt lat="45.49528" lon="6.92576">
        <ele>1805.4</ele>
        <time>2021-05-04T08:43:29Z</time>
      </trkpt>
      <trkpt lat="45.49527" lon="6.92579">
        <ele>1795.8</ele>
        <time>2021-05-04T08:43:30Z</time>
      </trkpt>
      <trkpt lat="45.49526" lon="6.92582">
        <ele>1795.8</ele>
        <time>2021-05-04T08:43:32Z</time>
      </trkpt>
      <trkpt lat="45.49525" lon="6.92586">
        <ele>1795.8</ele>
        <time>2021-05-04T08:43:35Z</time>
      </trkpt>
      <trkpt lat="45.49524" lon="6.92589">
        <ele>1795.8</ele>
        <time>2021-05-04T08:43:37Z</time>
      </trkpt>
      <trkpt lat="45.49524" lon="6.92592">
        <ele>1795.8</ele>
        <time>2021-05-04T08:43:39Z</time>
      </trkpt>
      <trkpt lat="45.49524" lon="6.92595">
        <ele>1795.8</ele>
        <time>2021-05-04T08:43:41Z</time>
      </trkpt>
      <trkpt lat="45.49523" lon="6.92599">
        <ele>1795.8</ele>
        <time>2021-05-04T08:43:43Z</time>
      </trkpt>
      <trkpt lat="45.49522" lon="6.92602">
        <ele>1795.8</ele>
        <time>2021-05-04T08:43:45Z</time>
      </trkpt>
      <trkpt lat="45.49521" lon="6.92606">
        <ele>1795.8</ele>
        <time>2021-05-04T08:43:47Z</time>
      </trkpt>
      <trkpt lat="45.49521" lon="6.92609">
        <ele>1795.8</ele>
        <time>2021-05-04T08:43:49Z</time>
      </trkpt>
      <trkpt lat="45.4952" lon="6.92613">
        <ele>1795.8</ele>
        <time>2021-05-04T08:43:51Z</time>
      </trkpt>
      <trkpt lat="45.49519" lon="6.92617">
        <ele>1795.8</ele>
        <time>2021-05-04T08:43:53Z</time>
      </trkpt>
      <trkpt lat="45.49519" lon="6.9262">
        <ele>1795.8</ele>
        <time>2021-05-04T08:43:55Z</time>
      </trkpt>
      <trkpt lat="45.49517" lon="6.92623">
        <ele>1795.8</ele>
        <time>2021-05-04T08:43:57Z</time>
      </trkpt>
      <trkpt lat="45.49517" lon="6.92627">
        <ele>1795.8</ele>
        <time>2021-05-04T08:43:59Z</time>
      </trkpt>
      <trkpt lat="45.49515" lon="6.9263">
        <ele>1795.8</ele>
        <time>2021-05-04T08:44:01Z</time>
      </trkpt>
      <trkpt lat="45.49514" lon="6.92634">
        <ele>1795.8</ele>
        <time>2021-05-04T08:44:03Z</time>
      </trkpt>
      <trkpt lat="45.49514" lon="6.92637">
        <ele>1795.8</ele>
        <time>2021-05-04T08:44:05Z</time>
      </trkpt>
      <trkpt lat="45.49513" lon="6.92641">
        <ele>1795.8</ele>
        <time>2021-05-04T08:44:07Z</time>
      </trkpt>
      <trkpt lat="45.49511" lon="6.92644">
        <ele>1795.8</ele>
        <time>2021-05-04T08:44:09Z</time>
      </trkpt>
      <trkpt lat="45.4951" lon="6.92647">
        <ele>1795.8</ele>
        <time>2021-05-04T08:44:11Z</time>
      </trkpt>
      <trkpt lat="45.49508" lon="6.9265">
        <ele>1795.8</ele>
        <time>2021-05-04T08:44:13Z</time>
      </trkpt>
      <trkpt lat="45.49506" lon="6.92652">
        <ele>1795.8</ele>
        <time>2021-05-04T08:44:15Z</time>
      </trkpt>
      <trkpt lat="45.49505" lon="6.92655">
        <ele>1795.8</ele>
        <time>2021-05-04T08:44:23Z</time>
      </trkpt>
      <trkpt lat="45.49502" lon="6.92655">
        <ele>1795.8</ele>
        <time>2021-05-04T08:44:24Z</time>
      </trkpt>
      <trkpt lat="45.495" lon="6.92658">
        <ele>1795.8</ele>
        <time>2021-05-04T08:44:26Z</time>
      </trkpt>
      <trkpt lat="45.49498" lon="6.92661">
        <ele>1795.8</ele>
        <time>2021-05-04T08:44:28Z</time>
      </trkpt>
      <trkpt lat="45.49497" lon="6.92664">
        <ele>1795.6</ele>
        <time>2021-05-04T08:44:30Z</time>
      </trkpt>
      <trkpt lat="45.49498" lon="6.92667">
        <ele>1795.6</ele>
        <time>2021-05-04T08:44:32Z</time>
      </trkpt>
      <trkpt lat="45.49497" lon="6.9267">
        <ele>1795.6</ele>
        <time>2021-05-04T08:44:34Z</time>
      </trkpt>
      <trkpt lat="45.49494" lon="6.92673">
        <ele>1795.6</ele>
        <time>2021-05-04T08:44:36Z</time>
      </trkpt>
      <trkpt lat="45.49493" lon="6.92675">
        <ele>1795.6</ele>
        <time>2021-05-04T08:44:37Z</time>
      </trkpt>
      <trkpt lat="45.49491" lon="6.92676">
        <ele>1795.6</ele>
        <time>2021-05-04T08:44:38Z</time>
      </trkpt>
      <trkpt lat="45.4949" lon="6.92679">
        <ele>1795.6</ele>
        <time>2021-05-04T08:44:39Z</time>
      </trkpt>
      <trkpt lat="45.49488" lon="6.92683">
        <ele>1795.6</ele>
        <time>2021-05-04T08:44:41Z</time>
      </trkpt>
      <trkpt lat="45.49486" lon="6.92685">
        <ele>1795.6</ele>
        <time>2021-05-04T08:44:42Z</time>
      </trkpt>
      <trkpt lat="45.49484" lon="6.92687">
        <ele>1795.6</ele>
        <time>2021-05-04T08:44:43Z</time>
      </trkpt>
      <trkpt lat="45.49483" lon="6.92689">
        <ele>1795.6</ele>
        <time>2021-05-04T08:44:44Z</time>
      </trkpt>
      <trkpt lat="45.49481" lon="6.9269">
        <ele>1795.6</ele>
        <time>2021-05-04T08:44:45Z</time>
      </trkpt>
      <trkpt lat="45.49478" lon="6.92691">
        <ele>1795.6</ele>
        <time>2021-05-04T08:44:47Z</time>
      </trkpt>
      <trkpt lat="45.49475" lon="6.92693">
        <ele>1795.6</ele>
        <time>2021-05-04T08:44:49Z</time>
      </trkpt>
      <trkpt lat="45.49473" lon="6.92696">
        <ele>1795.6</ele>
        <time>2021-05-04T08:44:51Z</time>
      </trkpt>
      <trkpt lat="45.49472" lon="6.92698">
        <ele>1795.6</ele>
        <time>2021-05-04T08:44:52Z</time>
      </trkpt>
      <trkpt lat="45.49469" lon="6.92702">
        <ele>1795.6</ele>
        <time>2021-05-04T08:44:54Z</time>
      </trkpt>
      <trkpt lat="45.49467" lon="6.92705">
        <ele>1795.6</ele>
        <time>2021-05-04T08:44:56Z</time>
      </trkpt>
      <trkpt lat="45.49465" lon="6.92708">
        <ele>1795.6</ele>
        <time>2021-05-04T08:44:58Z</time>
      </trkpt>
      <trkpt lat="45.49462" lon="6.9271">
        <ele>1795.4</ele>
        <time>2021-05-04T08:45:00Z</time>
      </trkpt>
      <trkpt lat="45.4946" lon="6.92711">
        <ele>1795.4</ele>
        <time>2021-05-04T08:45:02Z</time>
      </trkpt>
      <trkpt lat="45.49458" lon="6.92712">
        <ele>1795.4</ele>
        <time>2021-05-04T08:45:04Z</time>
      </trkpt>
      <trkpt lat="45.49456" lon="6.92712">
        <ele>1795.4</ele>
        <time>2021-05-04T08:45:06Z</time>
      </trkpt>
      <trkpt lat="45.49454" lon="6.92712">
        <ele>1795.4</ele>
        <time>2021-05-04T08:45:08Z</time>
      </trkpt>
      <trkpt lat="45.49451" lon="6.92712">
        <ele>1795.4</ele>
        <time>2021-05-04T08:45:10Z</time>
      </trkpt>
      <trkpt lat="45.49449" lon="6.92713">
        <ele>1795.4</ele>
        <time>2021-05-04T08:45:12Z</time>
      </trkpt>
      <trkpt lat="45.49446" lon="6.92714">
        <ele>1795.4</ele>
        <time>2021-05-04T08:45:14Z</time>
      </trkpt>
      <trkpt lat="45.49444" lon="6.92714">
        <ele>1795.4</ele>
        <time>2021-05-04T08:45:17Z</time>
      </trkpt>
      <trkpt lat="45.49443" lon="6.92714">
        <ele>1795</ele>
        <time>2021-05-04T08:45:20Z</time>
      </trkpt>
      <trkpt lat="45.49441" lon="6.92716">
        <ele>1795</ele>
        <time>2021-05-04T08:45:23Z</time>
      </trkpt>
      <trkpt lat="45.49438" lon="6.92716">
        <ele>1795</ele>
        <time>2021-05-04T08:45:25Z</time>
      </trkpt>
      <trkpt lat="45.49439" lon="6.92713">
        <ele>1795</ele>
        <time>2021-05-04T08:45:32Z</time>
      </trkpt>
      <trkpt lat="45.49436" lon="6.92715">
        <ele>1795</ele>
        <time>2021-05-04T08:45:37Z</time>
      </trkpt>
      <trkpt lat="45.49433" lon="6.92718">
        <ele>1795</ele>
        <time>2021-05-04T08:45:39Z</time>
      </trkpt>
      <trkpt lat="45.49432" lon="6.92719">
        <ele>1795</ele>
        <time>2021-05-04T08:45:40Z</time>
      </trkpt>
      <trkpt lat="45.49428" lon="6.92721">
        <ele>1795</ele>
        <time>2021-05-04T08:45:41Z</time>
      </trkpt>
      <trkpt lat="45.49432" lon="6.92722">
        <ele>1795</ele>
        <time>2021-05-04T08:45:42Z</time>
      </trkpt>
    </trkseg>
  </trk>
</gpx>